
Distance (Route):
Temperature : 10.2°C
Humidity : 30.1%
Pressure : 0hPa| Receiver | Frames | First received | Last received |
|---|---|---|---|
| BIOWL1-15 | 644 | 2026-09-05 00:02:29 | 2026-09-05 02:18:16 |
| DM0DOS-11 | 568 | 2026-09-05 00:05:41 | 2026-09-05 02:27:49 |
| DB0UT-7 | 125 | 2026-09-04 23:52:10 | 2026-09-05 02:49:53 |
| DO1YAY-16 | 106 | 2026-09-05 00:31:49 | 2026-09-05 02:36:09 |
| AU51GT2 | 95 | 2026-09-04 23:59:09 | 2026-09-05 02:33:23 |
| BIOWL9-15 | 84 | 2026-09-05 00:02:54 | 2026-09-05 02:16:53 |
| DL1XH-west | 75 | 2026-09-05 00:49:29 | 2026-09-05 01:05:11 |
| DO9LL-15 | 44 | 2026-09-05 00:26:22 | 2026-09-05 01:59:09 |
| HARRO8 | 32 | 2026-09-05 00:29:54 | 2026-09-05 01:20:05 |
| HTAHTA | 31 | 2026-09-05 00:17:59 | 2026-09-05 01:30:57 |
| WEDDY | 24 | 2026-09-05 01:22:26 | 2026-09-05 02:03:09 |
| DJ2DS-15 | 21 | 2026-09-05 00:23:50 | 2026-09-05 01:31:46 |
| DL1XH1-15 | 14 | 2026-09-05 00:59:04 | 2026-09-05 01:03:18 |
| BIOWL7-15 | 9 | 2026-09-05 00:29:37 | 2026-09-05 01:38:48 |
| DL1ZP-14 | 6 | 2026-09-05 00:54:40 | 2026-09-05 01:02:26 |
| DB0DAN | 3 | 2026-09-05 00:50:55 | 2026-09-05 01:05:25 |
| Receiver | Date | Latitude | Longitude | Direction | Speed | Altitude | Climb | Temperature | Humidity | Pressure | Voltage | Killtimer | Uptime | BKT | XDATA |
|---|---|---|---|---|---|---|---|---|---|---|---|---|---|---|---|
| DB0UT-7 | 2026-09-05 02:49:53 | 50.22997 | 4.38896 | 98° | 38km/h | 1358m | -1.6m/s | 10.2°C | 30.1% | 0hPa | 2.7V | 00:00:00 | 00:00:00 | 00:00:00 | |
| DB0UT-7 | 2026-09-05 02:49:43 | 50.23017 | 4.38749 | 110° | 46km/h | 1374m | -1.7m/s | 10.3°C | 26.1% | 0hPa | 2.7V | 00:00:00 | 03:59:25 | 00:00:00 | |
| DB0UT-7 | 2026-09-05 02:48:40 | 50.23295 | 4.37669 | 115° | 55km/h | 1493m | -1.8m/s | 11.0°C | 12.1% | 0hPa | 2.7V | 00:00:00 | 00:00:00 | 00:00:00 | |
| DB0UT-7 | 2026-09-05 02:48:30 | 50.23341 | 4.37469 | 106° | 47km/h | 1511m | -1.8m/s | 11.0°C | 11.6% | 0hPa | 2.7V | 00:00:00 | 03:58:12 | 00:00:00 | |
| DB0UT-7 | 2026-09-05 02:48:20 | 50.23382 | 4.37292 | 118° | 53km/h | 1529m | -2.0m/s | 11.0°C | 11.2% | 0hPa | 2.7V | 00:00:00 | 00:00:00 | 00:00:00 | |
| DB0UT-7 | 2026-09-05 02:48:10 | 50.23445 | 4.37103 | 117° | 57km/h | 1548m | -1.8m/s | 10.9°C | 12.0% | 0hPa | 2.7V | 06:43:00 | 03:57:52 | 00:00:00 | |
| DB0UT-7 | 2026-09-05 02:48:00 | 50.23500 | 4.36894 | 108° | 55km/h | 1566m | -1.8m/s | 10.9°C | 13.7% | 0hPa | 2.7V | 00:00:00 | 00:00:00 | 00:00:00 | |
| DB0UT-7 | 2026-09-05 02:47:00 | 50.23741 | 4.35697 | 112° | 57km/h | 1684m | -2.3m/s | 10.8°C | 15.4% | 0hPa | 2.7V | 00:00:00 | 03:56:42 | 00:00:00 | |
| DB0UT-7 | 2026-09-05 02:46:50 | 50.23791 | 4.35485 | 108° | 60km/h | 1706m | -2.3m/s | 10.8°C | 15.1% | 0hPa | 2.7V | 00:00:00 | 00:00:00 | 00:00:00 | |
| DB0UT-7 | 2026-09-05 02:46:40 | 50.23831 | 4.35253 | 103° | 58km/h | 1729m | -2.2m/s | 10.7°C | 14.6% | 0hPa | 2.7V | 00:00:00 | 03:56:22 | 00:00:00 | |
| DB0UT-7 | 2026-09-05 02:46:30 | 50.23856 | 4.35026 | 100° | 53km/h | 1752m | -2.2m/s | 10.6°C | 14.5% | 0hPa | 2.7V | 00:00:00 | 00:00:00 | 00:00:00 | |
| DB0UT-7 | 2026-09-05 02:46:20 | 50.23890 | 4.34823 | 109° | 60km/h | 1774m | -2.5m/s | 10.5°C | 13.8% | 0hPa | 2.7V | 00:00:00 | 03:56:02 | 00:00:00 | |
| DB0UT-7 | 2026-09-05 02:46:10 | 50.23931 | 4.34590 | 102° | 58km/h | 1798m | -2.3m/s | 10.4°C | 13.4% | 0hPa | 2.7V | 06:45:00 | 00:00:00 | 00:00:00 | |
| DB0UT-7 | 2026-09-05 02:46:00 | 50.23951 | 4.34359 | 100° | 58km/h | 1821m | -2.1m/s | 10.2°C | 13.6% | 0hPa | 2.7V | 00:00:00 | 03:55:42 | 00:00:00 | |
| DB0UT-7 | 2026-09-05 02:45:15 | 50.24088 | 4.33344 | 104° | 62km/h | 1927m | -2.6m/s | 9.8°C | 8.5% | 0hPa | 2.7V | 00:00:00 | 00:00:00 | 00:00:00 | |
| DB0UT-7 | 2026-09-05 02:45:05 | 50.24112 | 4.33103 | 96° | 55km/h | 1951m | -2.7m/s | 9.6°C | 8.4% | 0hPa | 2.7V | 00:00:00 | 03:54:47 | 00:00:00 | |
| DB0UT-7 | 2026-09-05 02:44:55 | 50.24135 | 4.32891 | 106° | 60km/h | 1974m | -2.4m/s | 9.4°C | 7.4% | 0hPa | 2.7V | 00:00:00 | 00:00:00 | 00:00:00 | |
| DB0UT-7 | 2026-09-05 02:44:45 | 50.24173 | 4.32657 | 102° | 64km/h | 1999m | -2.8m/s | 9.3°C | 6.8% | 0hPa | 2.7V | 00:00:00 | 03:54:27 | 00:00:00 | |
| DB0UT-7 | 2026-09-05 02:44:34 | 50.24195 | 4.32386 | 95° | 57km/h | 2027m | -2.4m/s | 9.2°C | 5.5% | 0hPa | 2.7V | 00:00:00 | 00:00:00 | 00:00:00 | |
| DB0UT-7 | 2026-09-05 02:44:08 | 50.24271 | 4.31757 | 96° | 66km/h | 2089m | -2.4m/s | 8.8°C | 7.2% | 0hPa | 2.7V | 06:47:00 | 03:53:50 | 00:00:00 | |
| DB0UT-7 | 2026-09-05 02:43:48 | 50.24312 | 4.31273 | 104° | 68km/h | 2135m | -2.1m/s | 8.4°C | 9.7% | 0hPa | 2.7V | 00:00:00 | 00:00:00 | 00:00:00 | |
| DB0UT-7 | 2026-09-05 02:43:28 | 50.24360 | 4.30740 | 95° | 66km/h | 2179m | -2.1m/s | 8.1°C | 12.8% | 0hPa | 2.7V | 00:00:00 | 03:53:10 | 00:00:00 | |
| DB0UT-7 | 2026-09-05 02:43:08 | 50.24418 | 4.30227 | 98° | 68km/h | 2222m | -2.1m/s | 7.7°C | 14.4% | 0hPa | 2.7V | 00:00:00 | 00:00:00 | 00:00:00 | |
| DB0UT-7 | 2026-09-05 02:42:48 | 50.24453 | 4.29693 | 102° | 68km/h | 2263m | -2.0m/s | 7.3°C | 15.4% | 0hPa | 2.7V | 00:00:00 | 03:52:30 | 00:00:00 | |
| DB0UT-7 | 2026-09-05 02:41:45 | 50.24605 | 4.27969 | 99° | 73km/h | 2388m | -2.0m/s | 6.7°C | 13.2% | 0hPa | 2.7V | 00:00:00 | 00:00:00 | 00:00:00 | |
| DB0UT-7 | 2026-09-05 02:41:25 | 50.24626 | 4.27392 | 91° | 71km/h | 2427m | -1.8m/s | 6.5°C | 14.4% | 0hPa | 2.7V | 00:00:00 | 03:51:07 | 00:00:00 | |
| DB0UT-7 | 2026-09-05 02:41:05 | 50.24656 | 4.26835 | 90° | 68km/h | 2465m | -2.1m/s | 6.1°C | 26.1% | 0hPa | 2.7V | 06:50:00 | 00:00:00 | 00:00:00 | |
| DB0UT-7 | 2026-09-05 02:40:44 | 50.24669 | 4.26272 | 97° | 73km/h | 2505m | -1.8m/s | 5.8°C | 25.8% | 0hPa | 2.7V | 00:00:00 | 03:50:26 | 00:00:00 | |
| DB0UT-7 | 2026-09-05 02:40:22 | 50.24680 | 4.25660 | 96° | 71km/h | 2547m | -1.7m/s | 5.4°C | 28.0% | 0hPa | 2.7V | 00:00:00 | 00:00:00 | 00:00:00 | |
| DB0UT-7 | 2026-09-05 02:39:59 | 50.24712 | 4.25021 | 89° | 68km/h | 2591m | -1.8m/s | 5.0°C | 28.2% | 0hPa | 2.7V | 00:00:00 | 03:49:41 | 00:00:00 | |
| DB0UT-7 | 2026-09-05 02:39:39 | 50.24743 | 4.24494 | 96° | 68km/h | 2630m | -1.8m/s | 4.6°C | 30.5% | 0hPa | 2.7V | 00:00:00 | 00:00:00 | 00:00:00 | |
| DB0UT-7 | 2026-09-05 02:39:19 | 50.24768 | 4.23960 | 100° | 66km/h | 2669m | -1.9m/s | 4.3°C | 36.3% | 0hPa | 2.7V | 00:00:00 | 03:49:01 | 00:00:00 | |
| DB0UT-7 | 2026-09-05 02:38:23 | 50.24832 | 4.22443 | 96° | 69km/h | 2783m | -2.0m/s | 3.6°C | 35.6% | 0hPa | 2.7V | 00:00:00 | 00:00:00 | 00:00:00 | |
| DB0UT-7 | 2026-09-05 02:38:03 | 50.24863 | 4.21901 | 90° | 66km/h | 2825m | -2.0m/s | 3.5°C | 35.8% | 0hPa | 2.7V | 06:53:00 | 03:47:45 | 00:00:00 | |
| DB0UT-7 | 2026-09-05 02:37:43 | 50.24901 | 4.21380 | 95° | 69km/h | 2868m | -2.1m/s | 3.5°C | 30.4% | 0hPa | 2.7V | 00:00:00 | 00:00:00 | 00:00:00 | |
| DB0UT-7 | 2026-09-05 02:36:30 | 50.24987 | 4.19495 | 91° | 64km/h | 3030m | -2.2m/s | 3.3°C | 26.9% | 0hPa | 2.7V | 00:00:00 | 03:46:12 | 00:00:00 | |
| DO1YAY-16 | 2026-09-05 02:36:09 | 50.25039 | 4.18433 | 98° | 66km/h | 3128m | -2.4m/s | 2.6°C | 29.0% | -1.0hPa | 2.7V | 00:00:00 | 00:00:00 | 00:00:00 | |
| DB0UT-7 | 2026-09-05 02:36:00 | 50.25017 | 4.18739 | 91° | 58km/h | 3098m | -2.3m/s | 2.8°C | 28.1% | 0hPa | 2.7V | 00:00:00 | 00:00:00 | 00:00:00 | |
| DO1YAY-16 | 2026-09-05 02:35:38 | 50.25043 | 4.18041 | 86° | 62km/h | 3165m | -2.7m/s | 2.3°C | 29.4% | -1.0hPa | 2.7V | 00:00:00 | 00:00:00 | 00:00:00 | |
| DO1YAY-16 | 2026-09-05 02:35:06 | 50.25048 | 4.17429 | 89° | 64km/h | 3228m | -2.4m/s | 2.0°C | 25.6% | -1.0hPa | 2.7V | 00:00:00 | 00:00:00 | 00:00:00 | |
| DB0UT-7 | 2026-09-05 02:34:48 | 50.25041 | 4.17015 | 96° | 60km/h | 3272m | -2.3m/s | 1.6°C | 23.6% | 0hPa | 2.7V | 00:00:00 | 03:44:30 | 00:00:00 | |
| DO1YAY-16 | 2026-09-05 02:34:35 | 50.25042 | 4.16692 | 83° | 58km/h | 3303m | -2.5m/s | 1.3°C | 23.7% | -1.0hPa | 2.7V | 00:00:00 | 00:00:00 | 00:00:00 | |
| DB0UT-7 | 2026-09-05 02:34:18 | 50.25040 | 4.16312 | 93° | 60km/h | 3344m | -2.0m/s | 0.9°C | 24.4% | 0hPa | 2.7V | 00:00:00 | 00:00:00 | 00:00:00 | |
| DO1YAY-16 | 2026-09-05 02:34:04 | 50.25028 | 4.15965 | 81° | 57km/h | 3375m | -2.2m/s | 0.6°C | -1.0% | -1.0hPa | 2.7V | 00:00:00 | 00:00:00 | 00:00:00 | |
| AU51GT2 | 2026-09-05 02:33:23 | 50.24948 | 4.14568 | 81° | 49km/h | 3511m | -2.2m/s | 0°C | -1.0% | -1.0hPa | 2.7V | 00:00:00 | 00:00:00 | 00:00:00 | |
| AU51GT2 | 2026-09-05 02:32:52 | 50.24943 | 4.14366 | 91° | 55km/h | 3533m | -2.3m/s | 0°C | -1.0% | -1.0hPa | 2.7V | 00:00:00 | 00:00:00 | 00:00:00 | |
| DB0UT-7 | 2026-09-05 02:32:36 | 50.24949 | 4.14012 | 90° | 64km/h | 3566m | -2.1m/s | -0.9°C | 23.8% | 0hPa | 2.7V | 06:58:00 | 00:00:00 | 00:00:00 | |
| DO1YAY-16 | 2026-09-05 02:32:31 | 50.24945 | 4.13886 | 84° | 62km/h | 3575m | -1.7m/s | -1.0°C | -1.0% | -1.0hPa | 2.7V | 00:00:00 | 00:00:00 | 00:00:00 | |
| DO1YAY-16 | 2026-09-05 02:32:00 | 50.24961 | 4.13203 | 96° | 64km/h | 3640m | -2.0m/s | 0°C | -1.0% | -1.0hPa | 2.7V | 00:00:00 | 00:00:00 | 00:00:00 | |
| DB0UT-7 | 2026-09-05 02:31:23 | 50.25018 | 4.12331 | 93° | 62km/h | 3711m | -1.8m/s | -1.4°C | 10.4% | 0hPa | 2.7V | 00:00:00 | 03:41:05 | 00:00:00 | |
| DB0UT-7 | 2026-09-05 02:30:53 | 50.25088 | 4.11603 | 95° | 62km/h | 3768m | -1.8m/s | -1.5°C | 4.7% | 0hPa | 2.7V | 00:00:00 | 00:00:00 | 00:00:00 | |
| DB0UT-7 | 2026-09-05 02:29:09 | 50.25499 | 4.09030 | 110° | 71km/h | 3984m | -2.1m/s | -2.2°C | 2.8% | 0hPa | 2.7V | 00:00:00 | 00:00:00 | 00:00:00 | |
| AU51GT2 | 2026-09-05 02:28:12 | 50.25812 | 4.07214 | 103° | 62km/h | 4133m | -2.1m/s | 0°C | -1.0% | -1.0hPa | 2.7V | 00:00:00 | 00:00:00 | 00:00:00 | |
| DB0UT-7 | 2026-09-05 02:27:58 | 50.25816 | 4.07190 | 106° | 69km/h | 4136m | -2.1m/s | -3.1°C | 4.8% | 0hPa | 2.7V | 07:03:00 | 03:37:40 | 00:00:00 | |
| DM0DOS-11 | 2026-09-05 02:27:49 | 50.25877 | 4.06902 | 106° | 77km/h | 4160m | -2.6m/s | -3.3°C | 4.4% | 0hPa | 2.7V | 07:03:42 | 03:37:29 | 00:00:00 | |
| DM0DOS-11 | 2026-09-05 02:27:29 | 50.25961 | 4.06310 | 106° | 71km/h | 4211m | -2.3m/s | -3.7°C | 5.2% | 0hPa | 2.7V | 07:04:04 | 03:37:07 | 00:00:00 | |
| DB0UT-7 | 2026-09-05 02:27:28 | 50.25945 | 4.06388 | 106° | 75km/h | 4204m | -2.3m/s | -3.6°C | 5.0% | 0hPa | 2.7V | 00:00:00 | 00:00:00 | 00:00:00 | |
| DO1YAY-16 | 2026-09-05 02:26:49 | 50.26145 | 4.04652 | 102° | 75km/h | 4346m | -2.6m/s | -4.7°C | 6.4% | -1.0hPa | 2.7V | 00:00:00 | 00:00:00 | 00:00:00 | |
| DB0UT-7 | 2026-09-05 02:26:14 | 50.26180 | 4.04287 | 95° | 75km/h | 4377m | -2.6m/s | -5.0°C | 7.3% | 0hPa | 2.7V | 00:00:00 | 03:35:56 | 00:00:00 | |
| DB0UT-7 | 2026-09-05 02:25:44 | 50.26249 | 4.03399 | 92° | 73km/h | 4447m | -2.6m/s | -5.4°C | 5.7% | 0hPa | 2.7V | 00:00:00 | 00:00:00 | 00:00:00 | |
| DO1YAY-16 | 2026-09-05 02:25:16 | 50.26296 | 4.02539 | 91° | 77km/h | 4513m | -2.2m/s | -5.7°C | 3.6% | -1.0hPa | 2.7V | 00:00:00 | 00:00:00 | 00:00:00 | |
| DO1YAY-16 | 2026-09-05 02:24:45 | 50.26354 | 4.01634 | 94° | 80km/h | 4590m | -2.8m/s | -6.3°C | 0% | -1.0hPa | 2.7V | 00:00:00 | 00:00:00 | 00:00:00 | |
| DB0UT-7 | 2026-09-05 02:24:31 | 50.26371 | 4.01230 | 98° | 73km/h | 4626m | -2.8m/s | -6.6°C | 4.0% | 0hPa | 2.7V | 00:00:00 | 00:00:00 | 00:00:00 | |
| DO1YAY-16 | 2026-09-05 02:24:14 | 50.26430 | 4.00759 | 100° | 78km/h | 4671m | -3.0m/s | -7.1°C | 4.0% | -1.0hPa | 2.7V | 00:00:00 | 00:00:00 | 00:00:00 | |
| DB0UT-7 | 2026-09-05 02:24:01 | 50.26458 | 4.00386 | 101° | 75km/h | 4703m | -2.5m/s | -7.3°C | 4.3% | 0hPa | 2.7V | 00:00:00 | 03:33:43 | 00:00:00 | |
| DO1YAY-16 | 2026-09-05 02:23:43 | 50.26526 | 3.99875 | 96° | 71km/h | 4748m | -2.6m/s | -7.8°C | 4.2% | -1.0hPa | 2.7V | 00:00:00 | 00:00:00 | 00:00:00 | |
| DO1YAY-16 | 2026-09-05 02:23:12 | 50.26678 | 3.98835 | 108° | 68km/h | 4842m | -2.8m/s | -8.5°C | 4.0% | -1.0hPa | 2.7V | 00:00:00 | 00:00:00 | 00:00:00 | |
| DB0UT-7 | 2026-09-05 02:22:49 | 50.26779 | 3.98378 | 110° | 80km/h | 4889m | -3.4m/s | -8.7°C | 3.7% | 0hPa | 2.7V | 00:00:00 | 00:00:00 | 00:00:00 | |
| DO1YAY-16 | 2026-09-05 02:22:41 | 50.26842 | 3.98105 | 107° | 84km/h | 4918m | -2.7m/s | -8.4°C | 2.7% | -1.0hPa | 2.6V | 00:00:00 | 00:00:00 | 00:00:00 | |
| AU51GT2 | 2026-09-05 02:22:31 | 50.26900 | 3.97760 | 103° | 77km/h | 4944m | -2.5m/s | 0°C | -1.0% | -1.0hPa | 2.6V | 00:00:00 | 00:00:00 | 00:00:00 | |
| DB0UT-7 | 2026-09-05 02:22:19 | 50.26960 | 3.97477 | 112° | 82km/h | 4967m | -2.2m/s | -8.4°C | 4.1% | 0hPa | 2.6V | 07:09:00 | 03:32:01 | 00:00:00 | |
| DO1YAY-16 | 2026-09-05 02:22:10 | 50.27032 | 3.97209 | 110° | 80km/h | 4988m | -2.5m/s | -8.7°C | 3.9% | -1.0hPa | 2.6V | 00:00:00 | 00:00:00 | 00:00:00 | |
| DO1YAY-16 | 2026-09-05 02:21:39 | 50.27227 | 3.96231 | 111° | 82km/h | 5059m | -2.2m/s | -9.2°C | 4.1% | -1.0hPa | 2.6V | 00:00:00 | 00:00:00 | 00:00:00 | |
| DO1YAY-16 | 2026-09-05 02:21:08 | 50.27396 | 3.95210 | 106° | 78km/h | 5136m | -2.2m/s | -9.5°C | 3.5% | -1.0hPa | 2.6V | 00:00:00 | 00:00:00 | 00:00:00 | |
| DB0UT-7 | 2026-09-05 02:21:06 | 50.27408 | 3.95149 | 109° | 84km/h | 5141m | -2.2m/s | -9.4°C | 3.7% | 0hPa | 2.6V | 00:00:00 | 00:00:00 | 00:00:00 | |
| DO1YAY-16 | 2026-09-05 02:20:37 | 50.27551 | 3.94206 | 109° | 82km/h | 5209m | -2.3m/s | -9.9°C | 3.2% | -1.0hPa | 2.6V | 00:00:00 | 00:00:00 | 00:00:00 | |
| DB0UT-7 | 2026-09-05 02:20:36 | 50.27558 | 3.94175 | 109° | 88km/h | 5212m | -2.5m/s | -9.9°C | 3.4% | 0hPa | 2.6V | 00:00:00 | 03:30:18 | 00:00:00 | |
| DM0DOS-11 | 2026-09-05 02:20:18 | 50.27684 | 3.93414 | 107° | 82km/h | 5267m | -2.8m/s | -10.3°C | 3.8% | 0hPa | 2.6V | 07:11:16 | 03:29:55 | 00:00:00 | |
| DO1YAY-16 | 2026-09-05 02:20:06 | 50.27799 | 3.92803 | 101° | 84km/h | 5313m | -2.5m/s | -10.6°C | 3.8% | -1.0hPa | 2.7V | 00:00:00 | 00:00:00 | 00:00:00 | |
| DM0DOS-11 | 2026-09-05 02:19:39 | 50.27906 | 3.92271 | 109° | 91km/h | 5359m | -2.5m/s | -10.9°C | 5.2% | 0hPa | 2.7V | 07:11:51 | 03:29:20 | 00:00:00 | |
| DO1YAY-16 | 2026-09-05 02:19:35 | 50.27940 | 3.92094 | 104° | 91km/h | 5371m | -2.5m/s | -11.0°C | 6.8% | -1.0hPa | 2.6V | 00:00:00 | 00:00:00 | 00:00:00 | |
| DB0UT-7 | 2026-09-05 02:19:23 | 50.27990 | 3.91773 | 108° | 84km/h | 5399m | -2.8m/s | -11.2°C | 9.2% | 0hPa | 2.6V | 00:00:00 | 00:00:00 | 00:00:00 | |
| DM0DOS-11 | 2026-09-05 02:19:19 | 50.28033 | 3.91595 | 112° | 82km/h | 5415m | -2.4m/s | -11.4°C | 10.3% | 0hPa | 2.6V | 07:12:12 | 03:28:59 | 00:00:00 | |
| DO1YAY-16 | 2026-09-05 02:19:04 | 50.28155 | 3.91170 | 115° | 86km/h | 5456m | -2.7m/s | -11.8°C | 10.6% | -1.0hPa | 2.7V | 00:00:00 | 00:00:00 | 00:00:00 | |
| DB0UT-7 | 2026-09-05 02:18:53 | 50.28249 | 3.90855 | 115° | 110km/h | 5482m | -2.7m/s | !°C | 12.0% | 0hPa | 2.7V | 00:00:00 | 03:28:35 | 00:00:00 | |
| BIOWL1-15 | 2026-09-05 02:18:16 | 50.28654 | 3.89571 | 117° | 106km/h | 5590m | -3.3m/s | -12.2°C | 6.3% | 0hPa | 2.7V | 07:13:47 | 03:27:58 | 00:00:00 | |
| BIOWL1-15 | 2026-09-05 02:17:58 | 50.28875 | 3.88878 | 116° | 110km/h | 5642m | -2.7m/s | -12.3°C | 5.2% | 0hPa | 2.7V | 07:13:47 | 03:27:40 | 00:00:00 | |
| BIOWL1-15 | 2026-09-05 02:17:47 | 50.29005 | 3.88431 | 114° | 115km/h | 5671m | -2.8m/s | -12.4°C | 5.2% | 0hPa | 2.6V | 07:13:47 | 03:27:29 | 00:00:00 | |
| DM0DOS-11 | 2026-09-05 02:17:46 | 50.29071 | 3.88178 | 110° | 115km/h | 5687m | -2.7m/s | -12.4°C | 6.3% | 0hPa | 2.7V | 07:13:48 | 03:27:23 | 00:00:00 | |
| BIOWL1-15 | 2026-09-05 02:17:37 | 50.29111 | 3.88010 | 110° | 111km/h | 5698m | -2.8m/s | -12.5°C | 5.9% | 0hPa | 2.7V | 07:14:38 | 03:27:19 | 00:00:00 | |
| DM0DOS-11 | 2026-09-05 02:17:35 | 50.29177 | 3.87735 | 113° | 104km/h | 5717m | -2.8m/s | -12.5°C | 6.7% | 0hPa | 2.7V | 07:13:59 | 03:27:12 | 00:00:00 | |
| BIOWL1-15 | 2026-09-05 02:17:29 | 50.29211 | 3.87621 | 116° | 110km/h | 5725m | -2.7m/s | -12.6°C | 6.2% | 0hPa | 2.7V | 07:14:38 | 03:27:09 | 00:00:00 | |
| DM0DOS-11 | 2026-09-05 02:17:25 | 50.29298 | 3.87333 | 113° | 119km/h | 5744m | -2.7m/s | -12.8°C | 6.9% | 0hPa | 2.7V | 07:14:09 | 03:27:02 | 00:00:00 | |
| BIOWL1-15 | 2026-09-05 02:17:17 | 50.29358 | 3.87115 | 113° | 120km/h | 5758m | -2.8m/s | -12.8°C | 6.5% | 0hPa | 2.7V | 07:14:38 | 03:26:57 | 00:00:00 | |
| BIOWL1-15 | 2026-09-05 02:17:05 | 50.29474 | 3.86671 | 111° | 122km/h | 5785m | -2.9m/s | -13°C | 6.6% | 0hPa | 2.6V | 07:14:38 | 03:26:47 | 00:00:00 | |
| BIOWL1-15 | 2026-09-05 02:16:56 | 50.29590 | 3.86168 | 109° | 124km/h | 5816m | -2.8m/s | -13.2°C | 7% | 0hPa | 2.7V | 07:14:38 | 03:26:36 | 00:00:00 | |
| DM0DOS-11 | 2026-09-05 02:16:55 | 50.29628 | 3.85983 | 106° | 122km/h | 5826m | -2.7m/s | -13.2°C | 7.3% | 0hPa | 2.7V | 07:14:39 | 03:26:32 | 00:00:00 | |
| BIOWL9-15 | 2026-09-05 02:16:53 | 50.29600 | 3.86122 | 108° | 122km/h | 5818m | -2.6m/s | -13.2°C | 6.8% | -1.0hPa | 2.6V | 00:00:00 | 00:00:00 | 00:00:00 | |
| DM0DOS-11 | 2026-09-05 02:16:45 | 50.29711 | 3.85540 | 107° | 111km/h | 5851m | -2.4m/s | -13.3°C | 7.4% | 0hPa | 2.6V | 07:14:49 | 03:26:22 | 00:00:00 | |
| BIOWL1-15 | 2026-09-05 02:16:44 | 50.29678 | 3.85712 | 106° | 115km/h | 5841m | -2.4m/s | -13.3°C | 7% | 0hPa | 2.7V | 07:15:29 | 03:26:26 | 00:00:00 | |
| DM0DOS-11 | 2026-09-05 02:16:35 | 50.29812 | 3.85112 | 111° | 120km/h | 5876m | -2.7m/s | -13.5°C | 7.4% | 0hPa | 2.7V | 07:14:59 | 03:26:12 | 00:00:00 | |
| BIOWL1-15 | 2026-09-05 02:16:33 | 50.29780 | 3.85243 | 111° | 117km/h | 5868m | -2.6m/s | -13.4°C | 7% | 0hPa | 2.7V | 07:15:29 | 03:26:15 | 00:00:00 | |
| DO1YAY-16 | 2026-09-05 02:16:28 | 50.29834 | 3.85022 | 110° | 122km/h | 5881m | -2.7m/s | -13.5°C | 6.9% | -1.0hPa | 2.7V | 00:00:00 | 00:00:00 | 00:00:00 | |
| DM0DOS-11 | 2026-09-05 02:16:25 | 50.29918 | 3.84645 | 107° | 128km/h | 5902m | -2.6m/s | -13.6°C | 7.3% | 0hPa | 2.7V | 07:15:09 | 03:26:02 | 00:00:00 | |
| BIOWL1-15 | 2026-09-05 02:16:21 | 50.29908 | 3.84693 | 108° | 128km/h | 5900m | -2.7m/s | -13.6°C | 7% | 0hPa | 2.6V | 07:15:29 | 03:26:03 | 00:00:00 | |
| DM0DOS-11 | 2026-09-05 02:16:15 | 50.30000 | 3.84165 | 103° | 119km/h | 5927m | -2.6m/s | -13.7°C | 7.7% | 0hPa | 2.7V | 07:15:19 | 03:25:52 | 00:00:00 | |
| BIOWL1-15 | 2026-09-05 02:16:10 | 50.30000 | 3.84165 | 104° | 119km/h | 5927m | -2.6m/s | -13.7°C | 7.6% | 0hPa | 2.7V | 07:15:29 | 03:25:52 | 00:00:00 | |
| DM0DOS-11 | 2026-09-05 02:16:05 | 50.30081 | 3.83729 | 108° | 115km/h | 5953m | -2.5m/s | -13.8°C | 8.2% | 0hPa | 2.7V | 07:15:29 | 03:25:42 | 00:00:00 | |
| BIOWL1-15 | 2026-09-05 02:16:02 | 50.30081 | 3.83729 | 109° | 115km/h | 5953m | -2.5m/s | -13.8°C | 8.2% | 0hPa | 2.7V | 07:15:29 | 03:25:42 | 00:00:00 | |
| DO1YAY-16 | 2026-09-05 02:15:57 | 50.30111 | 3.83598 | 109° | 119km/h | 5960m | -2.7m/s | -13.9°C | 7.7% | -1.0hPa | 2.7V | 00:00:00 | 00:00:00 | 00:00:00 | |
| DM0DOS-11 | 2026-09-05 02:15:55 | 50.30183 | 3.83274 | 107° | 128km/h | 5977m | -2.4m/s | -13.9°C | 8.2% | 0hPa | 2.7V | 07:15:39 | 03:25:32 | 00:00:00 | |
| BIOWL9-15 | 2026-09-05 02:15:51 | 50.30173 | 3.83322 | 108° | 126km/h | 5975m | -2.5m/s | -14.0°C | 7.7% | -1.0hPa | 2.7V | 00:00:00 | 00:00:00 | 00:00:00 | |
| AU51GT2 | 2026-09-05 02:15:48 | 50.30218 | 3.83079 | 104° | 126km/h | 5987m | -2.4m/s | -14.0°C | 7.5% | -1.0hPa | 2.7V | 00:00:00 | 00:00:00 | 00:00:00 | |
| DM0DOS-11 | 2026-09-05 02:15:45 | 50.30262 | 3.82799 | 103° | 117km/h | 6002m | -2.5m/s | -14.1°C | 8.1% | 0hPa | 2.7V | 07:15:49 | 03:25:22 | 00:00:00 | |
| DM0DOS-11 | 2026-09-05 02:15:35 | 50.30347 | 3.82366 | 109° | 119km/h | 6028m | -2.7m/s | -14.4°C | 8.2% | 0hPa | 2.7V | 07:15:59 | 03:25:12 | 00:00:00 | |
| BIOWL1-15 | 2026-09-05 02:15:25 | 50.30428 | 3.81994 | 106° | 128km/h | 6048m | -2.6m/s | -14.6°C | 8.4% | 0hPa | 2.7V | 07:17:11 | 03:25:04 | 00:00:00 | |
| DM0DOS-11 | 2026-09-05 02:15:25 | 50.30445 | 3.81897 | 104° | 126km/h | 6054m | -2.6m/s | -14.6°C | 8.3% | 0hPa | 2.7V | 07:16:09 | 03:25:02 | 00:00:00 | |
| BIOWL9-15 | 2026-09-05 02:15:20 | 50.30468 | 3.81754 | 103° | 120km/h | 6061m | -2.6m/s | -14.7°C | 7.7% | -1.0hPa | 2.7V | 00:00:00 | 00:00:00 | 00:00:00 | |
| AU51GT2 | 2026-09-05 02:15:17 | 50.30475 | 3.81708 | 103° | 119km/h | 6064m | -2.7m/s | -14.7°C | -1.0% | -1.0hPa | 2.7V | 00:00:00 | 00:00:00 | 00:00:00 | |
| DM0DOS-11 | 2026-09-05 02:15:15 | 50.30519 | 3.81444 | 106° | 111km/h | 6079m | -2.4m/s | -14.8°C | 8.4% | 0hPa | 2.7V | 07:16:19 | 03:24:52 | 00:00:00 | |
| BIOWL1-15 | 2026-09-05 02:15:10 | 50.30519 | 3.81444 | 107° | 111km/h | 6079m | -2.4m/s | -14.8°C | 8.5% | 0hPa | 2.7V | 07:17:11 | 03:24:52 | 00:00:00 | |
| DM0DOS-11 | 2026-09-05 02:15:05 | 50.30617 | 3.81001 | 107° | 126km/h | 6104m | -2.5m/s | -15.1°C | 8.6% | 0hPa | 2.7V | 07:16:29 | 03:24:42 | 00:00:00 | |
| BIOWL1-15 | 2026-09-05 02:14:59 | 50.30627 | 3.80953 | 107° | 126km/h | 6107m | -2.5m/s | -15.1°C | 8.7% | 0hPa | 2.6V | 07:17:11 | 03:24:41 | 00:00:00 | |
| DM0DOS-11 | 2026-09-05 02:14:55 | 50.30695 | 3.80531 | 103° | 115km/h | 6130m | -2.5m/s | -15.3°C | 8.7% | 0hPa | 2.7V | 07:16:39 | 03:24:32 | 00:00:00 | |
| BIOWL1-15 | 2026-09-05 02:14:50 | 50.30708 | 3.80444 | 105° | 113km/h | 6135m | -2.5m/s | -15.4°C | 9% | 0hPa | 2.6V | 07:17:11 | 03:24:30 | 00:00:00 | |
| BIOWL9-15 | 2026-09-05 02:14:49 | 50.30708 | 3.80444 | 104° | 111km/h | 6134m | -2.5m/s | -15.4°C | 8.1% | -1.0hPa | 2.6V | 00:00:00 | 00:00:00 | 00:00:00 | |
| AU51GT2 | 2026-09-05 02:14:46 | 50.30732 | 3.80317 | 107° | 111km/h | 6142m | -2.5m/s | 0°C | -1.0% | -1.0hPa | 2.6V | 00:00:00 | 00:00:00 | 00:00:00 | |
| DM0DOS-11 | 2026-09-05 02:14:45 | 50.30780 | 3.80102 | 110° | 119km/h | 6155m | -2.5m/s | -15.6°C | 8.9% | 0hPa | 2.6V | 07:16:49 | 03:24:22 | 00:00:00 | |
| BIOWL1-15 | 2026-09-05 02:14:36 | 50.30822 | 3.79920 | 108° | 124km/h | 6165m | -2.5m/s | -15.7°C | 9.2% | 0hPa | 2.7V | 07:17:11 | 03:24:18 | 00:00:00 | |
| DM0DOS-11 | 2026-09-05 02:14:25 | 50.30944 | 3.79196 | 107° | 110km/h | 6204m | -2.6m/s | -16°C | 9.1% | 0hPa | 2.6V | 07:17:09 | 03:24:02 | 00:00:00 | |
| BIOWL1-15 | 2026-09-05 02:14:25 | 50.30907 | 3.79409 | 104° | 115km/h | 6191m | -2.4m/s | -15.9°C | 9.1% | 0hPa | 2.7V | 07:17:11 | 03:24:07 | 00:00:00 | |
| DO1YAY-16 | 2026-09-05 02:14:24 | 50.30914 | 3.79366 | 104° | 111km/h | 6194m | -2.6m/s | -16.0°C | 8.3% | -1.0hPa | 2.7V | 00:00:00 | 00:00:00 | 00:00:00 | |
| BIOWL9-15 | 2026-09-05 02:14:18 | 50.30971 | 3.79071 | 109° | 111km/h | 6211m | -2.6m/s | -16.1°C | 8.4% | -1.0hPa | 2.7V | 00:00:00 | 00:00:00 | 00:00:00 | |
| DM0DOS-11 | 2026-09-05 02:14:15 | 50.31042 | 3.78773 | 110° | 120km/h | 6229m | -2.5m/s | -16.2°C | 8.9% | 0hPa | 2.7V | 07:17:19 | 03:23:52 | 00:00:00 | |
| BIOWL1-15 | 2026-09-05 02:14:14 | 50.31000 | 3.78946 | 111° | 113km/h | 6219m | -2.6m/s | -16.2°C | 9.4% | 0hPa | 2.6V | 07:18:02 | 03:23:56 | 00:00:00 | |
| DM0DOS-11 | 2026-09-05 02:14:05 | 50.31136 | 3.78307 | 103° | 120km/h | 6252m | -2.5m/s | -16.5°C | 8.7% | 0hPa | 2.7V | 07:17:29 | 03:23:42 | 00:00:00 | |
| BIOWL1-15 | 2026-09-05 02:14:03 | 50.31151 | 3.78216 | 104° | 117km/h | 6258m | -2.5m/s | -16.5°C | 8.3% | 0hPa | 2.7V | 07:18:02 | 03:23:40 | 00:00:00 | |
| DM0DOS-11 | 2026-09-05 02:13:55 | 50.31222 | 3.77873 | 111° | 119km/h | 6276m | -2.4m/s | -16.6°C | 7.7% | 0hPa | 2.6V | 07:17:39 | 03:23:32 | 00:00:00 | |
| BIOWL1-15 | 2026-09-05 02:13:51 | 50.31211 | 3.77917 | 111° | 117km/h | 6274m | -2.4m/s | -16.6°C | 7.5% | 0hPa | 2.6V | 07:18:02 | 03:23:33 | 00:00:00 | |
| BIOWL9-15 | 2026-09-05 02:13:47 | 50.31266 | 3.77694 | 110° | 122km/h | 6286m | -2.5m/s | -16.6°C | -1.0% | -1.0hPa | 2.6V | 00:00:00 | 00:00:00 | 00:00:00 | |
| DM0DOS-11 | 2026-09-05 02:13:45 | 50.31326 | 3.77410 | 105° | 126km/h | 6301m | -2.3m/s | -16.6°C | 6.2% | 0hPa | 2.6V | 07:17:49 | 03:23:22 | 00:00:00 | |
| BIOWL1-15 | 2026-09-05 02:13:41 | 50.31317 | 3.77458 | 107° | 126km/h | 6298m | -2.5m/s | -16.5°C | 5.6% | 0hPa | 2.7V | 07:18:02 | 03:23:23 | 00:00:00 | |
| DM0DOS-11 | 2026-09-05 02:13:35 | 50.31402 | 3.76950 | 105° | 115km/h | 6325m | -2.5m/s | -16.4°C | 5.3% | 0hPa | 2.6V | 07:17:59 | 03:23:12 | 00:00:00 | |
| BIOWL1-15 | 2026-09-05 02:13:30 | 50.31402 | 3.76950 | 105° | 115km/h | 6325m | -2.5m/s | -16.4°C | 4.1% | 0hPa | 2.6V | 07:18:02 | 03:23:12 | 00:00:00 | |
| DM0DOS-11 | 2026-09-05 02:13:25 | 50.31496 | 3.76515 | 110° | 122km/h | 6350m | -2.4m/s | -16.6°C | 5.3% | 0hPa | 2.6V | 07:18:09 | 03:23:02 | 00:00:00 | |
| BIOWL1-15 | 2026-09-05 02:13:20 | 50.31496 | 3.76515 | 110° | 122km/h | 6350m | -2.4m/s | -16.6°C | 4.2% | 0hPa | 2.6V | 07:18:53 | 03:23:02 | 00:00:00 | |
| BIOWL9-15 | 2026-09-05 02:13:16 | 50.31549 | 3.76280 | 108° | 128km/h | 6362m | -2.6m/s | 0°C | -1.0% | -1.0hPa | 2.6V | 00:00:00 | 00:00:00 | 00:00:00 | |
| DM0DOS-11 | 2026-09-05 02:13:15 | 50.31594 | 3.76036 | 104° | 128km/h | 6375m | -2.6m/s | -16.7°C | 5.1% | 0hPa | 2.6V | 07:18:19 | 03:22:52 | 00:00:00 | |
| BIOWL1-15 | 2026-09-05 02:13:10 | 50.31594 | 3.76036 | 104° | 128km/h | 6375m | -2.6m/s | -16.7°C | 4% | 0hPa | 2.6V | 07:18:53 | 03:22:52 | 00:00:00 | |
| DM0DOS-11 | 2026-09-05 02:13:05 | 50.31678 | 3.75534 | 108° | 117km/h | 6402m | -2.5m/s | -16.9°C | 5.2% | 0hPa | 2.6V | 07:18:30 | 03:22:41 | 00:00:00 | |
| BIOWL1-15 | 2026-09-05 02:13:03 | 50.31678 | 3.75534 | 109° | 117km/h | 6402m | -2.5m/s | -16.9°C | 4.1% | 0hPa | 2.6V | 07:18:53 | 03:22:41 | 00:00:00 | |
| DO1YAY-16 | 2026-09-05 02:12:51 | 50.31770 | 3.75119 | 107° | 130km/h | 6424m | -2.5m/s | -17.0°C | 4.7% | -1.0hPa | 2.6V | 00:00:00 | 00:00:00 | 00:00:00 | |
| DM0DOS-11 | 2026-09-05 02:12:49 | 50.31780 | 3.75070 | 106° | 130km/h | 6427m | -2.5m/s | -17°C | 5.3% | 0hPa | 2.6V | 07:18:40 | 03:22:31 | 00:00:00 | |
| BIOWL1-15 | 2026-09-05 02:12:49 | 50.31780 | 3.75070 | 107° | 130km/h | 6427m | -2.5m/s | -17°C | 4.1% | 0hPa | 2.6V | 07:18:53 | 03:22:31 | 00:00:00 | |
| BIOWL1-15 | 2026-09-05 02:12:40 | 50.31864 | 3.74545 | 105° | 115km/h | 6454m | -2.5m/s | -17.2°C | 4.3% | 0hPa | 2.6V | 07:18:53 | 03:22:20 | 00:00:00 | |
| DM0DOS-11 | 2026-09-05 02:12:39 | 50.31857 | 3.74590 | 104° | 117km/h | 6451m | -2.5m/s | -17.2°C | 5.3% | 0hPa | 2.6V | 07:18:50 | 03:22:21 | 00:00:00 | |
| DM0DOS-11 | 2026-09-05 02:12:34 | 50.31946 | 3.74146 | 109° | 124km/h | 6476m | -2.6m/s | -17.2°C | 5.6% | 0hPa | 2.6V | 07:19:00 | 03:22:11 | 00:00:00 | |
| BIOWL1-15 | 2026-09-05 02:12:27 | 50.31967 | 3.74052 | 109° | 128km/h | 6482m | -2.6m/s | -17.3°C | 4.8% | 0hPa | 2.6V | 07:19:44 | 03:22:09 | 00:00:00 | |
| DM0DOS-11 | 2026-09-05 02:12:24 | 50.32043 | 3.73658 | 104° | 131km/h | 6502m | -2.6m/s | -17.4°C | 5.9% | 0hPa | 2.6V | 07:19:10 | 03:22:01 | 00:00:00 | |
| BIOWL1-15 | 2026-09-05 02:12:16 | 50.32067 | 3.73508 | 103° | 128km/h | 6510m | -2.6m/s | -17.5°C | 5.3% | 0hPa | 2.6V | 07:19:44 | 03:21:58 | 00:00:00 | |
| BIOWL9-15 | 2026-09-05 02:12:13 | 50.32088 | 3.73362 | 102° | 122km/h | 6517m | -2.5m/s | 0°C | -1.0% | -1.0hPa | 2.6V | 00:00:00 | 00:00:00 | 00:00:00 | |
| DM0DOS-11 | 2026-09-05 02:12:09 | 50.32115 | 3.73177 | 103° | 117km/h | 6527m | -2.5m/s | -17.7°C | 6.3% | 0hPa | 2.6V | 07:19:20 | 03:21:51 | 00:00:00 | |
| BIOWL1-15 | 2026-09-05 02:12:07 | 50.32147 | 3.72998 | 108° | 119km/h | 6537m | -2.5m/s | -17.7°C | 6% | 0hPa | 2.6V | 07:19:44 | 03:21:47 | 00:00:00 | |
| DM0DOS-11 | 2026-09-05 02:12:04 | 50.32206 | 3.72715 | 107° | 131km/h | 6552m | -2.5m/s | -17.8°C | 7.5% | 0hPa | 2.6V | 07:19:30 | 03:21:41 | 00:00:00 | |
| BIOWL1-15 | 2026-09-05 02:11:56 | 50.32251 | 3.72464 | 104° | 131km/h | 6564m | -2.7m/s | -18°C | 8% | 0hPa | 2.6V | 07:19:44 | 03:21:36 | 00:00:00 | |
| DO1YAY-16 | 2026-09-05 02:11:49 | 50.32294 | 3.72162 | 101° | 126km/h | 6580m | -2.7m/s | -18.0°C | 8.7% | -1.0hPa | 2.6V | 00:00:00 | 00:00:00 | 00:00:00 | |
| DM0DOS-11 | 2026-09-05 02:11:44 | 50.32350 | 3.71740 | 104° | 117km/h | 6603m | -2.5m/s | -18.2°C | 10.7% | 0hPa | 2.6V | 07:19:50 | 03:21:21 | 00:00:00 | |
| BIOWL1-15 | 2026-09-05 02:11:44 | 50.32318 | 3.71969 | 101° | 122km/h | 6591m | -2.6m/s | -18.1°C | 10.8% | 0hPa | 2.6V | 07:20:35 | 03:21:26 | 00:00:00 | |
| AU51GT2 | 2026-09-05 02:11:40 | 50.32350 | 3.71740 | 104° | 117km/h | 6603m | -2.5m/s | -18.2°C | 9.8% | -1.0hPa | 2.6V | 00:00:00 | 00:00:00 | 00:00:00 | |
| DM0DOS-11 | 2026-09-05 02:11:34 | 50.32438 | 3.71266 | 104° | 131km/h | 6628m | -2.8m/s | -18.4°C | 11% | 0hPa | 2.6V | 07:20:00 | 03:21:11 | 00:00:00 | |
| BIOWL1-15 | 2026-09-05 02:11:33 | 50.32402 | 3.71464 | 107° | 128km/h | 6618m | -2.5m/s | -18.3°C | 11.5% | 0hPa | 2.6V | 07:20:35 | 03:21:15 | 00:00:00 | |
| DM0DOS-11 | 2026-09-05 02:11:24 | 50.32504 | 3.70763 | 100° | 122km/h | 6654m | -2.3m/s | -18.6°C | 10.5% | 0hPa | 2.6V | 07:20:10 | 03:21:01 | 00:00:00 | |
| BIOWL1-15 | 2026-09-05 02:11:22 | 50.32488 | 3.70910 | 100° | 128km/h | 6646m | -2.5m/s | -18.5°C | 11.3% | 0hPa | 2.6V | 07:20:35 | 03:21:04 | 00:00:00 | |
| DO1YAY-16 | 2026-09-05 02:11:17 | 50.32516 | 3.70669 | 101° | 119km/h | 6658m | -2.4m/s | -18.6°C | 9.6% | -1.0hPa | 2.6V | 00:00:00 | 00:00:00 | 00:00:00 | |
| DM0DOS-11 | 2026-09-05 02:11:14 | 50.32576 | 3.70303 | 106° | 124km/h | 6679m | -2.7m/s | -18.7°C | 10.9% | 0hPa | 2.6V | 07:20:20 | 03:20:51 | 00:00:00 | |
| BIOWL1-15 | 2026-09-05 02:11:13 | 50.32559 | 3.70396 | 106° | 120km/h | 6674m | -2.8m/s | -18.7°C | 11.4% | 0hPa | 2.6V | 07:20:35 | 03:20:53 | 00:00:00 | |
| BIOWL9-15 | 2026-09-05 02:11:11 | 50.32559 | 3.70396 | 105° | 120km/h | 6674m | -2.8m/s | -18.7°C | 10.0% | -1.0hPa | 2.6V | 00:00:00 | 00:00:00 | 00:00:00 | |
| AU51GT2 | 2026-09-05 02:11:09 | 50.32585 | 3.70256 | 106° | 124km/h | 6682m | -2.7m/s | -18.7°C | 9.9% | -1.0hPa | 2.6V | 00:00:00 | 00:00:00 | 00:00:00 | |
| DM0DOS-11 | 2026-09-05 02:11:04 | 50.32662 | 3.69804 | 101° | 133km/h | 6706m | -2.6m/s | -18.9°C | 10.9% | 0hPa | 2.6V | 07:20:30 | 03:20:41 | 00:00:00 | |
| BIOWL1-15 | 2026-09-05 02:11:01 | 50.32647 | 3.69907 | 104° | 133km/h | 6700m | -2.7m/s | -18.9°C | 11.5% | 0hPa | 2.6V | 07:20:35 | 03:20:43 | 00:00:00 | |
| BIOWL1-15 | 2026-09-05 02:10:50 | 50.32716 | 3.69364 | 102° | 119km/h | 6729m | -2.6m/s | -19.2°C | 11.7% | 0hPa | 2.6V | 07:21:26 | 03:20:32 | 00:00:00 | |
| DM0DOS-11 | 2026-09-05 02:10:49 | 50.32722 | 3.69318 | 103° | 119km/h | 6731m | -2.7m/s | -19.2°C | 11.1% | 0hPa | 2.6V | 07:20:40 | 03:20:31 | 00:00:00 | |
| DO1YAY-16 | 2026-09-05 02:10:46 | 50.32745 | 3.69181 | 105° | 120km/h | 6739m | -2.8m/s | -19.3°C | 10.2% | -1.0hPa | 2.6V | 00:00:00 | 00:00:00 | 00:00:00 | |
| DM0DOS-11 | 2026-09-05 02:10:44 | 50.32808 | 3.68850 | 106° | 130km/h | 6757m | -2.5m/s | -19.4°C | 11.3% | 0hPa | 2.6V | 07:20:50 | 03:20:21 | 00:00:00 | |
| BIOWL1-15 | 2026-09-05 02:10:39 | 50.32826 | 3.68749 | 105° | 133km/h | 6761m | -2.3m/s | -19.5°C | 12% | 0hPa | 2.5V | 07:21:26 | 03:20:19 | 00:00:00 | |
| DB0UT-7 | 2026-09-05 02:10:39 | 50.32808 | 3.68849 | 107° | 128km/h | 6757m | -2.5m/s | -19.4°C | 11.3% | 0hPa | 2.6V | 00:00:00 | 00:00:00 | 00:00:00 | |
| DM0DOS-11 | 2026-09-05 02:10:34 | 50.32882 | 3.68337 | 100° | 133km/h | 6782m | -2.6m/s | -19.6°C | 11.3% | 0hPa | 2.6V | 07:21:00 | 03:20:11 | 00:00:00 | |
| BIOWL1-15 | 2026-09-05 02:10:30 | 50.32899 | 3.68185 | 100° | 128km/h | 6790m | -2.8m/s | -19.7°C | 12% | 0hPa | 2.5V | 07:21:26 | 03:20:08 | 00:00:00 | |
| DM0DOS-11 | 2026-09-05 02:10:24 | 50.32939 | 3.67851 | 102° | 119km/h | 6808m | -2.6m/s | -19.9°C | 11.4% | 0hPa | 2.5V | 07:21:10 | 03:20:01 | 00:00:00 | |
| BIOWL1-15 | 2026-09-05 02:10:20 | 50.32946 | 3.67805 | 104° | 119km/h | 6811m | -2.4m/s | -19.9°C | 12% | 0hPa | 2.5V | 07:21:26 | 03:20:00 | 00:00:00 | |
| DO1YAY-16 | 2026-09-05 02:10:15 | 50.32970 | 3.67667 | 105° | 122km/h | 6818m | -2.7m/s | -20.0°C | 10.4% | -1.0hPa | 2.5V | 00:00:00 | 00:00:00 | 00:00:00 | |
| DM0DOS-11 | 2026-09-05 02:10:14 | 50.33020 | 3.67373 | 104° | 133km/h | 6834m | -2.4m/s | -20.1°C | 11.2% | 0hPa | 2.5V | 07:21:20 | 03:19:51 | 00:00:00 | |
| BIOWL1-15 | 2026-09-05 02:10:09 | 50.33035 | 3.67270 | 102° | 133km/h | 6838m | -2.5m/s | -20.1°C | 0% | 0hPa | 2.5V | 07:21:26 | 03:19:49 | 00:00:00 | |
| BIOWL1-15 | 2026-09-05 02:09:56 | 50.33096 | 3.66726 | 101° | 120km/h | 6867m | -2.6m/s | -20.3°C | 0% | 0hPa | 2.5V | 07:22:17 | 03:19:38 | 00:00:00 | |
| DM0DOS-11 | 2026-09-05 02:09:54 | 50.33144 | 3.66406 | 104° | 120km/h | 6885m | -2.8m/s | -20.4°C | 10.7% | 0hPa | 2.5V | 07:21:40 | 03:19:31 | 00:00:00 | |
| BIOWL1-15 | 2026-09-05 02:09:45 | 50.33194 | 3.66121 | 105° | 130km/h | 6900m | -2.3m/s | -20.6°C | 0% | 0hPa | 2.6V | 07:22:17 | 03:19:25 | 00:00:00 | |
| DM0DOS-11 | 2026-09-05 02:09:44 | 50.33225 | 3.65920 | 102° | 133km/h | 6910m | -2.9m/s | -20.6°C | 10.6% | 0hPa | 2.5V | 07:21:50 | 03:19:21 | 00:00:00 | |
| BIOWL1-15 | 2026-09-05 02:09:35 | 50.33253 | 3.65716 | 100° | 131km/h | 6921m | -2.9m/s | -20.7°C | 0% | 0hPa | 2.6V | 07:22:17 | 03:19:17 | 00:00:00 | |
| DM0DOS-11 | 2026-09-05 02:09:34 | 50.33283 | 3.65415 | 98° | 126km/h | 6938m | -2.9m/s | -20.8°C | 10.3% | 0hPa | 2.5V | 07:22:00 | 03:19:11 | 00:00:00 | |
| BIOWL1-15 | 2026-09-05 02:09:25 | 50.33302 | 3.65223 | 99° | 120km/h | 6949m | -2.6m/s | -20.9°C | 0% | 0hPa | 2.6V | 07:22:17 | 03:19:07 | 00:00:00 | |
| DM0DOS-11 | 2026-09-05 02:09:24 | 50.33337 | 3.64951 | 104° | 119km/h | 6964m | -2.7m/s | -20.9°C | 9.5% | 0hPa | 2.6V | 07:22:10 | 03:19:01 | 00:00:00 | |
| DM0DOS-11 | 2026-09-05 02:09:14 | 50.33408 | 3.64461 | 98° | 128km/h | 6990m | -2.8m/s | -20.9°C | 8.3% | 0hPa | 2.6V | 07:22:20 | 03:18:51 | 00:00:00 | |
| BIOWL1-15 | 2026-09-05 02:09:14 | 50.33376 | 3.64713 | 103° | 130km/h | 6977m | -2.6m/s | 0°C | 0% | 0hPa | 2.6V | 07:22:17 | 03:18:56 | 00:00:00 | |
| BIOWL1-15 | 2026-09-05 02:09:04 | 50.33429 | 3.64215 | 97° | 122km/h | 7003m | -2.6m/s | 0°C | 0% | 0hPa | 2.6V | 07:23:08 | 03:18:46 | 00:00:00 | |
| DM0DOS-11 | 2026-09-05 02:08:54 | 50.33519 | 3.63530 | 104° | 126km/h | 7042m | -2.6m/s | -21.3°C | 8.2% | 0hPa | 2.5V | 07:22:40 | 03:18:31 | 00:00:00 | |
| BIOWL1-15 | 2026-09-05 02:08:53 | 50.33511 | 3.63578 | 104° | 124km/h | 7039m | -2.6m/s | 0°C | 0% | 0hPa | 2.5V | 07:23:08 | 03:18:32 | 00:00:00 | |
| DM0DOS-11 | 2026-09-05 02:08:44 | 50.33576 | 3.63044 | 98° | 117km/h | 7068m | -2.7m/s | -21.6°C | 8.3% | 0hPa | 2.6V | 07:22:50 | 03:18:21 | 00:00:00 | |
| BIOWL1-15 | 2026-09-05 02:08:43 | 50.33557 | 3.63233 | 99° | 126km/h | 7058m | -2.6m/s | 0°C | 0% | 0hPa | 2.5V | 07:23:08 | 03:18:25 | 00:00:00 | |
| BIOWL1-15 | 2026-09-05 02:08:36 | 50.33631 | 3.62644 | 105° | 117km/h | 7093m | -2.7m/s | 0°C | 0% | 0hPa | 2.5V | 07:23:08 | 03:18:12 | 00:00:00 | |
| BIOWL9-15 | 2026-09-05 02:08:36 | 50.33591 | 3.62909 | 101° | 113km/h | 7077m | -2.7m/s | -21.6°C | 7.4% | -1.0hPa | 2.5V | 00:00:00 | 00:00:00 | 00:00:00 | |
| DM0DOS-11 | 2026-09-05 02:08:34 | 50.33638 | 3.62599 | 105° | 119km/h | 7095m | -2.8m/s | -21.8°C | 8.4% | 0hPa | 2.5V | 07:23:00 | 03:18:11 | 00:00:00 | |
| AU51GT2 | 2026-09-05 02:08:33 | 50.33610 | 3.62777 | 103° | 113km/h | 7084m | -2.9m/s | -21.7°C | 7.4% | -1.0hPa | 2.6V | 00:00:00 | 00:00:00 | 00:00:00 | |
| DM0DOS-11 | 2026-09-05 02:08:24 | 50.33711 | 3.62116 | 99° | 126km/h | 7123m | -2.8m/s | -22°C | 8.3% | 0hPa | 2.6V | 07:23:10 | 03:18:01 | 00:00:00 | |
| BIOWL1-15 | 2026-09-05 02:08:23 | 50.33699 | 3.62214 | 101° | 128km/h | 7117m | -2.7m/s | 0°C | 0% | 0hPa | 2.6V | 07:23:08 | 03:18:03 | 00:00:00 | |
| DM0DOS-11 | 2026-09-05 02:08:14 | 50.33763 | 3.61658 | 102° | 111km/h | 7151m | -2.9m/s | -22.3°C | 8.4% | 0hPa | 2.6V | 07:23:20 | 03:17:51 | 00:00:00 | |
| BIOWL1-15 | 2026-09-05 02:08:10 | 50.33784 | 3.61529 | 106° | 113km/h | 7159m | -2.7m/s | 0°C | 0% | 0hPa | 2.5V | 18:12:15 | 03:17:48 | 00:00:00 | |
| BIOWL9-15 | 2026-09-05 02:08:05 | 50.33791 | 3.61485 | 105° | 113km/h | 7162m | -2.9m/s | 0°C | -1.0% | -1.0hPa | 2.5V | 00:00:00 | 00:00:00 | 00:00:00 | |
| DM0DOS-11 | 2026-09-05 02:08:04 | 50.33842 | 3.61210 | 105° | 126km/h | 7178m | -2.9m/s | -22.5°C | 8.3% | 0hPa | 2.5V | 07:23:30 | 03:17:41 | 00:00:00 | |
| BIOWL1-15 | 2026-09-05 02:07:59 | 50.33857 | 3.61113 | 102° | 126km/h | 7184m | -2.9m/s | 0°C | 0% | 0hPa | 2.6V | 18:12:15 | 03:17:39 | 00:00:00 | |
| DM0DOS-11 | 2026-09-05 02:07:54 | 50.33900 | 3.60737 | 99° | 113km/h | 7206m | -2.6m/s | -22.7°C | 8.3% | 0hPa | 2.6V | 07:23:40 | 03:17:31 | 00:00:00 | |
| BIOWL1-15 | 2026-09-05 02:07:47 | 50.33911 | 3.60650 | 103° | 111km/h | 7211m | -3.1m/s | 0°C | 0% | 0hPa | 2.5V | 18:12:15 | 03:17:29 | 00:00:00 | |
| DM0DOS-11 | 2026-09-05 02:07:44 | 50.33967 | 3.60308 | 106° | 113km/h | 7234m | -2.8m/s | -23°C | 8.4% | 0hPa | 2.6V | 07:23:50 | 03:17:21 | 00:00:00 | |
| BIOWL1-15 | 2026-09-05 02:07:36 | 50.33993 | 3.60177 | 108° | 117km/h | 7243m | -3.3m/s | 0°C | 0% | 0hPa | 2.5V | 18:12:15 | 03:17:18 | 00:00:00 | |
| DM0DOS-11 | 2026-09-05 02:07:35 | 50.34056 | 3.59858 | 107° | 124km/h | 7264m | -3.2m/s | -23.2°C | 8.4% | 0hPa | 2.6V | 07:24:00 | 03:17:11 | 00:00:00 | |
| BIOWL9-15 | 2026-09-05 02:07:34 | 50.34020 | 3.60042 | 107° | 119km/h | 7252m | -3.1m/s | 0°C | -1.0% | -1.0hPa | 2.5V | 00:00:00 | 00:00:00 | 00:00:00 | |
| AU51GT2 | 2026-09-05 02:07:31 | 50.34038 | 3.59951 | 107° | 120km/h | 7259m | -3.0m/s | -23.2°C | 7.3% | -1.0hPa | 2.5V | 00:00:00 | 00:00:00 | 00:00:00 | |
| DM0DOS-11 | 2026-09-05 02:07:24 | 50.34128 | 3.59388 | 102° | 113km/h | 7291m | -2.8m/s | -23.5°C | 8.5% | 0hPa | 2.5V | 07:24:10 | 03:17:01 | 00:00:00 | |
| BIOWL1-15 | 2026-09-05 02:07:24 | 50.34097 | 3.59618 | 103° | 124km/h | 7277m | -2.5m/s | 0°C | 0% | 0hPa | 2.5V | 18:12:15 | 03:17:06 | 00:00:00 | |
| DB0UT-7 | 2026-09-05 02:07:24 | 50.34097 | 3.59618 | 104° | 117km/h | 7278m | -2.5m/s | -23.3°C | 8.4% | 0hPa | 2.5V | 00:00:00 | 03:17:06 | 00:00:00 | |
| DM0DOS-11 | 2026-09-05 02:07:14 | 50.34207 | 3.58962 | 109° | 115km/h | 7320m | -3.1m/s | -23.7°C | 8.4% | 0hPa | 2.5V | 07:24:20 | 03:16:51 | 00:00:00 | |
| DO1YAY-16 | 2026-09-05 02:07:09 | 50.34207 | 3.58962 | 109° | 113km/h | 7320m | -3.1m/s | -23.7°C | 7.3% | -1.0hPa | 2.5V | 00:00:00 | 00:00:00 | 00:00:00 | |
| DM0DOS-11 | 2026-09-05 02:07:04 | 50.34312 | 3.58524 | 110° | 124km/h | 7351m | -3m/s | -23.9°C | 8% | 0hPa | 2.5V | 07:24:30 | 03:16:41 | 00:00:00 | |
| AU51GT2 | 2026-09-05 02:07:00 | 50.34301 | 3.58570 | 111° | 122km/h | 7348m | -2.9m/s | -23.9°C | 7.0% | -1.0hPa | 2.5V | 00:00:00 | 00:00:00 | 00:00:00 | |
| DM0DOS-11 | 2026-09-05 02:06:54 | 50.34402 | 3.58046 | 104° | 122km/h | 7382m | -2.9m/s | -24.1°C | 8% | 0hPa | 2.5V | 07:24:40 | 03:16:31 | 00:00:00 | |
| DB0UT-7 | 2026-09-05 02:06:54 | 50.34362 | 3.58286 | 107° | 126km/h | 7366m | -3.2m/s | -23.9°C | 8.0% | 0hPa | 2.6V | 00:00:00 | 00:00:00 | 00:00:00 | |
| DM0DOS-11 | 2026-09-05 02:06:44 | 50.34487 | 3.57604 | 111° | 119km/h | 7410m | -3.4m/s | -24.3°C | 7.7% | 0hPa | 2.6V | 07:24:50 | 03:16:21 | 00:00:00 | |
| DO1YAY-16 | 2026-09-05 02:06:38 | 50.34498 | 3.57560 | 111° | 119km/h | 7414m | -3.4m/s | -24.3°C | 6.6% | -1.0hPa | 2.6V | 00:00:00 | 00:00:00 | 00:00:00 | |
| DM0DOS-11 | 2026-09-05 02:06:34 | 50.34600 | 3.57146 | 109° | 131km/h | 7442m | -3.3m/s | -24.4°C | 7.4% | 0hPa | 2.6V | 07:25:00 | 03:16:11 | 00:00:00 | |
| AU51GT2 | 2026-09-05 02:06:29 | 50.34600 | 3.57146 | 109° | 130km/h | 7442m | -3.3m/s | -24.5°C | 6.4% | -1.0hPa | 2.6V | 00:00:00 | 00:00:00 | 00:00:00 | |
| DM0DOS-11 | 2026-09-05 02:06:24 | 50.34693 | 3.56658 | 105° | 120km/h | 7471m | -3m/s | -24.5°C | 6.7% | 0hPa | 2.6V | 07:25:10 | 03:16:01 | 00:00:00 | |
| DM0DOS-11 | 2026-09-05 02:06:14 | 50.34793 | 3.56209 | 111° | 128km/h | 7501m | -3.4m/s | -24.7°C | 6.5% | 0hPa | 2.6V | 07:25:20 | 03:15:51 | 00:00:00 | |
| DO1YAY-16 | 2026-09-05 02:06:07 | 50.34817 | 3.56115 | 110° | 128km/h | 7507m | -2.9m/s | -24.7°C | 5.5% | -1.0hPa | 2.5V | 00:00:00 | 00:00:00 | 00:00:00 | |
| DM0DOS-11 | 2026-09-05 02:06:04 | 50.34903 | 3.55715 | 105° | 133km/h | 7531m | -2.9m/s | -24.8°C | 6.3% | 0hPa | 2.5V | 07:25:30 | 03:15:41 | 00:00:00 | |
| AU51GT2 | 2026-09-05 02:05:58 | 50.34912 | 3.55664 | 105° | 131km/h | 7534m | -3.0m/s | -24.9°C | 5.4% | -1.0hPa | 2.5V | 00:00:00 | 00:00:00 | 00:00:00 | |
| DM0DOS-11 | 2026-09-05 02:05:54 | 50.34994 | 3.55240 | 110° | 124km/h | 7561m | -3.2m/s | -25°C | 6.4% | 0hPa | 2.5V | 07:25:40 | 03:15:31 | 00:00:00 | |
| DB0UT-7 | 2026-09-05 02:05:50 | 50.34984 | 3.55286 | 110° | 131km/h | 7558m | -3.3m/s | -24.9°C | 6.4% | 0hPa | 2.6V | 00:00:00 | 03:15:32 | 00:00:00 | |
| DM0DOS-11 | 2026-09-05 02:05:44 | 50.35114 | 3.54765 | 109° | 135km/h | 7593m | -3.2m/s | -25.1°C | 6.2% | 0hPa | 2.6V | 07:25:50 | 03:15:21 | 00:00:00 | |
| DO1YAY-16 | 2026-09-05 02:05:36 | 50.35148 | 3.54611 | 107° | 139km/h | 7602m | -3.0m/s | -25.2°C | 5.3% | -1.0hPa | 2.5V | 00:00:00 | 00:00:00 | 00:00:00 | |
| DM0DOS-11 | 2026-09-05 02:05:34 | 50.35214 | 3.54261 | 107° | 124km/h | 7623m | -3.1m/s | -25.3°C | 6.4% | 0hPa | 2.5V | 07:26:00 | 03:15:11 | 00:00:00 | |
| AU51GT2 | 2026-09-05 02:05:27 | 50.35234 | 3.54168 | 108° | 122km/h | 7629m | -3.2m/s | -25.3°C | 5.5% | -1.0hPa | 2.6V | 00:00:00 | 00:00:00 | 00:00:00 | |
| DM0DOS-11 | 2026-09-05 02:05:24 | 50.35327 | 3.53797 | 113° | 133km/h | 7655m | -3.2m/s | -25.5°C | 6.5% | 0hPa | 2.6V | 07:26:10 | 03:15:01 | 00:00:00 | |
| DM0DOS-11 | 2026-09-05 02:05:14 | 50.35447 | 3.53285 | 107° | 139km/h | 7686m | -3.5m/s | -25.7°C | 6.2% | 0hPa | 2.6V | 07:26:20 | 03:14:51 | 00:00:00 | |
| DB0UT-7 | 2026-09-05 02:05:11 | 50.35425 | 3.53390 | 109° | 133km/h | 7679m | -3.1m/s | -25.6°C | 6.3% | 0hPa | 2.5V | 00:00:00 | 00:00:00 | 00:00:00 | |
| DO1YAY-16 | 2026-09-05 02:05:05 | 50.35487 | 3.53077 | 105° | 135km/h | 7699m | -3.5m/s | -25.8°C | 5.2% | -1.0hPa | 2.5V | 00:00:00 | 00:00:00 | 00:00:00 | |
| DM0DOS-11 | 2026-09-05 02:05:04 | 50.35544 | 3.52785 | 109° | 124km/h | 7718m | -2.9m/s | -25.9°C | 6.2% | 0hPa | 2.5V | 07:26:30 | 03:14:41 | 00:00:00 | |
| BIOWL1-15 | 2026-09-05 02:04:55 | 50.35642 | 3.52410 | 113° | 133km/h | 7743m | -3.5m/s | -26.1°C | 5.4% | 0hPa | 2.6V | 18:12:15 | 03:14:33 | 00:00:00 | |
| BIOWL1-15 | 2026-09-05 02:04:40 | 50.35768 | 3.51846 | 106° | 131km/h | 7778m | -2.8m/s | -26.2°C | 5.2% | 0hPa | 2.5V | 18:12:15 | 03:14:22 | 00:00:00 | |
| BIOWL1-15 | 2026-09-05 02:04:31 | 50.35884 | 3.51331 | 112° | 124km/h | 7813m | -3.2m/s | -26.3°C | 5.9% | 0hPa | 2.5V | 18:12:15 | 03:14:11 | 00:00:00 | |
| BIOWL1-15 | 2026-09-05 02:04:19 | 50.36010 | 3.50873 | 114° | 126km/h | 7846m | -3.3m/s | -26.6°C | 6.6% | 0hPa | 2.6V | 18:12:15 | 03:14:01 | 00:00:00 | |
| DM0DOS-11 | 2026-09-05 02:04:17 | 50.36093 | 3.50595 | 115° | 131km/h | 7864m | -3.3m/s | -26.7°C | 7.2% | 0hPa | 2.6V | 07:27:16 | 03:13:55 | 00:00:00 | |
| BIOWL1-15 | 2026-09-05 02:04:12 | 50.36164 | 3.50361 | 116° | 130km/h | 7879m | -3.3m/s | 0°C | 0% | 0hPa | 2.6V | 18:12:15 | 03:13:50 | 00:00:00 | |
| DO1YAY-16 | 2026-09-05 02:04:03 | 50.36237 | 3.50127 | 115° | 130km/h | 7894m | -3.2m/s | -27.0°C | 6.1% | -1.0hPa | 2.6V | 00:00:00 | 00:00:00 | 00:00:00 | |
| DM0DOS-11 | 2026-09-05 02:04:02 | 50.36327 | 3.49845 | 116° | 137km/h | 7913m | -3.3m/s | -27.1°C | 7.3% | 0hPa | 2.6V | 07:27:32 | 03:13:39 | 00:00:00 | |
| BIOWL1-15 | 2026-09-05 02:03:56 | 50.36343 | 3.49797 | 117° | 135km/h | 7916m | -3.1m/s | 0°C | 0% | 0hPa | 2.6V | 18:12:15 | 03:13:38 | 00:00:00 | |
| AU51GT2 | 2026-09-05 02:03:54 | 50.36374 | 3.49700 | 116° | 141km/h | 7921m | -2.9m/s | -27.2°C | 6.1% | -1.0hPa | 2.5V | 00:00:00 | 00:00:00 | 00:00:00 | |
| DM0DOS-11 | 2026-09-05 02:03:52 | 50.36480 | 3.49341 | 112° | 142km/h | 7942m | -3.1m/s | -27.2°C | 7.2% | 0hPa | 2.5V | 07:27:42 | 03:13:29 | 00:00:00 | |
| DO1YAY-16 | 2026-09-05 02:03:32 | 50.36703 | 3.48565 | 117° | 133km/h | 7988m | -2.9m/s | -27.4°C | 5.5% | -1.0hPa | 2.5V | 00:00:00 | 00:00:00 | 00:00:00 | |
| DB0UT-7 | 2026-09-05 02:03:28 | 50.36753 | 3.48422 | 119° | 142km/h | 7997m | -2.8m/s | -27.3°C | 6.5% | 0hPa | 2.5V | 00:00:00 | 00:00:00 | 00:00:00 | |
| DM0DOS-11 | 2026-09-05 02:03:23 | 50.36854 | 3.48116 | 115° | 146km/h | 8014m | -3m/s | -27.3°C | 6.2% | 0hPa | 2.5V | 07:28:07 | 03:13:04 | 00:00:00 | |
| WEDDY | 2026-09-05 02:03:09 | 50.37033 | 3.47485 | 113° | 141km/h | 8050m | -3.1m/s | -27.6°C | 5.4% | 0hPa | 2.6V | 00:00:00 | 00:00:00 | 00:00:00 | |
| DM0DOS-11 | 2026-09-05 02:03:03 | 50.37165 | 3.46998 | 116° | 131km/h | 8080m | -2.9m/s | -27.8°C | 6.3% | 0hPa | 2.6V | 07:28:29 | 03:12:42 | 00:00:00 | |
| DO1YAY-16 | 2026-09-05 02:03:01 | 50.37166 | 3.46998 | 116° | 131km/h | 8080m | -2.9m/s | -27.8°C | 5.2% | -1.0hPa | 2.6V | 00:00:00 | 00:00:00 | 00:00:00 | |
| DM0DOS-11 | 2026-09-05 02:02:53 | 50.37329 | 3.46503 | 114° | 148km/h | 8111m | -3.1m/s | -28°C | 6.5% | 0hPa | 2.6V | 07:28:39 | 03:12:32 | 00:00:00 | |
| AU51GT2 | 2026-09-05 02:02:52 | 50.37296 | 3.46608 | 117° | 146km/h | 8105m | -3.0m/s | -28.0°C | 5.4% | -1.0hPa | 2.6V | 00:00:00 | 00:00:00 | 00:00:00 | |
| WEDDY | 2026-09-05 02:02:46 | 50.37375 | 3.46343 | 114° | 146km/h | 8119m | -3.1m/s | -28.0°C | 5.3% | 0hPa | 2.6V | 00:00:00 | 00:00:00 | 00:00:00 | |
| DM0DOS-11 | 2026-09-05 02:02:43 | 50.37468 | 3.45981 | 112° | 135km/h | 8139m | -3m/s | -28.1°C | 6.3% | 0hPa | 2.6V | 07:28:49 | 03:12:22 | 00:00:00 | |
| DM0DOS-11 | 2026-09-05 02:02:33 | 50.37619 | 3.45504 | 118° | 139km/h | 8169m | -3.3m/s | -28.3°C | 6.3% | 0hPa | 2.5V | 07:28:59 | 03:12:12 | 00:00:00 | |
| DO1YAY-16 | 2026-09-05 02:02:30 | 50.37636 | 3.45456 | 119° | 137km/h | 8173m | -3.2m/s | -28.3°C | 5.1% | -1.0hPa | 2.5V | 00:00:00 | 00:00:00 | 00:00:00 | |
| DM0DOS-11 | 2026-09-05 02:02:23 | 50.37789 | 3.45005 | 116° | 151km/h | 8199m | -3.1m/s | -28.4°C | 6.2% | 0hPa | 2.5V | 07:29:09 | 03:12:02 | 00:00:00 | |
| AU51GT2 | 2026-09-05 02:02:21 | 50.37772 | 3.45058 | 116° | 146km/h | 8196m | -3.1m/s | -28.4°C | 5.1% | -1.0hPa | 2.5V | 00:00:00 | 00:00:00 | 00:00:00 | |
| DB0UT-7 | 2026-09-05 02:02:16 | 50.37851 | 3.44790 | 113° | 144km/h | 8211m | -3.0m/s | -28.4°C | 6.1% | 0hPa | 2.5V | 07:29:00 | 03:11:58 | 00:00:00 | |
| DM0DOS-11 | 2026-09-05 02:01:59 | 50.38186 | 3.43673 | 116° | 151km/h | 8277m | -3.2m/s | -28.7°C | 6.2% | 0hPa | 2.5V | 07:29:35 | 03:11:36 | 00:00:00 | |
| DO1YAY-16 | 2026-09-05 02:01:59 | 50.38116 | 3.43883 | 118° | 146km/h | 8265m | -3.1m/s | -28.7°C | 5.1% | -1.0hPa | 2.6V | 00:00:00 | 00:00:00 | 00:00:00 | |
| AU51GT2 | 2026-09-05 02:01:50 | 50.38250 | 3.43455 | 113° | 148km/h | 8289m | -3.1m/s | -28.8°C | -1.0% | -1.0hPa | 2.6V | 00:00:00 | 00:00:00 | 00:00:00 | |
| DM0DOS-11 | 2026-09-05 02:01:49 | 50.38334 | 3.43140 | 113° | 137km/h | 8306m | -2.9m/s | -28.9°C | 6.5% | 0hPa | 2.6V | 07:29:45 | 03:11:26 | 00:00:00 | |
| DB0UT-7 | 2026-09-05 02:01:46 | 50.38306 | 3.43242 | 113° | 144km/h | 8301m | -2.7m/s | -28.9°C | 6.4% | 0hPa | 2.6V | 00:00:00 | 00:00:00 | 00:00:00 | |
| DM0DOS-11 | 2026-09-05 02:01:39 | 50.38491 | 3.42646 | 119° | 148km/h | 8337m | -3.1m/s | -29.2°C | 6.7% | 0hPa | 2.6V | 07:29:55 | 03:11:16 | 00:00:00 | |
| WEDDY | 2026-09-05 02:01:37 | 50.38423 | 3.42846 | 118° | 139km/h | 8324m | -3.0m/s | -29.1°C | 5.5% | 0hPa | 2.5V | 07:29:00 | 00:00:00 | 00:00:00 | |
| DM0DOS-11 | 2026-09-05 02:01:29 | 50.38661 | 3.42107 | 112° | 151km/h | 8367m | -2.8m/s | -29.4°C | 7.1% | 0hPa | 2.5V | 07:30:05 | 03:11:06 | 00:00:00 | |
| BIOWL1-15 | 2026-09-05 02:01:20 | 50.38717 | 3.41893 | 112° | 141km/h | 8377m | -3m/s | -29.5°C | 6.8% | 0hPa | 2.6V | 07:32:29 | 03:11:02 | 00:00:00 | |
| DM0DOS-11 | 2026-09-05 02:01:19 | 50.38803 | 3.41592 | 116° | 139km/h | 8396m | -3m/s | -29.6°C | 7% | 0hPa | 2.6V | 07:30:15 | 03:10:56 | 00:00:00 | |
| AU51GT2 | 2026-09-05 02:01:19 | 50.38730 | 3.41842 | 113° | 141km/h | 8380m | -3.4m/s | 0°C | -1.0% | -1.0hPa | 2.6V | 00:00:00 | 00:00:00 | 00:00:00 | |
| WEDDY | 2026-09-05 02:01:15 | 50.38773 | 3.41691 | 116° | 139km/h | 8390m | -3.0m/s | -29.6°C | 5.7% | 0hPa | 2.6V | 00:00:00 | 00:00:00 | 00:00:00 | |
| DM0DOS-11 | 2026-09-05 02:01:09 | 50.38976 | 3.41074 | 116° | 153km/h | 8424m | -2.8m/s | -29.9°C | 7.2% | 0hPa | 2.6V | 07:30:25 | 03:10:46 | 00:00:00 | |
| BIOWL1-15 | 2026-09-05 02:01:07 | 50.38958 | 3.41129 | 117° | 155km/h | 8422m | -2.9m/s | -29.9°C | 6.9% | 0hPa | 2.6V | 07:32:29 | 03:10:47 | 00:00:00 | |
| DM0DOS-11 | 2026-09-05 02:00:59 | 50.39132 | 3.40518 | 111° | 150km/h | 8456m | -3.4m/s | -30.1°C | 7.2% | 0hPa | 2.5V | 07:30:35 | 03:10:36 | 00:00:00 | |
| DO1YAY-16 | 2026-09-05 02:00:56 | 50.39104 | 3.40628 | 111° | 150km/h | 8449m | -3.4m/s | -30.1°C | 5.9% | -1.0hPa | 2.6V | 00:00:00 | 00:00:00 | 00:00:00 | |
| DM0DOS-11 | 2026-09-05 02:00:49 | 50.39270 | 3.39997 | 116° | 141km/h | 8487m | -3m/s | -30.4°C | 7.4% | 0hPa | 2.6V | 07:30:45 | 03:10:26 | 00:00:00 | |
| BIOWL1-15 | 2026-09-05 02:00:20 | 50.39708 | 3.38437 | 109° | 155km/h | 8573m | -3.2m/s | -30.9°C | 7.3% | 0hPa | 2.6V | 07:32:29 | 03:09:58 | 00:00:00 | |
| BIOWL1-15 | 2026-09-05 02:00:08 | 50.39828 | 3.37887 | 111° | 141km/h | 8602m | -2.9m/s | -31.1°C | 6.4% | 0hPa | 2.6V | 07:32:29 | 03:09:48 | 00:00:00 | |
| BIOWL1-15 | 2026-09-05 01:59:56 | 50.40007 | 3.37255 | 114° | 155km/h | 8640m | -3m/s | -31.3°C | 6.5% | 0hPa | 2.6V | 07:32:29 | 03:09:36 | 00:00:00 | |
| DO1YAY-16 | 2026-09-05 01:59:54 | 50.40007 | 3.37255 | 113° | 153km/h | 8640m | -3.0m/s | -31.3°C | 5.5% | -1.0hPa | 2.5V | 00:00:00 | 00:00:00 | 00:00:00 | |
| BIOWL1-15 | 2026-09-05 01:59:41 | 50.40182 | 3.36512 | 109° | 142km/h | 8679m | -3.2m/s | -31.5°C | 6.7% | 0hPa | 2.5V | 07:32:29 | 03:09:23 | 00:00:00 | |
| BIOWL1-15 | 2026-09-05 01:59:30 | 50.40341 | 3.35935 | 115° | 151km/h | 8712m | -3.1m/s | -31.9°C | 6.9% | 0hPa | 2.5V | 07:32:29 | 03:09:12 | 00:00:00 | |
| DM0DOS-11 | 2026-09-05 01:59:29 | 50.40438 | 3.35597 | 112° | 159km/h | 8731m | -3.1m/s | -32°C | 7.2% | 0hPa | 2.5V | 07:32:05 | 03:09:06 | 00:00:00 | |
| DO1YAY-16 | 2026-09-05 01:59:23 | 50.40453 | 3.35539 | 112° | 157km/h | 8734m | -3.1m/s | -32.1°C | 5.8% | -1.0hPa | 2.6V | 00:00:00 | 00:00:00 | 00:00:00 | |
| DM0DOS-11 | 2026-09-05 01:59:19 | 50.40569 | 3.35028 | 109° | 142km/h | 8761m | -2.9m/s | -32.2°C | 7.2% | 0hPa | 2.6V | 07:32:15 | 03:08:56 | 00:00:00 | |
| BIOWL1-15 | 2026-09-05 01:59:19 | 50.40509 | 3.35306 | 109° | 153km/h | 8746m | -3m/s | -32.1°C | 6.7% | 0hPa | 2.6V | 07:32:29 | 03:09:01 | 00:00:00 | |
| BIOWL1-15 | 2026-09-05 01:59:11 | 50.40631 | 3.34767 | 112° | 141km/h | 8775m | -2.9m/s | -32.4°C | 6.8% | 0hPa | 2.6V | 07:32:29 | 03:08:51 | 00:00:00 | |
| DO9LL-15 | 2026-09-05 01:59:09 | 50.40631 | 3.34767 | 113° | 150km/h | 8775m | -2.8m/s | -32.3°C | 7.2% | 0hPa | 2.6V | 00:00:00 | 03:08:51 | 00:00:00 | |
| DM0DOS-11 | 2026-09-05 01:59:03 | 50.40753 | 3.34346 | 114° | 155km/h | 8799m | -2.9m/s | -32.5°C | 7.3% | 0hPa | 2.6V | 07:32:28 | 03:08:43 | 00:00:00 | |
| BIOWL1-15 | 2026-09-05 01:59:01 | 50.40785 | 3.34234 | 113° | 157km/h | 8805m | -3m/s | -32.6°C | 7.1% | 0hPa | 2.5V | 07:33:20 | 03:08:41 | 00:00:00 | |
| DM0DOS-11 | 2026-09-05 01:58:53 | 50.40899 | 3.33767 | 109° | 155km/h | 8829m | -3.1m/s | -32.8°C | 7.4% | 0hPa | 2.6V | 07:32:38 | 03:08:33 | 00:00:00 | |
| BIOWL1-15 | 2026-09-05 01:58:48 | 50.40937 | 3.33592 | 108° | 153km/h | 8839m | -2.9m/s | -32.9°C | 7.2% | 0hPa | 2.5V | 07:33:20 | 03:08:30 | 00:00:00 | |
| BIOWL9-15 | 2026-09-05 01:58:46 | 50.40984 | 3.33369 | 108° | 142km/h | 8850m | -2.8m/s | 0°C | -1.0% | -1.0hPa | 2.5V | 00:00:00 | 00:00:00 | 00:00:00 | |
| DM0DOS-11 | 2026-09-05 01:58:43 | 50.41021 | 3.33210 | 111° | 141km/h | 8859m | -2.9m/s | -33°C | 7.6% | 0hPa | 2.5V | 07:32:48 | 03:08:23 | 00:00:00 | |
| BIOWL1-15 | 2026-09-05 01:58:34 | 50.41123 | 3.32846 | 115° | 148km/h | 8880m | -3.1m/s | -33.2°C | 7.5% | 0hPa | 2.5V | 07:33:20 | 03:08:16 | 00:00:00 | |
| DM0DOS-11 | 2026-09-05 01:58:33 | 50.41171 | 3.32685 | 114° | 151km/h | 8889m | -3.1m/s | -33.3°C | 7.7% | 0hPa | 2.6V | 07:32:58 | 03:08:13 | 00:00:00 | |
| BIOWL1-15 | 2026-09-05 01:58:23 | 50.41313 | 3.32173 | 111° | 159km/h | 8917m | -3m/s | -33.5°C | 7.6% | 0hPa | 2.5V | 07:33:20 | 03:08:04 | 00:00:00 | |
| DM0DOS-11 | 2026-09-05 01:58:23 | 50.41327 | 3.32114 | 110° | 159km/h | 8920m | -3m/s | -33.5°C | 7.8% | 0hPa | 2.5V | 07:33:08 | 03:08:03 | 00:00:00 | |
| BIOWL1-15 | 2026-09-05 01:58:15 | 50.41429 | 3.31663 | 110° | 142km/h | 8943m | -2.9m/s | -33.7°C | 7.7% | 0hPa | 2.5V | 07:33:20 | 03:07:55 | 00:00:00 | |
| DM0DOS-11 | 2026-09-05 01:58:13 | 50.41455 | 3.31558 | 111° | 142km/h | 8949m | -3.1m/s | -33.8°C | 8% | 0hPa | 2.6V | 07:33:18 | 03:07:53 | 00:00:00 | |
| DO9LL-15 | 2026-09-05 01:58:09 | 50.41482 | 3.31454 | 114° | 151km/h | 8955m | -2.8m/s | -33.8°C | 8.0% | 0hPa | 2.5V | 00:00:00 | 03:07:51 | 00:00:00 | |
| DM0DOS-11 | 2026-09-05 01:58:03 | 50.41608 | 3.31030 | 115° | 155km/h | 8979m | -2.7m/s | -34°C | 8.1% | 0hPa | 2.5V | 07:33:28 | 03:07:43 | 00:00:00 | |
| BIOWL1-15 | 2026-09-05 01:58:02 | 50.41591 | 3.31085 | 116° | 153km/h | 8976m | -2.9m/s | -34°C | 8% | 0hPa | 2.5V | 07:34:11 | 03:07:44 | 00:00:00 | |
| DM0DOS-11 | 2026-09-05 01:57:53 | 50.41761 | 3.30448 | 109° | 157km/h | 9010m | -3m/s | -34.3°C | 8.3% | 0hPa | 2.6V | 07:33:38 | 03:07:33 | 00:00:00 | |
| BIOWL1-15 | 2026-09-05 01:57:52 | 50.41747 | 3.30507 | 110° | 159km/h | 9007m | -3m/s | -34.3°C | 8.2% | 0hPa | 2.5V | 07:34:11 | 03:07:34 | 00:00:00 | |
| DO1YAY-16 | 2026-09-05 01:57:50 | 50.41773 | 3.30390 | 108° | 153km/h | 9013m | -3.1m/s | -34.3°C | 6.6% | -1.0hPa | 2.5V | 00:00:00 | 00:00:00 | 00:00:00 | |
| BIOWL9-15 | 2026-09-05 01:57:44 | 50.41846 | 3.30057 | 110° | 142km/h | 9031m | -2.9m/s | -34.5°C | 6.7% | -1.0hPa | 2.5V | 00:00:00 | 00:00:00 | 00:00:00 | |
| DM0DOS-11 | 2026-09-05 01:57:43 | 50.41887 | 3.29900 | 113° | 144km/h | 9040m | -2.7m/s | -34.6°C | 8.4% | 0hPa | 2.5V | 07:33:48 | 03:07:23 | 00:00:00 | |
| BIOWL1-15 | 2026-09-05 01:57:41 | 50.41887 | 3.29900 | 114° | 144km/h | 9040m | -2.7m/s | -34.6°C | 8.3% | 0hPa | 2.5V | 07:34:11 | 03:07:23 | 00:00:00 | |
| DO9LL-15 | 2026-09-05 01:57:39 | 50.41918 | 3.29795 | 116° | 150km/h | 9046m | -2.8m/s | -34.6°C | 8.5% | 0hPa | 2.5V | 00:00:00 | 03:07:21 | 00:00:00 | |
| DM0DOS-11 | 2026-09-05 01:57:33 | 50.42048 | 3.29344 | 112° | 161km/h | 9069m | -2.8m/s | -34.8°C | 8.6% | 0hPa | 2.5V | 07:33:58 | 03:07:13 | 00:00:00 | |
| BIOWL1-15 | 2026-09-05 01:57:30 | 50.42063 | 3.29286 | 112° | 161km/h | 9071m | -2.8m/s | -34.9°C | 8.6% | 0hPa | 2.6V | 07:34:11 | 03:07:12 | 00:00:00 | |
| DM0DOS-11 | 2026-09-05 01:57:23 | 50.42181 | 3.28759 | 107° | 150km/h | 9099m | -2.7m/s | -35.1°C | 8.8% | 0hPa | 2.6V | 07:34:08 | 03:07:03 | 00:00:00 | |
| BIOWL1-15 | 2026-09-05 01:57:23 | 50.42205 | 3.28649 | 109° | 146km/h | 9105m | -3.2m/s | -35.2°C | 8.8% | 0hPa | 2.5V | 07:34:11 | 03:07:01 | 00:00:00 | |
| DO1YAY-16 | 2026-09-05 01:57:19 | 50.42205 | 3.28649 | 109° | 144km/h | 9105m | -3.2m/s | -35.2°C | 7.0% | -1.0hPa | 2.5V | 00:00:00 | 00:00:00 | 00:00:00 | |
| DM0DOS-11 | 2026-09-05 01:57:13 | 50.42316 | 3.28226 | 114° | 151km/h | 9128m | -3m/s | -35.4°C | 9% | 0hPa | 2.5V | 07:34:18 | 03:06:53 | 00:00:00 | |
| BIOWL1-15 | 2026-09-05 01:57:09 | 50.42349 | 3.28115 | 114° | 155km/h | 9134m | -2.7m/s | -35.5°C | 9.1% | 0hPa | 2.6V | 07:35:02 | 03:06:51 | 00:00:00 | |
| DB0UT-7 | 2026-09-05 01:57:07 | 50.42381 | 3.28001 | 114° | 155km/h | 9140m | -2.8m/s | -35.5°C | 9.0% | 0hPa | 2.5V | 00:00:00 | 03:06:49 | 00:00:00 | |
| DM0DOS-11 | 2026-09-05 01:57:03 | 50.42472 | 3.27646 | 109° | 161km/h | 9159m | -2.7m/s | -35.6°C | 9.1% | 0hPa | 2.5V | 07:34:28 | 03:06:43 | 00:00:00 | |
| BIOWL1-15 | 2026-09-05 01:57:01 | 50.42498 | 3.27526 | 109° | 159km/h | 9165m | -2.7m/s | -35.7°C | 9.2% | 0hPa | 2.5V | 07:35:02 | 03:06:41 | 00:00:00 | |
| DM0DOS-11 | 2026-09-05 01:56:53 | 50.42595 | 3.27078 | 110° | 142km/h | 9188m | -3m/s | -35.9°C | 9.1% | 0hPa | 2.5V | 07:34:38 | 03:06:33 | 00:00:00 | |
| BIOWL1-15 | 2026-09-05 01:56:49 | 50.42622 | 3.26972 | 113° | 144km/h | 9194m | -2.8m/s | -35.9°C | 9.1% | 0hPa | 2.6V | 07:35:02 | 03:06:31 | 00:00:00 | |
| DO1YAY-16 | 2026-09-05 01:56:48 | 50.42636 | 3.26919 | 113° | 146km/h | 9197m | -2.8m/s | -35.9°C | 7.2% | -1.0hPa | 2.5V | 00:00:00 | 00:00:00 | 00:00:00 | |
| DM0DOS-11 | 2026-09-05 01:56:43 | 50.42746 | 3.26530 | 113° | 161km/h | 9217m | -3.4m/s | -36.1°C | 8.8% | 0hPa | 2.5V | 07:34:48 | 03:06:23 | 00:00:00 | |
| BIOWL1-15 | 2026-09-05 01:56:38 | 50.42792 | 3.26352 | 110° | 162km/h | 9226m | -3.1m/s | -36.2°C | 8.7% | 0hPa | 2.6V | 07:35:02 | 03:06:20 | 00:00:00 | |
| BIOWL1-15 | 2026-09-05 01:56:27 | 50.42939 | 3.25671 | 110° | 142km/h | 9262m | -3m/s | -36.5°C | 8.8% | 0hPa | 2.6V | 07:36:44 | 03:06:08 | 00:00:00 | |
| DM0DOS-11 | 2026-09-05 01:56:23 | 50.43006 | 3.25407 | 112° | 144km/h | 9278m | -2.9m/s | -36.6°C | 8.9% | 0hPa | 2.5V | 07:35:08 | 03:06:03 | 00:00:00 | |
| BIOWL1-15 | 2026-09-05 01:56:15 | 50.43100 | 3.25079 | 114° | 159km/h | 9296m | -3m/s | -36.8°C | 9.2% | 0hPa | 2.5V | 07:36:44 | 03:05:57 | 00:00:00 | |
| BIOWL1-15 | 2026-09-05 01:56:03 | 50.43261 | 3.24376 | 107° | 148km/h | 9331m | -3m/s | -37.1°C | 9.5% | 0hPa | 2.6V | 07:36:44 | 03:05:45 | 00:00:00 | |
| BIOWL1-15 | 2026-09-05 01:55:52 | 50.43445 | 3.23678 | 114° | 157km/h | 9372m | -3m/s | -37.5°C | 9.7% | 0hPa | 2.5V | 07:36:44 | 03:05:32 | 00:00:00 | |
| DO1YAY-16 | 2026-09-05 01:55:46 | 50.43523 | 3.23385 | 110° | 161km/h | 9387m | -2.6m/s | -37.7°C | 7.7% | -1.0hPa | 2.5V | 00:00:00 | 00:00:00 | 00:00:00 | |
| BIOWL1-15 | 2026-09-05 01:55:38 | 50.43609 | 3.22972 | 108° | 151km/h | 9407m | -3.2m/s | -37.9°C | 9.9% | 0hPa | 2.5V | 07:36:44 | 03:05:20 | 00:00:00 | |
| BIOWL1-15 | 2026-09-05 01:55:28 | 50.43741 | 3.22436 | 115° | 150km/h | 9438m | -3.3m/s | -38.1°C | 10.1% | 0hPa | 2.5V | 07:36:44 | 03:05:10 | 00:00:00 | |
| BIOWL1-15 | 2026-09-05 01:55:19 | 50.43912 | 3.21805 | 109° | 159km/h | 9474m | -3m/s | -38.4°C | 10.5% | 0hPa | 2.5V | 07:36:44 | 03:04:59 | 00:00:00 | |
| BIOWL1-15 | 2026-09-05 01:55:07 | 50.44042 | 3.21183 | 109° | 142km/h | 9509m | -3.2m/s | -38.7°C | 10.5% | 0hPa | 2.5V | 07:36:44 | 03:04:48 | 00:00:00 | |
| AU51GT2 | 2026-09-05 01:55:07 | 50.44042 | 3.21183 | 109° | 141km/h | 9509m | -3.2m/s | -38.7°C | 8.2% | -1.0hPa | 2.5V | 00:00:00 | 00:00:00 | 00:00:00 | |
| DO9LL-15 | 2026-09-05 01:55:06 | 50.44042 | 3.21183 | 110° | 148km/h | 9509m | -3.2m/s | -38.7°C | 10.4% | 0hPa | 2.5V | 00:00:00 | 03:04:48 | 00:00:00 | |
| DM0DOS-11 | 2026-09-05 01:55:02 | 50.44169 | 3.20706 | 114° | 155km/h | 9537m | -2.6m/s | -39°C | 10.5% | 0hPa | 2.5V | 07:36:32 | 03:04:39 | 00:00:00 | |
| BIOWL1-15 | 2026-09-05 01:54:56 | 50.44184 | 3.20650 | 114° | 157km/h | 9539m | -2.7m/s | -39°C | 10.6% | 0hPa | 2.5V | 07:36:44 | 03:04:38 | 00:00:00 | |
| DB0UT-7 | 2026-09-05 01:54:55 | 50.44200 | 3.20592 | 113° | 150km/h | 9542m | -2.9m/s | -39.0°C | 10.5% | 0hPa | 2.5V | 00:00:00 | 00:00:00 | 00:00:00 | |
| DM0DOS-11 | 2026-09-05 01:54:52 | 50.44303 | 3.20125 | 107° | 151km/h | 9567m | -3.3m/s | -39.2°C | 10.8% | 0hPa | 2.5V | 07:36:42 | 03:04:29 | 00:00:00 | |
| BIOWL1-15 | 2026-09-05 01:54:47 | 50.44325 | 3.20013 | 107° | 146km/h | 9573m | -3m/s | 0°C | 0% | 0hPa | 2.5V | 07:36:44 | 03:04:27 | 00:00:00 | |
| DO1YAY-16 | 2026-09-05 01:54:44 | 50.44348 | 3.19905 | 108° | 141km/h | 9579m | -3.2m/s | -39.4°C | 8.6% | -1.0hPa | 2.5V | 00:00:00 | 00:00:00 | 00:00:00 | |
| DM0DOS-11 | 2026-09-05 01:54:42 | 50.44421 | 3.19594 | 112° | 141km/h | 9598m | -2.9m/s | -39.5°C | 11.1% | 0hPa | 2.5V | 07:36:52 | 03:04:19 | 00:00:00 | |
| BIOWL1-15 | 2026-09-05 01:54:36 | 50.44463 | 3.19438 | 114° | 148km/h | 9607m | -3m/s | 0°C | 0% | 0hPa | 2.5V | 07:37:35 | 03:04:16 | 00:00:00 | |
| BIOWL1-15 | 2026-09-05 01:54:24 | 50.44606 | 3.18867 | 108° | 157km/h | 9637m | -3.1m/s | 0°C | 0% | 0hPa | 2.5V | 07:37:35 | 03:04:06 | 00:00:00 | |
| DM0DOS-11 | 2026-09-05 01:54:20 | 50.44705 | 3.18369 | 109° | 139km/h | 9665m | -2.9m/s | -40°C | 10.6% | 0hPa | 2.5V | 07:37:14 | 03:03:57 | 00:00:00 | |
| BIOWL1-15 | 2026-09-05 01:54:13 | 50.44729 | 3.18266 | 111° | 139km/h | 9670m | -2.9m/s | 0°C | 0% | 0hPa | 2.5V | 07:37:35 | 03:03:55 | 00:00:00 | |
| BIOWL1-15 | 2026-09-05 01:54:03 | 50.44874 | 3.17730 | 112° | 155km/h | 9700m | -2.9m/s | 0°C | 0% | 0hPa | 2.5V | 07:37:35 | 03:03:45 | 00:00:00 | |
| BIOWL1-15 | 2026-09-05 01:53:53 | 50.44995 | 3.17150 | 107° | 150km/h | 9731m | -3.3m/s | 0°C | 0% | 0hPa | 2.5V | 18:12:15 | 03:03:35 | 00:00:00 | |
| BIOWL1-15 | 2026-09-05 01:53:42 | 50.45110 | 3.16554 | 109° | 137km/h | 9766m | -2.9m/s | 0°C | 0% | 0hPa | 2.5V | 18:12:15 | 03:03:24 | 00:00:00 | |
| BIOWL1-15 | 2026-09-05 01:53:30 | 50.45275 | 3.15911 | 111° | 155km/h | 9800m | -3m/s | 0°C | 0% | 0hPa | 2.5V | 18:12:15 | 03:03:12 | 00:00:00 | |
| BIOWL1-15 | 2026-09-05 01:53:21 | 50.45406 | 3.15271 | 105° | 151km/h | 9836m | -3.3m/s | 0°C | 0% | 0hPa | 2.5V | 18:12:15 | 03:03:01 | 00:00:00 | |
| BIOWL1-15 | 2026-09-05 01:53:08 | 50.45505 | 3.14659 | 105° | 137km/h | 9874m | -2.9m/s | 0°C | 0% | 0hPa | 2.5V | 18:12:15 | 03:02:50 | 00:00:00 | |
| DO9LL-15 | 2026-09-05 01:53:08 | 50.45505 | 3.14659 | 105° | 139km/h | 9874m | -2.9m/s | -41.7°C | 11.3% | 0hPa | 2.5V | 00:00:00 | 03:02:50 | 00:00:00 | |
| AU51GT2 | 2026-09-05 01:53:03 | 50.45566 | 3.14349 | 109° | 141km/h | 9891m | -2.9m/s | -41.8°C | 9.0% | -1.0hPa | 2.4V | 00:00:00 | 00:00:00 | 00:00:00 | |
| WEDDY | 2026-09-05 01:52:47 | 50.45732 | 3.13550 | 105° | 155km/h | 9936m | -3.4m/s | -42.2°C | 9.2% | 0hPa | 2.4V | 00:00:00 | 00:00:00 | 00:00:00 | |
| DO1YAY-16 | 2026-09-05 01:52:39 | 50.45805 | 3.13036 | 103° | 137km/h | 9967m | -2.6m/s | -42.4°C | 8.5% | -1.0hPa | 2.4V | 00:00:00 | 00:00:00 | 00:00:00 | |
| DO9LL-15 | 2026-09-05 01:52:38 | 50.45813 | 3.12983 | 105° | 146km/h | 9970m | -3.1m/s | -42.4°C | 11.0% | 0hPa | 2.4V | 00:00:00 | 03:02:20 | 00:00:00 | |
| AU51GT2 | 2026-09-05 01:52:31 | 50.45884 | 3.12614 | 108° | 144km/h | 9992m | -3.1m/s | -42.6°C | 8.1% | -1.0hPa | 2.4V | 00:00:00 | 00:00:00 | 00:00:00 | |
| DM0DOS-11 | 2026-09-05 01:52:27 | 50.45982 | 3.12089 | 103° | 155km/h | 10022m | -2.8m/s | -42.9°C | 10.4% | 0hPa | 2.4V | 07:39:07 | 03:02:04 | 00:00:00 | |
| WEDDY | 2026-09-05 01:52:17 | 50.46014 | 3.11853 | 102° | 150km/h | 10033m | -3.1m/s | -43.0°C | 8.0% | 0hPa | 2.5V | 00:00:00 | 00:00:00 | 00:00:00 | |
| DM0DOS-11 | 2026-09-05 01:52:12 | 50.46079 | 3.11356 | 105° | 139km/h | 10062m | -3.3m/s | -43.2°C | 10.9% | 0hPa | 2.5V | 07:39:20 | 03:01:51 | 00:00:00 | |
| DO1YAY-16 | 2026-09-05 01:52:08 | 50.46089 | 3.11303 | 105° | 139km/h | 10065m | -3.0m/s | -43.2°C | 8.3% | -1.0hPa | 2.5V | 00:00:00 | 00:00:00 | 00:00:00 | |
| DM0DOS-11 | 2026-09-05 01:52:02 | 50.46189 | 3.10801 | 107° | 153km/h | 10093m | -3.5m/s | -43.5°C | 11.2% | 0hPa | 2.5V | 07:39:30 | 03:01:41 | 00:00:00 | |
| AU51GT2 | 2026-09-05 01:52:00 | 50.46177 | 3.10859 | 107° | 150km/h | 10089m | -3.3m/s | -43.5°C | 8.5% | -1.0hPa | 2.5V | 00:00:00 | 00:00:00 | 00:00:00 | |
| DB0UT-7 | 2026-09-05 01:51:59 | 50.46189 | 3.10801 | 108° | 153km/h | 10093m | -3.4m/s | -43.4°C | 11.2% | 0hPa | 2.5V | 00:00:00 | 03:01:41 | 00:00:00 | |
| DM0DOS-11 | 2026-09-05 01:51:52 | 50.46303 | 3.10210 | 105° | 159km/h | 10126m | -3.6m/s | -43.8°C | 11.5% | 0hPa | 2.5V | 07:39:40 | 03:01:31 | 00:00:00 | |
| DM0DOS-11 | 2026-09-05 01:51:42 | 50.46390 | 3.09601 | 101° | 150km/h | 10157m | -2.9m/s | -44°C | 12% | 0hPa | 2.5V | 07:39:50 | 03:01:21 | 00:00:00 | |
| DO1YAY-16 | 2026-09-05 01:51:37 | 50.46405 | 3.09486 | 102° | 144km/h | 10163m | -2.9m/s | -44.0°C | 9.2% | -1.0hPa | 2.5V | 00:00:00 | 00:00:00 | 00:00:00 | |
| DM0DOS-11 | 2026-09-05 01:51:32 | 50.46481 | 3.09046 | 107° | 144km/h | 10189m | -3.5m/s | -44.2°C | 12.7% | 0hPa | 2.5V | 07:40:00 | 03:01:11 | 00:00:00 | |
| DB0UT-7 | 2026-09-05 01:51:29 | 50.46481 | 3.09046 | 108° | 150km/h | 10189m | -3.4m/s | -44.1°C | 12.7% | 0hPa | 2.5V | 00:00:00 | 00:00:00 | 00:00:00 | |
| DM0DOS-11 | 2026-09-05 01:51:22 | 50.46605 | 3.08474 | 109° | 159km/h | 10222m | -3.2m/s | -44.4°C | 13% | 0hPa | 2.5V | 07:40:10 | 03:01:01 | 00:00:00 | |
| DO9LL-15 | 2026-09-05 01:51:20 | 50.46592 | 3.08533 | 110° | 159km/h | 10219m | -3.1m/s | -44.4°C | 13.0% | 0hPa | 2.5V | 00:00:00 | 03:01:02 | 00:00:00 | |
| DM0DOS-11 | 2026-09-05 01:51:12 | 50.46728 | 3.07855 | 104° | 162km/h | 10253m | -3.1m/s | -44.7°C | 14.1% | 0hPa | 2.5V | 07:40:20 | 03:00:51 | 00:00:00 | |
| DO1YAY-16 | 2026-09-05 01:51:06 | 50.46756 | 3.07670 | 103° | 155km/h | 10262m | -3.0m/s | -44.8°C | 11.1% | -1.0hPa | 2.4V | 00:00:00 | 00:00:00 | 00:00:00 | |
| DM0DOS-11 | 2026-09-05 01:51:02 | 50.46823 | 3.07263 | 105° | 148km/h | 10283m | -3.1m/s | -45°C | 14.6% | 0hPa | 2.4V | 07:40:30 | 03:00:41 | 00:00:00 | |
| AU51GT2 | 2026-09-05 01:50:58 | 50.46834 | 3.07207 | 106° | 148km/h | 10286m | -3.4m/s | -45.0°C | 11.5% | -1.0hPa | 2.4V | 00:00:00 | 00:00:00 | 00:00:00 | |
| DM0DOS-11 | 2026-09-05 01:50:52 | 50.46943 | 3.06699 | 110° | 155km/h | 10315m | -2.9m/s | -45.2°C | 15.6% | 0hPa | 2.4V | 07:40:40 | 03:00:31 | 00:00:00 | |
| DM0DOS-11 | 2026-09-05 01:50:43 | 50.47078 | 3.06083 | 105° | 166km/h | 10344m | -2.8m/s | -45.4°C | 16.2% | 0hPa | 2.5V | 07:40:50 | 03:00:21 | 00:00:00 | |
| DO9LL-15 | 2026-09-05 01:50:43 | 50.47028 | 3.06337 | 109° | 166km/h | 10333m | -2.9m/s | -45.3°C | 15.6% | 0hPa | 2.4V | 00:00:00 | 03:00:25 | 00:00:00 | |
| AU51GT2 | 2026-09-05 01:50:27 | 50.47203 | 3.05372 | 107° | 148km/h | 10379m | -3.0m/s | -45.8°C | 14.1% | -1.0hPa | 2.5V | 00:00:00 | 00:00:00 | 00:00:00 | |
| DM0DOS-11 | 2026-09-05 01:50:21 | 50.47305 | 3.04925 | 110° | 151km/h | 10406m | -4.3m/s | -46°C | 17.9% | 0hPa | 2.5V | 07:41:10 | 03:00:01 | 00:00:00 | |
| BIOWL1-15 | 2026-09-05 01:50:13 | 50.47390 | 3.04585 | 112° | 157km/h | 10430m | -3.6m/s | -46.2°C | 19.6% | 0hPa | 2.5V | 07:41:50 | 02:59:55 | 00:00:00 | |
| DM0DOS-11 | 2026-09-05 01:50:11 | 50.47451 | 3.04351 | 112° | 162km/h | 10445m | -3.3m/s | -46.3°C | 19.5% | 0hPa | 2.4V | 07:41:20 | 02:59:51 | 00:00:00 | |
| DO1YAY-16 | 2026-09-05 01:50:04 | 50.47530 | 3.04046 | 111° | 168km/h | 10462m | -3.5m/s | -46.5°C | 15.5% | -1.0hPa | 2.4V | 00:00:00 | 00:00:00 | 00:00:00 | |
| DM0DOS-11 | 2026-09-05 01:50:01 | 50.47602 | 3.03727 | 107° | 168km/h | 10479m | -3.2m/s | -46.6°C | 20.1% | 0hPa | 2.4V | 07:41:30 | 02:59:41 | 00:00:00 | |
| DM0DOS-11 | 2026-09-05 01:49:51 | 50.47724 | 3.03129 | 111° | 151km/h | 10511m | -3m/s | -46.9°C | 21.9% | 0hPa | 2.5V | 07:41:40 | 02:59:31 | 00:00:00 | |
| BIOWL1-15 | 2026-09-05 01:49:50 | 50.47710 | 3.03186 | 110° | 151km/h | 10508m | -3m/s | -46.9°C | 22.3% | 0hPa | 2.5V | 07:41:50 | 02:59:32 | 00:00:00 | |
| DB0UT-7 | 2026-09-05 01:49:45 | 50.47784 | 3.02902 | 114° | 164km/h | 10524m | -3.2m/s | -47.0°C | 22.1% | 0hPa | 2.5V | 00:00:00 | 00:00:00 | 00:00:00 | |
| DM0DOS-11 | 2026-09-05 01:49:41 | 50.47885 | 3.02544 | 113° | 170km/h | 10543m | -3.2m/s | -47.2°C | 22.4% | 0hPa | 2.5V | 07:41:50 | 02:59:21 | 00:00:00 | |
| BIOWL1-15 | 2026-09-05 01:49:39 | 50.47885 | 3.02544 | 113° | 170km/h | 10543m | -3.2m/s | -47.2°C | 23.4% | 0hPa | 2.5V | 07:41:50 | 02:59:21 | 00:00:00 | |
| DO1YAY-16 | 2026-09-05 01:49:33 | 50.47980 | 3.02162 | 108° | 172km/h | 10563m | -3.4m/s | -47.4°C | 18.1% | -1.0hPa | 2.5V | 00:00:00 | 00:00:00 | 00:00:00 | |
| DM0DOS-11 | 2026-09-05 01:49:31 | 50.48033 | 3.01904 | 107° | 168km/h | 10577m | -3.5m/s | -47.5°C | 23.2% | 0hPa | 2.5V | 07:42:00 | 02:59:11 | 00:00:00 | |
| BIOWL1-15 | 2026-09-05 01:49:29 | 50.48033 | 3.01904 | 107° | 168km/h | 10577m | -3.5m/s | -47.5°C | 24.4% | 0hPa | 2.5V | 07:42:41 | 02:59:11 | 00:00:00 | |
| BIOWL9-15 | 2026-09-05 01:49:27 | 50.48057 | 3.01779 | 107° | 162km/h | 10584m | -3.6m/s | -47.6°C | 19.1% | -1.0hPa | 2.4V | 00:00:00 | 00:00:00 | 00:00:00 | |
| AU51GT2 | 2026-09-05 01:49:25 | 50.48082 | 3.01656 | 107° | 159km/h | 10591m | -3.4m/s | -47.7°C | -1.0% | -1.0hPa | 2.4V | 00:00:00 | 00:00:00 | 00:00:00 | |
| DM0DOS-11 | 2026-09-05 01:49:21 | 50.48161 | 3.01307 | 112° | 155km/h | 10610m | -3.2m/s | -47.9°C | 25.6% | 0hPa | 2.4V | 07:42:10 | 02:59:01 | 00:00:00 | |
| BIOWL1-15 | 2026-09-05 01:49:15 | 50.48225 | 3.01077 | 114° | 162km/h | 10623m | -3.5m/s | -48°C | 26.6% | 0hPa | 2.5V | 07:42:41 | 02:58:57 | 00:00:00 | |
| DM0DOS-11 | 2026-09-05 01:49:11 | 50.48329 | 3.00709 | 112° | 175km/h | 10643m | -3.2m/s | -48.1°C | 25.8% | 0hPa | 2.5V | 07:42:20 | 02:58:51 | 00:00:00 | |
| BIOWL1-15 | 2026-09-05 01:49:02 | 50.48461 | 3.00132 | 108° | 162km/h | 10672m | -3.2m/s | -48.5°C | 28.4% | 0hPa | 2.5V | 07:42:41 | 02:58:42 | 00:00:00 | |
| DM0DOS-11 | 2026-09-05 01:49:01 | 50.48474 | 3.00071 | 108° | 161km/h | 10675m | -3.2m/s | -48.5°C | 27.9% | 0hPa | 2.5V | 07:42:30 | 02:58:41 | 00:00:00 | |
| BIOWL9-15 | 2026-09-05 01:48:56 | 50.48513 | 2.99891 | 109° | 157km/h | 10684m | -3.4m/s | -48.6°C | 23.4% | -1.0hPa | 2.5V | 00:00:00 | 00:00:00 | 00:00:00 | |
| AU51GT2 | 2026-09-05 01:48:54 | 50.48540 | 2.99774 | 110° | 157km/h | 10691m | -3.2m/s | 0°C | -1.0% | -1.0hPa | 2.5V | 00:00:00 | 00:00:00 | 00:00:00 | |
| DM0DOS-11 | 2026-09-05 01:48:51 | 50.48613 | 2.99485 | 113° | 157km/h | 10707m | -3.3m/s | -48.8°C | 29% | 0hPa | 2.5V | 07:42:40 | 02:58:31 | 00:00:00 | |
| BIOWL1-15 | 2026-09-05 01:48:51 | 50.48613 | 2.99485 | 113° | 157km/h | 10707m | -3.3m/s | -48.8°C | 29.6% | 0hPa | 2.5V | 07:42:41 | 02:58:31 | 00:00:00 | |
| WEDDY | 2026-09-05 01:48:46 | 50.48645 | 2.99371 | 115° | 157km/h | 10714m | -3.5m/s | -48.8°C | 23.8% | 0hPa | 2.4V | 07:43:00 | 00:00:00 | 00:00:00 | |
| DM0DOS-11 | 2026-09-05 01:48:41 | 50.48785 | 2.98906 | 115° | 170km/h | 10741m | -3.6m/s | -49°C | 29% | 0hPa | 2.4V | 07:42:50 | 02:58:21 | 00:00:00 | |
| BIOWL1-15 | 2026-09-05 01:48:38 | 50.48803 | 2.98845 | 115° | 172km/h | 10745m | -3.4m/s | -49.1°C | 30.1% | 0hPa | 2.5V | 07:43:32 | 02:58:20 | 00:00:00 | |
| DB0UT-7 | 2026-09-05 01:48:34 | 50.48874 | 2.98590 | 113° | 166km/h | 10758m | -3.2m/s | -49.1°C | 29.8% | 0hPa | 2.4V | 07:42:00 | 02:58:16 | 00:00:00 | |
| DM0DOS-11 | 2026-09-05 01:48:31 | 50.48952 | 2.98268 | 109° | 172km/h | 10775m | -3.2m/s | -49.4°C | 30.4% | 0hPa | 2.4V | 07:43:00 | 02:58:11 | 00:00:00 | |
| BIOWL1-15 | 2026-09-05 01:48:22 | 50.49052 | 2.97842 | 112° | 157km/h | 10798m | -3.4m/s | -49.5°C | 31.9% | 0hPa | 2.4V | 07:43:32 | 02:58:04 | 00:00:00 | |
| DM0DOS-11 | 2026-09-05 01:48:21 | 50.49099 | 2.97670 | 114° | 157km/h | 10809m | -3.5m/s | -49.5°C | 31.9% | 0hPa | 2.5V | 07:43:10 | 02:58:01 | 00:00:00 | |
| BIOWL1-15 | 2026-09-05 01:48:12 | 50.49226 | 2.97270 | 118° | 166km/h | 10833m | -3.3m/s | -49.8°C | 33.4% | 0hPa | 2.5V | 07:43:32 | 02:57:54 | 00:00:00 | |
| DM0DOS-11 | 2026-09-05 01:48:11 | 50.49285 | 2.97091 | 116° | 172km/h | 10843m | -3.4m/s | -49.8°C | 33.4% | 0hPa | 2.4V | 07:43:20 | 02:57:51 | 00:00:00 | |
| DB0UT-7 | 2026-09-05 01:48:04 | 50.49380 | 2.96776 | 114° | 161km/h | 10860m | -3.2m/s | -50.0°C | 34.0% | 0hPa | 2.4V | 00:00:00 | 00:00:00 | 00:00:00 | |
| DM0DOS-11 | 2026-09-05 01:48:03 | 50.49464 | 2.96455 | 111° | 172km/h | 10876m | -3.3m/s | -50.2°C | 34.8% | 0hPa | 2.4V | 07:43:30 | 02:57:41 | 00:00:00 | |
| BIOWL1-15 | 2026-09-05 01:48:03 | 50.49432 | 2.96583 | 112° | 175km/h | 10869m | -3.4m/s | -50.1°C | 35.2% | 0hPa | 2.5V | 07:43:32 | 02:57:43 | 00:00:00 | |
| DO1YAY-16 | 2026-09-05 01:48:00 | 50.49448 | 2.96519 | 111° | 173km/h | 10873m | -3.5m/s | -50.2°C | 28.4% | -1.0hPa | 2.5V | 00:00:00 | 00:00:00 | 00:00:00 | |
| BIOWL9-15 | 2026-09-05 01:47:54 | 50.49540 | 2.96143 | 110° | 162km/h | 10893m | -3.6m/s | -50.3°C | 28.8% | -1.0hPa | 2.5V | 00:00:00 | 00:00:00 | 00:00:00 | |
| AU51GT2 | 2026-09-05 01:47:52 | 50.49668 | 2.95681 | 116° | 159km/h | 10922m | -3.3m/s | -50.6°C | 29.5% | -1.0hPa | 2.5V | 00:00:00 | 00:00:00 | 00:00:00 | |
| DM0DOS-11 | 2026-09-05 01:47:51 | 50.49617 | 2.95850 | 113° | 157km/h | 10912m | -3.4m/s | -50.5°C | 35.7% | 0hPa | 2.5V | 07:43:40 | 02:57:31 | 00:00:00 | |
| BIOWL1-15 | 2026-09-05 01:47:50 | 50.49601 | 2.95907 | 113° | 157km/h | 10908m | -3.6m/s | -50.5°C | 36.1% | 0hPa | 2.5V | 07:44:23 | 02:57:32 | 00:00:00 | |
| WEDDY | 2026-09-05 01:47:43 | 50.49705 | 2.95566 | 118° | 162km/h | 10928m | -3.1m/s | -50.6°C | 29.9% | 0hPa | 2.5V | 07:44:00 | 00:00:00 | 00:00:00 | |
| DM0DOS-11 | 2026-09-05 01:47:40 | 50.49803 | 2.95266 | 115° | 175km/h | 10945m | -3.6m/s | -50.7°C | 36.1% | 0hPa | 2.5V | 07:43:50 | 02:57:21 | 00:00:00 | |
| BIOWL1-15 | 2026-09-05 01:47:40 | 50.49784 | 2.95328 | 116° | 173km/h | 10942m | -3.2m/s | -50.7°C | 36.1% | 0hPa | 2.5V | 07:44:23 | 02:57:22 | 00:00:00 | |
| BIOWL1-15 | 2026-09-05 01:47:31 | 50.49978 | 2.94629 | 111° | 173km/h | 10981m | -3.4m/s | -51°C | 35.9% | 0hPa | 2.4V | 07:44:23 | 02:57:11 | 00:00:00 | |
| DM0DOS-11 | 2026-09-05 01:47:30 | 50.49978 | 2.94629 | 111° | 173km/h | 10981m | -3.4m/s | -51°C | 35.9% | 0hPa | 2.4V | 07:44:00 | 02:57:11 | 00:00:00 | |
| DO1YAY-16 | 2026-09-05 01:47:29 | 50.49978 | 2.94629 | 111° | 172km/h | 10981m | -3.4m/s | -51.0°C | 29.3% | -1.0hPa | 2.4V | 00:00:00 | 00:00:00 | 00:00:00 | |
| BIOWL9-15 | 2026-09-05 01:47:23 | 50.50070 | 2.94251 | 110° | 166km/h | 11002m | -3.8m/s | -51.2°C | 29.5% | -1.0hPa | 2.4V | 00:00:00 | 00:00:00 | 00:00:00 | |
| AU51GT2 | 2026-09-05 01:47:21 | 50.50099 | 2.94126 | 110° | 164km/h | 11010m | -3.8m/s | -51.3°C | -1.0% | -1.0hPa | 2.4V | 00:00:00 | 00:00:00 | 00:00:00 | |
| DM0DOS-11 | 2026-09-05 01:47:20 | 50.50128 | 2.94004 | 109° | 162km/h | 11018m | -3.4m/s | -51.3°C | 36.2% | 0hPa | 2.4V | 07:44:10 | 02:57:01 | 00:00:00 | |
| BIOWL1-15 | 2026-09-05 01:47:19 | 50.50128 | 2.94004 | 109° | 162km/h | 11018m | -3.4m/s | -51.4°C | 36.1% | 0hPa | 2.4V | 07:44:23 | 02:57:01 | 00:00:00 | |
| DM0DOS-11 | 2026-09-05 01:47:10 | 50.50264 | 2.93396 | 108° | 161km/h | 11051m | -3.8m/s | -51.6°C | 36% | 0hPa | 2.5V | 07:44:20 | 02:56:51 | 00:00:00 | |
| BIOWL1-15 | 2026-09-05 01:47:08 | 50.50277 | 2.93337 | 110° | 159km/h | 11054m | -3.8m/s | -51.6°C | 36.2% | 0hPa | 2.4V | 07:44:23 | 02:56:50 | 00:00:00 | |
| WEDDY | 2026-09-05 01:47:01 | 50.50358 | 2.92995 | 113° | 150km/h | 11076m | -3.3m/s | -51.7°C | 29.8% | 0hPa | 2.4V | 00:00:00 | 00:00:00 | 00:00:00 | |
| DM0DOS-11 | 2026-09-05 01:47:00 | 50.50456 | 2.92660 | 114° | 162km/h | 11095m | -3.4m/s | -51.9°C | 36.1% | 0hPa | 2.4V | 07:44:33 | 02:56:38 | 00:00:00 | |
| BIOWL1-15 | 2026-09-05 01:46:57 | 50.50439 | 2.92718 | 116° | 161km/h | 11092m | -3.6m/s | -51.8°C | 36.3% | 0hPa | 2.5V | 07:45:14 | 02:56:39 | 00:00:00 | |
| BIOWL9-15 | 2026-09-05 01:46:52 | 50.50523 | 2.92419 | 112° | 166km/h | 11110m | -3.7m/s | -51.9°C | 28.8% | -1.0hPa | 2.5V | 00:00:00 | 00:00:00 | 00:00:00 | |
| DB0UT-7 | 2026-09-05 01:46:51 | 50.50539 | 2.92357 | 112° | 157km/h | 11114m | -3.7m/s | -51.9°C | 35.4% | 0hPa | 2.5V | 00:00:00 | 02:56:33 | 00:00:00 | |
| DM0DOS-11 | 2026-09-05 01:46:50 | 50.50610 | 2.92048 | 108° | 166km/h | 11132m | -3.5m/s | -52.1°C | 34.7% | 0hPa | 2.5V | 07:44:43 | 02:56:28 | 00:00:00 | |
| DM0DOS-11 | 2026-09-05 01:46:40 | 50.50735 | 2.91439 | 106° | 155km/h | 11167m | -3.5m/s | -52.3°C | 33.7% | 0hPa | 2.4V | 07:44:53 | 02:56:18 | 00:00:00 | |
| BIOWL1-15 | 2026-09-05 01:46:38 | 50.50712 | 2.91559 | 108° | 159km/h | 11160m | -3.6m/s | -52.3°C | 34.2% | 0hPa | 2.4V | 07:45:14 | 02:56:20 | 00:00:00 | |
| DM0DOS-11 | 2026-09-05 01:46:31 | 50.50861 | 2.90885 | 113° | 148km/h | 11202m | -3.3m/s | -52.6°C | 33% | 0hPa | 2.4V | 07:45:03 | 02:56:08 | 00:00:00 | |
| BIOWL1-15 | 2026-09-05 01:46:25 | 50.50877 | 2.90830 | 114° | 151km/h | 11205m | -3.3m/s | -52.7°C | 32.8% | 0hPa | 2.4V | 07:45:14 | 02:56:07 | 00:00:00 | |
| BIOWL1-15 | 2026-09-05 01:46:14 | 50.51044 | 2.90177 | 109° | 162km/h | 11243m | -3.8m/s | -53°C | 32.7% | 0hPa | 2.4V | 07:46:05 | 02:55:56 | 00:00:00 | |
| BIOWL1-15 | 2026-09-05 01:46:03 | 50.51183 | 2.89477 | 107° | 146km/h | 11288m | -3.7m/s | -53.4°C | 33.1% | 0hPa | 2.4V | 07:46:05 | 02:55:44 | 00:00:00 | |
| DM0DOS-11 | 2026-09-05 01:46:00 | 50.51228 | 2.89259 | 109° | 142km/h | 11303m | -3.6m/s | -53.5°C | 33% | 0hPa | 2.5V | 07:45:31 | 02:55:40 | 00:00:00 | |
| BIOWL1-15 | 2026-09-05 01:45:54 | 50.51309 | 2.88942 | 114° | 148km/h | 11324m | -3.8m/s | -53.7°C | 33.1% | 0hPa | 2.5V | 07:46:05 | 02:55:34 | 00:00:00 | |
| BIOWL9-15 | 2026-09-05 01:45:50 | 50.51340 | 2.88833 | 113° | 151km/h | 11331m | -3.4m/s | -53.8°C | 26.6% | -1.0hPa | 2.5V | 00:00:00 | 00:00:00 | 00:00:00 | |
| BIOWL1-15 | 2026-09-05 01:45:41 | 50.51467 | 2.88300 | 107° | 157km/h | 11363m | -4m/s | -54°C | 33% | 0hPa | 2.5V | 07:46:05 | 02:55:23 | 00:00:00 | |
| BIOWL1-15 | 2026-09-05 01:45:33 | 50.51571 | 2.87723 | 107° | 144km/h | 11399m | -3.8m/s | -54.3°C | 33% | 0hPa | 2.5V | 07:46:05 | 02:55:13 | 00:00:00 | |
| BIOWL1-15 | 2026-09-05 01:45:20 | 50.51707 | 2.87136 | 112° | 153km/h | 11437m | -3.5m/s | -54.6°C | 33.2% | 0hPa | 2.5V | 07:46:56 | 02:55:02 | 00:00:00 | |
| BIOWL1-15 | 2026-09-05 01:45:10 | 50.51839 | 2.86541 | 106° | 157km/h | 11473m | -4m/s | -54.9°C | 33.2% | 0hPa | 2.5V | 07:46:56 | 02:54:52 | 00:00:00 | |
| BIOWL1-15 | 2026-09-05 01:45:03 | 50.51950 | 2.85920 | 109° | 139km/h | 11514m | -3.7m/s | -55.1°C | 33.2% | 0hPa | 2.5V | 07:46:56 | 02:54:41 | 00:00:00 | |
| WEDDY | 2026-09-05 01:44:56 | 50.51973 | 2.85815 | 111° | 141km/h | 11521m | -3.6m/s | -55.2°C | 26.7% | 0hPa | 2.5V | 07:46:00 | 00:00:00 | 00:00:00 | |
| DM0DOS-11 | 2026-09-05 01:44:55 | 50.52013 | 2.85657 | 112° | 146km/h | 11532m | -3.5m/s | -55.2°C | 33.8% | 0hPa | 2.5V | 07:46:35 | 02:54:36 | 00:00:00 | |
| BIOWL1-15 | 2026-09-05 01:44:48 | 50.52141 | 2.85145 | 108° | 159km/h | 11564m | -3.4m/s | -55.5°C | 33.6% | 0hPa | 2.4V | 07:46:56 | 02:54:27 | 00:00:00 | |
| BIOWL9-15 | 2026-09-05 01:44:48 | 50.52100 | 2.85322 | 110° | 155km/h | 11553m | -3.5m/s | -55.4°C | 26.7% | -1.0hPa | 2.5V | 00:00:00 | 00:00:00 | 00:00:00 | |
| DM0DOS-11 | 2026-09-05 01:44:45 | 50.52188 | 2.84905 | 105° | 157km/h | 11578m | -3.9m/s | -55.5°C | 33.9% | 0hPa | 2.5V | 07:46:48 | 02:54:23 | 00:00:00 | |
| BIOWL1-15 | 2026-09-05 01:44:36 | 50.52237 | 2.84612 | 104° | 148km/h | 11598m | -3.7m/s | -55.7°C | 33.7% | 0hPa | 2.5V | 07:46:56 | 02:54:18 | 00:00:00 | |
| BIOWL1-15 | 2026-09-05 01:44:28 | 50.52328 | 2.84066 | 107° | 137km/h | 11636m | -3.4m/s | -56°C | 34% | 0hPa | 2.5V | 07:47:47 | 02:54:08 | 00:00:00 | |
| DM0DOS-11 | 2026-09-05 01:44:26 | 50.52385 | 2.83808 | 110° | 141km/h | 11654m | -3.6m/s | -56.1°C | 35.4% | 0hPa | 2.4V | 07:47:08 | 02:54:03 | 00:00:00 | |
| DO1YAY-16 | 2026-09-05 01:44:22 | 50.52372 | 2.83860 | 109° | 139km/h | 11650m | -3.7m/s | -56.1°C | 27.8% | -1.0hPa | 2.5V | 00:00:00 | 00:00:00 | 00:00:00 | |
| BIOWL9-15 | 2026-09-05 01:44:17 | 50.52437 | 2.83594 | 110° | 146km/h | 11669m | -3.3m/s | -56.3°C | 27.9% | -1.0hPa | 2.5V | 00:00:00 | 00:00:00 | 00:00:00 | |
| DM0DOS-11 | 2026-09-05 01:44:15 | 50.52512 | 2.83251 | 106° | 155km/h | 11690m | -3.2m/s | -56.4°C | 35.7% | 0hPa | 2.5V | 07:47:18 | 02:53:53 | 00:00:00 | |
| BIOWL1-15 | 2026-09-05 01:44:15 | 50.52463 | 2.83483 | 110° | 151km/h | 11676m | -3.2m/s | -56.3°C | 34.6% | 0hPa | 2.4V | 07:47:47 | 02:53:57 | 00:00:00 | |
| BIOWL1-15 | 2026-09-05 01:44:05 | 50.52587 | 2.82833 | 105° | 155km/h | 11714m | -3.9m/s | -56.6°C | 35% | 0hPa | 2.5V | 07:47:47 | 02:53:46 | 00:00:00 | |
| DM0DOS-11 | 2026-09-05 01:44:02 | 50.52615 | 2.82654 | 102° | 153km/h | 11725m | -3.8m/s | -56.6°C | 35.9% | 0hPa | 2.5V | 07:47:28 | 02:53:43 | 00:00:00 | |
| DM0DOS-11 | 2026-09-05 01:43:56 | 50.52692 | 2.82067 | 100° | 146km/h | 11763m | -3.8m/s | -56.9°C | 36.3% | 0hPa | 2.4V | 07:47:38 | 02:53:33 | 00:00:00 | |
| BIOWL1-15 | 2026-09-05 01:43:55 | 50.52678 | 2.82182 | 101° | 150km/h | 11754m | -4.1m/s | -56.8°C | 35.3% | 0hPa | 2.5V | 07:47:47 | 02:53:35 | 00:00:00 | |
| DO1YAY-16 | 2026-09-05 01:43:52 | 50.52692 | 2.82067 | 100° | 144km/h | 11763m | -3.8m/s | -56.9°C | 28.3% | -1.0hPa | 2.5V | 00:00:00 | 00:00:00 | 00:00:00 | |
| BIOWL9-15 | 2026-09-05 01:43:46 | 50.52725 | 2.81789 | 100° | 137km/h | 11781m | -3.6m/s | -57.0°C | 28.8% | -1.0hPa | 2.5V | 00:00:00 | 00:00:00 | 00:00:00 | |
| DM0DOS-11 | 2026-09-05 01:43:45 | 50.52765 | 2.81527 | 106° | 137km/h | 11799m | -3.4m/s | -57.1°C | 37.1% | 0hPa | 2.5V | 07:47:48 | 02:53:23 | 00:00:00 | |
| AU51GT2 | 2026-09-05 01:43:44 | 50.52739 | 2.81683 | 102° | 133km/h | 11788m | -3.7m/s | -57.1°C | 29.1% | -1.0hPa | 2.5V | 00:00:00 | 00:00:00 | 00:00:00 | |
| BIOWL1-15 | 2026-09-05 01:43:42 | 50.52755 | 2.81579 | 105° | 135km/h | 11795m | -4m/s | 0°C | 0% | 0hPa | 2.5V | 07:47:47 | 02:53:24 | 00:00:00 | |
| DM0DOS-11 | 2026-09-05 01:43:35 | 50.52875 | 2.80972 | 105° | 153km/h | 11836m | -3.5m/s | -57.2°C | 37.5% | 0hPa | 2.5V | 07:47:58 | 02:53:13 | 00:00:00 | |
| BIOWL1-15 | 2026-09-05 01:43:31 | 50.52875 | 2.80972 | 106° | 153km/h | 11836m | -3.5m/s | 0°C | 0% | 0hPa | 2.5V | 07:48:38 | 02:53:13 | 00:00:00 | |
| WEDDY | 2026-09-05 01:43:29 | 50.52886 | 2.80913 | 107° | 155km/h | 11840m | -3.9m/s | -57.3°C | 29.6% | 0hPa | 2.5V | 07:48:00 | 00:00:00 | 00:00:00 | |
| DM0DOS-11 | 2026-09-05 01:43:22 | 50.52974 | 2.80370 | 103° | 157km/h | 11873m | -3.7m/s | -57.5°C | 37.8% | 0hPa | 2.5V | 07:48:08 | 02:53:03 | 00:00:00 | |
| BIOWL1-15 | 2026-09-05 01:43:20 | 50.52982 | 2.80309 | 102° | 157km/h | 11877m | -3.6m/s | 0°C | 0% | 0hPa | 2.5V | 07:48:38 | 02:53:02 | 00:00:00 | |
| DB0UT-7 | 2026-09-05 01:43:19 | 50.52990 | 2.80248 | 102° | 157km/h | 11881m | -3.6m/s | -57.5°C | 37.8% | 0hPa | 2.5V | 00:00:00 | 02:53:01 | 00:00:00 | |
| DM0DOS-11 | 2026-09-05 01:43:17 | 50.53049 | 2.79759 | 99° | 153km/h | 11912m | -4m/s | -57.6°C | 38.2% | 0hPa | 2.5V | 07:48:18 | 02:52:53 | 00:00:00 | |
| BIOWL1-15 | 2026-09-05 01:43:10 | 50.53055 | 2.79699 | 98° | 153km/h | 11916m | -3.8m/s | 0°C | 0% | 0hPa | 2.5V | 07:48:38 | 02:52:52 | 00:00:00 | |
| WEDDY | 2026-09-05 01:43:08 | 50.53060 | 2.79639 | 99° | 148km/h | 11920m | -3.5m/s | -57.7°C | 30.1% | 0hPa | 2.5V | 07:48:00 | 00:00:00 | 00:00:00 | |
| DM0DOS-11 | 2026-09-05 01:43:02 | 50.53118 | 2.79200 | 105° | 144km/h | 11948m | -3.6m/s | -57.8°C | 38.2% | 0hPa | 2.5V | 07:48:28 | 02:52:43 | 00:00:00 | |
| BIOWL1-15 | 2026-09-05 01:42:59 | 50.53138 | 2.79089 | 107° | 146km/h | 11955m | -3.6m/s | 0°C | 0% | 0hPa | 2.5V | 07:48:38 | 02:52:41 | 00:00:00 | |
| DM0DOS-11 | 2026-09-05 01:42:55 | 50.53223 | 2.78627 | 106° | 157km/h | 11987m | -4m/s | -58°C | 37.7% | 0hPa | 2.5V | 07:48:38 | 02:52:33 | 00:00:00 | |
| BIOWL1-15 | 2026-09-05 01:42:51 | 50.53244 | 2.78507 | 106° | 159km/h | 11995m | -4.1m/s | 0°C | 0% | 0hPa | 2.5V | 18:12:15 | 02:52:31 | 00:00:00 | |
| DO1YAY-16 | 2026-09-05 01:42:49 | 50.53244 | 2.78507 | 105° | 157km/h | 11995m | -4.1m/s | -58.1°C | 29.1% | -1.0hPa | 2.5V | 00:00:00 | 00:00:00 | 00:00:00 | |
| BIOWL9-15 | 2026-09-05 01:42:44 | 50.53304 | 2.78136 | 102° | 162km/h | 12017m | -3.8m/s | -58.2°C | 28.9% | -1.0hPa | 2.5V | 00:00:00 | 00:00:00 | 00:00:00 | |
| DM0DOS-11 | 2026-09-05 01:42:42 | 50.53320 | 2.78009 | 100° | 162km/h | 12024m | -3.4m/s | -58.3°C | 37.3% | 0hPa | 2.5V | 07:48:48 | 02:52:23 | 00:00:00 | |
| AU51GT2 | 2026-09-05 01:42:42 | 50.53312 | 2.78073 | 101° | 161km/h | 12021m | -3.8m/s | -58.3°C | 28.9% | -1.0hPa | 2.5V | 00:00:00 | 00:00:00 | 00:00:00 | |
| DM0DOS-11 | 2026-09-05 01:42:36 | 50.53384 | 2.77406 | 102° | 144km/h | 12061m | -3.7m/s | -58.5°C | 37.6% | 0hPa | 2.5V | 07:48:58 | 02:52:13 | 00:00:00 | |
| BIOWL1-15 | 2026-09-05 01:42:22 | 50.53494 | 2.76783 | 107° | 153km/h | 12103m | -3.7m/s | 0°C | 0% | 0hPa | 2.5V | 18:12:15 | 02:52:02 | 00:00:00 | |
| DM0DOS-11 | 2026-09-05 01:42:22 | 50.53482 | 2.76841 | 106° | 155km/h | 12099m | -4m/s | -58.6°C | 35.7% | 0hPa | 2.5V | 07:49:08 | 02:52:03 | 00:00:00 | |
| DO1YAY-16 | 2026-09-05 01:42:18 | 50.53517 | 2.76664 | 106° | 159km/h | 12111m | -4.1m/s | -58.6°C | 26.8% | -1.0hPa | 2.5V | 00:00:00 | 00:00:00 | 00:00:00 | |
| DM0DOS-11 | 2026-09-05 01:42:15 | 50.53594 | 2.76222 | 103° | 168km/h | 12137m | -3.8m/s | -58.7°C | 33.8% | 0hPa | 2.5V | 07:49:18 | 02:51:53 | 00:00:00 | |
| BIOWL9-15 | 2026-09-05 01:42:13 | 50.53573 | 2.76352 | 104° | 166km/h | 12130m | -3.5m/s | -58.7°C | 26.1% | -1.0hPa | 2.5V | 00:00:00 | 00:00:00 | 00:00:00 | |
| AU51GT2 | 2026-09-05 01:42:11 | 50.53594 | 2.76222 | 103° | 168km/h | 12137m | -3.8m/s | -58.7°C | 25.7% | -1.0hPa | 2.5V | 00:00:00 | 00:00:00 | 00:00:00 | |
| WEDDY | 2026-09-05 01:42:04 | 50.53643 | 2.75829 | 100° | 166km/h | 12159m | -3.6m/s | -58.9°C | 25.1% | 0hPa | 2.5V | 07:49:00 | 00:00:00 | 00:00:00 | |
| DM0DOS-11 | 2026-09-05 01:42:02 | 50.53669 | 2.75573 | 98° | 159km/h | 12175m | -3.8m/s | -58.9°C | 32.1% | 0hPa | 2.5V | 07:49:28 | 02:51:43 | 00:00:00 | |
| DM0DOS-11 | 2026-09-05 01:41:56 | 50.53748 | 2.74981 | 105° | 155km/h | 12212m | -4.2m/s | -58.7°C | 29.2% | 0hPa | 2.5V | 07:49:38 | 02:51:33 | 00:00:00 | |
| DO1YAY-16 | 2026-09-05 01:41:47 | 50.53814 | 2.74616 | 105° | 162km/h | 12235m | -3.6m/s | -58.4°C | 20.2% | -1.0hPa | 2.5V | 00:00:00 | 00:00:00 | 00:00:00 | |
| WEDDY | 2026-09-05 01:41:44 | 50.53814 | 2.74616 | 107° | 164km/h | 12235m | -3.6m/s | -58.4°C | 20.5% | 0hPa | 2.5V | 00:00:00 | 00:00:00 | 00:00:00 | |
| DB0UT-7 | 2026-09-05 01:41:43 | 50.53836 | 2.74489 | 105° | 161km/h | 12243m | -3.3m/s | -58.5°C | 27.0% | 0hPa | 2.5V | 00:00:00 | 00:00:00 | 00:00:00 | |
| DM0DOS-11 | 2026-09-05 01:41:42 | 50.53857 | 2.74359 | 103° | 170km/h | 12250m | -3.5m/s | -58.6°C | 26.8% | 0hPa | 2.5V | 07:49:48 | 02:51:23 | 00:00:00 | |
| AU51GT2 | 2026-09-05 01:41:40 | 50.53876 | 2.74225 | 101° | 170km/h | 12258m | -3.6m/s | -58.6°C | 19.4% | -1.0hPa | 2.5V | 00:00:00 | 00:00:00 | 00:00:00 | |
| DM0DOS-11 | 2026-09-05 01:41:35 | 50.53930 | 2.73702 | 98° | 157km/h | 12286m | -3.7m/s | -58.7°C | 24.5% | 0hPa | 2.5V | 07:49:58 | 02:51:13 | 00:00:00 | |
| DM0DOS-11 | 2026-09-05 01:41:22 | 50.54003 | 2.73114 | 105° | 151km/h | 12322m | -3.7m/s | -58.6°C | 22.4% | 0hPa | 2.5V | 07:50:08 | 02:51:03 | 00:00:00 | |
| DO1YAY-16 | 2026-09-05 01:41:16 | 50.54057 | 2.72807 | 104° | 166km/h | 12341m | -3.3m/s | -58.4°C | 15.1% | -1.0hPa | 2.5V | 00:00:00 | 00:00:00 | 00:00:00 | |
| DM0DOS-11 | 2026-09-05 01:41:15 | 50.54103 | 2.72476 | 99° | 170km/h | 12359m | -3.6m/s | -58.4°C | 20.8% | 0hPa | 2.5V | 07:50:18 | 02:50:53 | 00:00:00 | |
| DB0UT-7 | 2026-09-05 01:41:13 | 50.54087 | 2.72610 | 102° | 175km/h | 12352m | -3.9m/s | -58.3°C | 21.0% | 0hPa | 2.5V | 07:50:00 | 02:50:55 | 00:00:00 | |
| AU51GT2 | 2026-09-05 01:41:09 | 50.54117 | 2.72346 | 99° | 164km/h | 12366m | -3.6m/s | -58.5°C | 14.6% | -1.0hPa | 2.5V | 00:00:00 | 00:00:00 | 00:00:00 | |
| DM0DOS-11 | 2026-09-05 01:41:05 | 50.54167 | 2.71855 | 100° | 151km/h | 12395m | -3.6m/s | -58.3°C | 19.6% | 0hPa | 2.5V | 07:50:28 | 02:50:43 | 00:00:00 | |
| WEDDY | 2026-09-05 01:41:01 | 50.54160 | 2.71914 | 102° | 150km/h | 12392m | -3.5m/s | -58.3°C | 14.0% | 0hPa | 2.5V | 07:51:00 | 00:00:00 | 00:00:00 | |
| DO1YAY-16 | 2026-09-05 01:40:45 | 50.54313 | 2.70932 | 107° | 153km/h | 12453m | -3.5m/s | -58.4°C | 12.4% | -1.0hPa | 2.5V | 00:00:00 | 00:00:00 | 00:00:00 | |
| BIOWL1-15 | 2026-09-05 01:40:31 | 50.54489 | 2.70082 | 109° | 168km/h | 12506m | -4.3m/s | -58.1°C | 14.8% | 0hPa | 2.5V | 07:51:11 | 02:50:13 | 00:00:00 | |
| DM0DOS-11 | 2026-09-05 01:40:29 | 50.54584 | 2.69632 | 107° | 172km/h | 12532m | -3.1m/s | -58.1°C | 17% | 0hPa | 2.5V | 07:51:05 | 02:50:06 | 00:00:00 | |
| BIOWL1-15 | 2026-09-05 01:40:21 | 50.54624 | 2.69436 | 107° | 175km/h | 12541m | -3m/s | -58.1°C | 14.3% | 0hPa | 2.5V | 07:51:11 | 02:50:03 | 00:00:00 | |
| DM0DOS-11 | 2026-09-05 01:40:19 | 50.54718 | 2.68966 | 106° | 181km/h | 12564m | -3.8m/s | -57.1°C | 15.3% | 0hPa | 2.5V | 07:51:15 | 02:49:56 | 00:00:00 | |
| BIOWL1-15 | 2026-09-05 01:40:11 | 50.54754 | 2.68757 | 104° | 183km/h | 12574m | -3.4m/s | -56.8°C | 13.7% | 0hPa | 2.5V | 07:52:02 | 02:49:53 | 00:00:00 | |
| DM0DOS-11 | 2026-09-05 01:40:09 | 50.54823 | 2.68282 | 102° | 166km/h | 12597m | -3.1m/s | -56.8°C | 14.9% | 0hPa | 2.6V | 07:51:25 | 02:49:46 | 00:00:00 | |
| BIOWL1-15 | 2026-09-05 01:40:01 | 50.54849 | 2.68090 | 103° | 162km/h | 12607m | -3.8m/s | -56.9°C | 14% | 0hPa | 2.5V | 07:52:02 | 02:49:43 | 00:00:00 | |
| DM0DOS-11 | 2026-09-05 01:39:59 | 50.54925 | 2.67659 | 107° | 162km/h | 12629m | -3.8m/s | -57°C | 15.4% | 0hPa | 2.5V | 07:51:35 | 02:49:36 | 00:00:00 | |
| BIOWL1-15 | 2026-09-05 01:39:52 | 50.54977 | 2.67411 | 109° | 168km/h | 12643m | -3.3m/s | -57.2°C | 14.4% | 0hPa | 2.5V | 07:52:02 | 02:49:32 | 00:00:00 | |
| DM0DOS-11 | 2026-09-05 01:39:49 | 50.55064 | 2.67025 | 108° | 175km/h | 12662m | -3.2m/s | -57.3°C | 15.5% | 0hPa | 2.5V | 07:51:45 | 02:49:26 | 00:00:00 | |
| BIOWL1-15 | 2026-09-05 01:39:44 | 50.55122 | 2.66756 | 109° | 183km/h | 12676m | -3.5m/s | -57.5°C | 14.6% | 0hPa | 2.5V | 07:52:02 | 02:49:22 | 00:00:00 | |
| DO1YAY-16 | 2026-09-05 01:39:43 | 50.55107 | 2.66824 | 108° | 179km/h | 12673m | -3.6m/s | -57.4°C | 10.4% | -1.0hPa | 2.5V | 00:00:00 | 00:00:00 | 00:00:00 | |
| DM0DOS-11 | 2026-09-05 01:39:39 | 50.55208 | 2.66336 | 105° | 186km/h | 12699m | -3.9m/s | -57.6°C | 15.7% | 0hPa | 2.5V | 07:51:55 | 02:49:16 | 00:00:00 | |
| BIOWL1-15 | 2026-09-05 01:39:29 | 50.55267 | 2.65978 | 103° | 183km/h | 12717m | -3.2m/s | -57.8°C | 14.8% | 0hPa | 2.6V | 07:52:02 | 02:49:11 | 00:00:00 | |
| BIOWL1-15 | 2026-09-05 01:39:19 | 50.55370 | 2.65305 | 106° | 170km/h | 12753m | -3.7m/s | -58.1°C | 14.7% | 0hPa | 2.5V | 07:52:53 | 02:49:01 | 00:00:00 | |
| BIOWL1-15 | 2026-09-05 01:39:10 | 50.55522 | 2.64596 | 110° | 177km/h | 12796m | -3.8m/s | -58.5°C | 14.4% | 0hPa | 2.5V | 07:52:53 | 02:48:50 | 00:00:00 | |
| WEDDY | 2026-09-05 01:39:06 | 50.55537 | 2.64530 | 111° | 177km/h | 12800m | -3.7m/s | -58.5°C | 10.8% | 0hPa | 2.6V | 07:52:00 | 00:00:00 | 00:00:00 | |
| AU51GT2 | 2026-09-05 01:39:05 | 50.55583 | 2.64330 | 109° | 179km/h | 12811m | -3.3m/s | -58.6°C | 10.5% | -1.0hPa | 2.6V | 00:00:00 | 00:00:00 | 00:00:00 | |
| DM0DOS-11 | 2026-09-05 01:39:00 | 50.55725 | 2.63716 | 110° | 186km/h | 12840m | -4.3m/s | -58.9°C | 15.4% | 0hPa | 2.6V | 07:52:34 | 02:48:37 | 00:00:00 | |
| BIOWL1-15 | 2026-09-05 01:38:58 | 50.55676 | 2.63922 | 110° | 183km/h | 12830m | -3.2m/s | -58.8°C | 13.9% | 0hPa | 2.5V | 07:52:53 | 02:48:40 | 00:00:00 | |
| BIOWL1-15 | 2026-09-05 01:38:49 | 50.55857 | 2.63157 | 110° | 188km/h | 12870m | -3.8m/s | -59.1°C | 13% | 0hPa | 2.5V | 07:52:53 | 02:48:29 | 00:00:00 | |
| BIOWL7-15 | 2026-09-05 01:38:48 | 50.55824 | 2.63298 | 111° | 188km/h | 12862m | -3.4m/s | -59.1°C | 10.2% | 0hPa | 2.5V | 07:52:00 | 00:00:00 | 00:00:00 | |
| WEDDY | 2026-09-05 01:38:43 | 50.55908 | 2.62944 | 111° | 192km/h | 12881m | -4.0m/s | -59.1°C | 9.9% | 0hPa | 2.5V | 07:52:00 | 00:00:00 | 00:00:00 | |
| DO1YAY-16 | 2026-09-05 01:38:41 | 50.55960 | 2.62731 | 110° | 190km/h | 12893m | -4.2m/s | -59.2°C | 9.4% | -1.0hPa | 2.5V | 00:00:00 | 00:00:00 | 00:00:00 | |
| DM0DOS-11 | 2026-09-05 01:38:40 | 50.56068 | 2.62304 | 112° | 197km/h | 12919m | -4.2m/s | -59.3°C | 14% | 0hPa | 2.5V | 07:52:54 | 02:48:17 | 00:00:00 | |
| BIOWL1-15 | 2026-09-05 01:38:36 | 50.56173 | 2.61854 | 108° | 203km/h | 12941m | -3.5m/s | -59.3°C | 10.5% | 0hPa | 2.5V | 07:53:44 | 02:48:11 | 00:00:00 | |
| BIOWL9-15 | 2026-09-05 01:38:36 | 50.56068 | 2.62304 | 112° | 195km/h | 12919m | -4.2m/s | -59.3°C | 8.7% | -1.0hPa | 2.5V | 00:00:00 | 00:00:00 | 00:00:00 | |
| AU51GT2 | 2026-09-05 01:38:34 | 50.56105 | 2.62158 | 111° | 199km/h | 12927m | -3.6m/s | -59.3°C | 8.6% | -1.0hPa | 2.5V | 00:00:00 | 00:00:00 | 00:00:00 | |
| DM0DOS-11 | 2026-09-05 01:38:30 | 50.56231 | 2.61555 | 107° | 192km/h | 12956m | -4m/s | -58.7°C | 12.5% | 0hPa | 2.5V | 07:53:04 | 02:48:07 | 00:00:00 | |
| BIOWL1-15 | 2026-09-05 01:38:24 | 50.56245 | 2.61483 | 107° | 190km/h | 12960m | -3.8m/s | -58.6°C | 9.5% | 0hPa | 2.5V | 07:53:44 | 02:48:06 | 00:00:00 | |
| BIOWL1-15 | 2026-09-05 01:38:14 | 50.56398 | 2.60785 | 110° | 184km/h | 13000m | -4.3m/s | -57.9°C | 8.2% | 0hPa | 2.6V | 07:53:44 | 02:47:56 | 00:00:00 | |
| DM0DOS-11 | 2026-09-05 01:38:13 | 50.56430 | 2.60648 | 109° | 183km/h | 13009m | -4.2m/s | -57.8°C | 10.4% | 0hPa | 2.5V | 07:53:17 | 02:47:54 | 00:00:00 | |
| BIOWL1-15 | 2026-09-05 01:38:04 | 50.56557 | 2.60101 | 110° | 183km/h | 13043m | -4.2m/s | -57.8°C | 7% | 0hPa | 2.5V | 07:53:44 | 02:47:46 | 00:00:00 | |
| AU51GT2 | 2026-09-05 01:38:03 | 50.56589 | 2.59965 | 110° | 181km/h | 13052m | -4.4m/s | -57.8°C | 5.3% | -1.0hPa | 2.6V | 00:00:00 | 00:00:00 | 00:00:00 | |
| DM0DOS-11 | 2026-09-05 01:38:01 | 50.56686 | 2.59566 | 111° | 177km/h | 13077m | -4.3m/s | -57.6°C | 8.9% | 0hPa | 2.6V | 07:53:33 | 02:47:38 | 00:00:00 | |
| BIOWL1-15 | 2026-09-05 01:37:55 | 50.56736 | 2.59370 | 112° | 175km/h | 13091m | -4.5m/s | -57.6°C | 6% | 0hPa | 2.5V | 07:53:44 | 02:47:35 | 00:00:00 | |
| BIOWL1-15 | 2026-09-05 01:37:43 | 50.56904 | 2.58736 | 114° | 170km/h | 13136m | -4.5m/s | -57.6°C | 5.2% | 0hPa | 2.5V | 07:54:35 | 02:47:25 | 00:00:00 | |
| BIOWL1-15 | 2026-09-05 01:37:32 | 50.57096 | 2.58067 | 115° | 166km/h | 13185m | -4.6m/s | -57.7°C | 4.4% | 0hPa | 2.5V | 07:54:35 | 02:47:14 | 00:00:00 | |
| BIOWL1-15 | 2026-09-05 01:37:23 | 50.57291 | 2.57426 | 115° | 159km/h | 13237m | -4.9m/s | -58.1°C | 3.7% | 0hPa | 2.5V | 07:54:35 | 02:47:03 | 00:00:00 | |
| BIOWL1-15 | 2026-09-05 01:37:10 | 50.57549 | 2.56604 | 117° | 148km/h | 13306m | -4.2m/s | -57.4°C | 2.5% | 0hPa | 2.6V | 07:54:35 | 02:46:48 | 00:00:00 | |
| BIOWL1-15 | 2026-09-05 01:36:57 | 50.57701 | 2.56131 | 116° | 148km/h | 13343m | -4m/s | -57.2°C | 2.3% | 0hPa | 2.5V | 07:54:35 | 02:46:39 | 00:00:00 | |
| BIOWL1-15 | 2026-09-05 01:36:46 | 50.57880 | 2.55560 | 117° | 142km/h | 13390m | -4.6m/s | -56.4°C | 2% | 0hPa | 2.5V | 07:55:26 | 02:46:28 | 00:00:00 | |
| BIOWL1-15 | 2026-09-05 01:36:37 | 50.58055 | 2.55018 | 117° | 135km/h | 13440m | -4.6m/s | -56°C | 1.9% | 0hPa | 2.5V | 07:55:26 | 02:46:17 | 00:00:00 | |
| BIOWL1-15 | 2026-09-05 01:36:27 | 50.58226 | 2.54573 | 126° | 133km/h | 13483m | -4.1m/s | -55.8°C | 1.8% | 0hPa | 2.6V | 07:55:26 | 02:46:07 | 00:00:00 | |
| BIOWL1-15 | 2026-09-05 01:36:17 | 50.58411 | 2.54086 | 116° | 141km/h | 13524m | -4.4m/s | -55.7°C | 1.9% | 0hPa | 2.5V | 07:55:26 | 02:45:57 | 00:00:00 | |
| BIOWL1-15 | 2026-09-05 01:36:05 | 50.58549 | 2.53596 | 113° | 131km/h | 13567m | -4.3m/s | -55.4°C | 1.8% | 0hPa | 2.5V | 07:55:26 | 02:45:47 | 00:00:00 | |
| BIOWL1-15 | 2026-09-05 01:35:54 | 50.58683 | 2.53073 | 110° | 126km/h | 13614m | -4.3m/s | -55.5°C | 1.8% | 0hPa | 2.5V | 07:56:17 | 02:45:36 | 00:00:00 | |
| BIOWL1-15 | 2026-09-05 01:35:44 | 50.58782 | 2.52622 | 109° | 113km/h | 13659m | -4.4m/s | -55.4°C | 1.8% | 0hPa | 2.6V | 07:56:17 | 02:45:26 | 00:00:00 | |
| BIOWL1-15 | 2026-09-05 01:35:35 | 50.58907 | 2.52184 | 117° | 120km/h | 13706m | -4m/s | -55.6°C | 1.9% | 0hPa | 2.6V | 07:56:17 | 02:45:15 | 00:00:00 | |
| BIOWL1-15 | 2026-09-05 01:35:25 | 50.59025 | 2.51715 | 107° | 128km/h | 13748m | -4.6m/s | -55.8°C | 1.9% | 0hPa | 2.6V | 07:56:17 | 02:45:05 | 00:00:00 | |
| DM0DOS-11 | 2026-09-05 01:35:24 | 50.59060 | 2.51522 | 104° | 126km/h | 13765m | -4m/s | -55.8°C | 5.4% | 0hPa | 2.5V | 07:56:10 | 02:45:01 | 00:00:00 | |
| BIOWL1-15 | 2026-09-05 01:35:15 | 50.59106 | 2.51233 | 103° | 126km/h | 13791m | -5.1m/s | -56°C | 2% | 0hPa | 2.5V | 07:56:17 | 02:44:55 | 00:00:00 | |
| DM0DOS-11 | 2026-09-05 01:35:14 | 50.59134 | 2.51038 | 101° | 126km/h | 13810m | -4.8m/s | -55.9°C | 5.4% | 0hPa | 2.5V | 07:56:20 | 02:44:51 | 00:00:00 | |
| DM0DOS-11 | 2026-09-05 01:35:04 | 50.59178 | 2.50551 | 94° | 122km/h | 13859m | -5.5m/s | -55.8°C | 5.2% | 0hPa | 2.6V | 07:56:30 | 02:44:41 | 00:00:00 | |
| BIOWL1-15 | 2026-09-05 01:35:03 | 50.59170 | 2.50696 | 96° | 124km/h | 13843m | -5.4m/s | -55.9°C | 1.9% | 0hPa | 2.5V | 07:57:08 | 02:44:44 | 00:00:00 | |
| BIOWL1-15 | 2026-09-05 01:34:51 | 50.59224 | 2.49812 | 98° | 128km/h | 13938m | -5.2m/s | -56.5°C | 2.1% | 0hPa | 2.5V | 07:57:08 | 02:44:26 | 00:00:00 | |
| DM0DOS-11 | 2026-09-05 01:34:43 | 50.59249 | 2.49512 | 96° | 128km/h | 13970m | -5.3m/s | -56.9°C | 5.8% | 0hPa | 2.5V | 07:56:51 | 02:44:20 | 00:00:00 | |
| BIOWL1-15 | 2026-09-05 01:34:34 | 50.59262 | 2.49211 | 91° | 124km/h | 14000m | -5m/s | -56.9°C | 2.2% | 0hPa | 2.5V | 07:57:08 | 02:44:14 | 00:00:00 | |
| BIOWL1-15 | 2026-09-05 01:34:24 | 50.59260 | 2.48806 | 91° | 106km/h | 14042m | -4.6m/s | -56.5°C | 2.3% | 0hPa | 2.5V | 07:57:08 | 02:44:05 | 00:00:00 | |
| BIOWL1-15 | 2026-09-05 01:34:13 | 50.59279 | 2.48396 | 98° | 104km/h | 14088m | -4.4m/s | -56.3°C | 2.1% | 0hPa | 2.6V | 07:57:59 | 02:43:55 | 00:00:00 | |
| BIOWL1-15 | 2026-09-05 01:34:02 | 50.59340 | 2.47924 | 103° | 119km/h | 14137m | -4.5m/s | -56.3°C | 2% | 0hPa | 2.6V | 07:57:59 | 02:43:44 | 00:00:00 | |
| BIOWL1-15 | 2026-09-05 01:33:51 | 50.59397 | 2.47382 | 95° | 128km/h | 14186m | -4.6m/s | -56.5°C | 1.9% | 0hPa | 2.6V | 07:57:59 | 02:43:33 | 00:00:00 | |
| BIOWL1-15 | 2026-09-05 01:33:45 | 50.59411 | 2.46914 | 95° | 106km/h | 14229m | -4.2m/s | -56.5°C | 1.8% | 0hPa | 2.5V | 07:57:59 | 02:43:23 | 00:00:00 | |
| BIOWL1-15 | 2026-09-05 01:33:30 | 50.59466 | 2.46450 | 104° | 115km/h | 14277m | -4.3m/s | -56.8°C | 1.8% | 0hPa | 2.5V | 07:57:59 | 02:43:12 | 00:00:00 | |
| BIOWL1-15 | 2026-09-05 01:33:19 | 50.59558 | 2.45883 | 104° | 131km/h | 14329m | -4.4m/s | -57.1°C | 1.9% | 0hPa | 2.5V | 07:58:50 | 02:43:00 | 00:00:00 | |
| BIOWL1-15 | 2026-09-05 01:33:09 | 50.59606 | 2.45322 | 95° | 122km/h | 14375m | -4.3m/s | -57.2°C | 1.9% | 0hPa | 2.5V | 07:58:50 | 02:42:49 | 00:00:00 | |
| BIOWL1-15 | 2026-09-05 01:32:57 | 50.59630 | 2.44796 | 94° | 120km/h | 14421m | -4.2m/s | -57.1°C | 1.8% | 0hPa | 2.5V | 07:58:50 | 02:42:38 | 00:00:00 | |
| BIOWL1-15 | 2026-09-05 01:32:45 | 50.59649 | 2.44244 | 93° | 110km/h | 14470m | -3.9m/s | -56.9°C | 1.8% | 0hPa | 2.5V | 07:58:50 | 02:42:26 | 00:00:00 | |
| BIOWL1-15 | 2026-09-05 01:32:35 | 50.59661 | 2.43864 | 92° | 104km/h | 14507m | -4.3m/s | -57°C | 1.7% | 0hPa | 2.5V | 07:59:41 | 02:42:17 | 00:00:00 | |
| DM0DOS-11 | 2026-09-05 01:32:32 | 50.59666 | 2.43703 | 94° | 99km/h | 14524m | -4m/s | -57°C | 5.7% | 0hPa | 2.6V | 07:58:58 | 02:42:13 | 00:00:00 | |
| BIOWL1-15 | 2026-09-05 01:32:24 | 50.59705 | 2.43353 | 102° | 100km/h | 14561m | -4.3m/s | -56.4°C | 1.7% | 0hPa | 2.5V | 07:59:41 | 02:42:04 | 00:00:00 | |
| DM0DOS-11 | 2026-09-05 01:32:24 | 50.59711 | 2.43314 | 102° | 100km/h | 14565m | -4.2m/s | -56.3°C | 5.3% | 0hPa | 2.6V | 07:59:08 | 02:42:03 | 00:00:00 | |
| BIOWL1-15 | 2026-09-05 01:32:14 | 50.59753 | 2.43039 | 105° | 106km/h | 14596m | -4.3m/s | -56.2°C | 1.6% | 0hPa | 2.6V | 07:59:41 | 02:41:56 | 00:00:00 | |
| DM0DOS-11 | 2026-09-05 01:32:13 | 50.59775 | 2.42914 | 105° | 111km/h | 14609m | -4.4m/s | -56°C | 5.1% | 0hPa | 2.5V | 07:59:18 | 02:41:53 | 00:00:00 | |
| BIOWL1-15 | 2026-09-05 01:32:05 | 50.59834 | 2.42547 | 101° | 126km/h | 14644m | -4.3m/s | -55.9°C | 1.5% | 0hPa | 2.6V | 07:59:41 | 02:41:45 | 00:00:00 | |
| DM0DOS-11 | 2026-09-05 01:32:04 | 50.59845 | 2.42449 | 98° | 126km/h | 14653m | -4.4m/s | -55.9°C | 5% | 0hPa | 2.5V | 07:59:28 | 02:41:43 | 00:00:00 | |
| BIOWL1-15 | 2026-09-05 01:31:57 | 50.59868 | 2.42078 | 96° | 108km/h | 14687m | -4.2m/s | -56.2°C | 1.6% | 0hPa | 2.5V | 07:59:41 | 02:41:35 | 00:00:00 | |
| DM0DOS-11 | 2026-09-05 01:31:56 | 50.59874 | 2.41994 | 96° | 104km/h | 14696m | -4.5m/s | -56.2°C | 5.2% | 0hPa | 2.6V | 07:59:38 | 02:41:33 | 00:00:00 | |
| BIOWL9-15 | 2026-09-05 01:31:52 | 50.59870 | 2.42036 | 96° | 106km/h | 14692m | -4.4m/s | -56.2°C | 1.9% | -1.0hPa | 2.6V | 00:00:00 | 00:00:00 | 00:00:00 | |
| AU51GT2 | 2026-09-05 01:31:50 | 50.59877 | 2.41953 | 96° | 104km/h | 14701m | -4.4m/s | -56.3°C | 1.9% | -1.0hPa | 2.6V | 00:00:00 | 00:00:00 | 00:00:00 | |
| DJ2DS-15 | 2026-09-05 01:31:46 | 50.59892 | 2.41792 | 100° | 100km/h | 14718m | -4.4m/s | -56.4°C | 2.0% | -1.0hPa | 2.6V | 00:00:00 | 00:00:00 | 00:00:00 | |
| WEDDY | 2026-09-05 01:31:45 | 50.59892 | 2.41792 | 102° | 102km/h | 14718m | -4.4m/s | -56.4°C | 2.1% | 0hPa | 2.6V | 08:00:00 | 00:00:00 | 00:00:00 | |
| DM0DOS-11 | 2026-09-05 01:31:44 | 50.59922 | 2.41594 | 105° | 104km/h | 14741m | -4.5m/s | -56.5°C | 5.2% | 0hPa | 2.6V | 07:59:48 | 02:41:23 | 00:00:00 | |
| BIOWL1-15 | 2026-09-05 01:31:42 | 50.59922 | 2.41594 | 105° | 104km/h | 14741m | -4.5m/s | -56.5°C | 1.6% | 0hPa | 2.6V | 08:01:23 | 02:41:23 | 00:00:00 | |
| DM0DOS-11 | 2026-09-05 01:31:36 | 50.60007 | 2.41193 | 110° | 111km/h | 14788m | -4.8m/s | -56.8°C | 5.2% | 0hPa | 2.5V | 07:59:58 | 02:41:13 | 00:00:00 | |
| BIOWL1-15 | 2026-09-05 01:31:32 | 50.59997 | 2.41234 | 111° | 110km/h | 14783m | -4.9m/s | -56.7°C | 1.6% | 0hPa | 2.5V | 08:01:23 | 02:41:14 | 00:00:00 | |
| DO9LL-15 | 2026-09-05 01:31:32 | 50.59997 | 2.41234 | 111° | 126km/h | 14783m | -4.8m/s | -56.7°C | 5.2% | 0hPa | 2.5V | 00:00:00 | 02:41:14 | 00:00:00 | |
| DB0UT-7 | 2026-09-05 01:31:26 | 50.60058 | 2.40981 | 111° | 128km/h | 14812m | -4.6m/s | -56.9°C | 5.3% | 0hPa | 2.5V | 08:00:00 | 00:00:00 | 00:00:00 | |
| DM0DOS-11 | 2026-09-05 01:31:24 | 50.60112 | 2.40756 | 110° | 122km/h | 14836m | -4.8m/s | -57.1°C | 5.3% | 0hPa | 2.5V | 08:00:08 | 02:41:03 | 00:00:00 | |
| BIOWL1-15 | 2026-09-05 01:31:21 | 50.60135 | 2.40664 | 111° | 126km/h | 14846m | -4.8m/s | -57.1°C | 1.6% | 0hPa | 2.5V | 08:01:23 | 02:41:01 | 00:00:00 | |
| BIOWL9-15 | 2026-09-05 01:31:21 | 50.60112 | 2.40756 | 110° | 122km/h | 14836m | -4.8m/s | -57.1°C | 1.9% | -1.0hPa | 2.5V | 00:00:00 | 00:00:00 | 00:00:00 | |
| AU51GT2 | 2026-09-05 01:31:19 | 50.60135 | 2.40664 | 110° | 124km/h | 14846m | -4.8m/s | -57.1°C | 1.9% | -1.0hPa | 2.5V | 00:00:00 | 00:00:00 | 00:00:00 | |
| DM0DOS-11 | 2026-09-05 01:31:16 | 50.60219 | 2.40274 | 105° | 133km/h | 14885m | -4.8m/s | -57°C | 5.2% | 0hPa | 2.5V | 08:00:18 | 02:40:53 | 00:00:00 | |
| BIOWL1-15 | 2026-09-05 01:31:15 | 50.60219 | 2.40274 | 106° | 133km/h | 14885m | -4.8m/s | -57°C | 1.5% | 0hPa | 2.5V | 08:01:23 | 02:40:53 | 00:00:00 | |
| DJ2DS-15 | 2026-09-05 01:31:10 | 50.60228 | 2.40223 | 105° | 133km/h | 14889m | -4.9m/s | -57.0°C | 1.9% | -1.0hPa | 2.6V | 00:00:00 | 00:00:00 | 00:00:00 | |
| DM0DOS-11 | 2026-09-05 01:31:04 | 50.60292 | 2.39759 | 99° | 130km/h | 14934m | -5.1m/s | -57.3°C | 5.3% | 0hPa | 2.6V | 08:00:28 | 02:40:43 | 00:00:00 | |
| BIOWL1-15 | 2026-09-05 01:31:02 | 50.60297 | 2.39709 | 99° | 130km/h | 14939m | -5.2m/s | -57.3°C | 1.5% | 0hPa | 2.6V | 08:01:23 | 02:40:42 | 00:00:00 | |
| DO9LL-15 | 2026-09-05 01:31:02 | 50.60286 | 2.39810 | 100° | 117km/h | 14929m | -5.0m/s | -57.2°C | 5.3% | 0hPa | 2.5V | 00:00:00 | 02:40:44 | 00:00:00 | |
| WEDDY | 2026-09-05 01:31:01 | 50.60286 | 2.39810 | 101° | 131km/h | 14929m | -5.1m/s | -57.3°C | 2.0% | 0hPa | 2.5V | 08:00:00 | 00:00:00 | 00:00:00 | |
| HTAHTA | 2026-09-05 01:30:57 | 50.60315 | 2.39511 | 97° | 122km/h | 14960m | -5.0m/s | -57.4°C | 1.9% | -1.0hPa | 2.5V | 00:00:00 | 00:00:00 | 00:00:00 | |
| DM0DOS-11 | 2026-09-05 01:30:56 | 50.60335 | 2.39280 | 98° | 111km/h | 14984m | -5m/s | -57.3°C | 5.3% | 0hPa | 2.5V | 08:00:38 | 02:40:33 | 00:00:00 | |
| DO1YAY-16 | 2026-09-05 01:30:55 | 50.60319 | 2.39463 | 97° | 119km/h | 14964m | -5.0m/s | -57.4°C | 1.9% | -1.0hPa | 2.5V | 00:00:00 | 00:00:00 | 00:00:00 | |
| AU51GT2 | 2026-09-05 01:30:48 | 50.60349 | 2.39151 | 99° | 108km/h | 14999m | -5.2m/s | -57.2°C | 1.8% | -1.0hPa | 2.5V | 00:00:00 | 00:00:00 | 00:00:00 | |
| DM0DOS-11 | 2026-09-05 01:30:44 | 50.60381 | 2.38861 | 100° | 104km/h | 15036m | -5.3m/s | -56.8°C | 5% | 0hPa | 2.5V | 08:00:48 | 02:40:23 | 00:00:00 | |
| WEDDY | 2026-09-05 01:30:41 | 50.60377 | 2.38901 | 101° | 104km/h | 15031m | -5.3m/s | -56.9°C | 1.9% | 0hPa | 2.5V | 08:01:00 | 00:00:00 | 00:00:00 | |
| DM0DOS-11 | 2026-09-05 01:30:34 | 50.60428 | 2.38452 | 100° | 104km/h | 15088m | -5.2m/s | -56.7°C | 5.1% | 0hPa | 2.5V | 08:00:58 | 02:40:13 | 00:00:00 | |
| DO9LL-15 | 2026-09-05 01:30:32 | 50.60423 | 2.38492 | 101° | 95km/h | 15083m | -5.0m/s | -56.8°C | 5.1% | 0hPa | 2.6V | 00:00:00 | 02:40:14 | 00:00:00 | |
| DM0DOS-11 | 2026-09-05 01:30:24 | 50.60467 | 2.38043 | 97° | 104km/h | 15143m | -5.7m/s | -56.8°C | 5.1% | 0hPa | 2.6V | 08:01:08 | 02:40:03 | 00:00:00 | |
| DO1YAY-16 | 2026-09-05 01:30:24 | 50.60457 | 2.38166 | 97° | 104km/h | 15125m | -6.0m/s | -56.8°C | 1.7% | -1.0hPa | 2.6V | 00:00:00 | 00:00:00 | 00:00:00 | |
| WEDDY | 2026-09-05 01:30:20 | 50.60467 | 2.38043 | 98° | 104km/h | 15143m | -5.7m/s | -56.8°C | 1.9% | 0hPa | 2.6V | 08:01:00 | 00:00:00 | 00:00:00 | |
| AU51GT2 | 2026-09-05 01:30:17 | 50.60480 | 2.37883 | 97° | 99km/h | 15165m | -5.3m/s | -56.8°C | 1.7% | -1.0hPa | 2.6V | 00:00:00 | 00:00:00 | 00:00:00 | |
| DM0DOS-11 | 2026-09-05 01:30:16 | 50.60497 | 2.37661 | 96° | 89km/h | 15197m | -5.6m/s | -56.1°C | 5% | 0hPa | 2.6V | 08:01:18 | 02:39:53 | 00:00:00 | |
| BIOWL1-15 | 2026-09-05 01:30:12 | 50.60500 | 2.37626 | 96° | 88km/h | 15203m | -5.3m/s | -56°C | 1.1% | 0hPa | 2.6V | 08:01:23 | 02:39:52 | 00:00:00 | |
| DM0DOS-11 | 2026-09-05 01:30:06 | 50.60525 | 2.37324 | 101° | 80km/h | 15250m | -5.3m/s | -55.1°C | 4.6% | 0hPa | 2.5V | 08:01:28 | 02:39:43 | 00:00:00 | |
| BIOWL1-15 | 2026-09-05 01:29:59 | 50.60564 | 2.37105 | 109° | 84km/h | 15287m | -5.4m/s | -54.8°C | 0.8% | 0hPa | 2.6V | 08:02:14 | 02:39:36 | 00:00:00 | |
| DM0DOS-11 | 2026-09-05 01:29:56 | 50.60585 | 2.37008 | 109° | 88km/h | 15303m | -5.5m/s | -54.8°C | 4.4% | 0hPa | 2.5V | 08:01:38 | 02:39:33 | 00:00:00 | |
| BIOWL1-15 | 2026-09-05 01:29:48 | 50.60608 | 2.36906 | 109° | 93km/h | 15319m | -5.4m/s | -55°C | 0.8% | 0hPa | 2.6V | 08:02:14 | 02:39:30 | 00:00:00 | |
| DM0DOS-11 | 2026-09-05 01:29:46 | 50.60662 | 2.36650 | 107° | 100km/h | 15357m | -5.6m/s | -55°C | 4.4% | 0hPa | 2.5V | 08:01:48 | 02:39:23 | 00:00:00 | |
| BIOWL1-15 | 2026-09-05 01:29:37 | 50.60691 | 2.36494 | 106° | 104km/h | 15379m | -5.5m/s | -55°C | 0.8% | 0hPa | 2.6V | 08:02:14 | 02:39:19 | 00:00:00 | |
| BIOWL1-15 | 2026-09-05 01:29:27 | 50.60738 | 2.36080 | 94° | 100km/h | 15433m | -5.3m/s | -55.4°C | 0.9% | 0hPa | 2.5V | 08:02:14 | 02:39:09 | 00:00:00 | |
| DM0DOS-11 | 2026-09-05 01:29:21 | 50.60746 | 2.35824 | 92° | 88km/h | 15470m | -5.4m/s | -55.5°C | 4.6% | 0hPa | 2.6V | 08:02:09 | 02:39:02 | 00:00:00 | |
| BIOWL1-15 | 2026-09-05 01:29:16 | 50.60751 | 2.35689 | 94° | 84km/h | 15491m | -5.5m/s | -55.2°C | 0.8% | 0hPa | 2.5V | 08:02:14 | 02:38:58 | 00:00:00 | |
| DO9LL-15 | 2026-09-05 01:29:15 | 50.60753 | 2.35656 | 95° | 75km/h | 15497m | -5.4m/s | -55.2°C | 4.5% | 0hPa | 2.6V | 08:02:00 | 02:38:57 | 00:00:00 | |
| DB0UT-7 | 2026-09-05 01:29:14 | 50.60754 | 2.35623 | 96° | 86km/h | 15502m | -5.2m/s | -55.2°C | 4.5% | 0hPa | 2.6V | 00:00:00 | 02:38:56 | 00:00:00 | |
| DM0DOS-11 | 2026-09-05 01:29:13 | 50.60771 | 2.35434 | 100° | 78km/h | 15533m | -5.2m/s | -55.2°C | 4.6% | 0hPa | 2.6V | 08:02:21 | 02:38:50 | 00:00:00 | |
| BIOWL1-15 | 2026-09-05 01:29:06 | 50.60778 | 2.35374 | 102° | 77km/h | 15543m | -5.2m/s | -55.2°C | 0.9% | 0hPa | 2.5V | 08:03:05 | 02:38:48 | 00:00:00 | |
| BIOWL1-15 | 2026-09-05 01:28:57 | 50.60838 | 2.35027 | 110° | 73km/h | 15606m | -5.5m/s | -54.9°C | 0.8% | 0hPa | 2.5V | 08:03:05 | 02:38:36 | 00:00:00 | |
| DM0DOS-11 | 2026-09-05 01:28:55 | 50.60851 | 2.34972 | 112° | 75km/h | 15617m | -5.4m/s | -54.9°C | 4.5% | 0hPa | 2.6V | 08:02:37 | 02:38:34 | 00:00:00 | |
| DO1YAY-16 | 2026-09-05 01:28:51 | 50.60867 | 2.34917 | 114° | 77km/h | 15628m | -5.2m/s | -54.7°C | 1.4% | -1.0hPa | 2.5V | 00:00:00 | 00:00:00 | 00:00:00 | |
| BIOWL9-15 | 2026-09-05 01:28:46 | 50.60913 | 2.34772 | 116° | 86km/h | 15654m | -5.0m/s | -54.4°C | 1.3% | -1.0hPa | 2.5V | 00:00:00 | 00:00:00 | 00:00:00 | |
| BIOWL1-15 | 2026-09-05 01:28:45 | 50.60933 | 2.34709 | 115° | 89km/h | 15664m | -4.8m/s | -54.4°C | 0.8% | 0hPa | 2.5V | 08:03:05 | 02:38:25 | 00:00:00 | |
| AU51GT2 | 2026-09-05 01:28:44 | 50.60923 | 2.34741 | 116° | 88km/h | 15659m | -4.9m/s | -54.4°C | 1.4% | -1.0hPa | 2.6V | 00:00:00 | 00:00:00 | 00:00:00 | |
| WEDDY | 2026-09-05 01:28:38 | 50.60969 | 2.34575 | 112° | 93km/h | 15683m | -4.8m/s | -54.4°C | 1.5% | 0hPa | 2.6V | 08:03:00 | 00:00:00 | 00:00:00 | |
| DM0DOS-11 | 2026-09-05 01:28:35 | 50.61007 | 2.34401 | 107° | 91km/h | 15706m | -5m/s | -54.5°C | 4.4% | 0hPa | 2.6V | 08:02:55 | 02:38:16 | 00:00:00 | |
| BIOWL1-15 | 2026-09-05 01:28:34 | 50.61021 | 2.34333 | 108° | 91km/h | 15716m | -4.9m/s | -54.5°C | 0.8% | 0hPa | 2.5V | 08:03:05 | 02:38:14 | 00:00:00 | |
| BIOWL1-15 | 2026-09-05 01:28:21 | 50.61130 | 2.33762 | 101° | 89km/h | 15800m | -5.1m/s | -54.1°C | 0.7% | 0hPa | 2.5V | 08:03:56 | 02:37:57 | 00:00:00 | |
| BIOWL1-15 | 2026-09-05 01:28:08 | 50.61150 | 2.33520 | 93° | 86km/h | 15834m | -4.9m/s | -54.2°C | 0.8% | 0hPa | 2.5V | 08:03:56 | 02:37:50 | 00:00:00 | |
| BIOWL1-15 | 2026-09-05 01:27:57 | 50.61146 | 2.33155 | 84° | 77km/h | 15890m | -5m/s | -54.6°C | 0.7% | 0hPa | 2.5V | 08:03:56 | 02:37:39 | 00:00:00 | |
| HTAHTA | 2026-09-05 01:27:51 | 50.61141 | 2.32992 | 95° | 64km/h | 15918m | -4.5m/s | -54.8°C | 1.4% | -1.0hPa | 2.6V | 00:00:00 | 00:00:00 | 00:00:00 | |
| DO1YAY-16 | 2026-09-05 01:27:49 | 50.61148 | 2.32913 | 99° | 69km/h | 15931m | -4.6m/s | -54.9°C | 1.4% | -1.0hPa | 2.6V | 00:00:00 | 00:00:00 | 00:00:00 | |
| BIOWL1-15 | 2026-09-05 01:27:46 | 50.61164 | 2.32771 | 100° | 75km/h | 15954m | -4.8m/s | -54.9°C | 0.8% | 0hPa | 2.6V | 08:03:56 | 02:37:25 | 00:00:00 | |
| BIOWL1-15 | 2026-09-05 01:27:36 | 50.61197 | 2.32487 | 99° | 89km/h | 15999m | -5m/s | -54.8°C | 0.7% | 0hPa | 2.5V | 08:03:56 | 02:37:16 | 00:00:00 | |
| BIOWL1-15 | 2026-09-05 01:27:23 | 50.61200 | 2.32083 | 84° | 84km/h | 16050m | -4.5m/s | -55°C | 0.8% | 0hPa | 2.5V | 08:04:47 | 02:37:05 | 00:00:00 | |
| BIOWL1-15 | 2026-09-05 01:27:15 | 50.61190 | 2.31787 | 96° | 71km/h | 16096m | -4.5m/s | -55.2°C | 0.9% | 0hPa | 2.5V | 08:04:47 | 02:36:55 | 00:00:00 | |
| BIOWL1-15 | 2026-09-05 01:27:03 | 50.61222 | 2.31509 | 103° | 71km/h | 16143m | -5m/s | -54.7°C | 0.8% | 0hPa | 2.6V | 08:04:47 | 02:36:45 | 00:00:00 | |
| BIOWL1-15 | 2026-09-05 01:26:54 | 50.61277 | 2.31201 | 109° | 77km/h | 16197m | -5m/s | -54.6°C | 0.7% | 0hPa | 2.6V | 08:04:47 | 02:36:34 | 00:00:00 | |
| HTAHTA | 2026-09-05 01:26:49 | 50.61306 | 2.31081 | 110° | 84km/h | 16217m | -4.9m/s | -54.6°C | 1.3% | -1.0hPa | 2.6V | 00:00:00 | 00:00:00 | 00:00:00 | |
| DO1YAY-16 | 2026-09-05 01:26:46 | 50.61328 | 2.30981 | 107° | 91km/h | 16232m | -5.0m/s | -54.7°C | 1.4% | -1.0hPa | 2.6V | 00:00:00 | 00:00:00 | 00:00:00 | |
| BIOWL1-15 | 2026-09-05 01:26:42 | 50.61346 | 2.30874 | 102° | 93km/h | 16246m | -4.6m/s | -54.8°C | 0.9% | 0hPa | 2.6V | 08:04:47 | 02:36:24 | 00:00:00 | |
| BIOWL1-15 | 2026-09-05 01:26:31 | 50.61366 | 2.30458 | 92° | 69km/h | 16310m | -5.3m/s | -55.1°C | 0.9% | 0hPa | 2.6V | 08:05:38 | 02:36:11 | 00:00:00 | |
| BIOWL1-15 | 2026-09-05 01:26:19 | 50.61401 | 2.30222 | 115° | 66km/h | 16360m | -5.1m/s | -55.2°C | 0.8% | 0hPa | 2.6V | 08:05:38 | 02:36:01 | 00:00:00 | |
| BIOWL1-15 | 2026-09-05 01:26:07 | 50.61485 | 2.29806 | 101° | 80km/h | 16429m | -5m/s | -55.4°C | 1% | 0hPa | 2.5V | 08:05:38 | 02:35:47 | 00:00:00 | |
| BIOWL1-15 | 2026-09-05 01:25:55 | 50.61528 | 2.29497 | 104° | 80km/h | 16482m | -5.6m/s | -55.6°C | 1% | 0hPa | 2.6V | 08:05:38 | 02:35:37 | 00:00:00 | |
| BIOWL1-15 | 2026-09-05 01:25:44 | 50.61565 | 2.29143 | 92° | 82km/h | 16541m | -5.3m/s | -55.7°C | 0.9% | 0hPa | 2.6V | 08:07:20 | 02:35:26 | 00:00:00 | |
| BIOWL1-15 | 2026-09-05 01:25:37 | 50.61554 | 2.28810 | 85° | 73km/h | 16601m | -5.6m/s | -56.1°C | 1% | 0hPa | 2.6V | 08:07:20 | 02:35:15 | 00:00:00 | |
| BIOWL1-15 | 2026-09-05 01:25:22 | 50.61533 | 2.28475 | 83° | 78km/h | 16663m | -5.9m/s | -56.1°C | 1.1% | 0hPa | 2.6V | 08:07:20 | 02:35:04 | 00:00:00 | |
| BIOWL1-15 | 2026-09-05 01:25:13 | 50.61491 | 2.28152 | 74° | 69km/h | 16726m | -5.8m/s | -55.8°C | 0.9% | 0hPa | 2.6V | 08:07:20 | 02:34:53 | 00:00:00 | |
| BIOWL1-15 | 2026-09-05 01:25:01 | 50.61453 | 2.27914 | 83° | 57km/h | 16781m | -5.8m/s | -56.1°C | 1% | 0hPa | 2.5V | 08:07:20 | 02:34:43 | 00:00:00 | |
| BIOWL1-15 | 2026-09-05 01:24:49 | 50.61459 | 2.27615 | 95° | 75km/h | 16853m | -5.8m/s | -56.1°C | 1% | 0hPa | 2.6V | 08:07:20 | 02:34:31 | 00:00:00 | |
| HTAHTA | 2026-09-05 01:24:45 | 50.61463 | 2.27489 | 90° | 82km/h | 16876m | -5.6m/s | -56.1°C | 1.4% | -1.0hPa | 2.5V | 00:00:00 | 00:00:00 | 00:00:00 | |
| BIOWL1-15 | 2026-09-05 01:24:42 | 50.61450 | 2.27257 | 80° | 82km/h | 16915m | -5.8m/s | -56.3°C | 1% | 0hPa | 2.5V | 08:07:20 | 02:34:20 | 00:00:00 | |
| BIOWL1-15 | 2026-09-05 01:24:27 | 50.61404 | 2.26967 | 78° | 55km/h | 16978m | -6m/s | -56.6°C | 1.1% | 0hPa | 2.5V | 08:07:20 | 02:34:09 | 00:00:00 | |
| BIOWL1-15 | 2026-09-05 01:24:23 | 50.61411 | 2.26745 | 101° | 64km/h | 17035m | -5.9m/s | -56.3°C | 1% | 0hPa | 2.5V | 08:07:20 | 02:33:59 | 00:00:00 | |
| BIOWL1-15 | 2026-09-05 01:24:06 | 50.61441 | 2.26447 | 98° | 73km/h | 17098m | -5.9m/s | -56.1°C | 1% | 0hPa | 2.5V | 08:08:11 | 02:33:48 | 00:00:00 | |
| BIOWL1-15 | 2026-09-05 01:23:55 | 50.61465 | 2.26097 | 93° | 88km/h | 17162m | -6m/s | -56.7°C | 0.9% | 0hPa | 2.5V | 08:08:11 | 02:33:37 | 00:00:00 | |
| BIOWL1-15 | 2026-09-05 01:23:46 | 50.61446 | 2.25710 | 79° | 80km/h | 17225m | -5.6m/s | -57.2°C | 1.2% | 0hPa | 2.5V | 08:08:11 | 02:33:26 | 00:00:00 | |
| BIOWL1-15 | 2026-09-05 01:23:35 | 50.61406 | 2.25385 | 79° | 71km/h | 17288m | -6.1m/s | -57°C | 1.1% | 0hPa | 2.5V | 08:08:11 | 02:33:15 | 00:00:00 | |
| BIOWL1-15 | 2026-09-05 01:23:23 | 50.61381 | 2.25130 | 85° | 58km/h | 17347m | -5.9m/s | -56.9°C | 1.1% | 0hPa | 2.6V | 08:08:11 | 02:33:05 | 00:00:00 | |
| BIOWL1-15 | 2026-09-05 01:23:12 | 50.61390 | 2.24871 | 96° | 69km/h | 17410m | -5.6m/s | -56.9°C | 1.1% | 0hPa | 2.6V | 08:09:02 | 02:32:54 | 00:00:00 | |
| BIOWL1-15 | 2026-09-05 01:23:01 | 50.61395 | 2.24536 | 87° | 80km/h | 17470m | -5.8m/s | -57.2°C | 1% | 0hPa | 2.6V | 08:09:02 | 02:32:43 | 00:00:00 | |
| DM0DOS-11 | 2026-09-05 01:22:54 | 50.61366 | 2.24250 | 74° | 80km/h | 17522m | -5.7m/s | -57.4°C | 4.9% | 0hPa | 2.5V | 08:08:37 | 02:32:34 | 00:00:00 | |
| BIOWL1-15 | 2026-09-05 01:22:51 | 50.61360 | 2.24220 | 73° | 78km/h | 17528m | -5.7m/s | -57.4°C | 1.1% | 0hPa | 2.6V | 08:09:02 | 02:32:33 | 00:00:00 | |
| WEDDY | 2026-09-05 01:22:48 | 50.61341 | 2.24134 | 71° | 73km/h | 17544m | -5.6m/s | -57.4°C | 0% | 0hPa | 2.5V | 08:09:00 | 00:00:00 | 00:00:00 | |
| DM0DOS-11 | 2026-09-05 01:22:44 | 50.61297 | 2.23962 | 66° | 62km/h | 17584m | -6m/s | -57.6°C | 5.1% | 0hPa | 2.5V | 08:08:48 | 02:32:23 | 00:00:00 | |
| BIOWL1-15 | 2026-09-05 01:22:39 | 50.61279 | 2.23897 | 69° | 57km/h | 17601m | -5.7m/s | -57.8°C | 1.2% | 0hPa | 2.5V | 08:09:02 | 02:32:20 | 00:00:00 | |
| DM0DOS-11 | 2026-09-05 01:22:34 | 50.61252 | 2.23756 | 76° | 49km/h | 17641m | -5.7m/s | -57.6°C | 5% | 0hPa | 2.5V | 08:08:58 | 02:32:13 | 00:00:00 | |
| BIOWL1-15 | 2026-09-05 01:22:29 | 50.61242 | 2.23680 | 83° | 49km/h | 17664m | -5.9m/s | -57.8°C | 1.1% | 0hPa | 2.5V | 08:09:02 | 02:32:09 | 00:00:00 | |
| WEDDY | 2026-09-05 01:22:26 | 50.61242 | 2.23680 | 84° | 49km/h | 17664m | -5.9m/s | 0°C | 0% | 0hPa | 2.6V | 08:09:00 | 00:00:00 | 00:00:00 | |
| DM0DOS-11 | 2026-09-05 01:22:24 | 50.61242 | 2.23557 | 93° | 58km/h | 17699m | -5.5m/s | -57.8°C | 5.1% | 0hPa | 2.6V | 08:09:08 | 02:32:03 | 00:00:00 | |
| BIOWL1-15 | 2026-09-05 01:22:17 | 50.61246 | 2.23459 | 94° | 64km/h | 17721m | -5.9m/s | -58°C | 1.1% | 0hPa | 2.5V | 08:09:53 | 02:31:59 | 00:00:00 | |
| DM0DOS-11 | 2026-09-05 01:22:14 | 50.61251 | 2.23287 | 91° | 58km/h | 17760m | -5.6m/s | -57.5°C | 5.1% | 0hPa | 2.6V | 08:09:19 | 02:31:52 | 00:00:00 | |
| BIOWL1-15 | 2026-09-05 01:22:06 | 50.61253 | 2.23194 | 92° | 58km/h | 17783m | -5.8m/s | -57.6°C | 1.1% | 0hPa | 2.5V | 08:09:53 | 02:31:48 | 00:00:00 | |
| DM0DOS-11 | 2026-09-05 01:22:02 | 50.61265 | 2.22973 | 97° | 64km/h | 17835m | -6m/s | -57.1°C | 5% | 0hPa | 2.5V | 08:09:32 | 02:31:39 | 00:00:00 | |
| BIOWL1-15 | 2026-09-05 01:21:56 | 50.61267 | 2.22947 | 98° | 66km/h | 17841m | -5.8m/s | -57.1°C | 1.1% | 0hPa | 2.6V | 08:09:53 | 02:31:38 | 00:00:00 | |
| DM0DOS-11 | 2026-09-05 01:21:51 | 50.61296 | 2.22676 | 99° | 75km/h | 17898m | -5.8m/s | -56.6°C | 4.8% | 0hPa | 2.5V | 08:09:43 | 02:31:28 | 00:00:00 | |
| BIOWL1-15 | 2026-09-05 01:21:48 | 50.61296 | 2.22676 | 99° | 75km/h | 17898m | -5.8m/s | -56.7°C | 0.9% | 0hPa | 2.5V | 08:09:53 | 02:31:28 | 00:00:00 | |
| DM0DOS-11 | 2026-09-05 01:21:40 | 50.61321 | 2.22319 | 90° | 88km/h | 17963m | -6m/s | -56.4°C | 4.7% | 0hPa | 2.5V | 08:09:54 | 02:31:17 | 00:00:00 | |
| BIOWL1-15 | 2026-09-05 01:21:36 | 50.61319 | 2.22215 | 86° | 88km/h | 17981m | -5.9m/s | -56.4°C | 0.9% | 0hPa | 2.6V | 08:10:44 | 02:31:14 | 00:00:00 | |
| BIOWL1-15 | 2026-09-05 01:21:26 | 50.61274 | 2.21846 | 76° | 68km/h | 18052m | -6.2m/s | -56.3°C | 0.8% | 0hPa | 2.5V | 08:10:44 | 02:31:02 | 00:00:00 | |
| BIOWL1-15 | 2026-09-05 01:21:11 | 50.61265 | 2.21586 | 99° | 62km/h | 18118m | -5.9m/s | -56.4°C | 1% | 0hPa | 2.6V | 08:10:44 | 02:30:51 | 00:00:00 | |
| BIOWL1-15 | 2026-09-05 01:21:01 | 50.61285 | 2.21356 | 96° | 55km/h | 18178m | -5.8m/s | -56.1°C | 1% | 0hPa | 2.6V | 08:10:44 | 02:30:41 | 00:00:00 | |
| BIOWL1-15 | 2026-09-05 01:20:51 | 50.61312 | 2.21147 | 109° | 57km/h | 18239m | -6.2m/s | -55.5°C | 0.8% | 0hPa | 2.5V | 08:10:44 | 02:30:31 | 00:00:00 | |
| DM0DOS-11 | 2026-09-05 01:20:50 | 50.61333 | 2.21061 | 113° | 60km/h | 18264m | -6.2m/s | -55.5°C | 4.4% | 0hPa | 2.6V | 08:10:44 | 02:30:27 | 00:00:00 | |
| DM0DOS-11 | 2026-09-05 01:20:40 | 50.61408 | 2.20807 | 111° | 78km/h | 18326m | -6.1m/s | -55.8°C | 4.5% | 0hPa | 2.6V | 08:10:54 | 02:30:17 | 00:00:00 | |
| BIOWL1-15 | 2026-09-05 01:20:39 | 50.61377 | 2.20917 | 115° | 73km/h | 18301m | -6.3m/s | -55.7°C | 0.7% | 0hPa | 2.5V | 08:11:35 | 02:30:21 | 00:00:00 | |
| BIOWL1-15 | 2026-09-05 01:20:34 | 50.61444 | 2.20601 | 102° | 73km/h | 18368m | -6m/s | -55.8°C | 0.9% | 0hPa | 2.6V | 08:11:35 | 02:30:10 | 00:00:00 | |
| DO1YAY-16 | 2026-09-05 01:20:34 | 50.61427 | 2.20718 | 105° | 77km/h | 18344m | -5.9m/s | -55.8°C | 1.3% | -1.0hPa | 2.5V | 00:00:00 | 00:00:00 | 00:00:00 | |
| DM0DOS-11 | 2026-09-05 01:20:30 | 50.61455 | 2.20516 | 102° | 71km/h | 18385m | -6.3m/s | -55.9°C | 4.6% | 0hPa | 2.5V | 08:11:04 | 02:30:07 | 00:00:00 | |
| BIOWL9-15 | 2026-09-05 01:20:29 | 50.61440 | 2.20629 | 101° | 73km/h | 18361m | -6.0m/s | -55.8°C | 1.3% | -1.0hPa | 2.5V | 00:00:00 | 00:00:00 | 00:00:00 | |
| AU51GT2 | 2026-09-05 01:20:27 | 50.61448 | 2.20572 | 100° | 71km/h | 18374m | -5.9m/s | -55.9°C | 1.3% | -1.0hPa | 2.5V | 00:00:00 | 00:00:00 | 00:00:00 | |
| DM0DOS-11 | 2026-09-05 01:20:20 | 50.61498 | 2.20242 | 104° | 69km/h | 18446m | -6.3m/s | -55.8°C | 4.7% | 0hPa | 2.5V | 08:11:14 | 02:29:57 | 00:00:00 | |
| BIOWL1-15 | 2026-09-05 01:20:17 | 50.61489 | 2.20296 | 105° | 69km/h | 18434m | -6.2m/s | -56°C | 0.9% | 0hPa | 2.5V | 08:11:35 | 02:29:59 | 00:00:00 | |
| DM0DOS-11 | 2026-09-05 01:20:10 | 50.61546 | 2.19982 | 106° | 68km/h | 18508m | -5.9m/s | -55.4°C | 4.5% | 0hPa | 2.5V | 08:11:24 | 02:29:47 | 00:00:00 | |
| BIOWL1-15 | 2026-09-05 01:20:09 | 50.61537 | 2.20033 | 107° | 68km/h | 18496m | -6.2m/s | -55.4°C | 0.8% | 0hPa | 2.5V | 08:11:35 | 02:29:49 | 00:00:00 | |
| DO9LL-15 | 2026-09-05 01:20:09 | 50.61527 | 2.20084 | 107° | 69km/h | 18484m | -6.1m/s | -55.4°C | 4.6% | 0hPa | 2.5V | 00:00:00 | 02:29:51 | 00:00:00 | |
| HTAHTA | 2026-09-05 01:20:06 | 50.61546 | 2.19982 | 106° | 66km/h | 18508m | -5.9m/s | -55.4°C | 1.3% | -1.0hPa | 2.5V | 00:00:00 | 00:00:00 | 00:00:00 | |
| HARRO8 | 2026-09-05 01:20:05 | 50.61546 | 2.19982 | 106° | 66km/h | 18508m | -5.9m/s | -55.4°C | 1.3% | -1.0hPa | 2.5V | 00:00:00 | 00:00:00 | 00:00:00 | |
| DO1YAY-16 | 2026-09-05 01:20:03 | 50.61561 | 2.19904 | 106° | 68km/h | 18526m | -5.8m/s | -55.3°C | 1.3% | -1.0hPa | 2.5V | 00:00:00 | 00:00:00 | 00:00:00 | |
| DM0DOS-11 | 2026-09-05 01:20:00 | 50.61593 | 2.19721 | 104° | 69km/h | 18569m | -6.5m/s | -55.3°C | 4.5% | 0hPa | 2.5V | 08:11:34 | 02:29:37 | 00:00:00 | |
| BIOWL1-15 | 2026-09-05 01:19:56 | 50.61589 | 2.19748 | 105° | 69km/h | 18563m | -6.3m/s | -55.3°C | 0.7% | 0hPa | 2.5V | 08:11:35 | 02:29:38 | 00:00:00 | |
| DM0DOS-11 | 2026-09-05 01:19:50 | 50.61624 | 2.19432 | 93° | 77km/h | 18634m | -6.3m/s | -55.5°C | 4.5% | 0hPa | 2.5V | 08:11:44 | 02:29:27 | 00:00:00 | |
| BIOWL1-15 | 2026-09-05 01:19:45 | 50.61625 | 2.19402 | 91° | 77km/h | 18640m | -6.3m/s | -55.5°C | 0.8% | 0hPa | 2.5V | 08:12:26 | 02:29:26 | 00:00:00 | |
| DJ2DS-15 | 2026-09-05 01:19:45 | 50.61624 | 2.19432 | 93° | 77km/h | 18634m | -6.3m/s | -55.5°C | 1.3% | -1.0hPa | 2.5V | 00:00:00 | 00:00:00 | 00:00:00 | |
| DM0DOS-11 | 2026-09-05 01:19:40 | 50.61609 | 2.19150 | 79° | 62km/h | 18697m | -6m/s | -55.8°C | 4.8% | 0hPa | 2.5V | 08:11:54 | 02:29:17 | 00:00:00 | |
| BIOWL1-15 | 2026-09-05 01:19:34 | 50.61595 | 2.19034 | 80° | 57km/h | 18728m | -6.2m/s | -55.4°C | 0.9% | 0hPa | 2.5V | 08:12:26 | 02:29:12 | 00:00:00 | |
| HARRO8 | 2026-09-05 01:19:34 | 50.61605 | 2.19126 | 79° | 60km/h | 18703m | -6.4m/s | -55.8°C | 1.3% | -1.0hPa | 2.6V | 00:00:00 | 00:00:00 | 00:00:00 | |
| DO9LL-15 | 2026-09-05 01:19:31 | 50.61597 | 2.19056 | 80° | 49km/h | 18722m | -6.1m/s | -55.4°C | 4.7% | 0hPa | 2.6V | 00:00:00 | 02:29:13 | 00:00:00 | |
| DM0DOS-11 | 2026-09-05 01:19:30 | 50.61584 | 2.18923 | 82° | 55km/h | 18760m | -6.3m/s | -54.7°C | 4.5% | 0hPa | 2.6V | 08:12:04 | 02:29:07 | 00:00:00 | |
| BIOWL1-15 | 2026-09-05 01:19:24 | 50.61582 | 2.18902 | 83° | 55km/h | 18766m | -6.2m/s | -54.6°C | 0.8% | 0hPa | 2.6V | 08:12:26 | 02:29:06 | 00:00:00 | |
| DM0DOS-11 | 2026-09-05 01:19:20 | 50.61567 | 2.18717 | 82° | 51km/h | 18824m | -6.7m/s | -54.5°C | 4.3% | 0hPa | 2.6V | 08:12:14 | 02:28:57 | 00:00:00 | |
| BIOWL1-15 | 2026-09-05 01:19:14 | 50.61565 | 2.18697 | 82° | 49km/h | 18831m | -6.8m/s | -54.5°C | 0.6% | 0hPa | 2.5V | 08:12:26 | 02:28:56 | 00:00:00 | |
| DM0DOS-11 | 2026-09-05 01:19:10 | 50.61555 | 2.18542 | 91° | 37km/h | 18890m | -6.5m/s | -54.5°C | 4.3% | 0hPa | 2.5V | 08:12:24 | 02:28:47 | 00:00:00 | |
| BIOWL1-15 | 2026-09-05 01:19:04 | 50.61558 | 2.18501 | 100° | 35km/h | 18909m | -6.5m/s | -54.4°C | 0.7% | 0hPa | 2.5V | 08:13:17 | 02:28:44 | 00:00:00 | |
| HARRO8 | 2026-09-05 01:19:03 | 50.61556 | 2.18515 | 97° | 33km/h | 18903m | -6.6m/s | -54.5°C | 1.2% | -1.0hPa | 2.5V | 00:00:00 | 00:00:00 | 00:00:00 | |
| DM0DOS-11 | 2026-09-05 01:19:00 | 50.61578 | 2.18399 | 111° | 44km/h | 18956m | -6.8m/s | -54.2°C | 4.3% | 0hPa | 2.5V | 08:12:34 | 02:28:37 | 00:00:00 | |
| BIOWL1-15 | 2026-09-05 01:18:52 | 50.61596 | 2.18332 | 114° | 47km/h | 18983m | -6.9m/s | -54.4°C | 0.7% | 0hPa | 2.5V | 08:13:17 | 02:28:33 | 00:00:00 | |
| DM0DOS-11 | 2026-09-05 01:18:48 | 50.61625 | 2.18225 | 112° | 51km/h | 19023m | -6.9m/s | -54.2°C | 4.3% | 0hPa | 2.5V | 08:12:44 | 02:28:27 | 00:00:00 | |
| BIOWL1-15 | 2026-09-05 01:18:40 | 50.61652 | 2.18126 | 114° | 58km/h | 19058m | -6.8m/s | -54.1°C | 0.6% | 0hPa | 2.6V | 08:13:17 | 02:28:22 | 00:00:00 | |
| DM0DOS-11 | 2026-09-05 01:18:40 | 50.61690 | 2.17984 | 110° | 71km/h | 19099m | -7.1m/s | -54.1°C | 4.3% | 0hPa | 2.5V | 08:12:55 | 02:28:16 | 00:00:00 | |
| BIOWL1-15 | 2026-09-05 01:18:30 | 50.61713 | 2.17871 | 104° | 77km/h | 19128m | -7.2m/s | -54.1°C | 0.7% | 0hPa | 2.6V | 08:13:17 | 02:28:12 | 00:00:00 | |
| DO9LL-15 | 2026-09-05 01:18:30 | 50.61713 | 2.17871 | 104° | 53km/h | 19129m | -7.1m/s | -54.0°C | 4.3% | 0hPa | 2.6V | 00:00:00 | 02:28:12 | 00:00:00 | |
| DO1YAY-16 | 2026-09-05 01:18:29 | 50.61717 | 2.17841 | 101° | 77km/h | 19136m | -7.0m/s | -54.1°C | 1.2% | -1.0hPa | 2.6V | 00:00:00 | 00:00:00 | 00:00:00 | |
| DM0DOS-11 | 2026-09-05 01:18:27 | 50.61725 | 2.17701 | 89° | 62km/h | 19169m | -6.4m/s | -54.1°C | 4.4% | 0hPa | 2.6V | 08:13:05 | 02:28:06 | 00:00:00 | |
| BIOWL1-15 | 2026-09-05 01:18:19 | 50.61723 | 2.17551 | 91° | 47km/h | 19216m | -7.1m/s | -53.9°C | 0.8% | 0hPa | 2.6V | 08:13:17 | 02:27:59 | 00:00:00 | |
| DM0DOS-11 | 2026-09-05 01:18:19 | 50.61726 | 2.17498 | 96° | 44km/h | 19237m | -7m/s | -53.6°C | 4.3% | 0hPa | 2.5V | 08:13:15 | 02:27:56 | 00:00:00 | |
| BIOWL1-15 | 2026-09-05 01:18:08 | 50.61738 | 2.17360 | 97° | 44km/h | 19293m | -6.8m/s | -52.7°C | 0.6% | 0hPa | 2.5V | 08:14:08 | 02:27:48 | 00:00:00 | |
| DM0DOS-11 | 2026-09-05 01:18:07 | 50.61743 | 2.17291 | 95° | 44km/h | 19321m | -7.3m/s | -52.6°C | 4% | 0hPa | 2.6V | 08:13:27 | 02:27:44 | 00:00:00 | |
| BIOWL1-15 | 2026-09-05 01:17:57 | 50.61749 | 2.17179 | 95° | 37km/h | 19371m | -7.3m/s | -52.7°C | 0.6% | 0hPa | 2.6V | 08:14:08 | 02:27:37 | 00:00:00 | |
| DM0DOS-11 | 2026-09-05 01:17:56 | 50.61752 | 2.17139 | 100° | 31km/h | 19393m | -7m/s | -52.5°C | 4% | 0hPa | 2.5V | 08:13:37 | 02:27:34 | 00:00:00 | |
| BIOWL9-15 | 2026-09-05 01:17:54 | 50.61751 | 2.17152 | 99° | 31km/h | 19386m | -7.1m/s | -52.6°C | 1.1% | -1.0hPa | 2.6V | 00:00:00 | 00:00:00 | 00:00:00 | |
| AU51GT2 | 2026-09-05 01:17:52 | 50.61752 | 2.17139 | 100° | 29km/h | 19393m | -7.0m/s | -52.6°C | 1.1% | -1.0hPa | 2.6V | 00:00:00 | 00:00:00 | 00:00:00 | |
| DM0DOS-11 | 2026-09-05 01:17:46 | 50.61780 | 2.17040 | 124° | 26km/h | 19462m | -7.1m/s | -52.3°C | 3.8% | 0hPa | 2.6V | 08:13:47 | 02:27:24 | 00:00:00 | |
| BIOWL1-15 | 2026-09-05 01:17:44 | 50.61780 | 2.17040 | 124° | 26km/h | 19462m | -7.1m/s | -52.3°C | 0.4% | 0hPa | 2.6V | 08:14:08 | 02:27:24 | 00:00:00 | |
| DM0DOS-11 | 2026-09-05 01:17:35 | 50.61825 | 2.16956 | 137° | 29km/h | 19532m | -7.1m/s | -52.5°C | 3.8% | 0hPa | 2.6V | 08:13:57 | 02:27:14 | 00:00:00 | |
| BIOWL1-15 | 2026-09-05 01:17:34 | 50.61814 | 2.16972 | 135° | 29km/h | 19518m | -6.7m/s | -52.5°C | 0.5% | 0hPa | 2.6V | 08:14:08 | 02:27:16 | 00:00:00 | |
| DO9LL-15 | 2026-09-05 01:17:30 | 50.61836 | 2.16940 | 140° | 46km/h | 19547m | -7.0m/s | -52.5°C | 3.8% | 0hPa | 2.5V | 00:00:00 | 02:27:12 | 00:00:00 | |
| DO1YAY-16 | 2026-09-05 01:17:27 | 50.61853 | 2.16919 | 142° | 29km/h | 19568m | -7.3m/s | -52.8°C | 1.1% | -1.0hPa | 2.5V | 00:00:00 | 00:00:00 | 00:00:00 | |
| DM0DOS-11 | 2026-09-05 01:17:25 | 50.61885 | 2.16885 | 150° | 33km/h | 19604m | -7.2m/s | -53.1°C | 3.9% | 0hPa | 2.5V | 08:14:07 | 02:27:04 | 00:00:00 | |
| BIOWL1-15 | 2026-09-05 01:17:24 | 50.61893 | 2.16878 | 152° | 35km/h | 19611m | -7.4m/s | -53.1°C | 0.5% | 0hPa | 2.5V | 08:14:08 | 02:27:03 | 00:00:00 | |
| BIOWL9-15 | 2026-09-05 01:17:23 | 50.61885 | 2.16885 | 150° | 33km/h | 19604m | -7.2m/s | -53.1°C | 1.1% | -1.0hPa | 2.6V | 00:00:00 | 00:00:00 | 00:00:00 | |
| AU51GT2 | 2026-09-05 01:17:21 | 50.61893 | 2.16878 | 151° | 35km/h | 19611m | -7.4m/s | -53.1°C | 1.1% | -1.0hPa | 2.6V | 00:00:00 | 00:00:00 | 00:00:00 | |
| DM0DOS-11 | 2026-09-05 01:17:15 | 50.61979 | 2.16804 | 146° | 49km/h | 19676m | -7m/s | -53.6°C | 4% | 0hPa | 2.6V | 08:14:17 | 02:26:54 | 00:00:00 | |
| BIOWL1-15 | 2026-09-05 01:17:13 | 50.61968 | 2.16815 | 148° | 49km/h | 19669m | -6.9m/s | -53.5°C | 0.5% | 0hPa | 2.6V | 08:14:59 | 02:26:55 | 00:00:00 | |
| DM0DOS-11 | 2026-09-05 01:17:07 | 50.62078 | 2.16671 | 134° | 51km/h | 19746m | -7m/s | -53.8°C | 4.1% | 0hPa | 2.5V | 08:14:27 | 02:26:44 | 00:00:00 | |
| BIOWL1-15 | 2026-09-05 01:17:02 | 50.62096 | 2.16641 | 132° | 51km/h | 19761m | -7m/s | -53.8°C | 0.6% | 0hPa | 2.5V | 08:14:59 | 02:26:42 | 00:00:00 | |
| HARRO8 | 2026-09-05 01:16:59 | 50.62104 | 2.16626 | 129° | 49km/h | 19768m | -7.2m/s | -53.9°C | 1.1% | -1.0hPa | 2.6V | 00:00:00 | 00:00:00 | 00:00:00 | |
| DO1YAY-16 | 2026-09-05 01:16:56 | 50.62128 | 2.16578 | 125° | 51km/h | 19790m | -7.3m/s | -54.1°C | 1.1% | -1.0hPa | 2.6V | 00:00:00 | 00:00:00 | 00:00:00 | |
| DM0DOS-11 | 2026-09-05 01:16:52 | 50.62156 | 2.16508 | 119° | 51km/h | 19819m | -7.3m/s | -54.2°C | 4.2% | 0hPa | 2.6V | 08:14:37 | 02:26:34 | 00:00:00 | |
| BIOWL1-15 | 2026-09-05 01:16:52 | 50.62156 | 2.16508 | 119° | 53km/h | 19819m | -7.3m/s | -54.2°C | 0.7% | 0hPa | 2.6V | 08:14:59 | 02:26:34 | 00:00:00 | |
| BIOWL9-15 | 2026-09-05 01:16:52 | 50.62162 | 2.16490 | 117° | 51km/h | 19827m | -7.3m/s | -54.2°C | 1.2% | -1.0hPa | 2.6V | 00:00:00 | 00:00:00 | 00:00:00 | |
| AU51GT2 | 2026-09-05 01:16:50 | 50.62168 | 2.16472 | 114° | 51km/h | 19834m | -7.3m/s | -54.2°C | 1.2% | -1.0hPa | 2.6V | 00:00:00 | 00:00:00 | 00:00:00 | |
| DJ2DS-15 | 2026-09-05 01:16:45 | 50.62191 | 2.16356 | 99° | 49km/h | 19878m | -7.5m/s | -54.3°C | 1.2% | -1.0hPa | 2.6V | 00:00:00 | 00:00:00 | 00:00:00 | |
| DM0DOS-11 | 2026-09-05 01:16:42 | 50.62194 | 2.16318 | 94° | 47km/h | 19893m | -7.4m/s | -54.4°C | 4.3% | 0hPa | 2.6V | 08:14:47 | 02:26:24 | 00:00:00 | |
| BIOWL1-15 | 2026-09-05 01:16:42 | 50.62193 | 2.16163 | 88° | 33km/h | 19966m | -7.2m/s | -54.8°C | 0.9% | 0hPa | 2.5V | 08:14:59 | 02:26:14 | 00:00:00 | |
| BIOWL1-15 | 2026-09-05 01:16:39 | 50.62193 | 2.16150 | 89° | 31km/h | 19974m | -7.3m/s | -54.8°C | 0.9% | 0hPa | 2.6V | 08:14:59 | 02:26:13 | 00:00:00 | |
| DM0DOS-11 | 2026-09-05 01:16:32 | 50.62193 | 2.16163 | 88° | 33km/h | 19966m | -7.2m/s | -54.8°C | 4.6% | 0hPa | 2.5V | 08:14:57 | 02:26:14 | 00:00:00 | |
| HARRO8 | 2026-09-05 01:16:28 | 50.62192 | 2.16103 | 87° | 27km/h | 20003m | -7.5m/s | -54.6°C | 1.3% | -1.0hPa | 2.5V | 00:00:00 | 00:00:00 | 00:00:00 | |
| DM0DOS-11 | 2026-09-05 01:16:27 | 50.62190 | 2.16047 | 89° | 27km/h | 20040m | -7.5m/s | -54.1°C | 4.6% | 0hPa | 2.5V | 08:15:07 | 02:26:04 | 00:00:00 | |
| BIOWL1-15 | 2026-09-05 01:16:20 | 50.62191 | 2.16026 | 92° | 26km/h | 20055m | -7.2m/s | -54°C | 0.9% | 0hPa | 2.5V | 08:15:50 | 02:26:02 | 00:00:00 | |
| AU51GT2 | 2026-09-05 01:16:19 | 50.62191 | 2.16017 | 94° | 22km/h | 20062m | -7.3m/s | -53.9°C | 1.2% | -1.0hPa | 2.5V | 00:00:00 | 00:00:00 | 00:00:00 | |
| DM0DOS-11 | 2026-09-05 01:16:17 | 50.62196 | 2.15970 | 117° | 13km/h | 20116m | -7.7m/s | -53.3°C | 4.3% | 0hPa | 2.5V | 08:15:17 | 02:25:54 | 00:00:00 | |
| BIOWL1-15 | 2026-09-05 01:16:09 | 50.62203 | 2.15958 | 145° | 15km/h | 20138m | -7.4m/s | -52.8°C | 0.6% | 0hPa | 2.6V | 08:15:50 | 02:25:51 | 00:00:00 | |
| DJ2DS-15 | 2026-09-05 01:16:09 | 50.62207 | 2.15955 | 153° | 15km/h | 20145m | -7.5m/s | -52.4°C | 1.1% | -1.0hPa | 2.6V | 00:00:00 | 00:00:00 | 00:00:00 | |
| DM0DOS-11 | 2026-09-05 01:16:07 | 50.62238 | 2.15941 | 163° | 29km/h | 20190m | -7.4m/s | -52.1°C | 3.8% | 0hPa | 2.6V | 08:15:27 | 02:25:44 | 00:00:00 | |
| BIOWL1-15 | 2026-09-05 01:15:59 | 50.62260 | 2.15928 | 157° | 33km/h | 20213m | -7.4m/s | -52.3°C | 0.5% | 0hPa | 2.5V | 08:15:50 | 02:25:41 | 00:00:00 | |
| DM0DOS-11 | 2026-09-05 01:15:57 | 50.62309 | 2.15879 | 138° | 35km/h | 20264m | -7.5m/s | -52.5°C | 3.9% | 0hPa | 2.5V | 08:15:37 | 02:25:34 | 00:00:00 | |
| BIOWL1-15 | 2026-09-05 01:15:48 | 50.62333 | 2.15839 | 129° | 37km/h | 20294m | -7.9m/s | -52.7°C | 0.6% | 0hPa | 2.5V | 08:15:50 | 02:25:30 | 00:00:00 | |
| DM0DOS-11 | 2026-09-05 01:15:47 | 50.62357 | 2.15760 | 101° | 37km/h | 20341m | -7.7m/s | -52.8°C | 4% | 0hPa | 2.6V | 08:15:47 | 02:25:24 | 00:00:00 | |
| BIOWL1-15 | 2026-09-05 01:15:40 | 50.62350 | 2.15637 | 70° | 33km/h | 20409m | -8m/s | -53°C | 0.5% | 0hPa | 2.5V | 08:16:41 | 02:25:15 | 00:00:00 | |
| DM0DOS-11 | 2026-09-05 01:15:36 | 50.62347 | 2.15624 | 67° | 33km/h | 20417m | -7.9m/s | -53.1°C | 4% | 0hPa | 2.5V | 08:15:57 | 02:25:14 | 00:00:00 | |
| BIOWL1-15 | 2026-09-05 01:15:26 | 50.62321 | 2.15549 | 54° | 27km/h | 20473m | -7.8m/s | -53.4°C | 0.6% | 0hPa | 2.5V | 08:16:41 | 02:25:07 | 00:00:00 | |
| DM0DOS-11 | 2026-09-05 01:15:26 | 50.62308 | 2.15526 | 40° | 26km/h | 20496m | -8.2m/s | -53.1°C | 4% | 0hPa | 2.6V | 08:16:07 | 02:25:04 | 00:00:00 | |
| HARRO8 | 2026-09-05 01:15:26 | 50.62321 | 2.15549 | 53° | 27km/h | 20473m | -7.8m/s | -53.4°C | 1.1% | -1.0hPa | 2.5V | 00:00:00 | 00:00:00 | 00:00:00 | |
| DO1YAY-16 | 2026-09-05 01:15:23 | 50.62313 | 2.15532 | 45° | 26km/h | 20488m | -7.7m/s | -53.3°C | 1.1% | -1.0hPa | 2.5V | 00:00:00 | 00:00:00 | 00:00:00 | |
| BIOWL9-15 | 2026-09-05 01:15:18 | 50.62289 | 2.15508 | 21° | 18km/h | 20527m | -7.7m/s | -53.0°C | 1.1% | -1.0hPa | 2.5V | 00:00:00 | 00:00:00 | 00:00:00 | |
| DM0DOS-11 | 2026-09-05 01:15:17 | 50.62270 | 2.15499 | 17° | 7km/h | 20572m | -7.6m/s | -53.4°C | 4.1% | 0hPa | 2.5V | 08:16:17 | 02:24:54 | 00:00:00 | |
| BIOWL1-15 | 2026-09-05 01:15:15 | 50.62277 | 2.15502 | 14° | 13km/h | 20550m | -7.7m/s | -53.2°C | 0.6% | 0hPa | 2.6V | 08:16:41 | 02:24:57 | 00:00:00 | |
| DM0DOS-11 | 2026-09-05 01:15:06 | 50.62276 | 2.15476 | 125° | 16km/h | 20649m | -7.7m/s | -53.9°C | 4.3% | 0hPa | 2.5V | 08:16:27 | 02:24:44 | 00:00:00 | |
| BIOWL1-15 | 2026-09-05 01:15:05 | 50.62270 | 2.15488 | 129° | 9km/h | 20626m | -7.8m/s | -53.8°C | 0.7% | 0hPa | 2.6V | 08:16:41 | 02:24:47 | 00:00:00 | |
| BIOWL7-15 | 2026-09-05 01:15:01 | 50.62276 | 2.15476 | 127° | 16km/h | 20649m | -7.7m/s | -53.9°C | 1.3% | 0hPa | 2.6V | 00:00:00 | 00:00:00 | 00:00:00 | |
| DM0DOS-11 | 2026-09-05 01:14:56 | 50.62307 | 2.15398 | 120° | 29km/h | 20725m | -7.8m/s | -53.8°C | 4.3% | 0hPa | 2.6V | 08:16:37 | 02:24:34 | 00:00:00 | |
| BIOWL1-15 | 2026-09-05 01:14:54 | 50.62307 | 2.15398 | 120° | 29km/h | 20725m | -7.8m/s | -53.8°C | 0.7% | 0hPa | 2.6V | 08:16:41 | 02:24:34 | 00:00:00 | |
| DO1YAY-16 | 2026-09-05 01:14:52 | 50.62307 | 2.15398 | 120° | 27km/h | 20725m | -7.8m/s | -53.8°C | 1.1% | -1.0hPa | 2.5V | 00:00:00 | 00:00:00 | 00:00:00 | |
| BIOWL9-15 | 2026-09-05 01:14:47 | 50.62327 | 2.15342 | 116° | 35km/h | 20764m | -7.8m/s | -53.5°C | 1.1% | -1.0hPa | 2.5V | 00:00:00 | 00:00:00 | 00:00:00 | |
| DM0DOS-11 | 2026-09-05 01:14:46 | 50.62348 | 2.15271 | 112° | 42km/h | 20802m | -7.5m/s | -53.5°C | 4.1% | 0hPa | 2.5V | 08:16:47 | 02:24:24 | 00:00:00 | |
| BIOWL1-15 | 2026-09-05 01:14:44 | 50.62339 | 2.15301 | 114° | 40km/h | 20787m | -7.6m/s | -53.4°C | 0.6% | 0hPa | 2.6V | 08:17:32 | 02:24:26 | 00:00:00 | |
| DM0DOS-11 | 2026-09-05 01:14:36 | 50.62382 | 2.15091 | 98° | 55km/h | 20879m | -7.8m/s | -53.6°C | 4.1% | 0hPa | 2.6V | 08:16:57 | 02:24:14 | 00:00:00 | |
| BIOWL1-15 | 2026-09-05 01:14:34 | 50.62384 | 2.15069 | 97° | 55km/h | 20887m | -7.7m/s | -53.6°C | 0.6% | 0hPa | 2.6V | 08:17:32 | 02:24:13 | 00:00:00 | |
| DM0DOS-11 | 2026-09-05 01:14:26 | 50.62378 | 2.14870 | 77° | 53km/h | 20956m | -7.5m/s | -54°C | 4.2% | 0hPa | 2.5V | 08:17:07 | 02:24:04 | 00:00:00 | |
| BIOWL1-15 | 2026-09-05 01:14:23 | 50.62380 | 2.14891 | 79° | 55km/h | 20949m | -7.6m/s | -53.9°C | 0.7% | 0hPa | 2.5V | 08:17:32 | 02:24:05 | 00:00:00 | |
| BIOWL1-15 | 2026-09-05 01:14:17 | 50.62346 | 2.14708 | 71° | 42km/h | 21024m | -7.5m/s | -53.9°C | 0.7% | 0hPa | 2.6V | 08:17:32 | 02:23:55 | 00:00:00 | |
| BIOWL9-15 | 2026-09-05 01:14:16 | 50.62357 | 2.14757 | 71° | 44km/h | 21002m | -7.6m/s | -54.0°C | 1.1% | -1.0hPa | 2.6V | 00:00:00 | 00:00:00 | 00:00:00 | |
| AU51GT2 | 2026-09-05 01:14:15 | 50.62353 | 2.14740 | 71° | 44km/h | 21009m | -7.6m/s | -53.9°C | 1.1% | -1.0hPa | 2.6V | 00:00:00 | 00:00:00 | 00:00:00 | |
| DM0DOS-11 | 2026-09-05 01:14:06 | 50.62315 | 2.14553 | 73° | 33km/h | 21106m | -7.4m/s | -53.9°C | 4.2% | 0hPa | 2.6V | 08:17:27 | 02:23:44 | 00:00:00 | |
| BIOWL1-15 | 2026-09-05 01:14:02 | 50.62315 | 2.14553 | 74° | 33km/h | 21106m | -7.4m/s | -53.9°C | 0.7% | 0hPa | 2.6V | 08:17:32 | 02:23:44 | 00:00:00 | |
| DM0DOS-11 | 2026-09-05 01:13:57 | 50.62292 | 2.14446 | 65° | 22km/h | 21181m | -7.8m/s | -54.1°C | 4.4% | 0hPa | 2.5V | 08:17:37 | 02:23:34 | 00:00:00 | |
| BIOWL1-15 | 2026-09-05 01:13:51 | 50.62282 | 2.14416 | 78° | 4km/h | 21234m | -7.6m/s | -54.3°C | 0.8% | 0hPa | 2.6V | 08:18:23 | 02:23:27 | 00:00:00 | |
| DO1YAY-16 | 2026-09-05 01:13:50 | 50.62286 | 2.14427 | 61° | 13km/h | 21204m | -7.9m/s | -54.2°C | 1.2% | -1.0hPa | 2.5V | 00:00:00 | 00:00:00 | 00:00:00 | |
| DB0UT-7 | 2026-09-05 01:13:49 | 50.62286 | 2.14427 | 62° | 22km/h | 21204m | -7.9m/s | -54.2°C | 4.5% | 0hPa | 2.5V | 00:00:00 | 02:23:31 | 00:00:00 | |
| DM0DOS-11 | 2026-09-05 01:13:47 | 50.62283 | 2.14416 | 201° | 4km/h | 21257m | -7.8m/s | -54.3°C | 4.6% | 0hPa | 2.5V | 08:17:47 | 02:23:24 | 00:00:00 | |
| BIOWL9-15 | 2026-09-05 01:13:45 | 50.62282 | 2.14416 | 77° | 2km/h | 21234m | -7.6m/s | -54.3°C | 1.2% | -1.0hPa | 2.5V | 00:00:00 | 00:00:00 | 00:00:00 | |
| AU51GT2 | 2026-09-05 01:13:44 | 50.62282 | 2.14415 | 160° | 0km/h | 21242m | -7.6m/s | -54.3°C | 1.2% | -1.0hPa | 2.5V | 00:00:00 | 00:00:00 | 00:00:00 | |
| BIOWL1-15 | 2026-09-05 01:13:39 | 50.62288 | 2.14419 | 195° | 9km/h | 21281m | -7.6m/s | -54.2°C | 0.9% | 0hPa | 2.5V | 08:18:23 | 02:23:21 | 00:00:00 | |
| DM0DOS-11 | 2026-09-05 01:13:37 | 50.62315 | 2.14416 | 164° | 20km/h | 21333m | -7.8m/s | -52.7°C | 4% | 0hPa | 2.6V | 08:17:57 | 02:23:14 | 00:00:00 | |
| BIOWL1-15 | 2026-09-05 01:13:29 | 50.62330 | 2.14408 | 158° | 22km/h | 21356m | -7.9m/s | -52.4°C | 0.5% | 0hPa | 2.5V | 08:18:23 | 02:23:11 | 00:00:00 | |
| DM0DOS-11 | 2026-09-05 01:13:26 | 50.62365 | 2.14373 | 138° | 26km/h | 21409m | -7.4m/s | -52.3°C | 3.8% | 0hPa | 2.5V | 08:18:07 | 02:23:04 | 00:00:00 | |
| BIOWL1-15 | 2026-09-05 01:13:18 | 50.62403 | 2.14304 | 123° | 31km/h | 21471m | -7.9m/s | -52.8°C | 0.5% | 0hPa | 2.6V | 08:18:23 | 02:22:56 | 00:00:00 | |
| DM0DOS-11 | 2026-09-05 01:13:16 | 50.62411 | 2.14281 | 116° | 35km/h | 21487m | -7.9m/s | -53°C | 4% | 0hPa | 2.5V | 08:18:17 | 02:22:54 | 00:00:00 | |
| BIOWL1-15 | 2026-09-05 01:13:08 | 50.62425 | 2.14228 | 106° | 38km/h | 21518m | -7.8m/s | -53.2°C | 0.6% | 0hPa | 2.5V | 08:18:23 | 02:22:50 | 00:00:00 | |
| DM0DOS-11 | 2026-09-05 01:13:06 | 50.62432 | 2.14133 | 89° | 42km/h | 21566m | -8m/s | -53.4°C | 4.1% | 0hPa | 2.6V | 08:18:27 | 02:22:44 | 00:00:00 | |
| BIOWL1-15 | 2026-09-05 01:12:58 | 50.62428 | 2.14067 | 78° | 42km/h | 21597m | -7.9m/s | -53.4°C | 0.6% | 0hPa | 2.5V | 08:19:14 | 02:22:40 | 00:00:00 | |
| DM0DOS-11 | 2026-09-05 01:12:56 | 50.62407 | 2.13978 | 59° | 38km/h | 21645m | -8m/s | -53.5°C | 4.1% | 0hPa | 2.6V | 08:18:37 | 02:22:34 | 00:00:00 | |
| HARRO8 | 2026-09-05 01:12:51 | 50.62396 | 2.13953 | 52° | 35km/h | 21661m | -8.0m/s | -53.5°C | 1.0% | -1.0hPa | 2.5V | 00:00:00 | 00:00:00 | 00:00:00 | |
| DO1YAY-16 | 2026-09-05 01:12:48 | 50.62374 | 2.13915 | 42° | 27km/h | 21694m | -8.3m/s | -53.6°C | 1.1% | -1.0hPa | 2.5V | 00:00:00 | 00:00:00 | 00:00:00 | |
| BIOWL1-15 | 2026-09-05 01:12:47 | 50.62359 | 2.13895 | 41° | 22km/h | 21718m | -7.9m/s | -53.8°C | 0.7% | 0hPa | 2.5V | 08:19:14 | 02:22:25 | 00:00:00 | |
| DM0DOS-11 | 2026-09-05 01:12:46 | 50.62356 | 2.13890 | 43° | 18km/h | 21726m | -7.8m/s | -53.9°C | 4.2% | 0hPa | 2.6V | 08:18:47 | 02:22:24 | 00:00:00 | |
| BIOWL9-15 | 2026-09-05 01:12:43 | 50.62359 | 2.13895 | 41° | 20km/h | 21718m | -7.9m/s | -53.8°C | 1.1% | -1.0hPa | 2.5V | 00:00:00 | 00:00:00 | 00:00:00 | |
| AU51GT2 | 2026-09-05 01:12:42 | 50.62356 | 2.13890 | 43° | 18km/h | 21726m | -7.8m/s | -53.9°C | 1.1% | -1.0hPa | 2.5V | 00:00:00 | 00:00:00 | 00:00:00 | |
| DB0UT-7 | 2026-09-05 01:12:37 | 50.62345 | 2.13866 | 71° | 31km/h | 21766m | -8.1m/s | -54.1°C | 4.4% | 0hPa | 2.5V | 00:00:00 | 00:00:00 | 00:00:00 | |
| DM0DOS-11 | 2026-09-05 01:12:36 | 50.62343 | 2.13842 | 93° | 13km/h | 21806m | -8.2m/s | -54.3°C | 4.5% | 0hPa | 2.5V | 08:18:57 | 02:22:14 | 00:00:00 | |
| BIOWL1-15 | 2026-09-05 01:12:32 | 50.62343 | 2.13842 | 94° | 13km/h | 21806m | -8.2m/s | -54.3°C | 0.9% | 0hPa | 2.5V | 08:19:14 | 02:22:14 | 00:00:00 | |
| DM0DOS-11 | 2026-09-05 01:12:26 | 50.62372 | 2.13789 | 145° | 31km/h | 21890m | -8.5m/s | -53.4°C | 4.2% | 0hPa | 2.5V | 08:19:07 | 02:22:04 | 00:00:00 | |
| BIOWL1-15 | 2026-09-05 01:12:21 | 50.62386 | 2.13773 | 144° | 38km/h | 21907m | -8.6m/s | -53.5°C | 0.7% | 0hPa | 2.5V | 08:19:14 | 02:22:02 | 00:00:00 | |
| HARRO8 | 2026-09-05 01:12:20 | 50.62395 | 2.13763 | 141° | 42km/h | 21916m | -8.5m/s | -53.5°C | 1.1% | -1.0hPa | 2.5V | 00:00:00 | 00:00:00 | 00:00:00 | |
| DM0DOS-11 | 2026-09-05 01:12:16 | 50.62455 | 2.13660 | 122° | 55km/h | 21975m | -8.3m/s | -53.4°C | 4.2% | 0hPa | 2.5V | 08:19:17 | 02:21:54 | 00:00:00 | |
| BIOWL1-15 | 2026-09-05 01:12:13 | 50.62473 | 2.13604 | 112° | 51km/h | 21999m | -8.2m/s | -53.5°C | 0.7% | 0hPa | 2.5V | 08:20:05 | 02:21:51 | 00:00:00 | |
| BIOWL9-15 | 2026-09-05 01:12:12 | 50.62455 | 2.13660 | 122° | 53km/h | 21975m | -8.3m/s | -53.4°C | 1.1% | -1.0hPa | 2.5V | 00:00:00 | 00:00:00 | 00:00:00 | |
| AU51GT2 | 2026-09-05 01:12:11 | 50.62462 | 2.13641 | 118° | 53km/h | 21983m | -8.2m/s | -53.4°C | 1.1% | -1.0hPa | 2.5V | 00:00:00 | 00:00:00 | 00:00:00 | |
| DB0UT-7 | 2026-09-05 01:12:07 | 50.62482 | 2.13567 | 108° | 31km/h | 22016m | -8.1m/s | -53.5°C | 4.2% | 0hPa | 2.5V | 00:00:00 | 02:21:49 | 00:00:00 | |
| DM0DOS-11 | 2026-09-05 01:12:06 | 50.62494 | 2.13479 | 98° | 42km/h | 22058m | -8.5m/s | -53.5°C | 4.2% | 0hPa | 2.5V | 08:19:27 | 02:21:44 | 00:00:00 | |
| BIOWL1-15 | 2026-09-05 01:12:01 | 50.62495 | 2.13463 | 96° | 40km/h | 22066m | -8.5m/s | -53.5°C | 0.7% | 0hPa | 2.6V | 08:20:05 | 02:21:43 | 00:00:00 | |
| DM0DOS-11 | 2026-09-05 01:11:57 | 50.62499 | 2.13338 | 89° | 35km/h | 22141m | -8.3m/s | -53.3°C | 4.2% | 0hPa | 2.5V | 08:19:37 | 02:21:34 | 00:00:00 | |
| BIOWL1-15 | 2026-09-05 01:11:50 | 50.62499 | 2.13310 | 90° | 35km/h | 22158m | -8.5m/s | -53.3°C | 0.7% | 0hPa | 2.6V | 08:20:05 | 02:21:32 | 00:00:00 | |
| HTAHTA | 2026-09-05 01:11:49 | 50.62499 | 2.13284 | 90° | 33km/h | 22175m | -8.4m/s | -53.1°C | 1.1% | -1.0hPa | 2.5V | 00:00:00 | 00:00:00 | 00:00:00 | |
| HARRO8 | 2026-09-05 01:11:48 | 50.62499 | 2.13284 | 90° | 33km/h | 22175m | -8.4m/s | -53.1°C | 1.1% | -1.0hPa | 2.5V | 00:00:00 | 00:00:00 | 00:00:00 | |
| DO1YAY-16 | 2026-09-05 01:11:45 | 50.62499 | 2.13247 | 91° | 27km/h | 22200m | -8.4m/s | -52.9°C | 1.1% | -1.0hPa | 2.5V | 00:00:00 | 00:00:00 | 00:00:00 | |
| BIOWL1-15 | 2026-09-05 01:11:39 | 50.62503 | 2.13191 | 120° | 11km/h | 22268m | -8.8m/s | -53°C | 0.7% | 0hPa | 2.5V | 08:20:05 | 02:21:19 | 00:00:00 | |
| DM0DOS-11 | 2026-09-05 01:11:36 | 50.62514 | 2.13186 | 197° | 13km/h | 22312m | -8.9m/s | -52.7°C | 4% | 0hPa | 2.5V | 08:19:57 | 02:21:14 | 00:00:00 | |
| BIOWL1-15 | 2026-09-05 01:11:32 | 50.62547 | 2.13206 | 195° | 33km/h | 22365m | -8.8m/s | -52.6°C | 0.6% | 0hPa | 2.5V | 08:20:05 | 02:21:08 | 00:00:00 | |
| BIOWL1-15 | 2026-09-05 01:11:17 | 50.62679 | 2.13163 | 146° | 27km/h | 22504m | -8.8m/s | -52.6°C | 0.6% | 0hPa | 2.5V | 08:20:56 | 02:20:52 | 00:00:00 | |
| HARRO8 | 2026-09-05 01:11:17 | 50.62629 | 2.13201 | 161° | 35km/h | 22443m | -8.7m/s | -52.5°C | 1.0% | -1.0hPa | 2.6V | 00:00:00 | 00:00:00 | 00:00:00 | |
| BIOWL7-15 | 2026-09-05 01:11:15 | 50.62637 | 2.13196 | 161° | 35km/h | 22452m | -8.5m/s | -52.6°C | 1.1% | 0hPa | 2.6V | 00:00:00 | 00:00:00 | 00:00:00 | |
| DO1YAY-16 | 2026-09-05 01:11:14 | 50.62653 | 2.13186 | 155° | 31km/h | 22469m | -8.8m/s | -52.6°C | 1.1% | -1.0hPa | 2.6V | 00:00:00 | 00:00:00 | 00:00:00 | |
| BIOWL9-15 | 2026-09-05 01:11:10 | 50.62679 | 2.13163 | 145° | 27km/h | 22504m | -8.8m/s | -52.6°C | 1.0% | -1.0hPa | 2.6V | 00:00:00 | 00:00:00 | 00:00:00 | |
| AU51GT2 | 2026-09-05 01:11:09 | 50.62685 | 2.13156 | 142° | 27km/h | 22513m | -8.8m/s | -52.6°C | 1.0% | -1.0hPa | 2.6V | 00:00:00 | 00:00:00 | 00:00:00 | |
| DM0DOS-11 | 2026-09-05 01:11:06 | 50.62716 | 2.13100 | 113° | 26km/h | 22575m | -8.9m/s | -52.9°C | 4.1% | 0hPa | 2.6V | 08:20:27 | 02:20:44 | 00:00:00 | |
| BIOWL1-15 | 2026-09-05 01:11:06 | 50.62700 | 2.13135 | 134° | 27km/h | 22539m | -8.9m/s | -52.7°C | 0.6% | 0hPa | 2.5V | 08:20:56 | 02:20:48 | 00:00:00 | |
| BIOWL1-15 | 2026-09-05 01:10:58 | 50.62722 | 2.13036 | 88° | 29km/h | 22628m | -8.8m/s | -52.9°C | 0.6% | 0hPa | 2.5V | 08:20:56 | 02:20:38 | 00:00:00 | |
| DM0DOS-11 | 2026-09-05 01:10:55 | 50.62716 | 2.12988 | 71° | 33km/h | 22664m | -8.9m/s | -52.9°C | 4% | 0hPa | 2.6V | 08:20:37 | 02:20:34 | 00:00:00 | |
| BIOWL1-15 | 2026-09-05 01:10:47 | 50.62680 | 2.12911 | 41° | 37km/h | 22727m | -9.1m/s | -52.8°C | 0.6% | 0hPa | 2.5V | 08:20:56 | 02:20:27 | 00:00:00 | |
| HARRO8 | 2026-09-05 01:10:46 | 50.62687 | 2.12921 | 43° | 37km/h | 22718m | -8.9m/s | -52.9°C | 1.1% | -1.0hPa | 2.6V | 00:00:00 | 00:00:00 | 00:00:00 | |
| DM0DOS-11 | 2026-09-05 01:10:45 | 50.62658 | 2.12884 | 31° | 38km/h | 22754m | -9.3m/s | -52.5°C | 3.9% | 0hPa | 2.6V | 08:20:47 | 02:20:24 | 00:00:00 | |
| DO1YAY-16 | 2026-09-05 01:10:43 | 50.62665 | 2.12892 | 34° | 37km/h | 22745m | -9.1m/s | -52.5°C | 1.0% | -1.0hPa | 2.6V | 00:00:00 | 00:00:00 | 00:00:00 | |
| BIOWL9-15 | 2026-09-05 01:10:39 | 50.62633 | 2.12865 | 20° | 33km/h | 22782m | -8.9m/s | -52.6°C | 1.0% | -1.0hPa | 2.6V | 00:00:00 | 00:00:00 | 00:00:00 | |
| AU51GT2 | 2026-09-05 01:10:38 | 50.62625 | 2.12861 | 16° | 31km/h | 22791m | -8.9m/s | -52.7°C | 1.0% | -1.0hPa | 2.6V | 00:00:00 | 00:00:00 | 00:00:00 | |
| DM0DOS-11 | 2026-09-05 01:10:35 | 50.62585 | 2.12851 | 4° | 22km/h | 22844m | -8.9m/s | -53.1°C | 4.1% | 0hPa | 2.6V | 08:20:57 | 02:20:14 | 00:00:00 | |
| BIOWL1-15 | 2026-09-05 01:10:34 | 50.62597 | 2.12853 | 6° | 26km/h | 22826m | -8.9m/s | -52.9°C | 0.6% | 0hPa | 2.5V | 08:20:56 | 02:20:16 | 00:00:00 | |
| BIOWL7-15 | 2026-09-05 01:10:29 | 50.62575 | 2.12850 | 6° | 18km/h | 22862m | -9.1m/s | -53.2°C | 1.2% | 0hPa | 2.6V | 00:00:00 | 00:00:00 | 00:00:00 | |
| DM0DOS-11 | 2026-09-05 01:10:26 | 50.62550 | 2.12843 | 24° | 9km/h | 22934m | -9.1m/s | -53.3°C | 4.3% | 0hPa | 2.6V | 08:21:07 | 02:20:04 | 00:00:00 | |
| BIOWL1-15 | 2026-09-05 01:10:25 | 50.62553 | 2.12844 | 21° | 9km/h | 22925m | -9m/s | -53.3°C | 0.8% | 0hPa | 2.6V | 08:21:47 | 02:20:05 | 00:00:00 | |
| DB0UT-7 | 2026-09-05 01:10:23 | 50.62553 | 2.12844 | 21° | 20km/h | 22925m | -9.0m/s | -53.3°C | 4.3% | 0hPa | 2.6V | 00:00:00 | 02:20:05 | 00:00:00 | |
| DM0DOS-11 | 2026-09-05 01:10:16 | 50.62539 | 2.12829 | 138° | 4km/h | 23025m | -9.2m/s | -52.8°C | 4.1% | 0hPa | 2.6V | 08:21:17 | 02:19:54 | 00:00:00 | |
| BIOWL1-15 | 2026-09-05 01:10:15 | 50.62539 | 2.12830 | 91° | 2km/h | 23015m | -9.2m/s | -52.8°C | 0.7% | 0hPa | 2.6V | 08:21:47 | 02:19:55 | 00:00:00 | |
| DO1YAY-16 | 2026-09-05 01:10:12 | 50.62539 | 2.12829 | 138° | 2km/h | 23025m | -9.2m/s | -52.8°C | 1.1% | -1.0hPa | 2.6V | 00:00:00 | 00:00:00 | 00:00:00 | |
| DJ2DS-15 | 2026-09-05 01:10:08 | 50.62548 | 2.12827 | 171° | 15km/h | 23063m | -9.5m/s | -52.8°C | 1.1% | -1.0hPa | 2.6V | 00:00:00 | 00:00:00 | 00:00:00 | |
| AU51GT2 | 2026-09-05 01:10:07 | 50.62557 | 2.12824 | 165° | 22km/h | 23082m | -9.5m/s | -52.6°C | 1.0% | -1.0hPa | 2.6V | 00:00:00 | 00:00:00 | 00:00:00 | |
| DM0DOS-11 | 2026-09-05 01:10:06 | 50.62585 | 2.12804 | 149° | 37km/h | 23118m | -9.1m/s | -52.6°C | 4.2% | 0hPa | 2.6V | 08:21:27 | 02:19:44 | 00:00:00 | |
| BIOWL1-15 | 2026-09-05 01:10:03 | 50.62585 | 2.12804 | 149° | 37km/h | 23118m | -9.1m/s | -52.6°C | 0.7% | 0hPa | 2.6V | 08:21:47 | 02:19:44 | 00:00:00 | |
| DM0DOS-11 | 2026-09-05 01:09:56 | 50.62651 | 2.12672 | 104° | 46km/h | 23213m | -9.4m/s | -51.6°C | 3.7% | 0hPa | 2.6V | 08:21:37 | 02:19:34 | 00:00:00 | |
| BIOWL1-15 | 2026-09-05 01:09:51 | 50.62654 | 2.12654 | 98° | 44km/h | 23222m | -9.3m/s | -51.6°C | 0.5% | 0hPa | 2.5V | 08:21:47 | 02:19:33 | 00:00:00 | |
| DM0DOS-11 | 2026-09-05 01:09:46 | 50.62634 | 2.12529 | 54° | 27km/h | 23304m | -9.4m/s | -51.9°C | 3.8% | 0hPa | 2.6V | 08:21:47 | 02:19:24 | 00:00:00 | |
| HTAHTA | 2026-09-05 01:09:45 | 50.62641 | 2.12549 | 62° | 31km/h | 23286m | -9.0m/s | -51.8°C | 1.0% | -1.0hPa | 2.5V | 00:00:00 | 00:00:00 | 00:00:00 | |
| HARRO8 | 2026-09-05 01:09:44 | 50.62641 | 2.12549 | 62° | 31km/h | 23286m | -9.0m/s | -51.8°C | 1.0% | -1.0hPa | 2.5V | 00:00:00 | 00:00:00 | 00:00:00 | |
| BIOWL1-15 | 2026-09-05 01:09:43 | 50.62630 | 2.12521 | 52° | 24km/h | 23314m | -9.3m/s | -51.9°C | 0.5% | 0hPa | 2.5V | 08:22:38 | 02:19:23 | 00:00:00 | |
| DO1YAY-16 | 2026-09-05 01:09:41 | 50.62630 | 2.12521 | 52° | 24km/h | 23314m | -9.3m/s | -51.9°C | 1.0% | -1.0hPa | 2.6V | 00:00:00 | 00:00:00 | 00:00:00 | |
| BIOWL9-15 | 2026-09-05 01:09:37 | 50.62617 | 2.12500 | 34° | 13km/h | 23350m | -9.0m/s | -52.0°C | 1.0% | -1.0hPa | 2.6V | 00:00:00 | 00:00:00 | 00:00:00 | |
| DM0DOS-11 | 2026-09-05 01:09:36 | 50.62607 | 2.12494 | 352° | 5km/h | 23395m | -9.1m/s | -52.1°C | 3.9% | 0hPa | 2.6V | 08:21:57 | 02:19:14 | 00:00:00 | |
| BIOWL1-15 | 2026-09-05 01:09:31 | 50.62606 | 2.12495 | 323° | 4km/h | 23404m | -9.1m/s | -52.1°C | 0.5% | 0hPa | 2.5V | 08:22:38 | 02:19:13 | 00:00:00 | |
| DM0DOS-11 | 2026-09-05 01:09:26 | 50.62612 | 2.12519 | 221° | 16km/h | 23487m | -9.3m/s | -52.3°C | 3.9% | 0hPa | 2.6V | 08:22:07 | 02:19:04 | 00:00:00 | |
| BIOWL1-15 | 2026-09-05 01:09:21 | 50.62615 | 2.12523 | 219° | 18km/h | 23497m | -9.2m/s | -52.3°C | 0.5% | 0hPa | 2.5V | 08:22:38 | 02:19:03 | 00:00:00 | |
| DM0DOS-11 | 2026-09-05 01:09:16 | 50.62682 | 2.12549 | 176° | 42km/h | 23582m | -9.4m/s | -52.5°C | 3.9% | 0hPa | 2.6V | 08:22:17 | 02:18:54 | 00:00:00 | |
| BIOWL1-15 | 2026-09-05 01:09:10 | 50.62703 | 2.12544 | 167° | 44km/h | 23600m | -9.4m/s | -52.6°C | 0.5% | 0hPa | 2.5V | 08:22:38 | 02:18:52 | 00:00:00 | |
| DM0DOS-11 | 2026-09-05 01:09:06 | 50.62781 | 2.12482 | 141° | 40km/h | 23673m | -9.3m/s | -53°C | 4.1% | 0hPa | 2.6V | 08:22:27 | 02:18:44 | 00:00:00 | |
| BIOWL1-15 | 2026-09-05 01:09:00 | 50.62796 | 2.12461 | 136° | 40km/h | 23692m | -9.6m/s | -52.9°C | 0.6% | 0hPa | 2.5V | 08:22:38 | 02:18:42 | 00:00:00 | |
| DJ2DS-15 | 2026-09-05 01:08:56 | 50.62824 | 2.12397 | 113° | 37km/h | 23741m | -9.7m/s | -53.0°C | 1.1% | -1.0hPa | 2.6V | 00:00:00 | 00:00:00 | 00:00:00 | |
| DM0DOS-11 | 2026-09-05 01:08:54 | 50.62831 | 2.12356 | 94° | 35km/h | 23769m | -9.3m/s | -53°C | 4.2% | 0hPa | 2.6V | 08:22:37 | 02:18:34 | 00:00:00 | |
| BIOWL1-15 | 2026-09-05 01:08:49 | 50.62828 | 2.12317 | 77° | 33km/h | 23797m | -9.5m/s | -53.1°C | 0.7% | 0hPa | 2.5V | 08:23:29 | 02:18:31 | 00:00:00 | |
| DM0DOS-11 | 2026-09-05 01:08:43 | 50.62804 | 2.12256 | 26° | 20km/h | 23865m | -9.7m/s | -52.5°C | 4% | 0hPa | 2.6V | 08:22:47 | 02:18:24 | 00:00:00 | |
| BIOWL1-15 | 2026-09-05 01:08:39 | 50.62791 | 2.12253 | 347° | 18km/h | 23894m | -9.8m/s | -52.5°C | 0.6% | 0hPa | 2.5V | 08:23:29 | 02:18:21 | 00:00:00 | |
| BIOWL9-15 | 2026-09-05 01:08:35 | 50.62774 | 2.12282 | 283° | 24km/h | 23944m | -10.0m/s | -52.6°C | 1.0% | -1.0hPa | 2.6V | 00:00:00 | 00:00:00 | 00:00:00 | |
| DM0DOS-11 | 2026-09-05 01:08:33 | 50.62773 | 2.12303 | 264° | 27km/h | 23964m | -9.9m/s | -52.6°C | 4% | 0hPa | 2.6V | 08:22:57 | 02:18:14 | 00:00:00 | |
| BIOWL1-15 | 2026-09-05 01:08:30 | 50.62784 | 2.12341 | 227° | 26km/h | 24003m | -9.4m/s | -52.8°C | 0.7% | 0hPa | 2.6V | 08:23:29 | 02:18:10 | 00:00:00 | |
| DO9LL-15 | 2026-09-05 01:08:28 | 50.62784 | 2.12341 | 227° | 27km/h | 24003m | -9.3m/s | -52.7°C | 4.1% | 0hPa | 2.6V | 00:00:00 | 02:18:10 | 00:00:00 | |
| DM0DOS-11 | 2026-09-05 01:08:27 | 50.62812 | 2.12360 | 181° | 18km/h | 24060m | -9.6m/s | -52.7°C | 4.1% | 0hPa | 2.6V | 08:23:07 | 02:18:04 | 00:00:00 | |
| BIOWL1-15 | 2026-09-05 01:08:18 | 50.62830 | 2.12357 | 168° | 16km/h | 24099m | -10m/s | -53°C | 0.7% | 0hPa | 2.6V | 08:23:29 | 02:18:00 | 00:00:00 | |
| BIOWL1-15 | 2026-09-05 01:08:07 | 50.62867 | 2.12293 | 104° | 31km/h | 24209m | -10m/s | -52.8°C | 0.7% | 0hPa | 2.6V | 08:23:29 | 02:17:49 | 00:00:00 | |
| BIOWL9-15 | 2026-09-05 01:08:04 | 50.62870 | 2.12236 | 84° | 40km/h | 24250m | -10.4m/s | -52.7°C | 1.1% | -1.0hPa | 2.5V | 00:00:00 | 00:00:00 | 00:00:00 | |
| AU51GT2 | 2026-09-05 01:08:03 | 50.62868 | 2.12220 | 80° | 40km/h | 24261m | -10.5m/s | -52.7°C | 1.1% | -1.0hPa | 2.5V | 00:00:00 | 00:00:00 | 00:00:00 | |
| DM0DOS-11 | 2026-09-05 01:08:00 | 50.62838 | 2.12116 | 50° | 38km/h | 24331m | -10.2m/s | -52.4°C | 4.3% | 0hPa | 2.5V | 08:23:34 | 02:17:37 | 00:00:00 | |
| BIOWL1-15 | 2026-09-05 01:07:56 | 50.62844 | 2.12128 | 53° | 40km/h | 24321m | -10.2m/s | -52.5°C | 0.8% | 0hPa | 2.5V | 08:24:20 | 02:17:38 | 00:00:00 | |
| DM0DOS-11 | 2026-09-05 01:07:48 | 50.62766 | 2.12062 | 347° | 26km/h | 24436m | -10.6m/s | -51.7°C | 4% | 0hPa | 2.6V | 08:23:44 | 02:17:27 | 00:00:00 | |
| BIOWL1-15 | 2026-09-05 01:07:47 | 50.62773 | 2.12061 | 358° | 27km/h | 24425m | -10.7m/s | -51.8°C | 0.6% | 0hPa | 2.6V | 08:24:20 | 02:17:28 | 00:00:00 | |
| DM0DOS-11 | 2026-09-05 01:07:40 | 50.62755 | 2.12121 | 203° | 18km/h | 24541m | -10.7m/s | -50.6°C | 3.7% | 0hPa | 2.6V | 08:23:54 | 02:17:17 | 00:00:00 | |
| BIOWL1-15 | 2026-09-05 01:07:35 | 50.62755 | 2.12121 | 204° | 18km/h | 24541m | -10.7m/s | -50.6°C | 0.4% | 0hPa | 2.6V | 08:24:20 | 02:17:17 | 00:00:00 | |
| BIOWL9-15 | 2026-09-05 01:07:33 | 50.62770 | 2.12121 | 158° | 22km/h | 24573m | -10.3m/s | -50.6°C | 0.9% | -1.0hPa | 2.6V | 00:00:00 | 00:00:00 | 00:00:00 | |
| AU51GT2 | 2026-09-05 01:07:32 | 50.62775 | 2.12116 | 145° | 26km/h | 24583m | -10.5m/s | -50.6°C | 0.9% | -1.0hPa | 2.6V | 00:00:00 | 00:00:00 | 00:00:00 | |
| DM0DOS-11 | 2026-09-05 01:07:30 | 50.62802 | 2.12048 | 102° | 42km/h | 24648m | -11.2m/s | -50.7°C | 3.7% | 0hPa | 2.6V | 08:24:04 | 02:17:07 | 00:00:00 | |
| BIOWL1-15 | 2026-09-05 01:07:25 | 50.62802 | 2.12048 | 103° | 42km/h | 24648m | -11.2m/s | -50.7°C | 0.5% | 0hPa | 2.6V | 08:24:20 | 02:17:07 | 00:00:00 | |
| DM0DOS-11 | 2026-09-05 01:07:20 | 50.62775 | 2.11882 | 54° | 42km/h | 24753m | -10.6m/s | -50.4°C | 3.7% | 0hPa | 2.6V | 08:24:14 | 02:16:57 | 00:00:00 | |
| BIOWL1-15 | 2026-09-05 01:07:15 | 50.62775 | 2.11882 | 54° | 42km/h | 24753m | -10.6m/s | -50.4°C | 0.5% | 0hPa | 2.6V | 08:24:20 | 02:16:57 | 00:00:00 | |
| HARRO8 | 2026-09-05 01:07:09 | 50.62736 | 2.11815 | 38° | 33km/h | 24817m | -10.6m/s | -50.4°C | 0.9% | -1.0hPa | 2.5V | 00:00:00 | 00:00:00 | 00:00:00 | |
| DM0DOS-11 | 2026-09-05 01:07:07 | 50.62687 | 2.11796 | 336° | 26km/h | 24892m | -11m/s | -50.2°C | 3.6% | 0hPa | 2.5V | 08:24:27 | 02:16:44 | 00:00:00 | |
| BIOWL1-15 | 2026-09-05 01:07:04 | 50.62700 | 2.11792 | 0° | 29km/h | 24870m | -11.2m/s | -50.2°C | 0.4% | 0hPa | 2.5V | 08:25:11 | 02:16:46 | 00:00:00 | |
| BIOWL9-15 | 2026-09-05 01:07:02 | 50.62681 | 2.11801 | 323° | 24km/h | 24903m | -10.8m/s | -50.2°C | 0.9% | -1.0hPa | 2.5V | 00:00:00 | 00:00:00 | 00:00:00 | |
| AU51GT2 | 2026-09-05 01:07:01 | 50.62676 | 2.11807 | 312° | 24km/h | 24914m | -10.7m/s | -50.2°C | 0.9% | -1.0hPa | 2.5V | 00:00:00 | 00:00:00 | 00:00:00 | |
| DB0UT-7 | 2026-09-05 01:06:58 | 50.62671 | 2.11824 | 284° | 33km/h | 24936m | -11.0m/s | -50.2°C | 3.7% | 0hPa | 2.5V | 00:00:00 | 02:16:40 | 00:00:00 | |
| DM0DOS-11 | 2026-09-05 01:06:57 | 50.62683 | 2.11879 | 220° | 24km/h | 24999m | -10.9m/s | -50.1°C | 3.7% | 0hPa | 2.5V | 08:24:37 | 02:16:34 | 00:00:00 | |
| BIOWL1-15 | 2026-09-05 01:06:54 | 50.62675 | 2.11864 | 240° | 26km/h | 24978m | -10.7m/s | -50.2°C | 0.5% | 0hPa | 2.5V | 08:25:11 | 02:16:36 | 00:00:00 | |
| DM0DOS-11 | 2026-09-05 01:06:47 | 50.62736 | 2.11891 | 168° | 24km/h | 25102m | -10.6m/s | -50°C | 3.7% | 0hPa | 2.5V | 08:24:47 | 02:16:24 | 00:00:00 | |
| BIOWL1-15 | 2026-09-05 01:06:43 | 50.62730 | 2.11893 | 174° | 22km/h | 25092m | -10.1m/s | -50°C | 0.5% | 0hPa | 2.5V | 08:25:11 | 02:16:25 | 00:00:00 | |
| HARRO8 | 2026-09-05 01:06:38 | 50.62758 | 2.11874 | 143° | 27km/h | 25145m | -11.0m/s | -50.0°C | 1.0% | -1.0hPa | 2.5V | 00:00:00 | 00:00:00 | 00:00:00 | |
| DM0DOS-11 | 2026-09-05 01:06:37 | 50.62789 | 2.11810 | 114° | 42km/h | 25208m | -11.2m/s | -49.2°C | 3.5% | 0hPa | 2.5V | 08:24:57 | 02:16:14 | 00:00:00 | |
| BIOWL1-15 | 2026-09-05 01:06:32 | 50.62798 | 2.11759 | 98° | 46km/h | 25241m | -10.5m/s | -49°C | 0.3% | 0hPa | 2.6V | 08:25:11 | 02:16:11 | 00:00:00 | |
| DJ2DS-15 | 2026-09-05 01:06:32 | 50.62793 | 2.11794 | 108° | 44km/h | 25220m | -11.0m/s | -49.1°C | 0.9% | -1.0hPa | 2.5V | 00:00:00 | 00:00:00 | 00:00:00 | |
| BIOWL9-15 | 2026-09-05 01:06:31 | 50.62796 | 2.11777 | 102° | 44km/h | 25231m | -11.0m/s | -49.0°C | 0.9% | -1.0hPa | 2.5V | 00:00:00 | 00:00:00 | 00:00:00 | |
| AU51GT2 | 2026-09-05 01:06:30 | 50.62798 | 2.11759 | 97° | 46km/h | 25242m | -10.5m/s | -49.0°C | 0.9% | -1.0hPa | 2.5V | 00:00:00 | 00:00:00 | 00:00:00 | |
| DM0DOS-11 | 2026-09-05 01:06:27 | 50.62786 | 2.11631 | 67° | 44km/h | 25316m | -10.8m/s | -48.9°C | 3.5% | 0hPa | 2.5V | 08:25:07 | 02:16:04 | 00:00:00 | |
| BIOWL1-15 | 2026-09-05 01:06:20 | 50.62777 | 2.11600 | 64° | 42km/h | 25337m | -10.9m/s | -48.9°C | 0.3% | 0hPa | 2.5V | 08:25:11 | 02:16:02 | 00:00:00 | |
| DM0DOS-11 | 2026-09-05 01:06:17 | 50.62743 | 2.11497 | 62° | 29km/h | 25424m | -10.7m/s | -48.9°C | 3.4% | 0hPa | 2.5V | 08:25:17 | 02:15:54 | 00:00:00 | |
| BIOWL1-15 | 2026-09-05 01:06:09 | 50.62722 | 2.11454 | 340° | 5km/h | 25522m | -11.1m/s | -48.5°C | 0.2% | 0hPa | 2.6V | 08:26:02 | 02:15:45 | 00:00:00 | |
| BIOWL1-15 | 2026-09-05 01:05:59 | 50.62722 | 2.11485 | 258° | 26km/h | 25588m | -11.4m/s | -48.7°C | 0.2% | 0hPa | 2.5V | 08:26:02 | 02:15:39 | 00:00:00 | |
| AU51GT2 | 2026-09-05 01:05:59 | 50.62721 | 2.11476 | 258° | 18km/h | 25577m | -11.0m/s | -48.7°C | 0.8% | -1.0hPa | 2.5V | 00:00:00 | 00:00:00 | 00:00:00 | |
| DM0DOS-11 | 2026-09-05 01:05:57 | 50.62739 | 2.11546 | 235° | 44km/h | 25644m | -12.1m/s | -49°C | 3.3% | 0hPa | 2.5V | 08:25:37 | 02:15:34 | 00:00:00 | |
| DJ2DS-15 | 2026-09-05 01:05:56 | 50.62726 | 2.11506 | 250° | 33km/h | 25611m | -11.2m/s | -48.8°C | 0.8% | -1.0hPa | 2.6V | 00:00:00 | 00:00:00 | 00:00:00 | |
| DM0DOS-11 | 2026-09-05 01:05:47 | 50.62844 | 2.11637 | 182° | 49km/h | 25758m | -11.6m/s | -49.5°C | 3.5% | 0hPa | 2.6V | 08:25:47 | 02:15:24 | 00:00:00 | |
| BIOWL1-15 | 2026-09-05 01:05:46 | 50.62794 | 2.11620 | 203° | 53km/h | 25713m | -11.4m/s | -49.5°C | 0.3% | 0hPa | 2.6V | 08:26:02 | 02:15:28 | 00:00:00 | |
| DB0UT-7 | 2026-09-05 01:05:45 | 50.62807 | 2.11627 | 198° | 35km/h | 25725m | -11.2m/s | -49.5°C | 3.5% | 0hPa | 2.5V | 00:00:00 | 00:00:00 | 00:00:00 | |
| DM0DOS-11 | 2026-09-05 01:05:37 | 50.62937 | 2.11570 | 119° | 35km/h | 25872m | -12.1m/s | -50.1°C | 3.7% | 0hPa | 2.6V | 08:25:57 | 02:15:14 | 00:00:00 | |
| BIOWL1-15 | 2026-09-05 01:05:35 | 50.62918 | 2.11603 | 141° | 38km/h | 25839m | -11.2m/s | -50°C | 0.3% | 0hPa | 2.5V | 08:26:02 | 02:15:17 | 00:00:00 | |
| BIOWL9-15 | 2026-09-05 01:05:29 | 50.62945 | 2.11520 | 85° | 31km/h | 25918m | -11.6m/s | -50.1°C | 0.9% | -1.0hPa | 2.6V | 00:00:00 | 00:00:00 | 00:00:00 | |
| DO1YAY-16 | 2026-09-05 01:05:28 | 50.62941 | 2.11497 | 66° | 27km/h | 25942m | -12.2m/s | -50.0°C | 0.9% | -1.0hPa | 2.6V | 00:00:00 | 00:00:00 | 00:00:00 | |
| DM0DOS-11 | 2026-09-05 01:05:27 | 50.62922 | 2.11466 | 28° | 26km/h | 25989m | -11.7m/s | -50°C | 3.7% | 0hPa | 2.6V | 08:26:07 | 02:15:04 | 00:00:00 | |
| DO9LL-15 | 2026-09-05 01:05:27 | 50.62943 | 2.11508 | 76° | 27km/h | 25930m | -12.2m/s | -50.0°C | 3.7% | 0hPa | 2.6V | 08:26:00 | 02:15:09 | 00:00:00 | |
| DB0DAN | 2026-09-05 01:05:25 | 50.62938 | 2.11488 | 56° | 27km/h | 25954m | -11.8m/s | 0°C | 0% | 0hPa | 2.5V | 00:00:00 | 00:00:00 | 00:00:00 | |
| BIOWL1-15 | 2026-09-05 01:05:25 | 50.62917 | 2.11462 | 17° | 24km/h | 26000m | -11.4m/s | -50°C | 0.4% | 0hPa | 2.6V | 08:26:53 | 02:15:03 | 00:00:00 | |
| DJ2DS-15 | 2026-09-05 01:05:19 | 50.62905 | 2.11459 | 1° | 22km/h | 26022m | -11.8m/s | -49.9°C | 0.9% | -1.0hPa | 2.6V | 00:00:00 | 00:00:00 | 00:00:00 | |
| DM0DOS-11 | 2026-09-05 01:05:17 | 50.62877 | 2.11485 | 292° | 18km/h | 26101m | -12.2m/s | -49.7°C | 3.6% | 0hPa | 2.6V | 08:26:17 | 02:14:54 | 00:00:00 | |
| BIOWL1-15 | 2026-09-05 01:05:14 | 50.62877 | 2.11485 | 292° | 18km/h | 26101m | -12.2m/s | -49.7°C | 0.4% | 0hPa | 2.6V | 08:26:53 | 02:14:54 | 00:00:00 | |
| DL1XH-west | 2026-09-05 01:05:11 | 50.62876 | 2.11492 | 281° | 18km/h | 26113m | -12m/s | -49.7°C | 0.4% | 0hPa | 2.6V | 08:27:44 | 02:14:53 | 00:00:00 | |
| DM0DOS-11 | 2026-09-05 01:05:07 | 50.62905 | 2.11580 | 223° | 37km/h | 26218m | -11.8m/s | -49.5°C | 3.6% | 0hPa | 2.5V | 08:26:27 | 02:14:44 | 00:00:00 | |
| BIOWL1-15 | 2026-09-05 01:05:01 | 50.62912 | 2.11590 | 219° | 37km/h | 26230m | -11.6m/s | -49.5°C | 0.4% | 0hPa | 2.5V | 08:26:53 | 02:14:43 | 00:00:00 | |
| AU51GT2 | 2026-09-05 01:04:57 | 50.62952 | 2.11623 | 196° | 35km/h | 26288m | -11.7m/s | -49.3°C | 0.9% | -1.0hPa | 2.5V | 00:00:00 | 00:00:00 | 00:00:00 | |
| DO1YAY-16 | 2026-09-05 01:04:56 | 50.62952 | 2.11623 | 196° | 35km/h | 26288m | -11.7m/s | -49.3°C | 0.9% | -1.0hPa | 2.5V | 00:00:00 | 00:00:00 | 00:00:00 | |
| DM0DOS-11 | 2026-09-05 01:04:55 | 50.62987 | 2.11628 | 172° | 35km/h | 26334m | -12.1m/s | -49°C | 3.5% | 0hPa | 2.5V | 08:26:37 | 02:14:34 | 00:00:00 | |
| BIOWL1-15 | 2026-09-05 01:04:51 | 50.63012 | 2.11617 | 155° | 35km/h | 26371m | -12.3m/s | -48.9°C | 0.4% | 0hPa | 2.6V | 08:26:53 | 02:14:31 | 00:00:00 | |
| DM0DOS-11 | 2026-09-05 01:04:45 | 50.63059 | 2.11541 | 115° | 46km/h | 26453m | -11.7m/s | -48.4°C | 3.4% | 0hPa | 2.5V | 08:26:47 | 02:14:24 | 00:00:00 | |
| BIOWL1-15 | 2026-09-05 01:04:39 | 50.63075 | 2.11450 | 97° | 49km/h | 26513m | -12.5m/s | -48.3°C | 0.3% | 0hPa | 2.5V | 08:26:53 | 02:14:19 | 00:00:00 | |
| DM0DOS-11 | 2026-09-05 01:04:37 | 50.63072 | 2.11351 | 78° | 46km/h | 26573m | -12.1m/s | -48.1°C | 3.3% | 0hPa | 2.6V | 08:26:57 | 02:14:14 | 00:00:00 | |
| BIOWL1-15 | 2026-09-05 01:04:26 | 50.63040 | 2.11221 | 47° | 18km/h | 26707m | -12.9m/s | -48.2°C | 0.3% | 0hPa | 2.5V | 08:27:44 | 02:14:03 | 00:00:00 | |
| BIOWL9-15 | 2026-09-05 01:04:26 | 50.63056 | 2.11261 | 63° | 29km/h | 26646m | -12.9m/s | -48.1°C | 0.8% | -1.0hPa | 2.6V | 00:00:00 | 00:00:00 | 00:00:00 | |
| DM0DOS-11 | 2026-09-05 01:04:25 | 50.63043 | 2.11227 | 52° | 22km/h | 26694m | -12.4m/s | -48.2°C | 3.3% | 0hPa | 2.6V | 08:27:07 | 02:14:04 | 00:00:00 | |
| DO1YAY-16 | 2026-09-05 01:04:25 | 50.63052 | 2.11251 | 61° | 27km/h | 26658m | -11.5m/s | -48.1°C | 0.8% | -1.0hPa | 2.6V | 00:00:00 | 00:00:00 | 00:00:00 | |
| DM0DOS-11 | 2026-09-05 01:04:14 | 50.63019 | 2.11235 | 277° | 24km/h | 26819m | -12.2m/s | -48.4°C | 3.3% | 0hPa | 2.6V | 08:27:17 | 02:13:54 | 00:00:00 | |
| BIOWL1-15 | 2026-09-05 01:04:12 | 50.63019 | 2.11235 | 277° | 24km/h | 26819m | -12.2m/s | -48.4°C | 0.2% | 0hPa | 2.6V | 08:27:44 | 02:13:54 | 00:00:00 | |
| DM0DOS-11 | 2026-09-05 01:04:03 | 50.63067 | 2.11381 | 223° | 55km/h | 26947m | -12.5m/s | -48.6°C | 3.4% | 0hPa | 2.6V | 08:27:27 | 02:13:44 | 00:00:00 | |
| BIOWL1-15 | 2026-09-05 01:04:01 | 50.63078 | 2.11396 | 217° | 58km/h | 26959m | -12.5m/s | -48.7°C | 0.3% | 0hPa | 2.6V | 08:27:44 | 02:13:43 | 00:00:00 | |
| DL1XH-west | 2026-09-05 01:04:00 | 50.63090 | 2.11408 | 211° | 57km/h | 26972m | -12.7m/s | -48.7°C | 0.3% | 0hPa | 2.6V | 08:27:44 | 02:13:42 | 00:00:00 | |
| DM0DOS-11 | 2026-09-05 01:03:57 | 50.63188 | 2.11460 | 185° | 44km/h | 27071m | -12.8m/s | -48.7°C | 3.5% | 0hPa | 2.5V | 08:27:37 | 02:13:34 | 00:00:00 | |
| BIOWL1-15 | 2026-09-05 01:03:55 | 50.63199 | 2.11462 | 184° | 46km/h | 27084m | -12.9m/s | -48.7°C | 0.3% | 0hPa | 2.6V | 08:27:44 | 02:13:33 | 00:00:00 | |
| DL1XH-west | 2026-09-05 01:03:50 | 50.63210 | 2.11462 | 179° | 42km/h | 27097m | -12.9m/s | -48.6°C | 0.4% | 0hPa | 2.6V | 08:27:44 | 02:13:32 | 00:00:00 | |
| DM0DOS-11 | 2026-09-05 01:03:43 | 50.63277 | 2.11427 | 136° | 31km/h | 27198m | -13.1m/s | -48.6°C | 3.5% | 0hPa | 2.5V | 08:27:47 | 02:13:24 | 00:00:00 | |
| BIOWL1-15 | 2026-09-05 01:03:40 | 50.63287 | 2.11409 | 127° | 31km/h | 27224m | -13.5m/s | -48.6°C | 0.4% | 0hPa | 2.6V | 08:28:35 | 02:13:22 | 00:00:00 | |
| DM0DOS-11 | 2026-09-05 01:03:37 | 50.63290 | 2.11323 | 56° | 29km/h | 27327m | -13.8m/s | -48°C | 3.4% | 0hPa | 2.5V | 08:27:57 | 02:13:14 | 00:00:00 | |
| DL1XH-west | 2026-09-05 01:03:35 | 50.63295 | 2.11344 | 73° | 27km/h | 27301m | -13.6m/s | -48.1°C | 0.3% | 0hPa | 2.5V | 08:28:35 | 02:13:16 | 00:00:00 | |
| BIOWL1-15 | 2026-09-05 01:03:30 | 50.63281 | 2.11306 | 45° | 29km/h | 27354m | -13.3m/s | -47.9°C | 0.3% | 0hPa | 2.6V | 08:28:35 | 02:13:12 | 00:00:00 | |
| DL1XH-west | 2026-09-05 01:03:23 | 50.63230 | 2.11286 | 345° | 35km/h | 27446m | -13.4m/s | -47.8°C | 0.2% | 0hPa | 2.6V | 08:28:35 | 02:13:05 | 00:00:00 | |
| DM0DOS-11 | 2026-09-05 01:03:23 | 50.63221 | 2.11290 | 341° | 38km/h | 27459m | -14.2m/s | -47.8°C | 3.3% | 0hPa | 2.5V | 08:28:07 | 02:13:04 | 00:00:00 | |
| DL1XH1-15 | 2026-09-05 01:03:18 | 50.63174 | 2.11364 | 290° | 38km/h | 27551m | -13.6m/s | -48°C | 0% | 0hPa | 2.5V | 08:28:14 | 02:12:57 | 00:00:00 | |
| BIOWL1-15 | 2026-09-05 01:03:18 | 50.63189 | 2.11324 | 311° | 40km/h | 27513m | -12.4m/s | -47.9°C | 0.3% | 0hPa | 2.6V | 08:28:35 | 02:13:00 | 00:00:00 | |
| DL1XH-west | 2026-09-05 01:03:12 | 50.63169 | 2.11409 | 269° | 38km/h | 27590m | -13.1m/s | -47.8°C | 0.3% | 0hPa | 2.5V | 08:28:35 | 02:12:54 | 00:00:00 | |
| BIOWL1-15 | 2026-09-05 01:03:07 | 50.63184 | 2.11482 | 237° | 38km/h | 27655m | -13.2m/s | -47.8°C | 0.3% | 0hPa | 2.5V | 08:28:35 | 02:12:49 | 00:00:00 | |
| DM0DOS-11 | 2026-09-05 01:03:04 | 50.63219 | 2.11531 | 207° | 35km/h | 27719m | -12.9m/s | -47.8°C | 3.4% | 0hPa | 2.5V | 08:28:27 | 02:12:44 | 00:00:00 | |
| DL1XH-west | 2026-09-05 01:03:01 | 50.63227 | 2.11536 | 196° | 35km/h | 27732m | -13.3m/s | -47.8°C | 0.3% | 0hPa | 2.5V | 08:28:35 | 02:12:43 | 00:00:00 | |
| BIOWL1-15 | 2026-09-05 01:02:56 | 50.63271 | 2.11534 | 163° | 37km/h | 27797m | -12.9m/s | -47.5°C | 0.3% | 0hPa | 2.5V | 08:28:35 | 02:12:38 | 00:00:00 | |
| DJ2DS-15 | 2026-09-05 01:02:55 | 50.63280 | 2.11529 | 154° | 33km/h | 27810m | -12.8m/s | -47.4°C | 0.8% | -1.0hPa | 2.5V | 00:00:00 | 00:00:00 | 00:00:00 | |
| DM0DOS-11 | 2026-09-05 01:02:53 | 50.63301 | 2.11505 | 134° | 37km/h | 27849m | -13.3m/s | -47.2°C | 3.3% | 0hPa | 2.5V | 08:28:37 | 02:12:34 | 00:00:00 | |
| DL1XH-west | 2026-09-05 01:02:50 | 50.63312 | 2.11483 | 122° | 33km/h | 27875m | -13.4m/s | -47°C | 0.2% | 0hPa | 2.5V | 08:29:26 | 02:12:32 | 00:00:00 | |
| BIOWL1-15 | 2026-09-05 01:02:45 | 50.63319 | 2.11417 | 83° | 35km/h | 27941m | -13.7m/s | -46.8°C | 0.2% | 0hPa | 2.5V | 08:29:26 | 02:12:27 | 00:00:00 | |
| DM0DOS-11 | 2026-09-05 01:02:43 | 50.63310 | 2.11380 | 52° | 35km/h | 27981m | -12.8m/s | -46.6°C | 3.2% | 0hPa | 2.5V | 08:28:47 | 02:12:24 | 00:00:00 | |
| DL1XH-west | 2026-09-05 01:02:39 | 50.63288 | 2.11353 | 26° | 42km/h | 28018m | -14.1m/s | -46.5°C | 0.1% | 0hPa | 2.6V | 08:29:26 | 02:12:21 | 00:00:00 | |
| BIOWL1-15 | 2026-09-05 01:02:36 | 50.63233 | 2.11339 | 355° | 47km/h | 28088m | -15m/s | -46°C | 0.1% | 0hPa | 2.5V | 08:29:26 | 02:12:16 | 00:00:00 | |
| DM0DOS-11 | 2026-09-05 01:02:35 | 50.63210 | 2.11346 | 343° | 47km/h | 28117m | -14.2m/s | -45.9°C | 3.1% | 0hPa | 2.6V | 08:28:57 | 02:12:14 | 00:00:00 | |
| DL1XH-west | 2026-09-05 01:02:29 | 50.63180 | 2.11371 | 322° | 44km/h | 28159m | -13.9m/s | -45.7°C | 0.1% | 0hPa | 2.5V | 08:29:26 | 02:12:11 | 00:00:00 | |
| DL1ZP-14 | 2026-09-05 01:02:26 | 50.63158 | 2.11407 | 303° | 40km/h | 28201m | -13.9m/s | -45.7°C | 0.8% | -1.0hPa | 2.6V | 00:00:00 | 00:00:00 | 00:00:00 | |
| DM0DOS-11 | 2026-09-05 01:02:25 | 50.63147 | 2.11463 | 271° | 35km/h | 28256m | -14.3m/s | -45.5°C | 3.1% | 0hPa | 2.6V | 08:29:07 | 02:12:04 | 00:00:00 | |
| BIOWL1-15 | 2026-09-05 01:02:24 | 50.63150 | 2.11435 | 287° | 37km/h | 28228m | -14.2m/s | -45.6°C | 0.1% | 0hPa | 2.5V | 08:29:26 | 02:12:06 | 00:00:00 | |
| DL1XH1-15 | 2026-09-05 01:02:22 | 50.63148 | 2.11476 | 261° | 35km/h | 28270m | -14.2m/s | -45.5°C | 0% | 0hPa | 2.6V | 08:29:08 | 02:12:03 | 00:00:00 | |
| DL1XH-west | 2026-09-05 01:02:19 | 50.63154 | 2.11502 | 241° | 37km/h | 28297m | -13.8m/s | -45.6°C | 0.1% | 0hPa | 2.5V | 08:29:26 | 02:12:01 | 00:00:00 | |
| BIOWL1-15 | 2026-09-05 01:02:17 | 50.63228 | 2.11529 | 156° | 46km/h | 28410m | -14.8m/s | -45.1°C | 0% | 0hPa | 2.6V | 08:29:26 | 02:11:53 | 00:00:00 | |
| DB0UT-7 | 2026-09-05 01:02:17 | 50.63166 | 2.11524 | 218° | 40km/h | 28325m | -14.4m/s | -45.5°C | 3.1% | 0hPa | 2.6V | 00:00:00 | 00:00:00 | 00:00:00 | |
| DM0DOS-11 | 2026-09-05 01:02:15 | 50.63217 | 2.11535 | 162° | 46km/h | 28395m | -14.2m/s | -45.2°C | 3% | 0hPa | 2.6V | 08:29:17 | 02:11:54 | 00:00:00 | |
| DL1XH-west | 2026-09-05 01:02:08 | 50.63256 | 2.11499 | 137° | 46km/h | 28453m | -14.3m/s | -44.8°C | 0% | 0hPa | 2.5V | 08:29:26 | 02:11:50 | 00:00:00 | |
| BIOWL1-15 | 2026-09-05 01:02:03 | 50.63279 | 2.11432 | 88° | 33km/h | 28527m | -15.1m/s | -44.5°C | 0% | 0hPa | 2.5V | 08:29:26 | 02:11:45 | 00:00:00 | |
| DL1XH-west | 2026-09-05 01:01:57 | 50.63251 | 2.11396 | 350° | 29km/h | 28615m | -14.9m/s | -44.8°C | 0% | 0hPa | 2.6V | 18:12:15 | 02:11:39 | 00:00:00 | |
| BIOWL1-15 | 2026-09-05 01:01:54 | 50.63208 | 2.11476 | 280° | 47km/h | 28718m | -15.1m/s | -45°C | 0% | 0hPa | 2.5V | 18:12:15 | 02:11:32 | 00:00:00 | |
| DL1XH1-15 | 2026-09-05 01:01:51 | 50.63207 | 2.11514 | 263° | 47km/h | 28748m | -15.4m/s | -45.1°C | 0% | 0hPa | 2.5V | 08:30:00 | 02:11:30 | 00:00:00 | |
| DO1YAY-16 | 2026-09-05 01:01:50 | 50.63208 | 2.11476 | 279° | 47km/h | 28718m | -15.1m/s | -45.0°C | 0.7% | -1.0hPa | 2.6V | 00:00:00 | 00:00:00 | 00:00:00 | |
| DM0DOS-11 | 2026-09-05 01:01:47 | 50.63247 | 2.11617 | 215° | 53km/h | 28836m | -15.2m/s | -45.3°C | 3% | 0hPa | 2.6V | 08:30:00 | 02:11:24 | 00:00:00 | |
| DL1XH-west | 2026-09-05 01:01:46 | 50.63213 | 2.11551 | 247° | 51km/h | 28777m | -14.7m/s | -45.1°C | 0% | 0hPa | 2.6V | 18:12:15 | 02:11:28 | 00:00:00 | |
| DL1XH1-15 | 2026-09-05 01:01:43 | 50.63296 | 2.11646 | 185° | 51km/h | 28895m | -14.8m/s | -45.3°C | 0% | 0hPa | 2.5V | 08:30:00 | 02:11:20 | 00:00:00 | |
| BIOWL1-15 | 2026-09-05 01:01:41 | 50.63258 | 2.11628 | 207° | 53km/h | 28851m | -14.8m/s | -45.3°C | 0.1% | 0hPa | 2.6V | 18:12:15 | 02:11:23 | 00:00:00 | |
| DL1XH-west | 2026-09-05 01:01:36 | 50.63322 | 2.11645 | 170° | 49km/h | 28925m | -15m/s | -45.3°C | 0.1% | 0hPa | 2.6V | 18:12:15 | 02:11:18 | 00:00:00 | |
| DM0DOS-11 | 2026-09-05 01:01:34 | 50.63363 | 2.11613 | 137° | 42km/h | 28983m | -15.4m/s | -45.2°C | 3.1% | 0hPa | 2.6V | 08:30:00 | 02:11:14 | 00:00:00 | |
| BIOWL1-15 | 2026-09-05 01:01:31 | 50.63370 | 2.11601 | 129° | 42km/h | 28999m | -15.8m/s | -45.2°C | 0% | 0hPa | 2.6V | 18:12:15 | 02:11:13 | 00:00:00 | |
| DL1XH1-15 | 2026-09-05 01:01:28 | 50.63382 | 2.11547 | 84° | 29km/h | 29060m | -15.3m/s | -44.9°C | 0% | 0hPa | 2.6V | 08:30:00 | 02:11:09 | 00:00:00 | |
| DM0DOS-11 | 2026-09-05 01:01:28 | 50.63362 | 2.11499 | 22° | 33km/h | 29139m | -15.4m/s | -44.8°C | 3% | 0hPa | 2.6V | 08:30:00 | 02:11:04 | 00:00:00 | |
| DL1XH-west | 2026-09-05 01:01:25 | 50.63378 | 2.11525 | 67° | 29km/h | 29092m | -15.8m/s | -45°C | 0% | 0hPa | 2.5V | 18:12:15 | 02:11:07 | 00:00:00 | |
| BIOWL1-15 | 2026-09-05 01:01:22 | 50.63325 | 2.11501 | 341° | 47km/h | 29201m | -16.2m/s | -44.7°C | 0% | 0hPa | 2.5V | 18:12:15 | 02:11:00 | 00:00:00 | |
| BIOWL9-15 | 2026-09-05 01:01:20 | 50.63345 | 2.11494 | 358° | 37km/h | 29170m | -15.0m/s | -44.8°C | 0.8% | -1.0hPa | 2.6V | 00:00:00 | 00:00:00 | 00:00:00 | |
| DO1YAY-16 | 2026-09-05 01:01:19 | 50.63335 | 2.11496 | 348° | 40km/h | 29185m | -15.3m/s | -44.8°C | 0.8% | -1.0hPa | 2.6V | 00:00:00 | 00:00:00 | 00:00:00 | |
| DM0DOS-11 | 2026-09-05 01:01:17 | 50.63268 | 2.11572 | 298° | 44km/h | 29300m | -14.9m/s | -44.2°C | 2.9% | 0hPa | 2.6V | 08:30:00 | 02:10:54 | 00:00:00 | |
| DL1XH1-15 | 2026-09-05 01:01:15 | 50.63262 | 2.11602 | 276° | 37km/h | 29330m | -15.3m/s | -44.2°C | 0% | 0hPa | 2.5V | 08:30:00 | 02:10:52 | 00:00:00 | |
| DL1XH-west | 2026-09-05 01:01:14 | 50.63282 | 2.11541 | 315° | 49km/h | 29269m | -15.6m/s | -44.5°C | 0% | 0hPa | 2.5V | 18:12:15 | 02:10:56 | 00:00:00 | |
| BIOWL1-15 | 2026-09-05 01:01:12 | 50.63262 | 2.11602 | 276° | 37km/h | 29331m | -15.3m/s | -44.2°C | 0% | 0hPa | 2.5V | 18:12:15 | 02:10:52 | 00:00:00 | |
| DM0DOS-11 | 2026-09-05 01:01:07 | 50.63260 | 2.11644 | 18° | 4km/h | 29573m | -27.3m/s | -44°C | 2.8% | 0hPa | 2.6V | 08:30:00 | 02:10:44 | 00:00:00 | |
| DL1XH1-15 | 2026-09-05 01:01:05 | 50.63258 | 2.11642 | 71° | 2km/h | 29615m | -13.9m/s | -44.1°C | 0% | 0hPa | 2.5V | 08:30:00 | 02:10:42 | 00:00:00 | |
| DL1XH-west | 2026-09-05 01:01:04 | 50.63261 | 2.11643 | 332° | 4km/h | 29508m | -37m/s | -44°C | 0% | 0hPa | 2.5V | 18:12:15 | 02:10:46 | 00:00:00 | |
| BIOWL1-15 | 2026-09-05 01:00:59 | 50.63258 | 2.11641 | 90° | 4km/h | 29624m | -5.6m/s | -44.1°C | 0% | 0hPa | 2.5V | 18:12:15 | 02:10:41 | 00:00:00 | |
| HARRO8 | 2026-09-05 01:00:57 | 50.63253 | 2.11630 | 22° | 13km/h | 29604m | 6.7m/s | -44.2°C | 0.7% | -1.0hPa | 2.5V | 00:00:00 | 00:00:00 | 00:00:00 | |
| DL1XH1-15 | 2026-09-05 01:00:54 | 50.63230 | 2.11623 | 25° | 22km/h | 29573m | 5.7m/s | -44.4°C | 0% | 0hPa | 2.5V | 08:30:00 | 02:10:31 | 00:00:00 | |
| DL1XH-west | 2026-09-05 01:00:53 | 50.63250 | 2.11628 | 6° | 15km/h | 29597m | 6.1m/s | -44.2°C | 0% | 0hPa | 2.5V | 18:12:15 | 02:10:35 | 00:00:00 | |
| BIOWL1-15 | 2026-09-05 01:00:48 | 50.63226 | 2.11619 | 30° | 18km/h | 29568m | 4.5m/s | -44.4°C | 0% | 0hPa | 2.5V | 18:12:15 | 02:10:30 | 00:00:00 | |
| DO1YAY-16 | 2026-09-05 01:00:48 | 50.63226 | 2.11619 | 29° | 18km/h | 29568m | 4.5m/s | -44.4°C | 0.7% | -1.0hPa | 2.6V | 00:00:00 | 00:00:00 | 00:00:00 | |
| DL1XH-west | 2026-09-05 01:00:42 | 50.63215 | 2.11622 | 318° | 7km/h | 29536m | 5m/s | -44.4°C | 0% | 0hPa | 2.6V | 18:12:15 | 02:10:24 | 00:00:00 | |
| BIOWL1-15 | 2026-09-05 01:00:39 | 50.63167 | 2.11613 | 356° | 15km/h | 29481m | 6m/s | -44.5°C | 0% | 0hPa | 2.6V | 18:12:15 | 02:10:14 | 00:00:00 | |
| DL1XH1-15 | 2026-09-05 01:00:39 | 50.63201 | 2.11614 | 22° | 26km/h | 29514m | 5m/s | -44.5°C | 0% | 0hPa | 2.5V | 08:30:00 | 02:10:20 | 00:00:00 | |
| DB0UT-7 | 2026-09-05 01:00:38 | 50.63201 | 2.11614 | 23° | 15km/h | 29514m | 4.9m/s | -44.4°C | 2.9% | 0hPa | 2.5V | 00:00:00 | 00:00:00 | 08:30:00 | |
| DM0DOS-11 | 2026-09-05 01:00:32 | 50.63157 | 2.11614 | 324° | 11km/h | 29458m | 6.5m/s | -44.5°C | 2.9% | 0hPa | 2.5V | 08:30:00 | 02:10:10 | 00:00:00 | |
| DL1XH-west | 2026-09-05 01:00:31 | 50.63164 | 2.11613 | 6° | 11km/h | 29475m | 5.5m/s | -44.6°C | 0% | 0hPa | 2.6V | 18:12:15 | 02:10:13 | 00:00:00 | |
| BIOWL1-15 | 2026-09-05 01:00:27 | 50.63150 | 2.11625 | 324° | 15km/h | 29442m | 5.8m/s | -44.5°C | 0% | 0hPa | 2.5V | 18:12:15 | 02:10:07 | 00:00:00 | |
| HARRO8 | 2026-09-05 01:00:26 | 50.63150 | 2.11625 | 323° | 13km/h | 29442m | 5.8m/s | -44.5°C | 0.7% | -1.0hPa | 2.5V | 00:00:00 | 00:00:00 | 00:00:00 | |
| DM0DOS-11 | 2026-09-05 01:00:22 | 50.63123 | 2.11635 | 326° | 18km/h | 29402m | 4.7m/s | -44.5°C | 2.9% | 0hPa | 2.5V | 08:30:00 | 02:10:00 | 00:00:00 | |
| DL1XH-west | 2026-09-05 01:00:21 | 50.63136 | 2.11628 | 358° | 16km/h | 29419m | 5.5m/s | -44.5°C | 0% | 0hPa | 2.6V | 18:12:15 | 02:10:03 | 00:00:00 | |
| BIOWL1-15 | 2026-09-05 01:00:17 | 50.63120 | 2.11639 | 326° | 15km/h | 29397m | 5.6m/s | -44.5°C | 0% | 0hPa | 2.6V | 18:12:15 | 02:09:59 | 00:00:00 | |
| DM0DOS-11 | 2026-09-05 01:00:12 | 50.63101 | 2.11667 | 327° | 11km/h | 29347m | 6.3m/s | -44.3°C | 2.8% | 0hPa | 2.5V | 08:30:00 | 02:09:50 | 00:00:00 | |
| DL1XH-west | 2026-09-05 01:00:11 | 50.63108 | 2.11654 | 303° | 15km/h | 29363m | 4.8m/s | -44.4°C | 0% | 0hPa | 2.6V | 18:12:15 | 02:09:53 | 00:00:00 | |
| BIOWL1-15 | 2026-09-05 01:00:07 | 50.63099 | 2.11668 | 342° | 11km/h | 29341m | 5.2m/s | -44.3°C | 0% | 0hPa | 2.6V | 18:12:15 | 02:09:49 | 00:00:00 | |
| DM0DOS-11 | 2026-09-05 01:00:02 | 50.63072 | 2.11694 | 310° | 7km/h | 29292m | 5.2m/s | -44.7°C | 2.9% | 0hPa | 2.5V | 08:30:00 | 02:09:40 | 00:00:00 | |
| BIOWL1-15 | 2026-09-05 01:00:00 | 50.63068 | 2.11711 | 284° | 15km/h | 29271m | 4.5m/s | -44.9°C | 0% | 0hPa | 2.5V | 18:12:15 | 02:09:36 | 00:00:00 | |
| DL1XH-west | 2026-09-05 01:00:00 | 50.63075 | 2.11690 | 329° | 11km/h | 29303m | 5.6m/s | -44.6°C | 0% | 0hPa | 2.5V | 18:12:15 | 02:09:42 | 00:00:00 | |
| DL1XH1-15 | 2026-09-05 00:59:58 | 50.63070 | 2.11700 | 290° | 13km/h | 29281m | 5.6m/s | 0°C | 0% | 0hPa | 2.6V | 00:00:00 | 02:09:38 | 00:00:00 | |
| DL1XH-west | 2026-09-05 00:59:50 | 50.63067 | 2.11722 | 240° | 2km/h | 29249m | 4.5m/s | -45.1°C | 0% | 0hPa | 2.5V | 18:12:15 | 02:09:32 | 00:00:00 | |
| DM0DOS-11 | 2026-09-05 00:59:49 | 50.63066 | 2.11725 | 296° | 9km/h | 29238m | 6.1m/s | -45.1°C | 2.9% | 0hPa | 2.5V | 08:30:00 | 02:09:30 | 00:00:00 | |
| DL1XH1-15 | 2026-09-05 00:59:48 | 50.63063 | 2.11733 | 304° | 15km/h | 29228m | 5m/s | 0°C | 0% | 0hPa | 2.6V | 00:00:00 | 02:09:28 | 00:00:00 | |
| BIOWL1-15 | 2026-09-05 00:59:44 | 50.63060 | 2.11740 | 313° | 9km/h | 29216m | 6.2m/s | -45.1°C | 0% | 0hPa | 2.5V | 18:12:15 | 02:09:26 | 00:00:00 | |
| DL1XH-west | 2026-09-05 00:59:39 | 50.63057 | 2.11754 | 268° | 11km/h | 29189m | 5.2m/s | -45.2°C | 0% | 0hPa | 2.5V | 18:12:15 | 02:09:21 | 00:00:00 | |
| DL1XH1-15 | 2026-09-05 00:59:38 | 50.63059 | 2.11765 | 232° | 5km/h | 29172m | 5.8m/s | 0°C | 0% | 0hPa | 2.6V | 00:00:00 | 02:09:18 | 00:00:00 | |
| BIOWL1-15 | 2026-09-05 00:59:33 | 50.63068 | 2.11776 | 211° | 13km/h | 29145m | 5m/s | -45.4°C | 0% | 0hPa | 2.6V | 18:12:15 | 02:09:13 | 00:00:00 | |
| DM0DOS-11 | 2026-09-05 00:59:29 | 50.63076 | 2.11779 | 172° | 11km/h | 29128m | 4.7m/s | -45.4°C | 3% | 0hPa | 2.5V | 08:30:00 | 02:09:10 | 00:00:00 | |
| DL1XH-west | 2026-09-05 00:59:29 | 50.63073 | 2.11779 | 179° | 11km/h | 29133m | 5.8m/s | -45.4°C | 0% | 0hPa | 2.5V | 18:12:15 | 02:09:11 | 00:00:00 | |
| DM0DOS-11 | 2026-09-05 00:59:23 | 50.63091 | 2.11789 | 182° | 15km/h | 29075m | 6.1m/s | -45.5°C | 3% | 0hPa | 2.5V | 08:30:00 | 02:09:00 | 00:00:00 | |
| BIOWL1-15 | 2026-09-05 00:59:22 | 50.63083 | 2.11791 | 262° | 4km/h | 29096m | 5.8m/s | -45.4°C | 0% | 0hPa | 2.6V | 18:12:15 | 02:09:04 | 00:00:00 | |
| DL1XH-west | 2026-09-05 00:59:18 | 50.63091 | 2.11789 | 183° | 15km/h | 29075m | 6.1m/s | -45.5°C | 0.1% | 0hPa | 2.5V | 18:12:15 | 02:09:00 | 00:00:00 | |
| DL1XH1-15 | 2026-09-05 00:59:16 | 50.63112 | 2.11803 | 119° | 5km/h | 29038m | 5m/s | 0°C | 0% | 0hPa | 2.6V | 00:00:00 | 02:08:53 | 00:00:00 | |
| BIOWL1-15 | 2026-09-05 00:59:13 | 50.63115 | 2.11801 | 231° | 11km/h | 29017m | 6m/s | -45.7°C | 0% | 0hPa | 2.6V | 18:12:15 | 02:08:49 | 00:00:00 | |
| DM0DOS-11 | 2026-09-05 00:59:09 | 50.63113 | 2.11799 | 213° | 4km/h | 29023m | 6.2m/s | -45.7°C | 3% | 0hPa | 2.5V | 08:30:00 | 02:08:50 | 00:00:00 | |
| DL1XH-west | 2026-09-05 00:59:08 | 50.63113 | 2.11799 | 213° | 4km/h | 29023m | 6.2m/s | -45.7°C | 0% | 0hPa | 2.5V | 18:12:15 | 02:08:50 | 00:00:00 | |
| DO9LL-15 | 2026-09-05 00:59:05 | 50.63119 | 2.11809 | 226° | 15km/h | 29006m | 5.4m/s | -45.7°C | 3.1% | 0hPa | 2.5V | 00:00:00 | 02:08:47 | 00:00:00 | |
| DL1XH1-15 | 2026-09-05 00:59:04 | 50.63144 | 2.11825 | 193° | 18km/h | 28971m | 4.6m/s | 0°C | 0% | 0hPa | 2.5V | 00:00:00 | 02:08:41 | 00:00:00 | |
| DM0DOS-11 | 2026-09-05 00:59:03 | 50.63148 | 2.11827 | 186° | 15km/h | 28966m | 5.8m/s | -45.7°C | 3.1% | 0hPa | 2.5V | 08:30:00 | 02:08:40 | 00:00:00 | |
| DL1XH-west | 2026-09-05 00:58:58 | 50.63152 | 2.11827 | 177° | 11km/h | 28960m | 6.4m/s | -45.8°C | 0.1% | 0hPa | 2.6V | 18:12:15 | 02:08:39 | 00:00:00 | |
| BIOWL1-15 | 2026-09-05 00:58:57 | 50.63154 | 2.11827 | 177° | 7km/h | 28954m | 5.2m/s | -45.8°C | 0.1% | 0hPa | 2.6V | 18:12:15 | 02:08:38 | 00:00:00 | |
| HARRO8 | 2026-09-05 00:58:52 | 50.63162 | 2.11839 | 233° | 18km/h | 28931m | 4.7m/s | -45.8°C | 0.8% | -1.0hPa | 2.5V | 00:00:00 | 00:00:00 | 00:00:00 | |
| DM0DOS-11 | 2026-09-05 00:58:49 | 50.63177 | 2.11855 | 189° | 16km/h | 28908m | 5.6m/s | -45.8°C | 3.1% | 0hPa | 2.5V | 08:30:00 | 02:08:30 | 00:00:00 | |
| BIOWL1-15 | 2026-09-05 00:58:47 | 50.63189 | 2.11858 | 188° | 15km/h | 28891m | 5.1m/s | -45.8°C | 0.1% | 0hPa | 2.5V | 18:12:15 | 02:08:27 | 00:00:00 | |
| DL1XH-west | 2026-09-05 00:58:47 | 50.63181 | 2.11856 | 186° | 16km/h | 28903m | 6.2m/s | -45.8°C | 0.1% | 0hPa | 2.6V | 18:12:15 | 02:08:29 | 00:00:00 | |
| BIOWL9-15 | 2026-09-05 00:58:45 | 50.63189 | 2.11858 | 187° | 15km/h | 28891m | 5.1m/s | -45.8°C | 0.8% | -1.0hPa | 2.5V | 00:00:00 | 00:00:00 | 00:00:00 | |
| DO1YAY-16 | 2026-09-05 00:58:44 | 50.63195 | 2.11858 | 168° | 7km/h | 28880m | 6.7m/s | -45.8°C | 0.8% | -1.0hPa | 2.5V | 00:00:00 | 00:00:00 | 00:00:00 | |
| DM0DOS-11 | 2026-09-05 00:58:43 | 50.63200 | 2.11870 | 251° | 18km/h | 28850m | 5.3m/s | -45.5°C | 3.1% | 0hPa | 2.5V | 08:30:00 | 02:08:20 | 00:00:00 | |
| DL1XH-west | 2026-09-05 00:58:36 | 50.63204 | 2.11884 | 237° | 18km/h | 28839m | 6.4m/s | -45.5°C | 0% | 0hPa | 2.6V | 18:12:15 | 02:08:18 | 00:00:00 | |
| BIOWL1-15 | 2026-09-05 00:58:34 | 50.63226 | 2.11905 | 191° | 16km/h | 28804m | 6.2m/s | -45.6°C | 0.1% | 0hPa | 2.5V | 18:12:15 | 02:08:12 | 00:00:00 | |
| DM0DOS-11 | 2026-09-05 00:58:29 | 50.63232 | 2.11905 | 178° | 9km/h | 28791m | 5.2m/s | -45.6°C | 3% | 0hPa | 2.5V | 08:30:00 | 02:08:10 | 00:00:00 | |
| DL1XH-west | 2026-09-05 00:58:26 | 50.63236 | 2.11908 | 235° | 11km/h | 28780m | 6.8m/s | -45.5°C | 0% | 0hPa | 2.6V | 18:12:15 | 02:08:08 | 00:00:00 | |
| BIOWL1-15 | 2026-09-05 00:58:23 | 50.63239 | 2.11927 | 266° | 20km/h | 28762m | 6.3m/s | -45.4°C | 0% | 0hPa | 2.5V | 18:12:15 | 02:08:05 | 00:00:00 | |
| HTAHTA | 2026-09-05 00:58:21 | 50.63239 | 2.11948 | 264° | 15km/h | 28744m | 5.6m/s | -45.4°C | 0.7% | -1.0hPa | 2.5V | 00:00:00 | 00:00:00 | 00:00:00 | |
| DM0DOS-11 | 2026-09-05 00:58:19 | 50.63242 | 2.11961 | 240° | 18km/h | 28731m | 6.2m/s | -45.5°C | 3% | 0hPa | 2.5V | 08:30:00 | 02:08:00 | 00:00:00 | |
| DL1XH-west | 2026-09-05 00:58:15 | 50.63249 | 2.11973 | 211° | 11km/h | 28713m | 5.4m/s | -45.5°C | 0% | 0hPa | 2.5V | 18:12:15 | 02:07:57 | 00:00:00 | |
| BIOWL9-15 | 2026-09-05 00:58:14 | 50.63255 | 2.11978 | 209° | 15km/h | 28703m | 5.7m/s | -45.4°C | 0.8% | -1.0hPa | 2.5V | 00:00:00 | 00:00:00 | 00:00:00 | |
| DM0DOS-11 | 2026-09-05 00:58:13 | 50.63275 | 2.12009 | 243° | 20km/h | 28675m | 6.3m/s | -45.2°C | 3% | 0hPa | 2.5V | 08:30:00 | 02:07:50 | 00:00:00 | |
| BIOWL1-15 | 2026-09-05 00:58:13 | 50.63255 | 2.11978 | 209° | 16km/h | 28703m | 5.7m/s | -45.4°C | 0% | 0hPa | 2.5V | 18:12:15 | 02:07:55 | 00:00:00 | |
| DL1XH-west | 2026-09-05 00:58:04 | 50.63276 | 2.12027 | 283° | 9km/h | 28652m | 5.5m/s | -45.2°C | 0% | 0hPa | 2.5V | 18:12:15 | 02:07:46 | 00:00:00 | |
| BIOWL1-15 | 2026-09-05 00:58:01 | 50.63279 | 2.12040 | 229° | 18km/h | 28634m | 5.6m/s | -45.2°C | 0% | 0hPa | 2.6V | 18:12:15 | 02:07:43 | 00:00:00 | |
| DM0DOS-11 | 2026-09-05 00:57:59 | 50.63290 | 2.12055 | 216° | 15km/h | 28616m | 6.3m/s | -45.2°C | 2.9% | 0hPa | 2.5V | 08:30:00 | 02:07:40 | 00:00:00 | |
| DL1XH-west | 2026-09-05 00:57:53 | 50.63303 | 2.12070 | 227° | 9km/h | 28585m | 5.6m/s | -45.3°C | 0% | 0hPa | 2.5V | 18:12:15 | 02:07:35 | 00:00:00 | |
| BIOWL1-15 | 2026-09-05 00:57:51 | 50.63304 | 2.12074 | 294° | 5km/h | 28572m | 6.4m/s | -45.4°C | 0% | 0hPa | 2.6V | 18:12:15 | 02:07:33 | 00:00:00 | |
| HARRO8 | 2026-09-05 00:57:50 | 50.63303 | 2.12082 | 247° | 9km/h | 28554m | 6.4m/s | -45.5°C | 0.7% | -1.0hPa | 2.6V | 00:00:00 | 00:00:00 | 00:00:00 | |
| DL1ZP-14 | 2026-09-05 00:57:47 | 50.63307 | 2.12089 | 213° | 13km/h | 28543m | 5.2m/s | -45.6°C | 0.7% | -1.0hPa | 2.6V | 00:00:00 | 00:00:00 | 00:00:00 | |
| DL1XH-west | 2026-09-05 00:57:43 | 50.63317 | 2.12091 | 159° | 15km/h | 28524m | 5.8m/s | -45.6°C | 0% | 0hPa | 2.5V | 18:12:15 | 02:07:25 | 00:00:00 | |
| BIOWL1-15 | 2026-09-05 00:57:40 | 50.63334 | 2.12080 | 161° | 18km/h | 28499m | 5.2m/s | -45.8°C | 0% | 0hPa | 2.5V | 18:12:15 | 02:07:21 | 00:00:00 | |
| DM0DOS-11 | 2026-09-05 00:57:39 | 50.63337 | 2.12078 | 150° | 13km/h | 28494m | 5.2m/s | -45.9°C | 3% | 0hPa | 2.5V | 08:30:00 | 02:07:20 | 00:00:00 | |
| DL1XH-west | 2026-09-05 00:57:32 | 50.63335 | 2.12062 | 17° | 4km/h | 28456m | 5.6m/s | -46°C | 0.1% | 0hPa | 2.6V | 18:12:15 | 02:07:14 | 00:00:00 | |
| BIOWL1-15 | 2026-09-05 00:57:30 | 50.63335 | 2.12060 | 108° | 4km/h | 28443m | 6.7m/s | -46.1°C | 0.1% | 0hPa | 2.5V | 18:12:15 | 02:07:12 | 00:00:00 | |
| DM0DOS-11 | 2026-09-05 00:57:29 | 50.63337 | 2.12056 | 147° | 11km/h | 28431m | 5.6m/s | -46.2°C | 3.1% | 0hPa | 2.5V | 08:30:00 | 02:07:10 | 00:00:00 | |
| BIOWL7-15 | 2026-09-05 00:57:27 | 50.63337 | 2.12056 | 148° | 13km/h | 28431m | 5.6m/s | -46.2°C | 0.8% | 0hPa | 2.5V | 00:00:00 | 00:00:00 | 00:00:00 | |
| DM0DOS-11 | 2026-09-05 00:57:23 | 50.63349 | 2.12021 | 24° | 5km/h | 28371m | 5.6m/s | -46.2°C | 3.1% | 0hPa | 2.5V | 08:30:00 | 02:07:00 | 00:00:00 | |
| DL1XH-west | 2026-09-05 00:57:21 | 50.63354 | 2.12032 | 68° | 16km/h | 28389m | 5.2m/s | -46.3°C | 0.1% | 0hPa | 2.6V | 18:12:15 | 02:07:03 | 00:00:00 | |
| BIOWL1-15 | 2026-09-05 00:57:20 | 50.63353 | 2.12027 | 56° | 15km/h | 28384m | 6m/s | -46.3°C | 0.1% | 0hPa | 2.5V | 18:12:15 | 02:07:02 | 00:00:00 | |
| HTAHTA | 2026-09-05 00:57:19 | 50.63349 | 2.12021 | 24° | 5km/h | 28371m | 5.6m/s | -46.2°C | 0.8% | -1.0hPa | 2.6V | 00:00:00 | 00:00:00 | 00:00:00 | |
| DL1ZP-14 | 2026-09-05 00:57:17 | 50.63348 | 2.12022 | 263° | 2km/h | 28354m | 6.4m/s | -46.2°C | 0.8% | -1.0hPa | 2.6V | 00:00:00 | 00:00:00 | 00:00:00 | |
| DB0UT-7 | 2026-09-05 00:57:12 | 50.63348 | 2.12024 | 251° | 9km/h | 28336m | 6.4m/s | -46.1°C | 3.1% | 0hPa | 2.6V | 00:00:00 | 00:00:00 | 00:00:00 | |
| BIOWL1-15 | 2026-09-05 00:57:12 | 50.63350 | 2.12030 | 98° | 4km/h | 28310m | 7m/s | -46.1°C | 0.1% | 0hPa | 2.6V | 18:12:15 | 02:06:50 | 00:00:00 | |
| DM0DOS-11 | 2026-09-05 00:57:11 | 50.63350 | 2.12030 | 97° | 4km/h | 28310m | 7m/s | -46.1°C | 3.1% | 0hPa | 2.6V | 08:30:00 | 02:06:50 | 00:00:00 | |
| DL1XH-west | 2026-09-05 00:57:11 | 50.63349 | 2.12026 | 251° | 7km/h | 28329m | 6.7m/s | -46.1°C | 0.1% | 0hPa | 2.5V | 18:12:15 | 02:06:53 | 00:00:00 | |
| DL1XH-west | 2026-09-05 00:57:01 | 50.63337 | 2.12025 | 339° | 11km/h | 28268m | 6.5m/s | -46.2°C | 0.1% | 0hPa | 2.5V | 18:12:15 | 02:06:43 | 00:00:00 | |
| DM0DOS-11 | 2026-09-05 00:56:59 | 50.63330 | 2.12027 | 342° | 9km/h | 28250m | 5.3m/s | -46.1°C | 3.1% | 0hPa | 2.6V | 08:30:00 | 02:06:40 | 00:00:00 | |
| BIOWL1-15 | 2026-09-05 00:56:58 | 50.63330 | 2.12027 | 343° | 9km/h | 28250m | 5.3m/s | -46.1°C | 0.1% | 0hPa | 2.6V | 18:12:15 | 02:06:40 | 00:00:00 | |
| DL1XH-west | 2026-09-05 00:56:50 | 50.63317 | 2.12052 | 303° | 13km/h | 28200m | 6.4m/s | -46.2°C | 0.1% | 0hPa | 2.5V | 18:12:15 | 02:06:32 | 00:00:00 | |
| DM0DOS-11 | 2026-09-05 00:56:49 | 50.63314 | 2.12059 | 307° | 11km/h | 28190m | 4.8m/s | -46.2°C | 3% | 0hPa | 2.6V | 08:30:00 | 02:06:30 | 00:00:00 | |
| BIOWL1-15 | 2026-09-05 00:56:47 | 50.63309 | 2.12063 | 11° | 7km/h | 28171m | 5.5m/s | -46.3°C | 0.1% | 0hPa | 2.5V | 18:12:15 | 02:06:27 | 00:00:00 | |
| DL1ZP-14 | 2026-09-05 00:56:44 | 50.63307 | 2.12063 | 357° | 7km/h | 28166m | 5.4m/s | -46.3°C | 0.8% | -1.0hPa | 2.6V | 00:00:00 | 00:00:00 | 00:00:00 | |
| DM0DOS-11 | 2026-09-05 00:56:43 | 50.63292 | 2.12081 | 309° | 7km/h | 28130m | 5.7m/s | -46.4°C | 3.1% | 0hPa | 2.6V | 08:30:00 | 02:06:20 | 00:00:00 | |
| DL1XH-west | 2026-09-05 00:56:40 | 50.63296 | 2.12075 | 316° | 15km/h | 28142m | 6.1m/s | -46.4°C | 0.1% | 0hPa | 2.5V | 18:12:15 | 02:06:22 | 00:00:00 | |
| BIOWL1-15 | 2026-09-05 00:56:34 | 50.63289 | 2.12094 | 301° | 9km/h | 28107m | 4.7m/s | -46.6°C | 0.1% | 0hPa | 2.6V | 18:12:15 | 02:06:16 | 00:00:00 | |
| DM0DOS-11 | 2026-09-05 00:56:32 | 50.63269 | 2.12095 | 339° | 15km/h | 28072m | 6.2m/s | -46.7°C | 3.2% | 0hPa | 2.6V | 08:30:00 | 02:06:10 | 00:00:00 | |
| DL1XH-west | 2026-09-05 00:56:29 | 50.63273 | 2.12094 | 359° | 16km/h | 28078m | 5.3m/s | -46.7°C | 0.1% | 0hPa | 2.6V | 18:12:15 | 02:06:11 | 00:00:00 | |
| BIOWL1-15 | 2026-09-05 00:56:23 | 50.63265 | 2.12116 | 315° | 7km/h | 28025m | 5.8m/s | -46.7°C | 0.1% | 0hPa | 2.5V | 18:12:15 | 02:06:02 | 00:00:00 | |
| DM0DOS-11 | 2026-09-05 00:56:19 | 50.63260 | 2.12119 | 351° | 13km/h | 28014m | 6m/s | -46.8°C | 3.1% | 0hPa | 2.6V | 08:30:00 | 02:06:00 | 00:00:00 | |
| DL1XH-west | 2026-09-05 00:56:18 | 50.63260 | 2.12119 | 352° | 13km/h | 28014m | 6m/s | -46.8°C | 0.1% | 0hPa | 2.6V | 18:12:15 | 02:06:00 | 00:00:00 | |
| HARRO8 | 2026-09-05 00:56:18 | 50.63257 | 2.12119 | 4° | 15km/h | 28008m | 6.9m/s | -46.8°C | 0.8% | -1.0hPa | 2.5V | 00:00:00 | 00:00:00 | 00:00:00 | |
| DM0DOS-11 | 2026-09-05 00:56:13 | 50.63251 | 2.12133 | 186° | 13km/h | 27955m | 6m/s | -47°C | 3.2% | 0hPa | 2.5V | 08:30:00 | 02:05:50 | 00:00:00 | |
| BIOWL1-15 | 2026-09-05 00:56:10 | 50.63252 | 2.12133 | 187° | 13km/h | 27955m | 6m/s | -47°C | 0.2% | 0hPa | 2.5V | 18:12:15 | 02:05:50 | 00:00:00 | |
| DL1XH-west | 2026-09-05 00:56:06 | 50.63257 | 2.12135 | 205° | 7km/h | 27943m | 5.1m/s | -47°C | 0.2% | 0hPa | 2.6V | 18:12:15 | 02:05:48 | 00:00:00 | |
| DO9LL-15 | 2026-09-05 00:56:05 | 50.63258 | 2.12136 | 204° | 9km/h | 27939m | 5.1m/s | -46.9°C | 3.2% | 0hPa | 2.5V | 00:00:00 | 02:05:47 | 00:00:00 | |
| DM0DOS-11 | 2026-09-05 00:56:03 | 50.63245 | 2.12139 | 281° | 11km/h | 27899m | 4.8m/s | -47°C | 3.1% | 0hPa | 2.5V | 08:30:00 | 02:05:40 | 00:00:00 | |
| DL1XH-west | 2026-09-05 00:55:56 | 50.63246 | 2.12146 | 224° | 7km/h | 27887m | 6.2m/s | -47.1°C | 0.1% | 0hPa | 2.6V | 18:12:15 | 02:05:38 | 00:00:00 | |
| DM0DOS-11 | 2026-09-05 00:55:53 | 50.63261 | 2.12138 | 124° | 7km/h | 27842m | 4.5m/s | -47.3°C | 3.2% | 0hPa | 2.5V | 08:30:00 | 02:05:30 | 00:00:00 | |
| BIOWL1-15 | 2026-09-05 00:55:47 | 50.63263 | 2.12137 | 230° | 5km/h | 27830m | 6.2m/s | -47.3°C | 0.2% | 0hPa | 2.6V | 18:12:15 | 02:05:28 | 00:00:00 | |
| DL1XH-west | 2026-09-05 00:55:45 | 50.63265 | 2.12140 | 244° | 11km/h | 27825m | 4.7m/s | -47.4°C | 0.2% | 0hPa | 2.6V | 18:12:15 | 02:05:27 | 00:00:00 | |
| DL1ZP-14 | 2026-09-05 00:55:42 | 50.63270 | 2.12153 | 223° | 9km/h | 27809m | 5.7m/s | -47.5°C | 0.8% | -1.0hPa | 2.5V | 00:00:00 | 00:00:00 | 00:00:00 | |
| DM0DOS-11 | 2026-09-05 00:55:39 | 50.63274 | 2.12161 | 275° | 7km/h | 27787m | 5.7m/s | -47.5°C | 3.3% | 0hPa | 2.5V | 08:30:00 | 02:05:20 | 00:00:00 | |
| BIOWL1-15 | 2026-09-05 00:55:37 | 50.63274 | 2.12168 | 221° | 5km/h | 27772m | 6.3m/s | -47.6°C | 0.2% | 0hPa | 2.6V | 18:12:15 | 02:05:17 | 00:00:00 | |
| DO9LL-15 | 2026-09-05 00:55:35 | 50.63274 | 2.12168 | 222° | 7km/h | 27772m | 6.2m/s | -47.5°C | 3.3% | 0hPa | 2.6V | 00:00:00 | 02:05:17 | 00:00:00 | |
| DM0DOS-11 | 2026-09-05 00:55:33 | 50.63288 | 2.12184 | 230° | 7km/h | 27733m | 6.3m/s | -47.6°C | 3.3% | 0hPa | 2.6V | 08:30:00 | 02:05:10 | 00:00:00 | |
| DL1XH-west | 2026-09-05 00:55:33 | 50.63278 | 2.12170 | 191° | 9km/h | 27761m | 5m/s | -47.6°C | 0.2% | 0hPa | 2.5V | 18:12:15 | 02:05:15 | 00:00:00 | |
| BIOWL1-15 | 2026-09-05 00:55:26 | 50.63287 | 2.12190 | 309° | 11km/h | 27711m | 6.4m/s | -47.6°C | 0.3% | 0hPa | 2.5V | 18:12:15 | 02:05:06 | 00:00:00 | |
| DL1XH-west | 2026-09-05 00:55:21 | 50.63282 | 2.12203 | 301° | 13km/h | 27695m | 5.8m/s | -47.7°C | 0.3% | 0hPa | 2.5V | 18:12:15 | 02:05:03 | 00:00:00 | |
| DM0DOS-11 | 2026-09-05 00:55:19 | 50.63282 | 2.12212 | 225° | 9km/h | 27679m | 5.6m/s | -47.6°C | 3.3% | 0hPa | 2.6V | 08:30:00 | 02:05:00 | 00:00:00 | |
| BIOWL1-15 | 2026-09-05 00:55:13 | 50.63292 | 2.12229 | 315° | 7km/h | 27630m | 5.2m/s | -47.6°C | 0.3% | 0hPa | 2.5V | 18:12:15 | 02:04:51 | 00:00:00 | |
| DM0DOS-11 | 2026-09-05 00:55:13 | 50.63290 | 2.12230 | 327° | 5km/h | 27624m | 6.1m/s | -47.6°C | 3.3% | 0hPa | 2.6V | 08:30:00 | 02:04:50 | 00:00:00 | |
| DL1XH-west | 2026-09-05 00:55:07 | 50.63290 | 2.12231 | 338° | 4km/h | 27618m | 5.5m/s | 0°C | 0% | 0hPa | 2.6V | 18:12:15 | 02:04:49 | 00:00:00 | |
| BIOWL1-15 | 2026-09-05 00:54:59 | 50.63306 | 2.12253 | 180° | 11km/h | 27576m | 4.5m/s | -47.6°C | 0.2% | 0hPa | 2.5V | 18:12:15 | 02:04:41 | 00:00:00 | |
| DM0DOS-11 | 2026-09-05 00:54:59 | 50.63309 | 2.12253 | 175° | 9km/h | 27571m | 4.5m/s | -47.6°C | 3.3% | 0hPa | 2.6V | 08:30:00 | 02:04:40 | 00:00:00 | |
| DL1XH-west | 2026-09-05 00:54:55 | 50.63314 | 2.12258 | 258° | 9km/h | 27554m | 5.2m/s | 0°C | 0% | 0hPa | 2.5V | 18:12:15 | 02:04:37 | 00:00:00 | |
| DM0DOS-11 | 2026-09-05 00:54:53 | 50.63311 | 2.12289 | 242° | 16km/h | 27517m | 4.3m/s | -47.7°C | 3.4% | 0hPa | 2.5V | 08:30:00 | 02:04:30 | 00:00:00 | |
| BIOWL1-15 | 2026-09-05 00:54:49 | 50.63309 | 2.12283 | 258° | 16km/h | 27521m | 4.8m/s | -47.7°C | 0.3% | 0hPa | 2.5V | 18:12:15 | 02:04:31 | 00:00:00 | |
| DL1XH-west | 2026-09-05 00:54:44 | 50.63320 | 2.12299 | 190° | 7km/h | 27496m | 4.5m/s | 0°C | 0% | 0hPa | 2.6V | 18:12:15 | 02:04:26 | 00:00:00 | |
| BIOWL1-15 | 2026-09-05 00:54:42 | 50.63328 | 2.12313 | 283° | 5km/h | 27464m | 5.1m/s | -47.6°C | 0.3% | 0hPa | 2.5V | 18:12:15 | 02:04:20 | 00:00:00 | |
| DL1ZP-14 | 2026-09-05 00:54:40 | 50.63327 | 2.12308 | 243° | 7km/h | 27476m | 4.7m/s | -47.6°C | 0.8% | -1.0hPa | 2.6V | 00:00:00 | 00:00:00 | 00:00:00 | |
| DM0DOS-11 | 2026-09-05 00:54:39 | 50.63328 | 2.12313 | 282° | 5km/h | 27464m | 5.1m/s | -47.6°C | 3.3% | 0hPa | 2.5V | 08:30:00 | 02:04:20 | 00:00:00 | |
| AU51GT2 | 2026-09-05 00:54:36 | 50.63327 | 2.12319 | 278° | 9km/h | 27453m | 6.1m/s | -47.6°C | 0.8% | -1.0hPa | 2.5V | 00:00:00 | 00:00:00 | 00:00:00 | |
| DO9LL-15 | 2026-09-05 00:54:35 | 50.63327 | 2.12323 | 274° | 9km/h | 27448m | 4.6m/s | -47.5°C | 3.3% | 0hPa | 2.5V | 00:00:00 | 02:04:17 | 00:00:00 | |
| DM0DOS-11 | 2026-09-05 00:54:33 | 50.63325 | 2.12339 | 244° | 9km/h | 27410m | 5.5m/s | -47.5°C | 3.3% | 0hPa | 2.5V | 08:30:00 | 02:04:10 | 00:00:00 | |
| DL1XH-west | 2026-09-05 00:54:33 | 50.63326 | 2.12332 | 284° | 9km/h | 27438m | 5.5m/s | 0°C | 0% | 0hPa | 2.5V | 18:12:15 | 02:04:15 | 00:00:00 | |
| BIOWL1-15 | 2026-09-05 00:54:27 | 50.63330 | 2.12355 | 243° | 11km/h | 27388m | 4.9m/s | -47.6°C | 0.3% | 0hPa | 2.6V | 18:12:15 | 02:04:06 | 00:00:00 | |
| DL1XH-west | 2026-09-05 00:54:23 | 50.63331 | 2.12359 | 254° | 13km/h | 27383m | 5.1m/s | 0°C | 0% | 0hPa | 2.5V | 18:12:15 | 02:04:05 | 00:00:00 | |
| BIOWL1-15 | 2026-09-05 00:54:16 | 50.63331 | 2.12385 | 286° | 4km/h | 27346m | 5.9m/s | -47.6°C | 0.3% | 0hPa | 2.5V | 18:12:15 | 02:03:58 | 00:00:00 | |
| BIOWL1-15 | 2026-09-05 00:54:07 | 50.63339 | 2.12417 | 244° | 11km/h | 27287m | 5.2m/s | -47.7°C | 0.2% | 0hPa | 2.5V | 18:12:15 | 02:03:47 | 00:00:00 | |
| DO9LL-15 | 2026-09-05 00:54:05 | 50.63338 | 2.12417 | 245° | 9km/h | 27288m | 5.2m/s | -47.7°C | 3.3% | 0hPa | 2.5V | 00:00:00 | 02:03:47 | 00:00:00 | |
| DM0DOS-11 | 2026-09-05 00:54:04 | 50.63349 | 2.12421 | 269° | 5km/h | 27248m | 4.9m/s | -47.9°C | 3.3% | 0hPa | 2.5V | 08:30:00 | 02:03:40 | 00:00:00 | |
| DL1XH-west | 2026-09-05 00:54:02 | 50.63344 | 2.12420 | 163° | 9km/h | 27270m | 5.5m/s | 0°C | 0% | 0hPa | 2.6V | 18:12:15 | 02:03:44 | 00:00:00 | |
| BIOWL1-15 | 2026-09-05 00:53:55 | 50.63348 | 2.12425 | 310° | 2km/h | 27230m | 5m/s | -48°C | 0.3% | 0hPa | 2.5V | 18:12:15 | 02:03:37 | 00:00:00 | |
| DJ2DS-15 | 2026-09-05 00:53:54 | 50.63348 | 2.12426 | 296° | 2km/h | 27225m | 4.8m/s | -48.0°C | 0.9% | -1.0hPa | 2.5V | 00:00:00 | 00:00:00 | 00:00:00 | |
| DM0DOS-11 | 2026-09-05 00:53:52 | 50.63346 | 2.12448 | 234° | 5km/h | 27190m | 5.8m/s | -48.1°C | 3.4% | 0hPa | 2.5V | 08:30:00 | 02:03:30 | 00:00:00 | |
| DL1XH-west | 2026-09-05 00:53:52 | 50.63347 | 2.12432 | 281° | 11km/h | 27213m | 6.1m/s | 0°C | 0% | 0hPa | 2.5V | 18:12:15 | 02:03:34 | 00:00:00 | |
| BIOWL1-15 | 2026-09-05 00:53:44 | 50.63356 | 2.12456 | 192° | 15km/h | 27168m | 5.3m/s | -48.2°C | 0.3% | 0hPa | 2.6V | 18:12:15 | 02:03:26 | 00:00:00 | |
| HTAHTA | 2026-09-05 00:53:42 | 50.63362 | 2.12456 | 164° | 9km/h | 27156m | 5.4m/s | -48.1°C | 0.9% | -1.0hPa | 2.6V | 00:00:00 | 00:00:00 | 00:00:00 | |
| DM0DOS-11 | 2026-09-05 00:53:41 | 50.63369 | 2.12463 | 255° | 15km/h | 27132m | 4.8m/s | -48.1°C | 3.4% | 0hPa | 2.6V | 08:30:00 | 02:03:20 | 00:00:00 | |
| DL1XH-west | 2026-09-05 00:53:40 | 50.63366 | 2.12456 | 208° | 7km/h | 27144m | 6.8m/s | 0°C | 0% | 0hPa | 2.5V | 18:12:15 | 02:03:22 | 00:00:00 | |
| BIOWL1-15 | 2026-09-05 00:53:33 | 50.63383 | 2.12490 | 210° | 20km/h | 27092m | 5.7m/s | -47.9°C | 0.3% | 0hPa | 2.5V | 18:12:15 | 02:03:13 | 00:00:00 | |
| DO1YAY-16 | 2026-09-05 00:53:33 | 50.63376 | 2.12484 | 205° | 13km/h | 27104m | 5.7m/s | -48.0°C | 0.9% | -1.0hPa | 2.6V | 00:00:00 | 00:00:00 | 00:00:00 | |
| DM0DOS-11 | 2026-09-05 00:53:30 | 50.63395 | 2.12499 | 200° | 15km/h | 27074m | 5.8m/s | -48°C | 3.4% | 0hPa | 2.6V | 08:30:00 | 02:03:10 | 00:00:00 | |
| DL1XH-west | 2026-09-05 00:53:29 | 50.63391 | 2.12497 | 205° | 16km/h | 27081m | 6.7m/s | 0°C | 0% | 0hPa | 2.6V | 18:12:15 | 02:03:11 | 00:00:00 | |
| DM0DOS-11 | 2026-09-05 00:53:23 | 50.63426 | 2.12536 | 207° | 18km/h | 27015m | 6m/s | -48.2°C | 3.5% | 0hPa | 2.5V | 08:30:00 | 02:03:00 | 00:00:00 | |
| BIOWL1-15 | 2026-09-05 00:53:20 | 50.63418 | 2.12531 | 199° | 15km/h | 27028m | 5.6m/s | -48.2°C | 0.3% | 0hPa | 2.5V | 18:12:15 | 02:03:02 | 00:00:00 | |
| DL1XH-west | 2026-09-05 00:53:17 | 50.63430 | 2.12539 | 210° | 18km/h | 27010m | 5.2m/s | 0°C | 0% | 0hPa | 2.5V | 18:12:15 | 02:02:59 | 00:00:00 | |
| DM0DOS-11 | 2026-09-05 00:53:13 | 50.63470 | 2.12577 | 201° | 27km/h | 26956m | 6.6m/s | -48°C | 3.4% | 0hPa | 2.5V | 08:30:00 | 02:02:50 | 00:00:00 | |
| BIOWL1-15 | 2026-09-05 00:53:09 | 50.63477 | 2.12580 | 193° | 29km/h | 26950m | 5.3m/s | -47.9°C | 0.3% | 0hPa | 2.5V | 18:12:15 | 02:02:49 | 00:00:00 | |
| DL1XH-west | 2026-09-05 00:53:05 | 50.63493 | 2.12585 | 191° | 33km/h | 26938m | 6.5m/s | 0°C | 0% | 0hPa | 2.6V | 18:12:15 | 02:02:47 | 00:00:00 | |
| DO9LL-15 | 2026-09-05 00:53:05 | 50.63492 | 2.12585 | 191° | 33km/h | 26939m | 6.5m/s | -47.8°C | 3.4% | 0hPa | 2.6V | 00:00:00 | 02:02:47 | 00:00:00 | |
| BIOWL9-15 | 2026-09-05 00:53:04 | 50.63509 | 2.12591 | 195° | 31km/h | 26926m | 5.2m/s | -47.8°C | 0.9% | -1.0hPa | 2.6V | 00:00:00 | 00:00:00 | 00:00:00 | |
| DM0DOS-11 | 2026-09-05 00:53:03 | 50.63540 | 2.12604 | 206° | 22km/h | 26897m | 5.9m/s | -47.7°C | 3.4% | 0hPa | 2.6V | 08:30:00 | 02:02:40 | 00:00:00 | |
| BIOWL1-15 | 2026-09-05 00:52:57 | 50.63545 | 2.12609 | 215° | 26km/h | 26892m | 6.1m/s | -47.7°C | 0.3% | 0hPa | 2.5V | 18:12:15 | 02:02:39 | 00:00:00 | |
| DM0DOS-11 | 2026-09-05 00:52:53 | 50.63608 | 2.12632 | 176° | 20km/h | 26838m | 5.5m/s | -47.4°C | 3.3% | 0hPa | 2.6V | 08:30:00 | 02:02:30 | 00:00:00 | |
| BIOWL1-15 | 2026-09-05 00:52:49 | 50.63613 | 2.12631 | 170° | 18km/h | 26832m | 7.2m/s | -47.5°C | 0.2% | 0hPa | 2.6V | 18:12:15 | 02:02:29 | 00:00:00 | |
| DL1XH-west | 2026-09-05 00:52:46 | 50.63617 | 2.12630 | 168° | 15km/h | 26825m | 5.7m/s | 0°C | 0% | 0hPa | 2.5V | 18:12:15 | 02:02:28 | 00:00:00 | |
| DM0DOS-11 | 2026-09-05 00:52:43 | 50.63672 | 2.12660 | 181° | 40km/h | 26779m | 5.8m/s | -47.7°C | 3.3% | 0hPa | 2.5V | 08:30:00 | 02:02:20 | 00:00:00 | |
| BIOWL1-15 | 2026-09-05 00:52:37 | 50.63682 | 2.12660 | 173° | 35km/h | 26774m | 5.6m/s | -47.7°C | 0.3% | 0hPa | 2.6V | 18:12:15 | 02:02:19 | 00:00:00 | |
| DL1XH-west | 2026-09-05 00:52:31 | 50.63711 | 2.12640 | 135° | 13km/h | 26735m | 5.6m/s | 0°C | 0% | 0hPa | 2.5V | 18:12:15 | 02:02:13 | 00:00:00 | |
| BIOWL1-15 | 2026-09-05 00:52:31 | 50.63724 | 2.12639 | 189° | 20km/h | 26712m | 5.1m/s | -47.6°C | 0.3% | 0hPa | 2.5V | 18:12:15 | 02:02:09 | 00:00:00 | |
| DM0DOS-11 | 2026-09-05 00:52:29 | 50.63720 | 2.12638 | 193° | 16km/h | 26717m | 4.9m/s | -47.5°C | 3.3% | 0hPa | 2.5V | 08:30:00 | 02:02:10 | 00:00:00 | |
| DM0DOS-11 | 2026-09-05 00:52:22 | 50.63776 | 2.12601 | 128° | 26km/h | 26656m | 7.1m/s | -47.6°C | 3.3% | 0hPa | 2.5V | 08:30:00 | 02:02:00 | 00:00:00 | |
| DL1XH-west | 2026-09-05 00:52:17 | 50.63780 | 2.12593 | 125° | 24km/h | 26650m | 5.5m/s | 0°C | 0% | 0hPa | 2.5V | 18:12:15 | 02:01:59 | 00:00:00 | |
| BIOWL1-15 | 2026-09-05 00:52:16 | 50.63783 | 2.12586 | 129° | 22km/h | 26644m | 5.2m/s | -47.5°C | 0.2% | 0hPa | 2.5V | 18:12:15 | 02:01:58 | 00:00:00 | |
| DB0UT-7 | 2026-09-05 00:52:16 | 50.63783 | 2.12586 | 129° | 24km/h | 26644m | 5.2m/s | -47.5°C | 3.3% | 0hPa | 2.5V | 00:00:00 | 00:00:00 | 00:00:00 | |
| DM0DOS-11 | 2026-09-05 00:52:12 | 50.63821 | 2.12534 | 126° | 29km/h | 26597m | 6.3m/s | -47.4°C | 3.3% | 0hPa | 2.5V | 08:30:00 | 02:01:50 | 00:00:00 | |
| BIOWL1-15 | 2026-09-05 00:52:05 | 50.63835 | 2.12503 | 123° | 22km/h | 26572m | 6.8m/s | -47.5°C | 0.2% | 0hPa | 2.5V | 18:12:15 | 02:01:46 | 00:00:00 | |
| DL1XH-west | 2026-09-05 00:52:05 | 50.63832 | 2.12510 | 124° | 20km/h | 26578m | 5.9m/s | 0°C | 0% | 0hPa | 2.5V | 18:12:15 | 02:01:47 | 00:00:00 | |
| DM0DOS-11 | 2026-09-05 00:52:02 | 50.63852 | 2.12458 | 124° | 24km/h | 26534m | 6.1m/s | -47.5°C | 3.2% | 0hPa | 2.5V | 08:30:00 | 02:01:40 | 00:00:00 | |
| BIOWL1-15 | 2026-09-05 00:51:55 | 50.63863 | 2.12430 | 118° | 29km/h | 26515m | 5.6m/s | -47.6°C | 0.2% | 0hPa | 2.6V | 18:12:15 | 02:01:37 | 00:00:00 | |
| DM0DOS-11 | 2026-09-05 00:51:52 | 50.63870 | 2.12360 | 89° | 24km/h | 26473m | 6m/s | -47.8°C | 3.3% | 0hPa | 2.6V | 08:30:00 | 02:01:30 | 00:00:00 | |
| BIOWL1-15 | 2026-09-05 00:51:45 | 50.63872 | 2.12337 | 103° | 18km/h | 26455m | 5.6m/s | -47.9°C | 0.3% | 0hPa | 2.5V | 18:12:15 | 02:01:27 | 00:00:00 | |
| DM0DOS-11 | 2026-09-05 00:51:43 | 50.63876 | 2.12280 | 80° | 22km/h | 26411m | 6.6m/s | -47.9°C | 3.3% | 0hPa | 2.6V | 08:30:00 | 02:01:20 | 00:00:00 | |
| DL1XH-west | 2026-09-05 00:51:41 | 50.63876 | 2.12304 | 98° | 20km/h | 26430m | 6.9m/s | 0°C | 0% | 0hPa | 2.5V | 18:12:15 | 02:01:23 | 00:00:00 | |
| BIOWL1-15 | 2026-09-05 00:51:34 | 50.63872 | 2.12253 | 84° | 9km/h | 26387m | 6.3m/s | -48°C | 0.2% | 0hPa | 2.5V | 18:12:15 | 02:01:16 | 00:00:00 | |
| DM0DOS-11 | 2026-09-05 00:51:33 | 50.63877 | 2.12223 | 115° | 15km/h | 26351m | 6.5m/s | -48.2°C | 3.3% | 0hPa | 2.5V | 08:30:00 | 02:01:10 | 00:00:00 | |
| DO1YAY-16 | 2026-09-05 00:51:30 | 50.63876 | 2.12229 | 110° | 16km/h | 26357m | 5.4m/s | -48.1°C | 0.8% | -1.0hPa | 2.6V | 00:00:00 | 00:00:00 | 00:00:00 | |
| DB0DAN | 2026-09-05 00:51:25 | 50.63882 | 2.12207 | 110° | 16km/h | 26332m | 6.9m/s | 0°C | 0% | 0hPa | 2.6V | 00:00:00 | 00:00:00 | 00:00:00 | |
| BIOWL1-15 | 2026-09-05 00:51:23 | 50.63883 | 2.12194 | 86° | 16km/h | 26321m | 5.2m/s | -48.5°C | 0.3% | 0hPa | 2.5V | 18:12:15 | 02:01:05 | 00:00:00 | |
| DL1XH-west | 2026-09-05 00:51:13 | 50.63868 | 2.12162 | 120° | 5km/h | 26261m | 5.9m/s | 0°C | 0% | 0hPa | 2.5V | 18:12:15 | 02:00:55 | 00:00:00 | |
| BIOWL1-15 | 2026-09-05 00:51:13 | 50.63880 | 2.12147 | 151° | 4km/h | 26201m | 4.8m/s | -49.2°C | 0.4% | 0hPa | 2.6V | 18:12:15 | 02:00:45 | 00:00:00 | |
| BIOWL1-15 | 2026-09-05 00:51:04 | 50.63881 | 2.12147 | 173° | 5km/h | 26196m | 5.4m/s | -49.3°C | 0.4% | 0hPa | 2.6V | 18:12:15 | 02:00:44 | 00:00:00 | |
| DM0DOS-11 | 2026-09-05 00:51:03 | 50.63890 | 2.12144 | 121° | 13km/h | 26167m | 5.6m/s | -49.3°C | 3.6% | 0hPa | 2.6V | 08:30:00 | 02:00:39 | 00:00:00 | |
| DL1XH-west | 2026-09-05 00:50:59 | 50.63886 | 2.12149 | 179° | 7km/h | 26179m | 4.9m/s | 0°C | 0% | 0hPa | 2.5V | 18:12:15 | 02:00:41 | 00:00:00 | |
| DO1YAY-16 | 2026-09-05 00:50:59 | 50.63888 | 2.12148 | 147° | 9km/h | 26173m | 6.9m/s | -49.4°C | 0.9% | -1.0hPa | 2.5V | 00:00:00 | 00:00:00 | 00:00:00 | |
| DB0DAN | 2026-09-05 00:50:55 | 50.63892 | 2.12134 | 100° | 13km/h | 26157m | 5.6m/s | 0°C | 0% | 0hPa | 2.5V | 00:00:00 | 00:00:00 | 00:00:00 | |
| DM0DOS-11 | 2026-09-05 00:50:52 | 50.63896 | 2.12112 | 120° | 9km/h | 26116m | 5.6m/s | -49.3°C | 3.5% | 0hPa | 2.5V | 08:30:00 | 02:00:30 | 00:00:00 | |
| BIOWL1-15 | 2026-09-05 00:50:52 | 50.63894 | 2.12124 | 112° | 5km/h | 26140m | 4.9m/s | -49.3°C | 0.4% | 0hPa | 2.6V | 18:12:15 | 02:00:34 | 00:00:00 | |
| DL1XH-west | 2026-09-05 00:50:49 | 50.63895 | 2.12116 | 108° | 9km/h | 26122m | 5.4m/s | 0°C | 0% | 0hPa | 2.5V | 18:12:15 | 02:00:31 | 00:00:00 | |
| DO9LL-15 | 2026-09-05 00:50:48 | 50.63896 | 2.12112 | 121° | 13km/h | 26117m | 5.5m/s | -49.3°C | 3.5% | 0hPa | 2.5V | 00:00:00 | 02:00:30 | 00:00:00 | |
| DM0DOS-11 | 2026-09-05 00:50:42 | 50.63907 | 2.12063 | 98° | 20km/h | 26060m | 6.1m/s | -49.6°C | 3.5% | 0hPa | 2.5V | 08:30:00 | 02:00:20 | 00:00:00 | |
| BIOWL1-15 | 2026-09-05 00:50:42 | 50.63905 | 2.12076 | 108° | 16km/h | 26070m | 5m/s | -49.6°C | 0.4% | 0hPa | 2.6V | 18:12:15 | 02:00:22 | 00:00:00 | |
| HTAHTA | 2026-09-05 00:50:36 | 50.63909 | 2.12036 | 97° | 22km/h | 26044m | 4.3m/s | -49.7°C | 0.9% | -1.0hPa | 2.5V | 00:00:00 | 00:00:00 | 00:00:00 | |
| DM0DOS-11 | 2026-09-05 00:50:32 | 50.63910 | 2.12002 | 66° | 15km/h | 26005m | 4.8m/s | -49.8°C | 3.6% | 0hPa | 2.5V | 08:30:00 | 02:00:10 | 00:00:00 | |
| DL1XH-west | 2026-09-05 00:50:28 | 50.63910 | 2.12002 | 67° | 15km/h | 26005m | 4.8m/s | 0°C | 0% | 0hPa | 2.5V | 18:12:15 | 02:00:10 | 00:00:00 | |
| DO1YAY-16 | 2026-09-05 00:50:27 | 50.63907 | 2.11986 | 81° | 11km/h | 25988m | 5.2m/s | -49.9°C | 0.9% | -1.0hPa | 2.5V | 00:00:00 | 00:00:00 | 00:00:00 | |
| DM0DOS-11 | 2026-09-05 00:50:22 | 50.63910 | 2.11955 | 200° | 7km/h | 25949m | 4.8m/s | -50°C | 3.7% | 0hPa | 2.5V | 08:30:00 | 02:00:00 | 00:00:00 | |
| DL1XH-west | 2026-09-05 00:50:16 | 50.63912 | 2.11957 | 218° | 4km/h | 25938m | 5.6m/s | 0°C | 0% | 0hPa | 2.6V | 18:12:15 | 01:59:58 | 00:00:00 | |
| BIOWL1-15 | 2026-09-05 00:50:10 | 50.63913 | 2.11956 | 40° | 4km/h | 25895m | 4.9m/s | -50.3°C | 0.5% | 0hPa | 2.6V | 18:12:15 | 01:59:50 | 00:00:00 | |
| DL1XH-west | 2026-09-05 00:50:06 | 50.63913 | 2.11955 | 159° | 5km/h | 25884m | 5m/s | 0°C | 0% | 0hPa | 2.5V | 18:12:15 | 01:59:48 | 00:00:00 | |
| HARRO8 | 2026-09-05 00:50:05 | 50.63916 | 2.11953 | 152° | 4km/h | 25873m | 6.4m/s | -50.1°C | 1.0% | -1.0hPa | 2.5V | 00:00:00 | 00:00:00 | 00:00:00 | |
| HTAHTA | 2026-09-05 00:50:04 | 50.63916 | 2.11953 | 152° | 4km/h | 25873m | 6.4m/s | -50.1°C | 1.0% | -1.0hPa | 2.5V | 00:00:00 | 00:00:00 | 00:00:00 | |
| DM0DOS-11 | 2026-09-05 00:50:01 | 50.63926 | 2.11946 | 160° | 9km/h | 25839m | 6.1m/s | -50°C | 3.8% | 0hPa | 2.5V | 08:30:00 | 01:59:40 | 00:00:00 | |
| BIOWL1-15 | 2026-09-05 00:49:59 | 50.63928 | 2.11945 | 153° | 5km/h | 25833m | 5.5m/s | -50°C | 0.5% | 0hPa | 2.5V | 18:12:15 | 01:59:39 | 00:00:00 | |
| DL1XH-west | 2026-09-05 00:49:52 | 50.63935 | 2.11943 | 167° | 7km/h | 25806m | 5.1m/s | 0°C | 0% | 0hPa | 2.5V | 18:12:15 | 01:59:34 | 00:00:00 | |
| DB0UT-7 | 2026-09-05 00:49:51 | 50.63936 | 2.11942 | 147° | 22km/h | 25801m | 6.0m/s | -49.8°C | 3.7% | 0hPa | 2.5V | 00:00:00 | 01:59:33 | 00:00:00 | |
| DM0DOS-11 | 2026-09-05 00:49:49 | 50.63939 | 2.11933 | 118° | 13km/h | 25785m | 5.7m/s | -49.8°C | 3.7% | 0hPa | 2.5V | 08:30:00 | 01:59:30 | 00:00:00 | |
| BIOWL1-15 | 2026-09-05 00:49:48 | 50.63945 | 2.11923 | 147° | 18km/h | 25774m | 4.9m/s | -49.7°C | 0.5% | 0hPa | 2.5V | 18:12:15 | 01:59:28 | 00:00:00 | |
| DO9LL-15 | 2026-09-05 00:49:48 | 50.63939 | 2.11932 | 119° | 16km/h | 25785m | 5.6m/s | -49.7°C | 3.7% | 0hPa | 2.6V | 00:00:00 | 01:59:30 | 00:00:00 | |
| DM0DOS-11 | 2026-09-05 00:49:44 | 50.63972 | 2.11929 | 198° | 15km/h | 25730m | 4.9m/s | -49.6°C | 3.6% | 0hPa | 2.6V | 08:30:00 | 01:59:20 | 00:00:00 | |
| DL1XH-west | 2026-09-05 00:49:40 | 50.63965 | 2.11925 | 210° | 16km/h | 25741m | 6.3m/s | 0°C | 0% | 0hPa | 2.5V | 18:12:15 | 01:59:22 | 00:00:00 | |
| BIOWL1-15 | 2026-09-05 00:49:38 | 50.63978 | 2.11932 | 180° | 11km/h | 25719m | 4.9m/s | -49.5°C | 0.5% | 0hPa | 2.5V | 18:12:15 | 01:59:18 | 00:00:00 | |
| HARRO8 | 2026-09-05 00:49:34 | 50.63990 | 2.11927 | 165° | 20km/h | 25702m | 5.3m/s | -49.4°C | 0.9% | -1.0hPa | 2.5V | 00:00:00 | 00:00:00 | 00:00:00 | |
| DM0DOS-11 | 2026-09-05 00:49:31 | 50.64014 | 2.11925 | 185° | 18km/h | 25673m | 6.2m/s | -49.3°C | 3.5% | 0hPa | 2.5V | 08:30:00 | 01:59:10 | 00:00:00 | |
| DL1XH-west | 2026-09-05 00:49:29 | 50.64009 | 2.11924 | 186° | 16km/h | 25679m | 4.7m/s | 0°C | 0% | 0hPa | 2.5V | 18:12:15 | 01:59:11 | 00:00:00 | |
| BIOWL1-15 | 2026-09-05 00:49:27 | 50.64028 | 2.11924 | 175° | 15km/h | 25656m | 6.2m/s | -49.4°C | 0.4% | 0hPa | 2.6V | 18:12:15 | 01:59:07 | 00:00:00 | |
| BIOWL9-15 | 2026-09-05 00:49:26 | 50.64028 | 2.11924 | 174° | 15km/h | 25656m | 6.2m/s | -49.4°C | 0.9% | -1.0hPa | 2.5V | 00:00:00 | 00:00:00 | 00:00:00 | |
| DO1YAY-16 | 2026-09-05 00:49:25 | 50.64031 | 2.11924 | 172° | 11km/h | 25650m | 6.1m/s | -49.4°C | 0.9% | -1.0hPa | 2.5V | 00:00:00 | 00:00:00 | 00:00:00 | |
| DM0DOS-11 | 2026-09-05 00:49:19 | 50.64054 | 2.11916 | 170° | 20km/h | 25619m | 5.4m/s | -49.4°C | 3.5% | 0hPa | 2.5V | 08:30:00 | 01:59:00 | 00:00:00 | |
| BIOWL1-15 | 2026-09-05 00:49:14 | 50.64071 | 2.11909 | 159° | 18km/h | 25596m | 5.8m/s | -49.5°C | 0.3% | 0hPa | 2.6V | 18:12:15 | 01:58:56 | 00:00:00 | |
| BIOWL1-15 | 2026-09-05 00:49:05 | 50.64116 | 2.11834 | 133° | 18km/h | 25517m | 5.2m/s | -49.8°C | 0.5% | 0hPa | 2.5V | 18:12:15 | 01:58:42 | 00:00:00 | |
| BIOWL1-15 | 2026-09-05 00:48:52 | 50.64135 | 2.11768 | 95° | 33km/h | 25473m | 5.3m/s | -49.9°C | 0.5% | 0hPa | 2.5V | 18:12:15 | 01:58:34 | 00:00:00 | |
| DM0DOS-11 | 2026-09-05 00:48:49 | 50.64133 | 2.11725 | 83° | 24km/h | 25450m | 5.9m/s | -49.9°C | 3.6% | 0hPa | 2.6V | 08:30:00 | 01:58:30 | 00:00:00 | |
| DO9LL-15 | 2026-09-05 00:48:47 | 50.64132 | 2.11715 | 89° | 18km/h | 25445m | 5.2m/s | -49.8°C | 3.6% | 0hPa | 2.5V | 00:00:00 | 01:58:29 | 00:00:00 | |
| DM0DOS-11 | 2026-09-05 00:48:43 | 50.64130 | 2.11640 | 85° | 18km/h | 25396m | 6.5m/s | -50°C | 3.5% | 0hPa | 2.5V | 08:30:00 | 01:58:20 | 00:00:00 | |
| BIOWL1-15 | 2026-09-05 00:48:42 | 50.64129 | 2.11670 | 81° | 18km/h | 25418m | 5.4m/s | -49.9°C | 0.4% | 0hPa | 2.6V | 18:12:15 | 01:58:24 | 00:00:00 | |
| DB0UT-7 | 2026-09-05 00:48:38 | 50.64130 | 2.11640 | 86° | 16km/h | 25396m | 6.4m/s | -50.0°C | 3.5% | 0hPa | 2.5V | 00:00:00 | 00:00:00 | 00:00:00 | |
| HARRO8 | 2026-09-05 00:48:32 | 50.64123 | 2.11582 | 82° | 22km/h | 25357m | 6.4m/s | -50.3°C | 0.9% | -1.0hPa | 2.5V | 00:00:00 | 00:00:00 | 00:00:00 | |
| DM0DOS-11 | 2026-09-05 00:48:31 | 50.64120 | 2.11560 | 76° | 15km/h | 25340m | 5.9m/s | -50.4°C | 3.6% | 0hPa | 2.5V | 08:30:00 | 01:58:10 | 00:00:00 | |
| BIOWL1-15 | 2026-09-05 00:48:31 | 50.64123 | 2.11582 | 82° | 22km/h | 25357m | 6.4m/s | -50.3°C | 0.4% | 0hPa | 2.6V | 18:12:15 | 01:58:13 | 00:00:00 | |
| BIOWL1-15 | 2026-09-05 00:48:20 | 50.64110 | 2.11506 | 73° | 15km/h | 25284m | 6.1m/s | -51.1°C | 0.5% | 0hPa | 2.6V | 18:12:15 | 01:58:00 | 00:00:00 | |
| DM0DOS-11 | 2026-09-05 00:48:19 | 50.64110 | 2.11506 | 72° | 15km/h | 25284m | 6.1m/s | -51.1°C | 3.8% | 0hPa | 2.6V | 08:30:00 | 01:58:00 | 00:00:00 | |
| DO9LL-15 | 2026-09-05 00:48:17 | 50.64108 | 2.11500 | 64° | 9km/h | 25278m | 6.2m/s | -51.2°C | 3.8% | 0hPa | 2.6V | 00:00:00 | 01:57:59 | 00:00:00 | |
| DM0DOS-11 | 2026-09-05 00:48:13 | 50.64090 | 2.11466 | 40° | 5km/h | 25222m | 5.1m/s | -51.5°C | 3.9% | 0hPa | 2.6V | 08:30:00 | 01:57:49 | 00:00:00 | |
| BIOWL1-15 | 2026-09-05 00:48:12 | 50.64096 | 2.11470 | 19° | 13km/h | 25239m | 5.2m/s | -51.3°C | 0.6% | 0hPa | 2.5V | 18:12:15 | 01:57:52 | 00:00:00 | |
| DB0UT-7 | 2026-09-05 00:48:08 | 50.64091 | 2.11467 | 22° | 15km/h | 25228m | 6.5m/s | -51.4°C | 3.9% | 0hPa | 2.5V | 00:00:00 | 01:57:50 | 00:00:00 | |
| DM0DOS-11 | 2026-09-05 00:48:01 | 50.64083 | 2.11463 | 292° | 5km/h | 25172m | 6.4m/s | -51.5°C | 3.9% | 0hPa | 2.5V | 08:30:00 | 01:57:40 | 00:00:00 | |
| BIOWL1-15 | 2026-09-05 00:47:59 | 50.64084 | 2.11461 | 252° | 2km/h | 25178m | 5.4m/s | -51.5°C | 0.6% | 0hPa | 2.6V | 18:12:15 | 01:57:41 | 00:00:00 | |
| DM0DOS-11 | 2026-09-05 00:47:53 | 50.64074 | 2.11440 | 82° | 9km/h | 25117m | 6m/s | -51.6°C | 3.9% | 0hPa | 2.6V | 08:30:00 | 01:57:30 | 00:00:00 | |
| BIOWL1-15 | 2026-09-05 00:47:48 | 50.64079 | 2.11433 | 186° | 11km/h | 25099m | 6.3m/s | -51.7°C | 0.7% | 0hPa | 2.5V | 18:12:15 | 01:57:27 | 00:00:00 | |
| DO9LL-15 | 2026-09-05 00:47:47 | 50.64075 | 2.11436 | 117° | 13km/h | 25112m | 6.2m/s | -51.6°C | 4.0% | 0hPa | 2.6V | 00:00:00 | 01:57:29 | 00:00:00 | |
| DM0DOS-11 | 2026-09-05 00:47:42 | 50.64094 | 2.11438 | 112° | 7km/h | 25061m | 6.4m/s | -51.6°C | 4% | 0hPa | 2.5V | 08:30:00 | 01:57:20 | 00:00:00 | |
| BIOWL1-15 | 2026-09-05 00:47:38 | 50.64094 | 2.11438 | 113° | 7km/h | 25061m | 6.4m/s | -51.6°C | 0.7% | 0hPa | 2.5V | 18:12:15 | 01:57:20 | 00:00:00 | |
| DM0DOS-11 | 2026-09-05 00:47:32 | 50.64107 | 2.11403 | 134° | 7km/h | 25004m | 6.4m/s | -51.5°C | 3.9% | 0hPa | 2.6V | 08:30:00 | 01:57:10 | 00:00:00 | |
| BIOWL1-15 | 2026-09-05 00:47:27 | 50.64108 | 2.11401 | 127° | 11km/h | 24998m | 6m/s | -51.6°C | 0.6% | 0hPa | 2.5V | 18:12:15 | 01:57:09 | 00:00:00 | |
| DM0DOS-11 | 2026-09-05 00:47:22 | 50.64109 | 2.11349 | 62° | 22km/h | 24947m | 6.7m/s | -51.6°C | 3.9% | 0hPa | 2.6V | 08:30:00 | 01:57:00 | 00:00:00 | |
| BIOWL1-15 | 2026-09-05 00:47:19 | 50.64107 | 2.11342 | 55° | 18km/h | 24941m | 5.4m/s | -51.6°C | 0.6% | 0hPa | 2.6V | 18:12:15 | 01:56:59 | 00:00:00 | |
| DO9LL-15 | 2026-09-05 00:47:17 | 50.64107 | 2.11342 | 55° | 18km/h | 24941m | 5.4m/s | -51.6°C | 3.9% | 0hPa | 2.5V | 00:00:00 | 01:56:59 | 00:00:00 | |
| DM0DOS-11 | 2026-09-05 00:47:12 | 50.64114 | 2.11292 | 117° | 22km/h | 24892m | 6.5m/s | -51.6°C | 3.9% | 0hPa | 2.5V | 08:30:00 | 01:56:50 | 00:00:00 | |
| BIOWL1-15 | 2026-09-05 00:47:06 | 50.64119 | 2.11275 | 110° | 26km/h | 24881m | 4m/s | -51.6°C | 0.6% | 0hPa | 2.6V | 18:12:15 | 01:56:48 | 00:00:00 | |
| DM0DOS-11 | 2026-09-05 00:47:02 | 50.64118 | 2.11231 | 80° | 15km/h | 24838m | 5.5m/s | -51.6°C | 3.9% | 0hPa | 2.6V | 08:30:00 | 01:56:40 | 00:00:00 | |
| BIOWL1-15 | 2026-09-05 00:46:55 | 50.64115 | 2.11180 | 74° | 22km/h | 24798m | 6.7m/s | -51.8°C | 0.7% | 0hPa | 2.6V | 18:12:15 | 01:56:33 | 00:00:00 | |
| BIOWL1-15 | 2026-09-05 00:46:46 | 50.64091 | 2.11141 | 30° | 20km/h | 24756m | 7m/s | -51.7°C | 0.7% | 0hPa | 2.6V | 18:12:15 | 01:56:26 | 00:00:00 | |
| DM0DOS-11 | 2026-09-05 00:46:42 | 50.64073 | 2.11111 | 70° | 13km/h | 24722m | 6.8m/s | -51.6°C | 4% | 0hPa | 2.5V | 08:30:00 | 01:56:20 | 00:00:00 | |
| BIOWL1-15 | 2026-09-05 00:46:33 | 50.64068 | 2.11084 | 56° | 15km/h | 24687m | 6m/s | -51.6°C | 0.6% | 0hPa | 2.6V | 18:12:15 | 01:56:14 | 00:00:00 | |
| DM0DOS-11 | 2026-09-05 00:46:31 | 50.64058 | 2.11069 | 52° | 15km/h | 24666m | 6.2m/s | -51.5°C | 3.9% | 0hPa | 2.5V | 08:30:00 | 01:56:10 | 00:00:00 | |
| BIOWL1-15 | 2026-09-05 00:46:23 | 50.64055 | 2.11044 | 116° | 7km/h | 24638m | 5.4m/s | -51.4°C | 0.6% | 0hPa | 2.5V | 18:12:15 | 01:56:05 | 00:00:00 | |
| DM0DOS-11 | 2026-09-05 00:46:21 | 50.64061 | 2.11028 | 121° | 11km/h | 24610m | 5.7m/s | -51.2°C | 3.7% | 0hPa | 2.5V | 08:30:00 | 01:56:00 | 00:00:00 | |
| BIOWL1-15 | 2026-09-05 00:46:15 | 50.64064 | 2.11017 | 80° | 5km/h | 24582m | 5.2m/s | -51.6°C | 0.6% | 0hPa | 2.6V | 18:12:15 | 01:55:55 | 00:00:00 | |
| DM0DOS-11 | 2026-09-05 00:46:10 | 50.64071 | 2.11016 | 173° | 13km/h | 24553m | 6.5m/s | -51.8°C | 3.9% | 0hPa | 2.6V | 08:30:00 | 01:55:50 | 00:00:00 | |
| DJ2DS-15 | 2026-09-05 00:46:05 | 50.64081 | 2.11012 | 167° | 13km/h | 24537m | 6.3m/s | -51.8°C | 1.0% | -1.0hPa | 2.5V | 00:00:00 | 00:00:00 | 00:00:00 | |
| DM0DOS-11 | 2026-09-05 00:46:02 | 50.64088 | 2.11008 | 122° | 2km/h | 24497m | 6.2m/s | -52°C | 4% | 0hPa | 2.5V | 08:30:00 | 01:55:40 | 00:00:00 | |
| BIOWL1-15 | 2026-09-05 00:46:01 | 50.64088 | 2.11012 | 119° | 2km/h | 24514m | 6.4m/s | -51.9°C | 0.7% | 0hPa | 2.6V | 18:12:15 | 01:55:43 | 00:00:00 | |
| BIOWL1-15 | 2026-09-05 00:45:50 | 50.64098 | 2.10990 | 167° | 7km/h | 24453m | 5.3m/s | -52.2°C | 0.7% | 0hPa | 2.6V | 18:12:15 | 01:55:32 | 00:00:00 | |
| DM0DOS-11 | 2026-09-05 00:45:49 | 50.64100 | 2.10989 | 125° | 4km/h | 24441m | 6.6m/s | -52.2°C | 4% | 0hPa | 2.6V | 08:30:00 | 01:55:30 | 00:00:00 | |
| BIOWL9-15 | 2026-09-05 00:45:49 | 50.64100 | 2.10989 | 125° | 2km/h | 24442m | 6.6m/s | -52.2°C | 1.1% | -1.0hPa | 2.6V | 00:00:00 | 00:00:00 | 00:00:00 | |
| AU51GT2 | 2026-09-05 00:45:48 | 50.64100 | 2.10989 | 125° | 2km/h | 24442m | 6.6m/s | -52.2°C | 1.1% | -1.0hPa | 2.6V | 00:00:00 | 00:00:00 | 00:00:00 | |
| DO9LL-15 | 2026-09-05 00:45:47 | 50.64100 | 2.10988 | 71° | 11km/h | 24436m | 5.4m/s | -52.2°C | 4.0% | 0hPa | 2.6V | 00:00:00 | 01:55:29 | 00:00:00 | |
| DM0DOS-11 | 2026-09-05 00:45:43 | 50.64106 | 2.10956 | 138° | 15km/h | 24385m | 5.1m/s | -52.3°C | 4% | 0hPa | 2.6V | 08:30:00 | 01:55:20 | 00:00:00 | |
| BIOWL1-15 | 2026-09-05 00:45:41 | 50.64104 | 2.10960 | 127° | 15km/h | 24390m | 6.2m/s | -52.3°C | 0.7% | 0hPa | 2.5V | 18:12:15 | 01:55:21 | 00:00:00 | |
| DM0DOS-11 | 2026-09-05 00:45:31 | 50.64108 | 2.10923 | 60° | 18km/h | 24329m | 5.8m/s | -52.5°C | 4.1% | 0hPa | 2.5V | 08:30:00 | 01:55:10 | 00:00:00 | |
| BIOWL1-15 | 2026-09-05 00:45:29 | 50.64110 | 2.10928 | 58° | 15km/h | 24335m | 5.8m/s | -52.5°C | 0.7% | 0hPa | 2.5V | 18:12:15 | 01:55:11 | 00:00:00 | |
| HARRO8 | 2026-09-05 00:45:25 | 50.64104 | 2.10901 | 96° | 16km/h | 24313m | 5.8m/s | -52.5°C | 1.0% | -1.0hPa | 2.5V | 00:00:00 | 00:00:00 | 00:00:00 | |
| DM0DOS-11 | 2026-09-05 00:45:19 | 50.64112 | 2.10872 | 187° | 2km/h | 24273m | 5.3m/s | -52.6°C | 4.1% | 0hPa | 2.5V | 08:30:00 | 01:55:00 | 00:00:00 | |
| BIOWL1-15 | 2026-09-05 00:45:18 | 50.64112 | 2.10872 | 188° | 2km/h | 24273m | 5.3m/s | -52.6°C | 0.7% | 0hPa | 2.5V | 18:12:15 | 01:55:00 | 00:00:00 | |
| DO1YAY-16 | 2026-09-05 00:45:17 | 50.64111 | 2.10872 | 14° | 5km/h | 24261m | 6.8m/s | -52.5°C | 1.1% | -1.0hPa | 2.5V | 00:00:00 | 00:00:00 | 00:00:00 | |
| DB0UT-7 | 2026-09-05 00:45:13 | 50.64103 | 2.10864 | 43° | 9km/h | 24244m | 6.4m/s | -52.5°C | 4.1% | 0hPa | 2.5V | 00:00:00 | 00:00:00 | 08:30:00 | |
| DM0DOS-11 | 2026-09-05 00:45:09 | 50.64098 | 2.10840 | 75° | 15km/h | 24217m | 5.1m/s | -52.7°C | 4.2% | 0hPa | 2.5V | 08:30:00 | 01:54:50 | 00:00:00 | |
| BIOWL1-15 | 2026-09-05 00:45:07 | 50.64097 | 2.10830 | 90° | 9km/h | 24207m | 6.1m/s | -52.7°C | 0.8% | 0hPa | 2.6V | 18:12:15 | 01:54:48 | 00:00:00 | |
| DM0DOS-11 | 2026-09-05 00:44:59 | 50.64086 | 2.10827 | 16° | 9km/h | 24164m | 5.6m/s | -52.5°C | 4.1% | 0hPa | 2.6V | 08:30:00 | 01:54:40 | 00:00:00 | |
| BIOWL1-15 | 2026-09-05 00:44:57 | 50.64082 | 2.10824 | 45° | 5km/h | 24147m | 6.7m/s | -52.4°C | 0.8% | 0hPa | 2.5V | 18:12:15 | 01:54:37 | 00:00:00 | |
| HTAHTA | 2026-09-05 00:44:54 | 50.64081 | 2.10820 | 196° | 2km/h | 24129m | 6.9m/s | -52.4°C | 1.1% | -1.0hPa | 2.5V | 00:00:00 | 00:00:00 | 00:00:00 | |
| DM0DOS-11 | 2026-09-05 00:44:53 | 50.64084 | 2.10826 | 338° | 4km/h | 24108m | 5.4m/s | -52.6°C | 4.1% | 0hPa | 2.5V | 08:30:00 | 01:54:30 | 00:00:00 | |
| BIOWL1-15 | 2026-09-05 00:44:48 | 50.64081 | 2.10826 | 354° | 9km/h | 24097m | 5.2m/s | -52.7°C | 0.8% | 0hPa | 2.6V | 18:12:15 | 01:54:28 | 00:00:00 | |
| BIOWL9-15 | 2026-09-05 00:44:47 | 50.64081 | 2.10826 | 353° | 7km/h | 24097m | 5.2m/s | -52.7°C | 1.1% | -1.0hPa | 2.5V | 00:00:00 | 00:00:00 | 00:00:00 | |
| AU51GT2 | 2026-09-05 00:44:46 | 50.64081 | 2.10826 | 353° | 7km/h | 24097m | 5.2m/s | -52.7°C | 1.1% | -1.0hPa | 2.5V | 00:00:00 | 00:00:00 | 00:00:00 | |
| DO1YAY-16 | 2026-09-05 00:44:45 | 50.64079 | 2.10827 | 340° | 9km/h | 24091m | 6.4m/s | -52.6°C | 1.1% | -1.0hPa | 2.5V | 00:00:00 | 00:00:00 | 00:00:00 | |
| DB0UT-7 | 2026-09-05 00:44:43 | 50.64074 | 2.10831 | 334° | 15km/h | 24080m | 5.5m/s | -52.6°C | 4.2% | 0hPa | 2.5V | 00:00:00 | 01:54:25 | 00:00:00 | |
| DM0DOS-11 | 2026-09-05 00:44:42 | 50.64071 | 2.10845 | 231° | 15km/h | 24053m | 4.3m/s | -52.5°C | 4.2% | 0hPa | 2.5V | 08:30:00 | 01:54:20 | 00:00:00 | |
| BIOWL1-15 | 2026-09-05 00:44:35 | 50.64078 | 2.10854 | 203° | 7km/h | 24038m | 5m/s | -52.5°C | 0.8% | 0hPa | 2.6V | 18:12:15 | 01:54:17 | 00:00:00 | |
| DM0DOS-11 | 2026-09-05 00:44:30 | 50.64077 | 2.10862 | 242° | 4km/h | 24001m | 4.9m/s | -52.3°C | 4.2% | 0hPa | 2.5V | 08:30:00 | 01:54:10 | 00:00:00 | |
| BIOWL1-15 | 2026-09-05 00:44:25 | 50.64103 | 2.10882 | 193° | 9km/h | 23945m | 6.6m/s | -52°C | 0.7% | 0hPa | 2.5V | 18:12:15 | 01:54:00 | 00:00:00 | |
| HARRO8 | 2026-09-05 00:44:23 | 50.64088 | 2.10875 | 191° | 13km/h | 23973m | 5.3m/s | -52.1°C | 1.1% | -1.0hPa | 2.5V | 00:00:00 | 00:00:00 | 00:00:00 | |
| DM0DOS-11 | 2026-09-05 00:44:19 | 50.64103 | 2.10882 | 192° | 9km/h | 23945m | 6.6m/s | -52°C | 4.1% | 0hPa | 2.5V | 08:30:00 | 01:54:00 | 00:00:00 | |
| BIOWL1-15 | 2026-09-05 00:44:11 | 50.64134 | 2.10908 | 220° | 9km/h | 23884m | 5.2m/s | -51.6°C | 0.7% | 0hPa | 2.6V | 18:12:15 | 01:53:49 | 00:00:00 | |
| DM0DOS-11 | 2026-09-05 00:44:09 | 50.64132 | 2.10905 | 227° | 13km/h | 23889m | 4.3m/s | -51.6°C | 4% | 0hPa | 2.6V | 08:30:00 | 01:53:50 | 00:00:00 | |
| BIOWL1-15 | 2026-09-05 00:44:01 | 50.64145 | 2.10908 | 180° | 15km/h | 23851m | 5.2m/s | -51.4°C | 0.6% | 0hPa | 2.6V | 18:12:15 | 01:53:43 | 00:00:00 | |
| DM0DOS-11 | 2026-09-05 00:43:58 | 50.64170 | 2.10908 | 197° | 20km/h | 23822m | 5m/s | -51.2°C | 3.9% | 0hPa | 2.5V | 08:30:00 | 01:53:38 | 00:00:00 | |
| BIOWL1-15 | 2026-09-05 00:43:50 | 50.64187 | 2.10907 | 139° | 11km/h | 23792m | 5.3m/s | -51.1°C | 0.6% | 0hPa | 2.5V | 18:12:15 | 01:53:32 | 00:00:00 | |
| DM0DOS-11 | 2026-09-05 00:43:48 | 50.64199 | 2.10900 | 160° | 18km/h | 23771m | 6.2m/s | -51°C | 3.8% | 0hPa | 2.5V | 08:30:00 | 01:53:28 | 00:00:00 | |
| AU51GT2 | 2026-09-05 00:43:44 | 50.64208 | 2.10896 | 168° | 18km/h | 23760m | 5.4m/s | -51.1°C | 1.0% | -1.0hPa | 2.5V | 00:00:00 | 00:00:00 | 00:00:00 | |
| BIOWL1-15 | 2026-09-05 00:43:39 | 50.64230 | 2.10893 | 157° | 18km/h | 23734m | 5.6m/s | -51.1°C | 0.5% | 0hPa | 2.5V | 18:12:15 | 01:53:21 | 00:00:00 | |
| DM0DOS-11 | 2026-09-05 00:43:38 | 50.64241 | 2.10881 | 140° | 15km/h | 23718m | 5.8m/s | -51.1°C | 3.7% | 0hPa | 2.6V | 08:30:00 | 01:53:18 | 00:00:00 | |
| DB0UT-7 | 2026-09-05 00:43:34 | 50.64247 | 2.10874 | 144° | 15km/h | 23708m | 4.8m/s | -51.1°C | 3.7% | 0hPa | 2.5V | 00:00:00 | 00:00:00 | 00:00:00 | |
| DM0DOS-11 | 2026-09-05 00:43:28 | 50.64275 | 2.10848 | 142° | 16km/h | 23665m | 5.7m/s | -51.5°C | 3.9% | 0hPa | 2.5V | 08:30:00 | 01:53:08 | 00:00:00 | |
| BIOWL1-15 | 2026-09-05 00:43:28 | 50.64269 | 2.10853 | 161° | 13km/h | 23676m | 4.5m/s | -51.4°C | 0.6% | 0hPa | 2.6V | 18:12:15 | 01:53:10 | 00:00:00 | |
| HTAHTA | 2026-09-05 00:43:21 | 50.64294 | 2.10804 | 109° | 16km/h | 23624m | 6.0m/s | -51.7°C | 1.1% | -1.0hPa | 2.6V | 00:00:00 | 00:00:00 | 00:00:00 | |
| DM0DOS-11 | 2026-09-05 00:43:18 | 50.64298 | 2.10793 | 128° | 15km/h | 23612m | 4.2m/s | -51.6°C | 3.9% | 0hPa | 2.6V | 08:30:00 | 01:52:58 | 00:00:00 | |
| BIOWL1-15 | 2026-09-05 00:43:18 | 50.64294 | 2.10804 | 109° | 18km/h | 23624m | 6m/s | -51.7°C | 0.7% | 0hPa | 2.5V | 18:12:15 | 01:53:00 | 00:00:00 | |
| BIOWL1-15 | 2026-09-05 00:43:07 | 50.64306 | 2.10772 | 152° | 9km/h | 23565m | 4.8m/s | -51.9°C | 0.7% | 0hPa | 2.5V | 18:12:15 | 01:52:49 | 00:00:00 | |
| DJ2DS-15 | 2026-09-05 00:43:05 | 50.64313 | 2.10761 | 130° | 16km/h | 23549m | 4.8m/s | -51.9°C | 1.1% | -1.0hPa | 2.6V | 00:00:00 | 00:00:00 | 00:00:00 | |
| DB0UT-7 | 2026-09-05 00:43:04 | 50.64313 | 2.10761 | 131° | 20km/h | 23549m | 4.7m/s | -51.9°C | 4.0% | 0hPa | 2.6V | 00:00:00 | 01:52:46 | 00:00:00 | |
| DM0DOS-11 | 2026-09-05 00:43:02 | 50.64330 | 2.10734 | 134° | 15km/h | 23521m | 5.1m/s | -51.9°C | 4% | 0hPa | 2.5V | 08:30:00 | 01:52:41 | 00:00:00 | |
| BIOWL1-15 | 2026-09-05 00:42:56 | 50.64340 | 2.10723 | 146° | 18km/h | 23504m | 4.5m/s | -51.9°C | 0.7% | 0hPa | 2.6V | 18:12:15 | 01:52:38 | 00:00:00 | |
| DM0DOS-11 | 2026-09-05 00:42:52 | 50.64361 | 2.10675 | 116° | 24km/h | 23466m | 6.5m/s | -51.8°C | 3.9% | 0hPa | 2.6V | 08:30:00 | 01:52:31 | 00:00:00 | |
| BIOWL1-15 | 2026-09-05 00:42:46 | 50.64367 | 2.10651 | 111° | 20km/h | 23448m | 6.5m/s | -51.8°C | 0.7% | 0hPa | 2.5V | 18:12:15 | 01:52:28 | 00:00:00 | |
| DM0DOS-11 | 2026-09-05 00:42:42 | 50.64372 | 2.10620 | 111° | 11km/h | 23410m | 5.8m/s | -51.8°C | 4% | 0hPa | 2.5V | 08:30:00 | 01:52:21 | 00:00:00 | |
| BIOWL1-15 | 2026-09-05 00:42:35 | 50.64378 | 2.10592 | 98° | 24km/h | 23389m | 5.3m/s | -51.7°C | 0.7% | 0hPa | 2.5V | 18:12:15 | 01:52:17 | 00:00:00 | |
| DM0DOS-11 | 2026-09-05 00:42:30 | 50.64381 | 2.10535 | 75° | 18km/h | 23355m | 5.7m/s | -51.7°C | 3.9% | 0hPa | 2.5V | 08:30:00 | 01:52:11 | 00:00:00 | |
| DJ2DS-15 | 2026-09-05 00:42:28 | 50.64380 | 2.10529 | 72° | 15km/h | 23350m | 4.9m/s | -51.8°C | 1.1% | -1.0hPa | 2.5V | 00:00:00 | 00:00:00 | 00:00:00 | |
| DM0DOS-11 | 2026-09-05 00:42:24 | 50.64391 | 2.10469 | 106° | 26km/h | 23299m | 6.4m/s | -52°C | 4% | 0hPa | 2.5V | 08:30:00 | 01:52:01 | 00:00:00 | |
| BIOWL1-15 | 2026-09-05 00:42:24 | 50.64380 | 2.10508 | 102° | 13km/h | 23327m | 6.1m/s | -51.9°C | 0.7% | 0hPa | 2.6V | 18:12:15 | 01:52:06 | 00:00:00 | |
| HARRO8 | 2026-09-05 00:42:19 | 50.64391 | 2.10469 | 106° | 26km/h | 23299m | 6.4m/s | -52.0°C | 1.1% | -1.0hPa | 2.5V | 00:00:00 | 00:00:00 | 00:00:00 | |
| BIOWL1-15 | 2026-09-05 00:42:13 | 50.64389 | 2.10332 | 86° | 26km/h | 23200m | 5.3m/s | -52.1°C | 0.6% | 0hPa | 2.5V | 18:12:15 | 01:51:43 | 00:00:00 | |
| BIOWL9-15 | 2026-09-05 00:42:11 | 50.64389 | 2.10407 | 60° | 11km/h | 23255m | 5.1m/s | -51.9°C | 1.0% | -1.0hPa | 2.5V | 00:00:00 | 00:00:00 | 00:00:00 | |
| DM0DOS-11 | 2026-09-05 00:42:10 | 50.64388 | 2.10398 | 95° | 13km/h | 23243m | 5.3m/s | -51.8°C | 3.9% | 0hPa | 2.5V | 08:30:00 | 01:51:51 | 00:00:00 | |
| DM0DOS-11 | 2026-09-05 00:42:05 | 50.64387 | 2.10312 | 72° | 24km/h | 23188m | 5m/s | -52.2°C | 4% | 0hPa | 2.6V | 08:30:00 | 01:51:41 | 00:00:00 | |
| BIOWL1-15 | 2026-09-05 00:42:01 | 50.64387 | 2.10312 | 73° | 24km/h | 23188m | 5m/s | -52.2°C | 0.6% | 0hPa | 2.6V | 18:12:15 | 01:51:41 | 00:00:00 | |
| DM0DOS-11 | 2026-09-05 00:41:50 | 50.64392 | 2.10246 | 102° | 29km/h | 23133m | 5m/s | -52.7°C | 4.1% | 0hPa | 2.5V | 08:30:00 | 01:51:31 | 00:00:00 | |
| BIOWL1-15 | 2026-09-05 00:41:48 | 50.64393 | 2.10234 | 98° | 31km/h | 23128m | 6.5m/s | -52.7°C | 0.7% | 0hPa | 2.5V | 18:12:15 | 01:51:30 | 00:00:00 | |
| HTAHTA | 2026-09-05 00:41:48 | 50.64394 | 2.10197 | 93° | 31km/h | 23111m | 5.6m/s | -52.8°C | 1.1% | -1.0hPa | 2.5V | 00:00:00 | 00:00:00 | 00:00:00 | |
| DO9LL-15 | 2026-09-05 00:41:47 | 50.64394 | 2.10222 | 92° | 29km/h | 23122m | 5.7m/s | -52.7°C | 4.1% | 0hPa | 2.5V | 00:00:00 | 01:51:29 | 00:00:00 | |
| DM0DOS-11 | 2026-09-05 00:41:44 | 50.64397 | 2.10120 | 93° | 27km/h | 23077m | 6.4m/s | -52.8°C | 4.1% | 0hPa | 2.6V | 08:30:00 | 01:51:21 | 00:00:00 | |
| BIOWL1-15 | 2026-09-05 00:41:37 | 50.64386 | 2.09989 | 80° | 33km/h | 23003m | 5.5m/s | -53.2°C | 0.8% | 0hPa | 2.6V | 18:12:15 | 01:51:08 | 00:00:00 | |
| DM0DOS-11 | 2026-09-05 00:41:32 | 50.64391 | 2.10026 | 78° | 29km/h | 23020m | 6.2m/s | -52.8°C | 4% | 0hPa | 2.5V | 08:30:00 | 01:51:11 | 00:00:00 | |
| BIOWL1-15 | 2026-09-05 00:41:24 | 50.64382 | 2.09963 | 74° | 33km/h | 22993m | 6.3m/s | -53.2°C | 0.8% | 0hPa | 2.5V | 18:12:15 | 01:51:06 | 00:00:00 | |
| DM0DOS-11 | 2026-09-05 00:41:24 | 50.64370 | 2.09908 | 76° | 26km/h | 22964m | 4.3m/s | -53.2°C | 4.3% | 0hPa | 2.6V | 08:30:00 | 01:51:01 | 00:00:00 | |
| BIOWL1-15 | 2026-09-05 00:41:14 | 50.64355 | 2.09861 | 63° | 33km/h | 22936m | 6.4m/s | -53.4°C | 0.8% | 0hPa | 2.5V | 18:12:15 | 01:50:56 | 00:00:00 | |
| BIOWL1-15 | 2026-09-05 00:41:04 | 50.64333 | 2.09761 | 64° | 15km/h | 22877m | 5m/s | -53°C | 0.8% | 0hPa | 2.6V | 18:12:15 | 01:50:46 | 00:00:00 | |
| BIOWL1-15 | 2026-09-05 00:40:53 | 50.64295 | 2.09677 | 64° | 22km/h | 22815m | 5.1m/s | -52.7°C | 0.8% | 0hPa | 2.6V | 18:12:15 | 01:50:35 | 00:00:00 | |
| DM0DOS-11 | 2026-09-05 00:40:50 | 50.64284 | 2.09650 | 56° | 20km/h | 22793m | 6.2m/s | -52.5°C | 4.1% | 0hPa | 2.5V | 08:30:00 | 01:50:31 | 00:00:00 | |
| HARRO8 | 2026-09-05 00:40:46 | 50.64271 | 2.09626 | 33° | 20km/h | 22769m | 4.9m/s | -52.4°C | 1.1% | -1.0hPa | 2.6V | 00:00:00 | 00:00:00 | 00:00:00 | |
| DM0DOS-11 | 2026-09-05 00:40:44 | 50.64250 | 2.09600 | 34° | 18km/h | 22737m | 4.8m/s | -52.4°C | 4% | 0hPa | 2.6V | 08:30:00 | 01:50:21 | 00:00:00 | |
| BIOWL1-15 | 2026-09-05 00:40:43 | 50.64263 | 2.09617 | 39° | 18km/h | 22758m | 6.4m/s | -52.3°C | 0.7% | 0hPa | 2.5V | 18:12:15 | 01:50:25 | 00:00:00 | |
| BIOWL1-15 | 2026-09-05 00:40:32 | 50.64233 | 2.09553 | 27° | 15km/h | 22695m | 5.3m/s | -52.7°C | 0.7% | 0hPa | 2.6V | 18:12:15 | 01:50:13 | 00:00:00 | |
| DM0DOS-11 | 2026-09-05 00:40:31 | 50.64225 | 2.09547 | 18° | 20km/h | 22683m | 5.1m/s | -52.6°C | 4.2% | 0hPa | 2.5V | 08:30:00 | 01:50:11 | 00:00:00 | |
| BIOWL1-15 | 2026-09-05 00:40:24 | 50.64200 | 2.09540 | 86° | 11km/h | 22646m | 5m/s | -52.4°C | 0.8% | 0hPa | 2.5V | 18:12:15 | 01:50:04 | 00:00:00 | |
| DM0DOS-11 | 2026-09-05 00:40:24 | 50.64203 | 2.09523 | 104° | 5km/h | 22625m | 4.2m/s | -52.3°C | 4.1% | 0hPa | 2.6V | 08:30:00 | 01:50:00 | 00:00:00 | |
| BIOWL1-15 | 2026-09-05 00:40:16 | 50.64194 | 2.09513 | 137° | 2km/h | 22584m | 5.1m/s | -52.3°C | 0.7% | 0hPa | 2.6V | 18:12:15 | 01:49:52 | 00:00:00 | |
| HARRO8 | 2026-09-05 00:40:15 | 50.64197 | 2.09515 | 19° | 9km/h | 22605m | 4.4m/s | -52.3°C | 1.1% | -1.0hPa | 2.5V | 00:00:00 | 00:00:00 | 00:00:00 | |
| HTAHTA | 2026-09-05 00:40:14 | 50.64197 | 2.09515 | 19° | 9km/h | 22605m | 4.4m/s | -52.3°C | 1.1% | -1.0hPa | 2.5V | 00:00:00 | 00:00:00 | 00:00:00 | |
| DM0DOS-11 | 2026-09-05 00:40:13 | 50.64194 | 2.09510 | 106° | 4km/h | 22574m | 4.7m/s | -52.3°C | 4.1% | 0hPa | 2.5V | 08:30:00 | 01:49:50 | 00:00:00 | |
| AU51GT2 | 2026-09-05 00:40:07 | 50.64196 | 2.09509 | 189° | 2km/h | 22563m | 5.6m/s | -52.3°C | 1.1% | -1.0hPa | 2.6V | 00:00:00 | 00:00:00 | 00:00:00 | |
| DO1YAY-16 | 2026-09-05 00:40:06 | 50.64196 | 2.09509 | 189° | 2km/h | 22563m | 5.6m/s | -52.3°C | 1.1% | -1.0hPa | 2.6V | 00:00:00 | 00:00:00 | 00:00:00 | |
| DB0UT-7 | 2026-09-05 00:40:05 | 50.64196 | 2.09510 | 199° | 5km/h | 22558m | 4.5m/s | -52.2°C | 4.1% | 0hPa | 2.6V | 00:00:00 | 00:00:00 | 00:00:00 | |
| DJ2DS-15 | 2026-09-05 00:40:04 | 50.64196 | 2.09509 | 22° | 2km/h | 22552m | 6.1m/s | -52.2°C | 1.1% | -1.0hPa | 2.5V | 00:00:00 | 00:00:00 | 00:00:00 | |
| DM0DOS-11 | 2026-09-05 00:40:03 | 50.64196 | 2.09510 | 132° | 2km/h | 22520m | 6.3m/s | -52°C | 4% | 0hPa | 2.5V | 08:30:00 | 01:49:40 | 00:00:00 | |
| BIOWL1-15 | 2026-09-05 00:40:01 | 50.64195 | 2.09508 | 245° | 0km/h | 22536m | 6.2m/s | -52.1°C | 0.7% | 0hPa | 2.5V | 18:12:15 | 01:49:43 | 00:00:00 | |
| BIOWL1-15 | 2026-09-05 00:39:57 | 50.64200 | 2.09506 | 222° | 4km/h | 22483m | 4.4m/s | -52°C | 0.7% | 0hPa | 2.5V | 18:12:15 | 01:49:33 | 00:00:00 | |
| DM0DOS-11 | 2026-09-05 00:39:53 | 50.64204 | 2.09514 | 233° | 11km/h | 22468m | 4.4m/s | -51.9°C | 4% | 0hPa | 2.5V | 08:30:00 | 01:49:30 | 00:00:00 | |
| BIOWL1-15 | 2026-09-05 00:39:41 | 50.64229 | 2.09517 | 179° | 15km/h | 22389m | 5.2m/s | -51.9°C | 0.6% | 0hPa | 2.7V | 18:12:15 | 01:49:15 | 00:00:00 | |
| DM0DOS-11 | 2026-09-05 00:39:40 | 50.64214 | 2.09515 | 197° | 5km/h | 22416m | 6m/s | -51.9°C | 4% | 0hPa | 2.6V | 08:30:00 | 01:49:20 | 00:00:00 | |
| BIOWL9-15 | 2026-09-05 00:39:36 | 50.64222 | 2.09516 | 186° | 13km/h | 22401m | 6.4m/s | -51.9°C | 1.1% | -1.0hPa | 2.5V | 00:00:00 | 00:00:00 | 00:00:00 | |
| DB0UT-7 | 2026-09-05 00:39:35 | 50.64222 | 2.09516 | 187° | 29km/h | 22401m | 6.4m/s | -51.8°C | 3.9% | 0hPa | 2.5V | 00:00:00 | 01:49:17 | 00:00:00 | |
| DM0DOS-11 | 2026-09-05 00:39:30 | 50.64247 | 2.09504 | 156° | 20km/h | 22362m | 5m/s | -51.9°C | 3.9% | 0hPa | 2.5V | 08:30:00 | 01:49:10 | 00:00:00 | |
| BIOWL1-15 | 2026-09-05 00:39:23 | 50.64277 | 2.09478 | 167° | 22km/h | 22326m | 3.6m/s | -52.2°C | 0.6% | 0hPa | 2.6V | 18:12:15 | 01:49:03 | 00:00:00 | |
| DM0DOS-11 | 2026-09-05 00:39:20 | 50.64292 | 2.09469 | 140° | 22km/h | 22311m | 5.2m/s | -52.3°C | 3.9% | 0hPa | 2.6V | 08:30:00 | 01:49:00 | 00:00:00 | |
| BIOWL1-15 | 2026-09-05 00:39:11 | 50.64327 | 2.09412 | 134° | 29km/h | 22275m | 4.4m/s | -52.9°C | 0.7% | 0hPa | 2.6V | 18:12:15 | 01:48:53 | 00:00:00 | |
| DM0DOS-11 | 2026-09-05 00:39:10 | 50.64344 | 2.09390 | 142° | 29km/h | 22259m | 5m/s | -52.9°C | 4% | 0hPa | 2.5V | 08:30:00 | 01:48:50 | 00:00:00 | |
| BIOWL1-15 | 2026-09-05 00:39:01 | 50.64387 | 2.09306 | 118° | 40km/h | 22217m | 4.5m/s | -53.3°C | 0.8% | 0hPa | 2.6V | 18:12:15 | 01:48:42 | 00:00:00 | |
| DM0DOS-11 | 2026-09-05 00:39:00 | 50.64398 | 2.09279 | 125° | 40km/h | 22207m | 5m/s | -53.3°C | 4.1% | 0hPa | 2.5V | 08:30:00 | 01:48:40 | 00:00:00 | |
| DM0DOS-11 | 2026-09-05 00:38:54 | 50.64444 | 2.09163 | 110° | 38km/h | 22156m | 4.5m/s | -53.7°C | 4.3% | 0hPa | 2.5V | 08:30:00 | 01:48:30 | 00:00:00 | |
| BIOWL1-15 | 2026-09-05 00:38:51 | 50.64447 | 2.09149 | 112° | 38km/h | 22151m | 5.2m/s | -53.7°C | 0.8% | 0hPa | 2.6V | 18:12:15 | 01:48:29 | 00:00:00 | |
| BIOWL7-15 | 2026-09-05 00:38:50 | 50.64431 | 2.09200 | 128° | 33km/h | 22172m | 4.3m/s | -53.6°C | 0% | 0hPa | 2.6V | 00:00:00 | 00:00:00 | 00:00:00 | |
| DO9LL-15 | 2026-09-05 00:38:47 | 50.64447 | 2.09149 | 113° | 35km/h | 22152m | 5.1m/s | -53.6°C | 4.2% | 0hPa | 2.6V | 00:00:00 | 01:48:29 | 00:00:00 | |
| HARRO8 | 2026-09-05 00:38:42 | 50.64473 | 2.09078 | 133° | 31km/h | 22121m | 6.6m/s | -53.8°C | 1.2% | -1.0hPa | 2.6V | 00:00:00 | 00:00:00 | 00:00:00 | |
| DM0DOS-11 | 2026-09-05 00:38:41 | 50.64491 | 2.09053 | 134° | 33km/h | 22105m | 5.5m/s | -53.9°C | 4.3% | 0hPa | 2.6V | 08:30:00 | 01:48:20 | 00:00:00 | |
| BIOWL1-15 | 2026-09-05 00:38:38 | 50.64491 | 2.09053 | 134° | 33km/h | 22105m | 5.5m/s | -53.9°C | 0.8% | 0hPa | 2.6V | 18:12:15 | 01:48:20 | 00:00:00 | |
| AU51GT2 | 2026-09-05 00:38:34 | 50.64522 | 2.08998 | 131° | 38km/h | 22080m | 4.6m/s | -54.1°C | 1.2% | -1.0hPa | 2.7V | 00:00:00 | 00:00:00 | 00:00:00 | |
| DO1YAY-16 | 2026-09-05 00:38:33 | 50.64528 | 2.08986 | 128° | 38km/h | 22075m | 6.5m/s | -54.1°C | 1.2% | -1.0hPa | 2.7V | 00:00:00 | 00:00:00 | 00:00:00 | |
| DM0DOS-11 | 2026-09-05 00:38:30 | 50.64548 | 2.08943 | 135° | 31km/h | 22054m | 5.4m/s | -54.2°C | 4.4% | 0hPa | 2.7V | 08:30:00 | 01:48:10 | 00:00:00 | |
| BIOWL1-15 | 2026-09-05 00:38:28 | 50.64559 | 2.08927 | 133° | 29km/h | 22045m | 4.7m/s | -54.3°C | 0.9% | 0hPa | 2.6V | 18:12:15 | 01:48:08 | 00:00:00 | |
| DM0DOS-11 | 2026-09-05 00:38:23 | 50.64589 | 2.08825 | 108° | 37km/h | 22004m | 6.2m/s | -54.1°C | 4.3% | 0hPa | 2.6V | 08:30:00 | 01:48:00 | 00:00:00 | |
| BIOWL1-15 | 2026-09-05 00:38:15 | 50.64595 | 2.08788 | 107° | 27km/h | 21987m | 6.1m/s | -54.1°C | 0.9% | 0hPa | 2.5V | 18:12:15 | 01:47:57 | 00:00:00 | |
| HARRO8 | 2026-09-05 00:38:11 | 50.64603 | 2.08739 | 98° | 27km/h | 21960m | 5.3m/s | -54.0°C | 1.2% | -1.0hPa | 2.6V | 00:00:00 | 00:00:00 | 00:00:00 | |
| DM0DOS-11 | 2026-09-05 00:38:10 | 50.64606 | 2.08715 | 101° | 33km/h | 21949m | 4.2m/s | -54°C | 4.3% | 0hPa | 2.6V | 08:30:00 | 01:47:50 | 00:00:00 | |
| BIOWL1-15 | 2026-09-05 00:38:04 | 50.64610 | 2.08654 | 96° | 26km/h | 21923m | 6.4m/s | -54.1°C | 0.8% | 0hPa | 2.5V | 18:12:15 | 01:47:45 | 00:00:00 | |
| DM0DOS-11 | 2026-09-05 00:38:03 | 50.64617 | 2.08610 | 92° | 26km/h | 21896m | 5.2m/s | -54.5°C | 4.4% | 0hPa | 2.5V | 08:30:00 | 01:47:40 | 00:00:00 | |
| BIOWL1-15 | 2026-09-05 00:37:53 | 50.64614 | 2.08546 | 76° | 38km/h | 21867m | 5.2m/s | -54.7°C | 0.9% | 0hPa | 2.6V | 18:12:15 | 01:47:35 | 00:00:00 | |
| DB0UT-7 | 2026-09-05 00:37:52 | 50.64612 | 2.08532 | 79° | 18km/h | 21862m | 5.1m/s | -54.7°C | 4.6% | 0hPa | 2.6V | 00:00:00 | 01:47:34 | 08:30:00 | |
| BIOWL1-15 | 2026-09-05 00:37:44 | 50.64598 | 2.08324 | 76° | 29km/h | 21761m | 5.1m/s | -54.5°C | 1% | 0hPa | 2.7V | 18:12:15 | 01:47:16 | 00:00:00 | |
| DM0DOS-11 | 2026-09-05 00:37:43 | 50.64601 | 2.08374 | 89° | 33km/h | 21783m | 5m/s | -54.5°C | 4.6% | 0hPa | 2.5V | 08:30:00 | 01:47:20 | 00:00:00 | |
| BIOWL1-15 | 2026-09-05 00:37:32 | 50.64596 | 2.08302 | 85° | 26km/h | 21750m | 5.6m/s | -54.4°C | 1% | 0hPa | 2.5V | 18:12:15 | 01:47:14 | 00:00:00 | |
| BIOWL9-15 | 2026-09-05 00:37:31 | 50.64595 | 2.08293 | 88° | 22km/h | 21745m | 4.6m/s | -54.4°C | 1.2% | -1.0hPa | 2.7V | 00:00:00 | 00:00:00 | 00:00:00 | |
| DM0DOS-11 | 2026-09-05 00:37:30 | 50.64595 | 2.08271 | 80° | 16km/h | 21728m | 4.7m/s | -54.2°C | 4.5% | 0hPa | 2.7V | 08:30:00 | 01:47:10 | 00:00:00 | |
| BIOWL7-15 | 2026-09-05 00:37:26 | 50.64594 | 2.08264 | 88° | 18km/h | 21723m | 6.3m/s | -54.2°C | 0% | 0hPa | 2.5V | 00:00:00 | 00:00:00 | 00:00:00 | |
| DM0DOS-11 | 2026-09-05 00:37:23 | 50.64597 | 2.08188 | 95° | 18km/h | 21672m | 5.8m/s | -54°C | 4.5% | 0hPa | 2.5V | 08:30:00 | 01:47:00 | 00:00:00 | |
| BIOWL1-15 | 2026-09-05 00:37:22 | 50.64596 | 2.08213 | 94° | 22km/h | 21689m | 5.8m/s | -54°C | 0.9% | 0hPa | 2.7V | 18:12:15 | 01:47:03 | 00:00:00 | |
| BIOWL1-15 | 2026-09-05 00:37:11 | 50.64595 | 2.08142 | 73° | 18km/h | 21627m | 5.8m/s | -54°C | 0.9% | 0hPa | 2.5V | 18:12:15 | 01:46:52 | 00:00:00 | |
| DM0DOS-11 | 2026-09-05 00:37:10 | 50.64592 | 2.08126 | 78° | 22km/h | 21615m | 6.8m/s | -53.8°C | 4.5% | 0hPa | 2.7V | 08:30:00 | 01:46:50 | 00:00:00 | |
| HTAHTA | 2026-09-05 00:37:08 | 50.64584 | 2.08029 | 97° | 18km/h | 21522m | 6.4m/s | -53.2°C | 1.2% | -1.0hPa | 2.5V | 00:00:00 | 00:00:00 | 00:00:00 | |
| DM0DOS-11 | 2026-09-05 00:37:03 | 50.64586 | 2.08069 | 71° | 15km/h | 21556m | 7.2m/s | -53.3°C | 4.2% | 0hPa | 2.5V | 08:30:00 | 01:46:40 | 00:00:00 | |
| BIOWL1-15 | 2026-09-05 00:37:00 | 50.64583 | 2.08044 | 93° | 18km/h | 21532m | 5.3m/s | -53.2°C | 0.8% | 0hPa | 2.6V | 18:12:15 | 01:46:36 | 00:00:00 | |
| DO1YAY-16 | 2026-09-05 00:36:59 | 50.64587 | 2.08074 | 77° | 13km/h | 21563m | 5.9m/s | -53.4°C | 1.2% | -1.0hPa | 2.6V | 00:00:00 | 00:00:00 | 00:00:00 | |
| DM0DOS-11 | 2026-09-05 00:36:53 | 50.64584 | 2.07998 | 99° | 16km/h | 21491m | 5.5m/s | -53.2°C | 4.2% | 0hPa | 2.6V | 08:30:00 | 01:46:29 | 00:00:00 | |
| BIOWL1-15 | 2026-09-05 00:36:49 | 50.64584 | 2.07998 | 99° | 16km/h | 21491m | 5.5m/s | -53.2°C | 0.8% | 0hPa | 2.6V | 18:12:15 | 01:46:29 | 00:00:00 | |
| DO9LL-15 | 2026-09-05 00:36:47 | 50.64584 | 2.07998 | 100° | 11km/h | 21491m | 5.4m/s | -53.1°C | 4.2% | 0hPa | 2.6V | 00:00:00 | 01:46:29 | 00:00:00 | |
| DM0DOS-11 | 2026-09-05 00:36:42 | 50.64593 | 2.07956 | 99° | 11km/h | 21433m | 6.1m/s | -53.1°C | 4.1% | 0hPa | 2.6V | 08:30:00 | 01:46:19 | 00:00:00 | |
| BIOWL1-15 | 2026-09-05 00:36:36 | 50.64597 | 2.07942 | 127° | 9km/h | 21410m | 4.5m/s | -53.1°C | 0.7% | 0hPa | 2.5V | 18:12:15 | 01:46:15 | 00:00:00 | |
| DM0DOS-11 | 2026-09-05 00:36:32 | 50.64597 | 2.07922 | 92° | 16km/h | 21377m | 5.1m/s | -53.2°C | 4% | 0hPa | 2.5V | 08:30:00 | 01:46:09 | 00:00:00 | |
| BIOWL1-15 | 2026-09-05 00:36:28 | 50.64598 | 2.07915 | 89° | 16km/h | 21371m | 6.4m/s | -53.3°C | 0.6% | 0hPa | 2.5V | 18:12:15 | 01:46:08 | 00:00:00 | |
| DM0DOS-11 | 2026-09-05 00:36:22 | 50.64614 | 2.07872 | 147° | 16km/h | 21316m | 4.4m/s | -54.7°C | 4.5% | 0hPa | 2.7V | 08:30:00 | 01:45:58 | 00:00:00 | |
| BIOWL1-15 | 2026-09-05 00:36:16 | 50.64614 | 2.07872 | 148° | 16km/h | 21316m | 4.4m/s | -54.7°C | 1% | 0hPa | 2.7V | 18:12:15 | 01:45:58 | 00:00:00 | |
| DM0DOS-11 | 2026-09-05 00:36:11 | 50.64627 | 2.07798 | 116° | 22km/h | 21262m | 4.2m/s | -54.7°C | 4.6% | 0hPa | 2.5V | 08:30:00 | 01:45:48 | 00:00:00 | |
| BIOWL1-15 | 2026-09-05 00:36:05 | 50.64638 | 2.07771 | 127° | 33km/h | 21246m | 5m/s | -54.6°C | 1% | 0hPa | 2.7V | 18:12:15 | 01:45:45 | 00:00:00 | |
| DM0DOS-11 | 2026-09-05 00:36:01 | 50.64660 | 2.07689 | 100° | 35km/h | 21212m | 4.2m/s | -54.4°C | 4.4% | 0hPa | 2.7V | 08:30:00 | 01:45:38 | 00:00:00 | |
| BIOWL1-15 | 2026-09-05 00:35:53 | 50.64663 | 2.07652 | 98° | 27km/h | 21197m | 4.2m/s | -54.4°C | 0.9% | 0hPa | 2.5V | 18:12:15 | 01:45:35 | 00:00:00 | |
| DM0DOS-11 | 2026-09-05 00:35:51 | 50.64679 | 2.07565 | 111° | 40km/h | 21160m | 6.1m/s | -54.6°C | 4.4% | 0hPa | 2.6V | 08:30:00 | 01:45:28 | 00:00:00 | |
| BIOWL1-15 | 2026-09-05 00:35:42 | 50.64690 | 2.07503 | 99° | 38km/h | 21140m | 4.1m/s | -54.6°C | 0.9% | 0hPa | 2.6V | 18:12:15 | 01:45:24 | 00:00:00 | |
| DM0DOS-11 | 2026-09-05 00:35:41 | 50.64697 | 2.07412 | 101° | 35km/h | 21109m | 4.8m/s | -54.6°C | 4.5% | 0hPa | 2.6V | 08:30:00 | 01:45:18 | 00:00:00 | |
| BIOWL1-15 | 2026-09-05 00:35:32 | 50.64705 | 2.07349 | 101° | 46km/h | 21090m | 4m/s | -54.6°C | 0.9% | 0hPa | 2.6V | 18:12:15 | 01:45:14 | 00:00:00 | |
| DM0DOS-11 | 2026-09-05 00:35:31 | 50.64709 | 2.07250 | 89° | 42km/h | 21060m | 4.5m/s | -54.8°C | 4.6% | 0hPa | 2.5V | 08:30:00 | 01:45:08 | 00:00:00 | |
| BIOWL9-15 | 2026-09-05 00:35:27 | 50.64709 | 2.07267 | 87° | 42km/h | 21064m | 5.1m/s | -54.8°C | 1.3% | -1.0hPa | 2.5V | 00:00:00 | 00:00:00 | 00:00:00 | |
| DO1YAY-16 | 2026-09-05 00:35:26 | 50.64709 | 2.07250 | 89° | 42km/h | 21060m | 4.5m/s | -54.8°C | 1.3% | -1.0hPa | 2.5V | 00:00:00 | 00:00:00 | 00:00:00 | |
| DM0DOS-11 | 2026-09-05 00:35:21 | 50.64706 | 2.07092 | 75° | 40km/h | 21008m | 4.5m/s | -54.7°C | 4.6% | 0hPa | 2.5V | 08:30:00 | 01:44:58 | 00:00:00 | |
| BIOWL1-15 | 2026-09-05 00:35:21 | 50.64709 | 2.07108 | 79° | 38km/h | 21014m | 6.4m/s | -54.7°C | 1% | 0hPa | 2.5V | 18:12:15 | 01:44:59 | 00:00:00 | |
| DO9LL-15 | 2026-09-05 00:35:17 | 50.64708 | 2.07108 | 79° | 29km/h | 21014m | 6.3m/s | -54.6°C | 4.6% | 0hPa | 2.6V | 00:00:00 | 01:44:59 | 00:00:00 | |
| DM0DOS-11 | 2026-09-05 00:35:11 | 50.64692 | 2.06965 | 85° | 27km/h | 20957m | 3.9m/s | -54.3°C | 4.6% | 0hPa | 2.6V | 08:30:00 | 01:44:48 | 00:00:00 | |
| BIOWL1-15 | 2026-09-05 00:35:11 | 50.64695 | 2.07025 | 78° | 29km/h | 20983m | 4.8m/s | -54.5°C | 1% | 0hPa | 2.6V | 18:12:15 | 01:44:53 | 00:00:00 | |
| BIOWL1-15 | 2026-09-05 00:35:00 | 50.64670 | 2.06857 | 71° | 27km/h | 20909m | 5.8m/s | -53.9°C | 0.9% | 0hPa | 2.5V | 18:12:15 | 01:44:38 | 00:00:00 | |
| BIOWL9-15 | 2026-09-05 00:34:56 | 50.64670 | 2.06857 | 70° | 26km/h | 20909m | 5.8m/s | -53.9°C | 1.3% | -1.0hPa | 2.7V | 00:00:00 | 00:00:00 | 00:00:00 | |
| DM0DOS-11 | 2026-09-05 00:34:56 | 50.64668 | 2.06847 | 75° | 26km/h | 20903m | 5.4m/s | -53.9°C | 4.4% | 0hPa | 2.5V | 08:30:00 | 01:44:37 | 00:00:00 | |
| DO1YAY-16 | 2026-09-05 00:34:55 | 50.64668 | 2.06847 | 75° | 24km/h | 20903m | 5.4m/s | -53.9°C | 1.2% | -1.0hPa | 2.7V | 00:00:00 | 00:00:00 | 00:00:00 | |
| DO9LL-15 | 2026-09-05 00:34:47 | 50.64668 | 2.06766 | 86° | 26km/h | 20863m | 5.1m/s | -53.5°C | 4.3% | 0hPa | 2.7V | 00:00:00 | 01:44:29 | 00:00:00 | |
| DM0DOS-11 | 2026-09-05 00:34:46 | 50.64666 | 2.06747 | 85° | 26km/h | 20853m | 4.7m/s | -53.5°C | 4.3% | 0hPa | 2.7V | 08:30:00 | 01:44:27 | 00:00:00 | |
| BIOWL1-15 | 2026-09-05 00:34:46 | 50.64656 | 2.06668 | 73° | 37km/h | 20818m | 4.2m/s | -53.3°C | 0.8% | 0hPa | 2.5V | 18:12:15 | 01:44:20 | 00:00:00 | |
| BIOWL1-15 | 2026-09-05 00:34:40 | 50.64650 | 2.06643 | 69° | 29km/h | 20808m | 4.5m/s | -53.2°C | 0.8% | 0hPa | 2.5V | 18:12:15 | 01:44:18 | 00:00:00 | |
| DJ2DS-15 | 2026-09-05 00:34:39 | 50.64659 | 2.06682 | 75° | 35km/h | 20823m | 3.9m/s | -53.4°C | 1.2% | -1.0hPa | 2.6V | 00:00:00 | 00:00:00 | 00:00:00 | |
| DM0DOS-11 | 2026-09-05 00:34:36 | 50.64648 | 2.06632 | 71° | 27km/h | 20804m | 4.1m/s | -53.2°C | 4.2% | 0hPa | 2.6V | 08:30:00 | 01:44:17 | 00:00:00 | |
| HTAHTA | 2026-09-05 00:34:33 | 50.64646 | 2.06591 | 95° | 24km/h | 20784m | 4.5m/s | -53.1°C | 1.2% | -1.0hPa | 2.5V | 00:00:00 | 00:00:00 | 00:00:00 | |
| DM0DOS-11 | 2026-09-05 00:34:30 | 50.64646 | 2.06531 | 80° | 27km/h | 20754m | 5m/s | -53°C | 4.1% | 0hPa | 2.5V | 08:30:00 | 01:44:07 | 00:00:00 | |
| BIOWL1-15 | 2026-09-05 00:34:29 | 50.64646 | 2.06531 | 81° | 27km/h | 20754m | 5.1m/s | -53°C | 0.7% | 0hPa | 2.5V | 18:12:15 | 01:44:07 | 00:00:00 | |
| DB0UT-7 | 2026-09-05 00:34:26 | 50.64646 | 2.06542 | 86° | 22km/h | 20759m | 4.2m/s | -52.9°C | 4.1% | 0hPa | 2.5V | 00:00:00 | 01:44:08 | 00:00:00 | |
| BIOWL9-15 | 2026-09-05 00:34:25 | 50.64644 | 2.06521 | 78° | 24km/h | 20749m | 5.1m/s | -53.1°C | 1.2% | -1.0hPa | 2.5V | 00:00:00 | 00:00:00 | 00:00:00 | |
| DO1YAY-16 | 2026-09-05 00:34:24 | 50.64644 | 2.06521 | 78° | 24km/h | 20749m | 5.1m/s | -53.1°C | 1.2% | -1.0hPa | 2.5V | 00:00:00 | 00:00:00 | 00:00:00 | |
| DO9LL-15 | 2026-09-05 00:34:17 | 50.64646 | 2.06456 | 97° | 22km/h | 20715m | 5.1m/s | -53.2°C | 4.2% | 0hPa | 2.5V | 00:00:00 | 01:43:59 | 00:00:00 | |
| DM0DOS-11 | 2026-09-05 00:34:16 | 50.64647 | 2.06436 | 87° | 27km/h | 20704m | 3.7m/s | -53.3°C | 4.1% | 0hPa | 2.6V | 08:30:00 | 01:43:57 | 00:00:00 | |
| BIOWL1-15 | 2026-09-05 00:34:15 | 50.64646 | 2.06436 | 88° | 27km/h | 20704m | 3.7m/s | -53.3°C | 0.7% | 0hPa | 2.6V | 18:12:15 | 01:43:57 | 00:00:00 | |
| DM0DOS-11 | 2026-09-05 00:34:11 | 50.64642 | 2.06346 | 89° | 18km/h | 20656m | 4.8m/s | -53.8°C | 4.4% | 0hPa | 2.5V | 08:30:00 | 01:43:47 | 00:00:00 | |
| BIOWL1-15 | 2026-09-05 00:34:05 | 50.64631 | 2.06271 | 87° | 20km/h | 20611m | 4.8m/s | -53.5°C | 0.9% | 0hPa | 2.6V | 18:12:15 | 01:43:38 | 00:00:00 | |
| HTAHTA | 2026-09-05 00:34:02 | 50.64637 | 2.06315 | 69° | 18km/h | 20637m | 5.1m/s | -53.6°C | 1.3% | -1.0hPa | 2.7V | 00:00:00 | 00:00:00 | 00:00:00 | |
| DM0DOS-11 | 2026-09-05 00:34:00 | 50.64631 | 2.06263 | 90° | 22km/h | 20607m | 4.1m/s | -53.5°C | 4.4% | 0hPa | 2.7V | 08:30:00 | 01:43:37 | 00:00:00 | |
| BIOWL1-15 | 2026-09-05 00:33:50 | 50.64629 | 2.06222 | 76° | 15km/h | 20583m | 4.8m/s | -53.4°C | 0.8% | 0hPa | 2.5V | 18:12:15 | 01:43:32 | 00:00:00 | |
| DO9LL-15 | 2026-09-05 00:33:47 | 50.64624 | 2.06203 | 66° | 22km/h | 20568m | 4.6m/s | -53.2°C | 4.3% | 0hPa | 2.7V | 00:00:00 | 01:43:29 | 00:00:00 | |
| DM0DOS-11 | 2026-09-05 00:33:40 | 50.64602 | 2.06117 | 87° | 20km/h | 20509m | 6.2m/s | -52.8°C | 4.2% | 0hPa | 2.7V | 08:30:00 | 01:43:17 | 00:00:00 | |
| BIOWL1-15 | 2026-09-05 00:33:39 | 50.64603 | 2.06130 | 83° | 13km/h | 20519m | 4.7m/s | -52.9°C | 0.8% | 0hPa | 2.5V | 18:12:15 | 01:43:19 | 00:00:00 | |
| HTAHTA | 2026-09-05 00:33:31 | 50.64605 | 2.06073 | 106° | 16km/h | 20482m | 4.3m/s | -52.6°C | 1.2% | -1.0hPa | 2.5V | 00:00:00 | 00:00:00 | 00:00:00 | |
| DM0DOS-11 | 2026-09-05 00:33:30 | 50.64607 | 2.06036 | 89° | 20km/h | 20458m | 5.6m/s | -52.4°C | 4% | 0hPa | 2.5V | 08:30:00 | 01:43:07 | 00:00:00 | |
| BIOWL1-15 | 2026-09-05 00:33:29 | 50.64606 | 2.06066 | 107° | 16km/h | 20477m | 4.1m/s | -52.5°C | 0.7% | 0hPa | 2.7V | 18:12:15 | 01:43:11 | 00:00:00 | |
| DJ2DS-15 | 2026-09-05 00:33:28 | 50.64607 | 2.06053 | 90° | 18km/h | 20467m | 4.7m/s | -52.4°C | 1.2% | -1.0hPa | 2.7V | 00:00:00 | 00:00:00 | 00:00:00 | |
| BIOWL9-15 | 2026-09-05 00:33:23 | 50.64608 | 2.06013 | 92° | 20km/h | 20442m | 6.4m/s | -52.3°C | 1.1% | -1.0hPa | 2.7V | 00:00:00 | 00:00:00 | 00:00:00 | |
| DO1YAY-16 | 2026-09-05 00:33:22 | 50.64608 | 2.06013 | 92° | 20km/h | 20442m | 6.4m/s | -52.3°C | 1.1% | -1.0hPa | 2.7V | 00:00:00 | 00:00:00 | 00:00:00 | |
| DM0DOS-11 | 2026-09-05 00:33:20 | 50.64619 | 2.05959 | 110° | 24km/h | 20405m | 4.9m/s | -52.5°C | 4.1% | 0hPa | 2.7V | 08:30:00 | 01:42:57 | 00:00:00 | |
| BIOWL1-15 | 2026-09-05 00:33:18 | 50.64612 | 2.05980 | 118° | 18km/h | 20422m | 5.8m/s | -52.2°C | 0.7% | 0hPa | 2.6V | 18:12:15 | 01:43:00 | 00:00:00 | |
| DO9LL-15 | 2026-09-05 00:33:17 | 50.64615 | 2.05973 | 122° | 26km/h | 20417m | 5.0m/s | -52.2°C | 4.0% | 0hPa | 2.5V | 00:00:00 | 01:42:59 | 00:00:00 | |
| DB0UT-7 | 2026-09-05 00:33:15 | 50.64619 | 2.05958 | 111° | 26km/h | 20405m | 4.9m/s | -52.4°C | 4.1% | 0hPa | 2.5V | 00:00:00 | 00:00:00 | 00:00:00 | |
| BIOWL7-15 | 2026-09-05 00:33:13 | 50.64621 | 2.05949 | 109° | 26km/h | 20401m | 4.3m/s | 0°C | 0% | 0hPa | 2.5V | 00:00:00 | 00:00:00 | 00:00:00 | |
| DM0DOS-11 | 2026-09-05 00:33:10 | 50.64646 | 2.05867 | 119° | 27km/h | 20352m | 4.7m/s | -52.2°C | 4.1% | 0hPa | 2.5V | 08:30:00 | 01:42:47 | 00:00:00 | |
| BIOWL1-15 | 2026-09-05 00:33:09 | 50.64653 | 2.05847 | 115° | 29km/h | 20341m | 5.7m/s | -52.2°C | 0.7% | 0hPa | 2.6V | 18:12:15 | 01:42:45 | 00:00:00 | |
| DM0DOS-11 | 2026-09-05 00:33:00 | 50.64680 | 2.05767 | 112° | 24km/h | 20303m | 5.9m/s | -52°C | 4% | 0hPa | 2.7V | 08:30:00 | 01:42:37 | 00:00:00 | |
| BIOWL1-15 | 2026-09-05 00:32:53 | 50.64686 | 2.05750 | 117° | 22km/h | 20292m | 4.6m/s | -51.9°C | 0.7% | 0hPa | 2.6V | 18:12:15 | 01:42:35 | 00:00:00 | |
| BIOWL9-15 | 2026-09-05 00:32:52 | 50.64690 | 2.05734 | 105° | 22km/h | 20282m | 5.2m/s | -51.8°C | 1.1% | -1.0hPa | 2.6V | 00:00:00 | 00:00:00 | 00:00:00 | |
| DO1YAY-16 | 2026-09-05 00:32:51 | 50.64690 | 2.05734 | 105° | 22km/h | 20282m | 5.2m/s | -51.8°C | 1.1% | -1.0hPa | 2.6V | 00:00:00 | 00:00:00 | 00:00:00 | |
| DM0DOS-11 | 2026-09-05 00:32:50 | 50.64706 | 2.05678 | 121° | 26km/h | 20251m | 4m/s | -52°C | 4% | 0hPa | 2.6V | 08:30:00 | 01:42:27 | 00:00:00 | |
| BIOWL1-15 | 2026-09-05 00:32:42 | 50.64717 | 2.05648 | 98° | 16km/h | 20230m | 5.3m/s | -52.1°C | 0.6% | 0hPa | 2.7V | 18:12:15 | 01:42:23 | 00:00:00 | |
| DM0DOS-11 | 2026-09-05 00:32:40 | 50.64717 | 2.05608 | 96° | 24km/h | 20201m | 6.2m/s | -52.2°C | 3.9% | 0hPa | 2.7V | 08:30:00 | 01:42:17 | 00:00:00 | |
| BIOWL1-15 | 2026-09-05 00:32:32 | 50.64724 | 2.05579 | 118° | 26km/h | 20185m | 6.1m/s | -52.1°C | 0.6% | 0hPa | 2.6V | 18:12:15 | 01:42:14 | 00:00:00 | |
| DM0DOS-11 | 2026-09-05 00:32:30 | 50.64743 | 2.05520 | 115° | 29km/h | 20148m | 5.6m/s | -52.5°C | 3.9% | 0hPa | 2.5V | 08:30:00 | 01:42:07 | 00:00:00 | |
| BIOWL1-15 | 2026-09-05 00:32:21 | 50.64756 | 2.05473 | 109° | 35km/h | 20127m | 4.7m/s | -53.1°C | 0.7% | 0hPa | 2.7V | 18:12:15 | 01:42:03 | 00:00:00 | |
| BIOWL9-15 | 2026-09-05 00:32:21 | 50.64759 | 2.05460 | 110° | 35km/h | 20123m | 4.7m/s | -53.1°C | 1.2% | -1.0hPa | 2.7V | 00:00:00 | 00:00:00 | 00:00:00 | |
| DM0DOS-11 | 2026-09-05 00:32:20 | 50.64777 | 2.05389 | 107° | 40km/h | 20096m | 4.1m/s | -53.2°C | 4.1% | 0hPa | 2.7V | 08:30:00 | 01:41:57 | 00:00:00 | |
| BIOWL1-15 | 2026-09-05 00:32:13 | 50.64791 | 2.05330 | 105° | 40km/h | 20076m | 5.8m/s | -53.2°C | 0.8% | 0hPa | 2.6V | 18:12:15 | 01:41:53 | 00:00:00 | |
| DM0DOS-11 | 2026-09-05 00:32:09 | 50.64805 | 2.05230 | 104° | 40km/h | 20046m | 5m/s | -53.4°C | 4.1% | 0hPa | 2.6V | 08:30:00 | 01:41:47 | 00:00:00 | |
| BIOWL1-15 | 2026-09-05 00:32:01 | 50.64836 | 2.05085 | 103° | 42km/h | 19994m | 5.6m/s | -53.9°C | 0.8% | 0hPa | 2.7V | 18:12:15 | 01:41:37 | 00:00:00 | |
| HTAHTA | 2026-09-05 00:31:58 | 50.64830 | 2.05118 | 106° | 40km/h | 20005m | 4.9m/s | -53.8°C | 1.2% | -1.0hPa | 2.7V | 00:00:00 | 00:00:00 | 00:00:00 | |
| BIOWL9-15 | 2026-09-05 00:31:50 | 50.64847 | 2.04978 | 104° | 37km/h | 19964m | 4.9m/s | -54.0°C | 1.2% | -1.0hPa | 2.7V | 00:00:00 | 00:00:00 | 00:00:00 | |
| DM0DOS-11 | 2026-09-05 00:31:49 | 50.64861 | 2.04924 | 119° | 38km/h | 19944m | 4.8m/s | -54.4°C | 4.4% | 0hPa | 2.7V | 08:30:00 | 01:41:27 | 00:00:00 | |
| DO1YAY-16 | 2026-09-05 00:31:49 | 50.64847 | 2.04978 | 104° | 37km/h | 19964m | 4.9m/s | -54.0°C | 1.2% | -1.0hPa | 2.7V | 00:00:00 | 00:00:00 | 00:00:00 | |
| BIOWL1-15 | 2026-09-05 00:31:44 | 50.64886 | 2.04840 | 106° | 46km/h | 19914m | 4.5m/s | -54.6°C | 0.9% | 0hPa | 2.7V | 18:12:15 | 01:41:21 | 00:00:00 | |
| DM0DOS-11 | 2026-09-05 00:31:39 | 50.64898 | 2.04768 | 106° | 49km/h | 19894m | 5.4m/s | -54.5°C | 4.5% | 0hPa | 2.7V | 08:30:00 | 01:41:17 | 00:00:00 | |
| BIOWL1-15 | 2026-09-05 00:31:32 | 50.64911 | 2.04717 | 115° | 42km/h | 19878m | 4.9m/s | -54.4°C | 0.9% | 0hPa | 2.6V | 18:12:15 | 01:41:14 | 00:00:00 | |
| DB0UT-7 | 2026-09-05 00:31:31 | 50.64915 | 2.04703 | 119° | 44km/h | 19874m | 3.8m/s | -54.4°C | 4.5% | 0hPa | 2.5V | 00:00:00 | 00:00:00 | 00:00:00 | |
| DM0DOS-11 | 2026-09-05 00:31:29 | 50.64944 | 2.04613 | 109° | 40km/h | 19843m | 5.2m/s | -54.6°C | 4.5% | 0hPa | 2.5V | 08:30:00 | 01:41:07 | 00:00:00 | |
| BIOWL1-15 | 2026-09-05 00:31:21 | 50.65014 | 2.04418 | 119° | 44km/h | 19776m | 4.3m/s | -54.3°C | 0.9% | 0hPa | 2.6V | 18:12:15 | 01:40:54 | 00:00:00 | |
| DM0DOS-11 | 2026-09-05 00:31:19 | 50.64996 | 2.04463 | 124° | 44km/h | 19791m | 3.7m/s | -54.3°C | 4.5% | 0hPa | 2.6V | 08:30:00 | 01:40:57 | 00:00:00 | |
| BIOWL1-15 | 2026-09-05 00:31:15 | 50.65019 | 2.04403 | 117° | 40km/h | 19771m | 5.7m/s | -54.2°C | 0.9% | 0hPa | 2.6V | 18:12:15 | 01:40:53 | 00:00:00 | |
| DM0DOS-11 | 2026-09-05 00:31:07 | 50.65047 | 2.04317 | 117° | 47km/h | 19740m | 5.7m/s | -54°C | 4.4% | 0hPa | 2.6V | 08:30:00 | 01:40:47 | 00:00:00 | |
| DB0UT-7 | 2026-09-05 00:31:01 | 50.65068 | 2.04249 | 118° | 57km/h | 19718m | 5.5m/s | -53.8°C | 4.4% | 0hPa | 2.7V | 00:00:00 | 01:40:43 | 00:00:00 | |
| DM0DOS-11 | 2026-09-05 00:31:00 | 50.65097 | 2.04157 | 117° | 44km/h | 19686m | 5m/s | -53.7°C | 4.2% | 0hPa | 2.7V | 08:30:00 | 01:40:37 | 00:00:00 | |
| BIOWL1-15 | 2026-09-05 00:31:00 | 50.65074 | 2.04233 | 118° | 46km/h | 19713m | 4.6m/s | -53.8°C | 0.9% | 0hPa | 2.5V | 18:12:15 | 01:40:42 | 00:00:00 | |
| HARRO8 | 2026-09-05 00:30:56 | 50.65097 | 2.04157 | 117° | 44km/h | 19686m | 5.0m/s | -53.7°C | 1.2% | -1.0hPa | 2.6V | 00:00:00 | 00:00:00 | 00:00:00 | |
| HTAHTA | 2026-09-05 00:30:55 | 50.65097 | 2.04157 | 117° | 44km/h | 19686m | 5.0m/s | -53.7°C | 1.2% | -1.0hPa | 2.6V | 00:00:00 | 00:00:00 | 00:00:00 | |
| DM0DOS-11 | 2026-09-05 00:30:50 | 50.65139 | 2.03989 | 106° | 42km/h | 19632m | 5.1m/s | -54°C | 4.3% | 0hPa | 2.6V | 08:30:00 | 01:40:27 | 00:00:00 | |
| BIOWL1-15 | 2026-09-05 00:30:49 | 50.65139 | 2.03989 | 106° | 42km/h | 19632m | 5.1m/s | -54°C | 0.8% | 0hPa | 2.6V | 18:12:15 | 01:40:27 | 00:00:00 | |
| BIOWL9-15 | 2026-09-05 00:30:48 | 50.65132 | 2.04022 | 106° | 44km/h | 19643m | 6.1m/s | -54.0°C | 1.3% | -1.0hPa | 2.7V | 00:00:00 | 00:00:00 | 00:00:00 | |
| DO9LL-15 | 2026-09-05 00:30:46 | 50.65135 | 2.04005 | 106° | 55km/h | 19638m | 4.7m/s | -54.0°C | 4.3% | 0hPa | 2.7V | 00:00:00 | 01:40:28 | 00:00:00 | |
| DM0DOS-11 | 2026-09-05 00:30:40 | 50.65173 | 2.03817 | 100° | 49km/h | 19580m | 4.2m/s | -54.2°C | 4.3% | 0hPa | 2.7V | 08:30:00 | 01:40:17 | 00:00:00 | |
| BIOWL1-15 | 2026-09-05 00:30:38 | 50.65173 | 2.03817 | 101° | 49km/h | 19580m | 4.2m/s | -54.2°C | 0.8% | 0hPa | 2.7V | 18:12:15 | 01:40:17 | 00:00:00 | |
| DM0DOS-11 | 2026-09-05 00:30:30 | 50.65206 | 2.03625 | 113° | 53km/h | 19532m | 4.8m/s | -54.3°C | 4.4% | 0hPa | 2.6V | 08:30:00 | 01:40:07 | 00:00:00 | |
| BIOWL1-15 | 2026-09-05 00:30:25 | 50.65227 | 2.03547 | 109° | 55km/h | 19514m | 5.1m/s | -54.2°C | 0.9% | 0hPa | 2.7V | 18:12:15 | 01:40:03 | 00:00:00 | |
| HARRO8 | 2026-09-05 00:30:25 | 50.65212 | 2.03606 | 113° | 53km/h | 19528m | 4.5m/s | -54.3°C | 1.3% | -1.0hPa | 2.7V | 00:00:00 | 00:00:00 | 00:00:00 | |
| HTAHTA | 2026-09-05 00:30:24 | 50.65212 | 2.03606 | 113° | 53km/h | 19528m | 4.5m/s | -54.3°C | 1.3% | -1.0hPa | 2.7V | 00:00:00 | 00:00:00 | 00:00:00 | |
| DM0DOS-11 | 2026-09-05 00:30:18 | 50.65252 | 2.03418 | 108° | 57km/h | 19481m | 5m/s | -54°C | 4.3% | 0hPa | 2.7V | 08:30:00 | 01:39:57 | 00:00:00 | |
| BIOWL1-15 | 2026-09-05 00:30:13 | 50.65292 | 2.03184 | 101° | 57km/h | 19427m | 4.8m/s | -54.4°C | 0.8% | 0hPa | 2.6V | 18:12:15 | 01:39:46 | 00:00:00 | |
| DM0DOS-11 | 2026-09-05 00:30:00 | 50.65320 | 2.02957 | 106° | 58km/h | 19378m | 3.4m/s | -54.8°C | 4.5% | 0hPa | 2.6V | 08:30:00 | 01:39:36 | 00:00:00 | |
| BIOWL1-15 | 2026-09-05 00:30:00 | 50.65301 | 2.03097 | 99° | 57km/h | 19408m | 4m/s | -54.5°C | 0.9% | 0hPa | 2.6V | 18:12:15 | 01:39:42 | 00:00:00 | |
| HARRO8 | 2026-09-05 00:29:54 | 50.65325 | 2.02934 | 109° | 58km/h | 19373m | 5.3m/s | -54.8°C | 1.3% | -1.0hPa | 2.6V | 00:00:00 | 00:00:00 | 00:00:00 | |
| HTAHTA | 2026-09-05 00:29:53 | 50.65325 | 2.02934 | 109° | 58km/h | 19373m | 5.3m/s | -54.8°C | 1.3% | -1.0hPa | 2.6V | 00:00:00 | 00:00:00 | 00:00:00 | |
| DO9LL-15 | 2026-09-05 00:29:52 | 50.65331 | 2.02912 | 115° | 58km/h | 19368m | 5.1m/s | -54.8°C | 4.4% | 0hPa | 2.6V | 00:00:00 | 01:39:34 | 00:00:00 | |
| DM0DOS-11 | 2026-09-05 00:29:49 | 50.65383 | 2.02735 | 105° | 60km/h | 19328m | 5.7m/s | -54.9°C | 4.5% | 0hPa | 2.6V | 08:30:00 | 01:39:26 | 00:00:00 | |
| BIOWL1-15 | 2026-09-05 00:29:49 | 50.65353 | 2.02847 | 118° | 60km/h | 19354m | 5.6m/s | -54.9°C | 0.9% | 0hPa | 2.7V | 18:12:15 | 01:39:31 | 00:00:00 | |
| AU51GT2 | 2026-09-05 00:29:46 | 50.65373 | 2.02782 | 112° | 62km/h | 19339m | 5.2m/s | -54.9°C | 1.3% | -1.0hPa | 2.6V | 00:00:00 | 00:00:00 | 00:00:00 | |
| BIOWL9-15 | 2026-09-05 00:29:45 | 50.65378 | 2.02759 | 109° | 62km/h | 19334m | 4.6m/s | -54.9°C | 1.3% | -1.0hPa | 2.6V | 00:00:00 | 00:00:00 | 00:00:00 | |
| DM0DOS-11 | 2026-09-05 00:29:39 | 50.65419 | 2.02511 | 110° | 58km/h | 19281m | 5.3m/s | -55°C | 4.5% | 0hPa | 2.6V | 08:30:00 | 01:39:16 | 00:00:00 | |
| BIOWL1-15 | 2026-09-05 00:29:38 | 50.65402 | 2.02597 | 105° | 60km/h | 19301m | 4.2m/s | -55°C | 0.9% | 0hPa | 2.6V | 18:12:15 | 01:39:20 | 00:00:00 | |
| BIOWL7-15 | 2026-09-05 00:29:37 | 50.65402 | 2.02597 | 106° | 60km/h | 19301m | 4.2m/s | 0°C | 0% | 0hPa | 2.7V | 00:00:00 | 00:00:00 | 00:00:00 | |
| DM0DOS-11 | 2026-09-05 00:29:29 | 50.65444 | 2.02264 | 97° | 58km/h | 19229m | 5.3m/s | -55°C | 4.5% | 0hPa | 2.7V | 08:30:00 | 01:39:05 | 00:00:00 | |
| BIOWL1-15 | 2026-09-05 00:29:27 | 50.65444 | 2.02264 | 98° | 58km/h | 19229m | 5.3m/s | -55°C | 0.9% | 0hPa | 2.7V | 18:12:15 | 01:39:05 | 00:00:00 | |
| BIOWL1-15 | 2026-09-05 00:29:18 | 50.65463 | 2.02066 | 91° | 55km/h | 19187m | 4.2m/s | -55°C | 0.9% | 0hPa | 2.6V | 18:12:15 | 01:38:56 | 00:00:00 | |
| DM0DOS-11 | 2026-09-05 00:29:18 | 50.65462 | 2.02066 | 91° | 55km/h | 19187m | 4.2m/s | -55°C | 4.5% | 0hPa | 2.6V | 08:30:00 | 01:38:56 | 00:00:00 | |
| DB0UT-7 | 2026-09-05 00:29:18 | 50.65458 | 2.02152 | 100° | 53km/h | 19206m | 4.3m/s | -55.0°C | 4.6% | 0hPa | 2.7V | 00:00:00 | 01:39:00 | 00:00:00 | |
| BIOWL9-15 | 2026-09-05 00:29:14 | 50.65463 | 2.02066 | 91° | 55km/h | 19187m | 4.2m/s | -55.0°C | 1.3% | -1.0hPa | 2.7V | 00:00:00 | 00:00:00 | 00:00:00 | |
| DM0DOS-11 | 2026-09-05 00:29:08 | 50.65464 | 2.01837 | 88° | 57km/h | 19141m | 3.5m/s | -55°C | 4.4% | 0hPa | 2.7V | 08:30:00 | 01:38:46 | 00:00:00 | |
| BIOWL1-15 | 2026-09-05 00:29:03 | 50.65463 | 2.01794 | 89° | 49km/h | 19131m | 5m/s | -55.2°C | 0.9% | 0hPa | 2.6V | 18:12:15 | 01:38:44 | 00:00:00 | |
| DM0DOS-11 | 2026-09-05 00:28:58 | 50.65466 | 2.01626 | 96° | 58km/h | 19093m | 5.6m/s | -55.7°C | 4.7% | 0hPa | 2.6V | 08:30:00 | 01:38:36 | 00:00:00 | |
| BIOWL1-15 | 2026-09-05 00:28:53 | 50.65471 | 2.01578 | 101° | 62km/h | 19083m | 3.5m/s | -55.7°C | 1% | 0hPa | 2.6V | 18:12:15 | 01:38:34 | 00:00:00 | |
| HTAHTA | 2026-09-05 00:28:51 | 50.65476 | 2.01530 | 99° | 58km/h | 19074m | 5.0m/s | -55.7°C | 1.4% | -1.0hPa | 2.7V | 00:00:00 | 00:00:00 | 00:00:00 | |
| DM0DOS-11 | 2026-09-05 00:28:47 | 50.65481 | 2.01400 | 87° | 51km/h | 19044m | 4.7m/s | -55.4°C | 4.7% | 0hPa | 2.7V | 08:30:00 | 01:38:26 | 00:00:00 | |
| BIOWL1-15 | 2026-09-05 00:28:41 | 50.65491 | 2.01212 | 99° | 55km/h | 19001m | 4.8m/s | -55.5°C | 1% | 0hPa | 2.6V | 18:12:15 | 01:38:17 | 00:00:00 | |
| DM0DOS-11 | 2026-09-05 00:28:37 | 50.65493 | 2.01190 | 98° | 53km/h | 18997m | 4.5m/s | -55.5°C | 4.7% | 0hPa | 2.6V | 08:30:00 | 01:38:16 | 00:00:00 | |
| BIOWL1-15 | 2026-09-05 00:28:27 | 50.65504 | 2.01050 | 99° | 47km/h | 18962m | 5.8m/s | -55.6°C | 0.9% | 0hPa | 2.7V | 18:12:15 | 01:38:09 | 00:00:00 | |
| DM0DOS-11 | 2026-09-05 00:28:26 | 50.65511 | 2.00995 | 103° | 49km/h | 18949m | 5.9m/s | -55.6°C | 4.6% | 0hPa | 2.6V | 08:30:00 | 01:38:06 | 00:00:00 | |
| DO9LL-15 | 2026-09-05 00:28:22 | 50.65517 | 2.00955 | 105° | 53km/h | 18938m | 4.8m/s | -55.5°C | 4.5% | 0hPa | 2.7V | 00:00:00 | 01:38:04 | 00:00:00 | |
| HTAHTA | 2026-09-05 00:28:20 | 50.65523 | 2.00915 | 102° | 53km/h | 18928m | 4.4m/s | -55.5°C | 1.3% | -1.0hPa | 2.7V | 00:00:00 | 00:00:00 | 00:00:00 | |
| DM0DOS-11 | 2026-09-05 00:28:19 | 50.65536 | 2.00784 | 95° | 49km/h | 18897m | 4.1m/s | -55.4°C | 4.5% | 0hPa | 2.7V | 08:30:00 | 01:37:56 | 00:00:00 | |
| BIOWL1-15 | 2026-09-05 00:28:16 | 50.65545 | 2.00685 | 98° | 49km/h | 18874m | 5.1m/s | -55.7°C | 0.9% | 0hPa | 2.6V | 18:12:15 | 01:37:51 | 00:00:00 | |
| BIOWL1-15 | 2026-09-05 00:28:05 | 50.65552 | 2.00608 | 98° | 47km/h | 18855m | 5.6m/s | -56.2°C | 1% | 0hPa | 2.6V | 18:12:15 | 01:37:47 | 00:00:00 | |
| DB0UT-7 | 2026-09-05 00:28:05 | 50.65552 | 2.00608 | 99° | 55km/h | 18855m | 5.5m/s | -56.1°C | 4.7% | 0hPa | 2.7V | 00:00:00 | 00:00:00 | 00:00:00 | |
| DJ2DS-15 | 2026-09-05 00:28:03 | 50.65556 | 2.00550 | 94° | 51km/h | 18839m | 5.8m/s | -56.2°C | 1.4% | -1.0hPa | 2.7V | 00:00:00 | 00:00:00 | 00:00:00 | |
| DM0DOS-11 | 2026-09-05 00:28:01 | 50.65562 | 2.00418 | 95° | 57km/h | 18809m | 5.8m/s | -56.5°C | 4.8% | 0hPa | 2.7V | 08:30:00 | 01:37:38 | 00:00:00 | |
| BIOWL1-15 | 2026-09-05 00:27:54 | 50.65566 | 2.00373 | 96° | 57km/h | 18799m | 5.3m/s | -56.6°C | 1.1% | 0hPa | 2.7V | 18:12:15 | 01:37:36 | 00:00:00 | |
| DO9LL-15 | 2026-09-05 00:27:52 | 50.65567 | 2.00329 | 91° | 55km/h | 18788m | 4.6m/s | 0°C | 0% | 0hPa | 2.6V | 00:00:00 | 01:37:34 | 00:00:00 | |
| DM0DOS-11 | 2026-09-05 00:27:51 | 50.65565 | 2.00203 | 87° | 51km/h | 18758m | 4.6m/s | -56.8°C | 5% | 0hPa | 2.6V | 08:30:00 | 01:37:28 | 00:00:00 | |
| BIOWL1-15 | 2026-09-05 00:27:46 | 50.65566 | 2.00160 | 96° | 57km/h | 18748m | 4.4m/s | -56.7°C | 1.1% | 0hPa | 2.7V | 18:12:15 | 01:37:26 | 00:00:00 | |
| BIOWL1-15 | 2026-09-05 00:27:33 | 50.65569 | 1.99909 | 90° | 55km/h | 18696m | 3.9m/s | -56.4°C | 1.1% | 0hPa | 2.6V | 18:12:15 | 01:37:15 | 00:00:00 | |
| DM0DOS-11 | 2026-09-05 00:27:31 | 50.65571 | 1.99767 | 92° | 53km/h | 18662m | 4.5m/s | -56.1°C | 4.8% | 0hPa | 2.7V | 08:30:00 | 01:37:08 | 00:00:00 | |
| BIOWL1-15 | 2026-09-05 00:27:23 | 50.65574 | 1.99648 | 90° | 49km/h | 18632m | 5m/s | -55.9°C | 1% | 0hPa | 2.7V | 18:12:15 | 01:37:02 | 00:00:00 | |
| BIOWL1-15 | 2026-09-05 00:27:12 | 50.65589 | 1.99423 | 101° | 49km/h | 18571m | 5.1m/s | -55.6°C | 1% | 0hPa | 2.7V | 18:12:15 | 01:36:50 | 00:00:00 | |
| BIOWL9-15 | 2026-09-05 00:27:10 | 50.65584 | 1.99463 | 100° | 51km/h | 18581m | 4.9m/s | -55.6°C | 1.4% | -1.0hPa | 2.7V | 00:00:00 | 00:00:00 | 00:00:00 | |
| DM0DOS-11 | 2026-09-05 00:27:06 | 50.65607 | 1.99318 | 105° | 44km/h | 18542m | 5.8m/s | -55.7°C | 4.5% | 0hPa | 2.7V | 08:30:00 | 01:36:44 | 00:00:00 | |
| BIOWL1-15 | 2026-09-05 00:27:00 | 50.65623 | 1.99191 | 101° | 46km/h | 18508m | 3.9m/s | -55.9°C | 0.9% | 0hPa | 2.7V | 18:12:15 | 01:36:37 | 00:00:00 | |
| DM0DOS-11 | 2026-09-05 00:26:56 | 50.65630 | 1.99135 | 106° | 49km/h | 18493m | 4.4m/s | -56.1°C | 4.7% | 0hPa | 2.6V | 08:30:00 | 01:36:34 | 00:00:00 | |
| BIOWL1-15 | 2026-09-05 00:26:48 | 50.65672 | 1.98987 | 119° | 58km/h | 18453m | 5m/s | -56.5°C | 1.1% | 0hPa | 2.7V | 18:12:15 | 01:36:26 | 00:00:00 | |
| HTAHTA | 2026-09-05 00:26:47 | 50.65654 | 1.99047 | 113° | 51km/h | 18468m | 4.9m/s | -56.3°C | 1.4% | -1.0hPa | 2.7V | 00:00:00 | 00:00:00 | 00:00:00 | |
| DM0DOS-11 | 2026-09-05 00:26:43 | 50.65686 | 1.98944 | 115° | 62km/h | 18443m | 5.7m/s | -56.5°C | 5% | 0hPa | 2.7V | 08:30:00 | 01:36:24 | 00:00:00 | |
| BIOWL1-15 | 2026-09-05 00:26:38 | 50.65710 | 1.98852 | 112° | 60km/h | 18423m | 4.5m/s | -56.5°C | 1.1% | 0hPa | 2.6V | 18:12:15 | 01:36:20 | 00:00:00 | |
| AU51GT2 | 2026-09-05 00:26:35 | 50.65728 | 1.98765 | 102° | 55km/h | 18403m | 4.3m/s | -56.4°C | 1.5% | -1.0hPa | 2.7V | 00:00:00 | 00:00:00 | 00:00:00 | |
| DM0DOS-11 | 2026-09-05 00:26:33 | 50.65734 | 1.98724 | 101° | 51km/h | 18393m | 3.9m/s | -56.4°C | 4.9% | 0hPa | 2.7V | 08:30:00 | 01:36:14 | 00:00:00 | |
| BIOWL1-15 | 2026-09-05 00:26:28 | 50.65751 | 1.98481 | 94° | 58km/h | 18339m | 5.2m/s | -55.9°C | 1.1% | 0hPa | 2.7V | 18:12:15 | 01:36:03 | 00:00:00 | |
| DB0UT-7 | 2026-09-05 00:26:23 | 50.65748 | 1.98527 | 97° | 62km/h | 18350m | 5.4m/s | -55.9°C | 4.9% | 0hPa | 2.6V | 00:00:00 | 00:00:00 | 00:00:00 | |
| DO9LL-15 | 2026-09-05 00:26:22 | 50.65749 | 1.98504 | 96° | 57km/h | 18344m | 4.6m/s | 0°C | 0% | 0hPa | 2.6V | 00:00:00 | 01:36:04 | 08:30:00 | |
| HTAHTA | 2026-09-05 00:26:16 | 50.65755 | 1.98367 | 91° | 60km/h | 18315m | 3.8m/s | -55.7°C | 1.4% | -1.0hPa | 2.6V | 00:00:00 | 00:00:00 | 00:00:00 | |
| DJ2DS-15 | 2026-09-05 00:26:15 | 50.65757 | 1.98319 | 95° | 58km/h | 18305m | 5.2m/s | -55.6°C | 1.4% | -1.0hPa | 2.6V | 00:00:00 | 00:00:00 | 00:00:00 | |
| DM0DOS-11 | 2026-09-05 00:26:13 | 50.65760 | 1.98273 | 96° | 58km/h | 18296m | 4.9m/s | -55.6°C | 4.6% | 0hPa | 2.6V | 08:30:00 | 01:35:54 | 00:00:00 | |
| BIOWL1-15 | 2026-09-05 00:26:11 | 50.65769 | 1.98133 | 95° | 62km/h | 18266m | 5.4m/s | -55.4°C | 0.9% | 0hPa | 2.6V | 18:12:15 | 01:35:48 | 00:00:00 | |
| BIOWL9-15 | 2026-09-05 00:26:08 | 50.65766 | 1.98180 | 97° | 57km/h | 18276m | 4.4m/s | -55.4°C | 1.3% | -1.0hPa | 2.6V | 00:00:00 | 00:00:00 | 00:00:00 | |
| DM0DOS-11 | 2026-09-05 00:26:03 | 50.65774 | 1.98033 | 94° | 62km/h | 18247m | 3.9m/s | -55.4°C | 4.3% | 0hPa | 2.6V | 08:30:00 | 01:35:44 | 00:00:00 | |
| BIOWL1-15 | 2026-09-05 00:25:57 | 50.65780 | 1.97856 | 91° | 62km/h | 18214m | 5.4m/s | -56.9°C | 1.2% | 0hPa | 2.6V | 18:12:15 | 01:35:37 | 00:00:00 | |
| DM0DOS-11 | 2026-09-05 00:25:56 | 50.65778 | 1.97782 | 86° | 60km/h | 18199m | 5.1m/s | -57°C | 5.1% | 0hPa | 2.6V | 08:30:00 | 01:35:34 | 00:00:00 | |
| BIOWL1-15 | 2026-09-05 00:25:44 | 50.65763 | 1.97590 | 81° | 58km/h | 18163m | 5.1m/s | -56.9°C | 1.2% | 0hPa | 2.6V | 18:12:15 | 01:35:26 | 00:00:00 | |
| DM0DOS-11 | 2026-09-05 00:25:43 | 50.65757 | 1.97545 | 75° | 57km/h | 18154m | 3.6m/s | -56.9°C | 5% | 0hPa | 2.6V | 08:30:00 | 01:35:24 | 00:00:00 | |
| BIOWL1-15 | 2026-09-05 00:25:34 | 50.65731 | 1.97316 | 86° | 64km/h | 18110m | 3.3m/s | -56.8°C | 1.2% | 0hPa | 2.6V | 18:12:15 | 01:35:14 | 00:00:00 | |
| DM0DOS-11 | 2026-09-05 00:25:33 | 50.65731 | 1.97316 | 86° | 64km/h | 18110m | 3.3m/s | -56.8°C | 5% | 0hPa | 2.6V | 08:30:00 | 01:35:14 | 00:00:00 | |
| BIOWL1-15 | 2026-09-05 00:25:22 | 50.65716 | 1.97079 | 82° | 55km/h | 18068m | 3.7m/s | -56.7°C | 1.1% | 0hPa | 2.7V | 18:12:15 | 01:35:04 | 00:00:00 | |
| BIOWL1-15 | 2026-09-05 00:25:13 | 50.65696 | 1.96692 | 82° | 58km/h | 17994m | 3.7m/s | -57°C | 1.2% | 0hPa | 2.6V | 18:12:15 | 01:34:47 | 00:00:00 | |
| BIOWL1-15 | 2026-09-05 00:25:03 | 50.65688 | 1.96600 | 81° | 57km/h | 17979m | 3.4m/s | -56.9°C | 1.2% | 0hPa | 2.6V | 18:12:15 | 01:34:43 | 00:00:00 | |
| BIOWL1-15 | 2026-09-05 00:24:50 | 50.65662 | 1.96362 | 85° | 53km/h | 17933m | 3.9m/s | -57.3°C | 1.2% | 0hPa | 2.7V | 18:12:15 | 01:34:32 | 00:00:00 | |
| BIOWL1-15 | 2026-09-05 00:24:40 | 50.65640 | 1.96064 | 76° | 60km/h | 17878m | 4.2m/s | -57.4°C | 1.3% | 0hPa | 2.6V | 18:12:15 | 01:34:19 | 00:00:00 | |
| BIOWL1-15 | 2026-09-05 00:24:33 | 50.65593 | 1.95807 | 72° | 58km/h | 17824m | 4m/s | -57.1°C | 1.2% | 0hPa | 2.7V | 18:12:15 | 01:34:07 | 00:00:00 | |
| BIOWL1-15 | 2026-09-05 00:24:17 | 50.65551 | 1.95638 | 64° | 57km/h | 17790m | 3.9m/s | -57°C | 1.2% | 0hPa | 2.6V | 18:12:15 | 01:33:59 | 00:00:00 | |
| HTAHTA | 2026-09-05 00:24:12 | 50.65518 | 1.95515 | 67° | 55km/h | 17764m | 3.8m/s | -57.1°C | 1.5% | -1.0hPa | 2.6V | 00:00:00 | 00:00:00 | 00:00:00 | |
| DB0UT-7 | 2026-09-05 00:24:11 | 50.65518 | 1.95514 | 68° | 53km/h | 17765m | 3.7m/s | -57.0°C | 5.1% | 0hPa | 2.6V | 00:00:00 | 01:33:53 | 00:00:00 | |
| AU51GT2 | 2026-09-05 00:23:59 | 50.65460 | 1.95250 | 66° | 49km/h | 17714m | 3.8m/s | -56.8°C | 1.5% | -1.0hPa | 2.6V | 00:00:00 | 00:00:00 | 00:00:00 | |
| DJ2DS-15 | 2026-09-05 00:23:50 | 50.65417 | 1.95095 | 70° | 55km/h | 17674m | 4.3m/s | 0°C | -1.0% | -1.0hPa | 2.6V | 00:00:00 | 00:00:00 | 00:00:00 | |
| BIOWL1-15 | 2026-09-05 00:23:34 | 50.65365 | 1.94787 | 74° | 53km/h | 17596m | 5.5m/s | -56.1°C | 1.1% | 0hPa | 2.6V | 18:12:15 | 01:33:16 | 00:00:00 | |
| BIOWL1-15 | 2026-09-05 00:23:16 | 50.65324 | 1.94419 | 88° | 55km/h | 17505m | 4m/s | -56.1°C | 1.1% | 0hPa | 2.7V | 18:12:15 | 01:32:58 | 00:00:00 | |
| BIOWL1-15 | 2026-09-05 00:23:06 | 50.65298 | 1.94221 | 77° | 49km/h | 17459m | 5.2m/s | -56°C | 1.1% | 0hPa | 2.7V | 18:12:15 | 01:32:48 | 00:00:00 | |
| BIOWL1-15 | 2026-09-05 00:22:56 | 50.65277 | 1.94004 | 81° | 62km/h | 17410m | 4.4m/s | -56°C | 1.1% | 0hPa | 2.7V | 18:12:15 | 01:32:38 | 00:00:00 | |
| BIOWL1-15 | 2026-09-05 00:22:48 | 50.65256 | 1.93764 | 82° | 62km/h | 17362m | 4.4m/s | -55.8°C | 1.1% | 0hPa | 2.7V | 18:12:15 | 01:32:28 | 00:00:00 | |
| BIOWL1-15 | 2026-09-05 00:22:36 | 50.65233 | 1.93523 | 82° | 57km/h | 17313m | 4.8m/s | -55.8°C | 1% | 0hPa | 2.7V | 18:12:15 | 01:32:18 | 00:00:00 | |
| BIOWL1-15 | 2026-09-05 00:22:25 | 50.65207 | 1.93280 | 82° | 60km/h | 17261m | 4.2m/s | -55.8°C | 1.1% | 0hPa | 2.6V | 18:12:15 | 01:32:07 | 00:00:00 | |
| BIOWL1-15 | 2026-09-05 00:22:15 | 50.65193 | 1.92791 | 91° | 71km/h | 17165m | 4.7m/s | -56°C | 1.2% | 0hPa | 2.7V | 18:12:15 | 01:31:48 | 00:00:00 | |
| BIOWL1-15 | 2026-09-05 00:21:56 | 50.65177 | 1.92511 | 87° | 71km/h | 17112m | 6.2m/s | -55.9°C | 1.1% | 0hPa | 2.7V | 18:12:15 | 01:31:38 | 00:00:00 | |
| AU51GT2 | 2026-09-05 00:21:55 | 50.65176 | 1.92483 | 87° | 71km/h | 17107m | 3.8m/s | -55.8°C | 1.5% | -1.0hPa | 2.6V | 00:00:00 | 00:00:00 | 00:00:00 | |
| BIOWL1-15 | 2026-09-05 00:21:45 | 50.65142 | 1.92083 | 83° | 64km/h | 17034m | 3.5m/s | -55.6°C | 1.1% | 0hPa | 2.6V | 18:12:15 | 01:31:22 | 00:00:00 | |
| BIOWL1-15 | 2026-09-05 00:21:31 | 50.65125 | 1.91833 | 86° | 68km/h | 16991m | 5.8m/s | -55.3°C | 1.1% | 0hPa | 2.7V | 18:12:15 | 01:31:13 | 00:00:00 | |
| BIOWL1-15 | 2026-09-05 00:21:22 | 50.65121 | 1.91542 | 84° | 68km/h | 16932m | 5.4m/s | -54.8°C | 1% | 0hPa | 2.6V | 18:12:15 | 01:31:02 | 00:00:00 | |
| BIOWL1-15 | 2026-09-05 00:21:10 | 50.65118 | 1.91281 | 91° | 62km/h | 16881m | 4.2m/s | -54.3°C | 1% | 0hPa | 2.6V | 18:12:15 | 01:30:52 | 00:00:00 | |
| BIOWL1-15 | 2026-09-05 00:21:01 | 50.65109 | 1.90920 | 89° | 62km/h | 16810m | 4.4m/s | -54.6°C | 1% | 0hPa | 2.7V | 18:12:15 | 01:30:38 | 00:00:00 | |
| BIOWL1-15 | 2026-09-05 00:20:49 | 50.65122 | 1.90746 | 100° | 66km/h | 16772m | 4.5m/s | -54.6°C | 1% | 0hPa | 2.6V | 18:12:15 | 01:30:31 | 00:00:00 | |
| BIOWL1-15 | 2026-09-05 00:20:39 | 50.65140 | 1.90479 | 97° | 62km/h | 16721m | 4.3m/s | -54.6°C | 1% | 0hPa | 2.6V | 18:12:15 | 01:30:21 | 00:00:00 | |
| BIOWL1-15 | 2026-09-05 00:20:28 | 50.65141 | 1.90097 | 90° | 62km/h | 16646m | 4.1m/s | -54.7°C | 1% | 0hPa | 2.6V | 18:12:15 | 01:30:06 | 00:00:00 | |
| BIOWL1-15 | 2026-09-05 00:20:14 | 50.65144 | 1.89707 | 99° | 64km/h | 16571m | 5m/s | -55.1°C | 1% | 0hPa | 2.6V | 18:12:15 | 01:29:51 | 00:00:00 | |
| BIOWL1-15 | 2026-09-05 00:20:02 | 50.65154 | 1.89521 | 97° | 68km/h | 16538m | 4.6m/s | -55°C | 1% | 0hPa | 2.7V | 18:12:15 | 01:29:44 | 00:00:00 | |
| BIOWL1-15 | 2026-09-05 00:19:51 | 50.65179 | 1.89219 | 97° | 71km/h | 16483m | 5.6m/s | -54.9°C | 1% | 0hPa | 2.7V | 18:12:15 | 01:29:33 | 00:00:00 | |
| BIOWL1-15 | 2026-09-05 00:19:46 | 50.65218 | 1.88898 | 99° | 80km/h | 16432m | 5.5m/s | -54.9°C | 1.1% | 0hPa | 2.6V | 18:12:15 | 01:29:22 | 00:00:00 | |
| DM0DOS-11 | 2026-09-05 00:19:33 | 50.65257 | 1.88582 | 102° | 78km/h | 16385m | 5.1m/s | -54.5°C | 4.6% | 0hPa | 2.6V | 08:30:00 | 01:29:12 | 00:00:00 | |
| BIOWL1-15 | 2026-09-05 00:19:30 | 50.65257 | 1.88582 | 102° | 78km/h | 16385m | 5.1m/s | -54.5°C | 1% | 0hPa | 2.6V | 18:12:15 | 01:29:12 | 00:00:00 | |
| BIOWL9-15 | 2026-09-05 00:19:24 | 50.65291 | 1.88311 | 103° | 75km/h | 16344m | 4.8m/s | -54.2°C | 1.4% | -1.0hPa | 2.6V | 00:00:00 | 00:00:00 | 00:00:00 | |
| DM0DOS-11 | 2026-09-05 00:19:21 | 50.65301 | 1.88251 | 105° | 80km/h | 16334m | 4m/s | -54.1°C | 4.5% | 0hPa | 2.6V | 08:30:00 | 01:29:01 | 00:00:00 | |
| AU51GT2 | 2026-09-05 00:19:20 | 50.65296 | 1.88281 | 105° | 78km/h | 16338m | 4.9m/s | -54.2°C | 1.5% | -1.0hPa | 2.6V | 00:00:00 | 00:00:00 | 00:00:00 | |
| DM0DOS-11 | 2026-09-05 00:19:13 | 50.65342 | 1.87945 | 103° | 80km/h | 16288m | 3.3m/s | -53.8°C | 4.4% | 0hPa | 2.6V | 08:30:00 | 01:28:51 | 00:00:00 | |
| DB0UT-7 | 2026-09-05 00:19:02 | 50.65374 | 1.87728 | 104° | 86km/h | 16259m | 4.6m/s | -53.6°C | 4.4% | 0hPa | 2.6V | 00:00:00 | 01:28:44 | 00:00:00 | |
| HTAHTA | 2026-09-05 00:19:01 | 50.65379 | 1.87697 | 103° | 78km/h | 16254m | 4.7m/s | 0°C | -1.0% | -1.0hPa | 2.6V | 00:00:00 | 00:00:00 | 00:00:00 | |
| BIOWL9-15 | 2026-09-05 00:18:53 | 50.65424 | 1.87354 | 99° | 77km/h | 16205m | 5.4m/s | -53.3°C | 1.4% | -1.0hPa | 2.6V | 00:00:00 | 00:00:00 | 00:00:00 | |
| DM0DOS-11 | 2026-09-05 00:18:51 | 50.65427 | 1.87324 | 98° | 77km/h | 16200m | 4.1m/s | -53.2°C | 4.3% | 0hPa | 2.6V | 08:30:00 | 01:28:31 | 00:00:00 | |
| AU51GT2 | 2026-09-05 00:18:49 | 50.65427 | 1.87324 | 98° | 75km/h | 16200m | 4.1m/s | -53.2°C | 1.4% | -1.0hPa | 2.6V | 00:00:00 | 00:00:00 | 00:00:00 | |
| BIOWL1-15 | 2026-09-05 00:18:43 | 50.65445 | 1.87136 | 100° | 82km/h | 16172m | 5.3m/s | -53.1°C | 0.9% | 0hPa | 2.6V | 18:12:15 | 01:28:25 | 00:00:00 | |
| DM0DOS-11 | 2026-09-05 00:18:31 | 50.65487 | 1.86696 | 98° | 80km/h | 16113m | 3.9m/s | -53.2°C | 4.1% | 0hPa | 2.6V | 08:30:00 | 01:28:11 | 00:00:00 | |
| BIOWL1-15 | 2026-09-05 00:18:29 | 50.65505 | 1.86500 | 102° | 86km/h | 16086m | 3.9m/s | -53.7°C | 0.8% | 0hPa | 2.6V | 18:12:15 | 01:28:05 | 00:00:00 | |
| BIOWL9-15 | 2026-09-05 00:18:22 | 50.65509 | 1.86468 | 102° | 82km/h | 16082m | 5.1m/s | -53.8°C | 1.4% | -1.0hPa | 2.6V | 00:00:00 | 00:00:00 | 00:00:00 | |
| DM0DOS-11 | 2026-09-05 00:18:20 | 50.65523 | 1.86371 | 103° | 86km/h | 16070m | 4.9m/s | -53.8°C | 4.3% | 0hPa | 2.6V | 08:30:00 | 01:28:01 | 00:00:00 | |
| BIOWL1-15 | 2026-09-05 00:18:16 | 50.65546 | 1.86199 | 99° | 89km/h | 16049m | 3m/s | -53.9°C | 1% | 0hPa | 2.6V | 18:12:15 | 01:27:56 | 00:00:00 | |
| DM0DOS-11 | 2026-09-05 00:18:13 | 50.65561 | 1.86021 | 96° | 89km/h | 16027m | 3.1m/s | -53.9°C | 4.3% | 0hPa | 2.6V | 08:30:00 | 01:27:51 | 00:00:00 | |
| BIOWL1-15 | 2026-09-05 00:18:03 | 50.65604 | 1.85566 | 97° | 89km/h | 15972m | 3.1m/s | -54.5°C | 0.9% | 0hPa | 2.7V | 18:12:15 | 01:27:38 | 00:00:00 | |
| DM0DOS-11 | 2026-09-05 00:18:02 | 50.65601 | 1.85601 | 98° | 89km/h | 15977m | 5.1m/s | -54.4°C | 4.4% | 0hPa | 2.7V | 08:30:00 | 01:27:39 | 00:00:00 | |
| HTAHTA | 2026-09-05 00:17:59 | 50.65618 | 1.85395 | 97° | 86km/h | 15953m | 4.5m/s | 0°C | -1.0% | -1.0hPa | 2.7V | 00:00:00 | 00:00:00 | 00:00:00 | |
| DM0DOS-11 | 2026-09-05 00:17:52 | 50.65630 | 1.85255 | 97° | 91km/h | 15936m | 4.1m/s | -54.7°C | 4.6% | 0hPa | 2.7V | 08:30:00 | 01:27:29 | 00:00:00 | |
| BIOWL1-15 | 2026-09-05 00:17:50 | 50.65621 | 1.85360 | 99° | 89km/h | 15949m | 3.6m/s | -54.8°C | 1% | 0hPa | 2.6V | 18:12:15 | 01:27:32 | 00:00:00 | |
| AU51GT2 | 2026-09-05 00:17:47 | 50.65631 | 1.85255 | 97° | 91km/h | 15936m | 4.1m/s | -54.7°C | 1.5% | -1.0hPa | 2.7V | 00:00:00 | 00:00:00 | 00:00:00 | |
| DM0DOS-11 | 2026-09-05 00:17:42 | 50.65650 | 1.84903 | 94° | 82km/h | 15896m | 4m/s | -54.7°C | 4.6% | 0hPa | 2.7V | 08:30:00 | 01:27:19 | 00:00:00 | |
| BIOWL1-15 | 2026-09-05 00:17:40 | 50.65650 | 1.84903 | 95° | 82km/h | 15896m | 4m/s | -54.7°C | 1% | 0hPa | 2.7V | 18:12:15 | 01:27:19 | 00:00:00 | |
| DM0DOS-11 | 2026-09-05 00:17:32 | 50.65671 | 1.84564 | 97° | 89km/h | 15855m | 3.9m/s | -54.8°C | 4.6% | 0hPa | 2.7V | 08:30:00 | 01:27:09 | 00:00:00 | |
| BIOWL1-15 | 2026-09-05 00:17:26 | 50.65675 | 1.84529 | 99° | 88km/h | 15851m | 5.3m/s | -54.8°C | 1.1% | 0hPa | 2.7V | 18:12:15 | 01:27:08 | 00:00:00 | |
| BIOWL1-15 | 2026-09-05 00:17:16 | 50.65714 | 1.84179 | 102° | 93km/h | 15808m | 3.6m/s | -54.4°C | 1.1% | 0hPa | 2.7V | 18:12:15 | 01:26:58 | 00:00:00 | |
| AU51GT2 | 2026-09-05 00:17:16 | 50.65714 | 1.84179 | 102° | 93km/h | 15808m | 3.6m/s | -54.4°C | 1.5% | -1.0hPa | 2.7V | 00:00:00 | 00:00:00 | 00:00:00 | |
| DM0DOS-11 | 2026-09-05 00:17:12 | 50.65765 | 1.83860 | 103° | 91km/h | 15767m | 5.3m/s | -54.1°C | 4.4% | 0hPa | 2.7V | 08:30:00 | 01:26:49 | 00:00:00 | |
| BIOWL1-15 | 2026-09-05 00:17:05 | 50.65796 | 1.83655 | 104° | 86km/h | 15739m | 3.9m/s | 0°C | 0% | 0hPa | 2.7V | 18:12:15 | 01:26:43 | 00:00:00 | |
| DM0DOS-11 | 2026-09-05 00:17:02 | 50.65819 | 1.83526 | 103° | 86km/h | 15719m | 4.2m/s | -53.8°C | 4.3% | 0hPa | 2.7V | 08:30:00 | 01:26:39 | 00:00:00 | |
| DM0DOS-11 | 2026-09-05 00:16:52 | 50.65875 | 1.83195 | 106° | 78km/h | 15674m | 4.8m/s | -54.4°C | 4.6% | 0hPa | 2.7V | 08:30:00 | 01:26:29 | 00:00:00 | |
| BIOWL1-15 | 2026-09-05 00:16:50 | 50.65858 | 1.83287 | 105° | 84km/h | 15687m | 5.3m/s | 0°C | 0% | 0hPa | 2.6V | 18:12:15 | 01:26:32 | 00:00:00 | |
| BIOWL9-15 | 2026-09-05 00:16:50 | 50.65864 | 1.83256 | 106° | 80km/h | 15683m | 4.0m/s | -54.2°C | 1.5% | -1.0hPa | 2.7V | 00:00:00 | 00:00:00 | 00:00:00 | |
| AU51GT2 | 2026-09-05 00:16:45 | 50.65888 | 1.83133 | 109° | 82km/h | 15666m | 4.5m/s | -54.4°C | 1.5% | -1.0hPa | 2.7V | 00:00:00 | 00:00:00 | 00:00:00 | |
| DM0DOS-11 | 2026-09-05 00:16:42 | 50.65953 | 1.82859 | 107° | 99km/h | 15628m | 5.5m/s | -54.1°C | 4.5% | 0hPa | 2.7V | 08:30:00 | 01:26:19 | 00:00:00 | |
| BIOWL1-15 | 2026-09-05 00:16:40 | 50.65953 | 1.82859 | 108° | 99km/h | 15628m | 5.5m/s | 0°C | 0% | 0hPa | 2.7V | 18:12:15 | 01:26:19 | 00:00:00 | |
| DM0DOS-11 | 2026-09-05 00:16:32 | 50.66023 | 1.82466 | 103° | 95km/h | 15576m | 3.4m/s | -53.7°C | 4.3% | 0hPa | 2.7V | 08:30:00 | 01:26:08 | 00:00:00 | |
| DM0DOS-11 | 2026-09-05 00:16:21 | 50.66077 | 1.82115 | 102° | 89km/h | 15530m | 4.5m/s | -54.1°C | 4.4% | 0hPa | 2.7V | 08:30:00 | 01:25:58 | 00:00:00 | |
| AU51GT2 | 2026-09-05 00:16:14 | 50.66093 | 1.82008 | 102° | 91km/h | 15516m | 4.2m/s | -54.3°C | 1.5% | -1.0hPa | 2.7V | 00:00:00 | 00:00:00 | 00:00:00 | |
| DM0DOS-11 | 2026-09-05 00:16:11 | 50.66129 | 1.81754 | 103° | 93km/h | 15481m | 5m/s | -54.5°C | 4.5% | 0hPa | 2.7V | 08:30:00 | 01:25:48 | 00:00:00 | |
| DB0UT-7 | 2026-09-05 00:16:06 | 50.66129 | 1.81754 | 104° | 104km/h | 15482m | 5.0m/s | -54.4°C | 4.5% | 0hPa | 2.7V | 00:00:00 | 00:00:00 | 00:00:00 | |
| DM0DOS-11 | 2026-09-05 00:16:01 | 50.66188 | 1.81385 | 104° | 104km/h | 15436m | 4.8m/s | -54.9°C | 4.7% | 0hPa | 2.7V | 08:30:00 | 01:25:38 | 00:00:00 | |
| DM0DOS-11 | 2026-09-05 00:15:49 | 50.66254 | 1.80972 | 101° | 104km/h | 15389m | 4.6m/s | -54.9°C | 4.7% | 0hPa | 2.7V | 08:30:00 | 01:25:28 | 00:00:00 | |
| AU51GT2 | 2026-09-05 00:15:43 | 50.66276 | 1.80805 | 101° | 110km/h | 15371m | 5.7m/s | -54.9°C | 1.6% | -1.0hPa | 2.7V | 00:00:00 | 00:00:00 | 00:00:00 | |
| DM0DOS-11 | 2026-09-05 00:15:37 | 50.66306 | 1.80549 | 98° | 108km/h | 15343m | 4.5m/s | -54.8°C | 4.7% | 0hPa | 2.7V | 08:30:00 | 01:25:18 | 00:00:00 | |
| DB0UT-7 | 2026-09-05 00:15:36 | 50.66306 | 1.80549 | 99° | 115km/h | 15343m | 4.5m/s | -54.8°C | 4.7% | 0hPa | 2.7V | 00:00:00 | 01:25:18 | 00:00:00 | |
| DM0DOS-11 | 2026-09-05 00:15:31 | 50.66341 | 1.80140 | 97° | 104km/h | 15296m | 3.9m/s | -54.7°C | 4.6% | 0hPa | 2.7V | 08:30:00 | 01:25:08 | 00:00:00 | |
| BIOWL1-15 | 2026-09-05 00:15:23 | 50.66354 | 1.79978 | 96° | 104km/h | 15278m | 5.1m/s | -54.9°C | 1.1% | 0hPa | 2.7V | 18:12:15 | 01:25:04 | 00:00:00 | |
| DM0DOS-11 | 2026-09-05 00:15:19 | 50.66365 | 1.79740 | 92° | 97km/h | 15249m | 3.9m/s | -54.7°C | 4.6% | 0hPa | 2.7V | 08:30:00 | 01:24:58 | 00:00:00 | |
| BIOWL1-15 | 2026-09-05 00:15:11 | 50.66376 | 1.79444 | 92° | 91km/h | 15212m | 4.9m/s | -54.8°C | 1.1% | 0hPa | 2.6V | 18:12:15 | 01:24:50 | 00:00:00 | |
| DM0DOS-11 | 2026-09-05 00:15:07 | 50.66378 | 1.79371 | 92° | 91km/h | 15203m | 5.2m/s | -54.9°C | 4.6% | 0hPa | 2.7V | 08:30:00 | 01:24:48 | 00:00:00 | |
| DM0DOS-11 | 2026-09-05 00:15:01 | 50.66410 | 1.78997 | 98° | 97km/h | 15157m | 4.4m/s | -55.2°C | 4.7% | 0hPa | 2.6V | 08:30:00 | 01:24:38 | 00:00:00 | |
| BIOWL1-15 | 2026-09-05 00:14:58 | 50.66419 | 1.78921 | 102° | 99km/h | 15148m | 4.1m/s | -55.3°C | 1.3% | 0hPa | 2.7V | 18:12:15 | 01:24:36 | 00:00:00 | |
| DM0DOS-11 | 2026-09-05 00:14:48 | 50.66475 | 1.78487 | 103° | 106km/h | 15099m | 4.8m/s | -55.8°C | 4.9% | 0hPa | 2.6V | 08:30:00 | 01:24:25 | 00:00:00 | |
| BIOWL1-15 | 2026-09-05 00:14:48 | 50.66447 | 1.78686 | 102° | 100km/h | 15121m | 4.2m/s | -55.6°C | 1.3% | 0hPa | 2.6V | 18:12:15 | 01:24:30 | 00:00:00 | |
| BIOWL9-15 | 2026-09-05 00:14:45 | 50.66468 | 1.78527 | 103° | 102km/h | 15103m | 3.7m/s | -55.8°C | 1.8% | -1.0hPa | 2.7V | 00:00:00 | 00:00:00 | 00:00:00 | |
| AU51GT2 | 2026-09-05 00:14:41 | 50.66492 | 1.78361 | 102° | 108km/h | 15085m | 4.9m/s | -55.8°C | 1.8% | -1.0hPa | 2.7V | 00:00:00 | 00:00:00 | 00:00:00 | |
| DM0DOS-11 | 2026-09-05 00:14:38 | 50.66540 | 1.78051 | 105° | 115km/h | 15053m | 4.8m/s | -56°C | 5.1% | 0hPa | 2.7V | 08:30:00 | 01:24:15 | 00:00:00 | |
| BIOWL1-15 | 2026-09-05 00:14:37 | 50.66524 | 1.78140 | 105° | 117km/h | 15062m | 5.6m/s | -56°C | 1.5% | 0hPa | 2.6V | 18:12:15 | 01:24:17 | 00:00:00 | |
| BIOWL1-15 | 2026-09-05 00:14:25 | 50.66600 | 1.77685 | 103° | 122km/h | 15017m | 4.9m/s | -56°C | 1.6% | 0hPa | 2.6V | 18:12:15 | 01:24:07 | 00:00:00 | |
| BIOWL1-15 | 2026-09-05 00:14:14 | 50.66679 | 1.77150 | 103° | 131km/h | 14970m | 4.8m/s | -56.4°C | 1.7% | 0hPa | 2.6V | 18:12:15 | 01:23:56 | 00:00:00 | |
| BIOWL9-15 | 2026-09-05 00:14:14 | 50.66686 | 1.77099 | 102° | 131km/h | 14965m | 4.0m/s | -56.4°C | 2.0% | -1.0hPa | 2.6V | 00:00:00 | 00:00:00 | 00:00:00 | |
| DM0DOS-11 | 2026-09-05 00:14:13 | 50.66718 | 1.76891 | 103° | 135km/h | 14948m | 4.2m/s | -56.3°C | 5.3% | 0hPa | 2.6V | 08:30:00 | 01:23:51 | 00:00:00 | |
| BIOWL1-15 | 2026-09-05 00:14:03 | 50.66777 | 1.76481 | 103° | 130km/h | 14914m | 4.8m/s | -56.5°C | 1.9% | 0hPa | 2.6V | 18:12:15 | 01:23:43 | 00:00:00 | |
| DM0DOS-11 | 2026-09-05 00:14:02 | 50.66805 | 1.76277 | 99° | 131km/h | 14898m | 3.7m/s | -56.7°C | 5.4% | 0hPa | 2.6V | 08:30:00 | 01:23:39 | 00:00:00 | |
| BIOWL1-15 | 2026-09-05 00:13:52 | 50.66833 | 1.76024 | 101° | 126km/h | 14879m | 3.5m/s | -56.9°C | 2% | 0hPa | 2.6V | 18:12:15 | 01:23:34 | 00:00:00 | |
| BIOWL1-15 | 2026-09-05 00:13:41 | 50.66937 | 1.75024 | 100° | 130km/h | 14799m | 4.6m/s | -57.4°C | 2.1% | 0hPa | 2.6V | 18:12:15 | 01:23:14 | 00:00:00 | |
| BIOWL1-15 | 2026-09-05 00:13:33 | 50.66942 | 1.74974 | 100° | 128km/h | 14795m | 4m/s | -57.4°C | 2.1% | 0hPa | 2.6V | 18:12:15 | 01:23:13 | 00:00:00 | |
| BIOWL1-15 | 2026-09-05 00:13:20 | 50.67006 | 1.74428 | 99° | 122km/h | 14751m | 3.4m/s | -57.3°C | 2.2% | 0hPa | 2.6V | 18:12:15 | 01:23:02 | 00:00:00 | |
| BIOWL1-15 | 2026-09-05 00:13:09 | 50.67095 | 1.73564 | 97° | 126km/h | 14679m | 3.4m/s | -57.9°C | 2.2% | 0hPa | 2.6V | 18:12:15 | 01:22:44 | 00:00:00 | |
| BIOWL1-15 | 2026-09-05 00:12:57 | 50.67111 | 1.73318 | 95° | 126km/h | 14659m | 2.9m/s | -57.8°C | 2.2% | 0hPa | 2.6V | 18:12:15 | 01:22:39 | 00:00:00 | |
| BIOWL1-15 | 2026-09-05 00:12:46 | 50.67171 | 1.72589 | 97° | 124km/h | 14597m | 2.8m/s | -57.6°C | 2.3% | 0hPa | 2.7V | 18:12:15 | 01:22:24 | 00:00:00 | |
| BIOWL1-15 | 2026-09-05 00:12:33 | 50.67207 | 1.72169 | 99° | 119km/h | 14562m | 4m/s | -57.5°C | 2.2% | 0hPa | 2.6V | 18:12:15 | 01:22:15 | 00:00:00 | |
| DM0DOS-11 | 2026-09-05 00:12:22 | 50.67268 | 1.71516 | 98° | 117km/h | 14504m | 3.8m/s | -57.3°C | 5.8% | 0hPa | 2.6V | 08:30:00 | 01:22:01 | 00:00:00 | |
| BIOWL1-15 | 2026-09-05 00:12:22 | 50.67254 | 1.71654 | 100° | 119km/h | 14517m | 4.8m/s | -57.4°C | 2.2% | 0hPa | 2.7V | 18:12:15 | 01:22:04 | 00:00:00 | |
| BIOWL1-15 | 2026-09-05 00:12:16 | 50.67292 | 1.71183 | 96° | 122km/h | 14476m | 4.3m/s | -57.2°C | 2.1% | 0hPa | 2.6V | 18:12:15 | 01:21:54 | 00:00:00 | |
| DM0DOS-11 | 2026-09-05 00:12:12 | 50.67302 | 1.71039 | 96° | 120km/h | 14463m | 4m/s | -57.1°C | 5.7% | 0hPa | 2.7V | 08:30:00 | 01:21:51 | 00:00:00 | |
| BIOWL1-15 | 2026-09-05 00:12:07 | 50.67339 | 1.70661 | 98° | 122km/h | 14430m | 3.8m/s | -57°C | 2% | 0hPa | 2.6V | 18:12:15 | 01:21:43 | 00:00:00 | |
| AU51GT2 | 2026-09-05 00:12:06 | 50.67320 | 1.70849 | 99° | 119km/h | 14447m | 4.7m/s | -57.1°C | 2.2% | -1.0hPa | 2.7V | 00:00:00 | 00:00:00 | 00:00:00 | |
| DM0DOS-11 | 2026-09-05 00:11:52 | 50.67391 | 1.70121 | 99° | 124km/h | 14382m | 2.8m/s | -56.7°C | 5.5% | 0hPa | 2.7V | 08:30:00 | 01:21:32 | 00:00:00 | |
| BIOWL1-15 | 2026-09-05 00:11:50 | 50.67391 | 1.70121 | 99° | 124km/h | 14382m | 2.8m/s | -56.7°C | 1.9% | 0hPa | 2.7V | 18:12:15 | 01:21:32 | 00:00:00 | |
| DM0DOS-11 | 2026-09-05 00:11:42 | 50.67440 | 1.69614 | 97° | 126km/h | 14338m | 3.8m/s | -56.9°C | 5.7% | 0hPa | 2.6V | 08:30:00 | 01:21:22 | 00:00:00 | |
| BIOWL1-15 | 2026-09-05 00:11:39 | 50.67444 | 1.69564 | 98° | 126km/h | 14335m | 3.5m/s | -56.9°C | 2% | 0hPa | 2.7V | 18:12:15 | 01:21:21 | 00:00:00 | |
| BIOWL9-15 | 2026-09-05 00:11:38 | 50.67449 | 1.69515 | 98° | 126km/h | 14330m | 5.1m/s | -56.9°C | 2.2% | -1.0hPa | 2.7V | 00:00:00 | 00:00:00 | 00:00:00 | |
| AU51GT2 | 2026-09-05 00:11:34 | 50.67463 | 1.69308 | 94° | 131km/h | 14312m | 4.1m/s | -56.7°C | 2.2% | -1.0hPa | 2.7V | 00:00:00 | 00:00:00 | 00:00:00 | |
| DM0DOS-11 | 2026-09-05 00:11:32 | 50.67476 | 1.69096 | 95° | 135km/h | 14295m | 3.9m/s | -56.6°C | 5.5% | 0hPa | 2.7V | 08:30:00 | 01:21:12 | 00:00:00 | |
| BIOWL1-15 | 2026-09-05 00:11:31 | 50.67479 | 1.69042 | 96° | 135km/h | 14291m | 4.9m/s | -56.6°C | 2% | 0hPa | 2.6V | 18:12:15 | 01:21:11 | 00:00:00 | |
| DM0DOS-11 | 2026-09-05 00:11:22 | 50.67509 | 1.68571 | 95° | 128km/h | 14250m | 5.2m/s | -56.3°C | 5.5% | 0hPa | 2.6V | 08:30:00 | 01:21:02 | 00:00:00 | |
| BIOWL1-15 | 2026-09-05 00:11:19 | 50.67533 | 1.68163 | 96° | 128km/h | 14215m | 5.2m/s | -56.1°C | 2% | 0hPa | 2.7V | 18:12:15 | 01:20:54 | 00:00:00 | |
| DM0DOS-11 | 2026-09-05 00:11:12 | 50.67540 | 1.68062 | 95° | 128km/h | 14206m | 4.5m/s | -56°C | 5.4% | 0hPa | 2.8V | 08:30:00 | 01:20:52 | 00:00:00 | |
| BIOWL1-15 | 2026-09-05 00:11:07 | 50.67549 | 1.67909 | 96° | 131km/h | 14192m | 5.3m/s | -55.9°C | 1.9% | 0hPa | 2.6V | 18:12:15 | 01:20:49 | 00:00:00 | |
| AU51GT2 | 2026-09-05 00:11:03 | 50.67561 | 1.67703 | 92° | 126km/h | 14174m | 4.0m/s | -55.8°C | 2.2% | -1.0hPa | 2.6V | 00:00:00 | 00:00:00 | 00:00:00 | |
| DM0DOS-11 | 2026-09-05 00:11:02 | 50.67567 | 1.67555 | 93° | 122km/h | 14161m | 4.3m/s | -55.8°C | 5.4% | 0hPa | 2.6V | 08:30:00 | 01:20:42 | 00:00:00 | |
| BIOWL1-15 | 2026-09-05 00:10:56 | 50.67583 | 1.67211 | 94° | 126km/h | 14131m | 4.3m/s | -56°C | 2.1% | 0hPa | 2.6V | 18:12:15 | 01:20:35 | 00:00:00 | |
| DM0DOS-11 | 2026-09-05 00:10:52 | 50.67590 | 1.67066 | 95° | 119km/h | 14118m | 4.6m/s | -56°C | 5.5% | 0hPa | 2.8V | 08:30:00 | 01:20:32 | 00:00:00 | |
| BIOWL1-15 | 2026-09-05 00:10:45 | 50.67609 | 1.66740 | 96° | 122km/h | 14089m | 4.6m/s | -55.9°C | 2.1% | 0hPa | 2.8V | 18:12:15 | 01:20:25 | 00:00:00 | |
| DM0DOS-11 | 2026-09-05 00:10:42 | 50.67621 | 1.66592 | 98° | 128km/h | 14076m | 4.3m/s | -55.9°C | 5.5% | 0hPa | 2.6V | 08:30:00 | 01:20:22 | 00:00:00 | |
| BIOWL9-15 | 2026-09-05 00:10:36 | 50.67636 | 1.66392 | 96° | 122km/h | 14057m | 5.3m/s | -56.0°C | 2.3% | -1.0hPa | 2.7V | 00:00:00 | 00:00:00 | 00:00:00 | |
| AU51GT2 | 2026-09-05 00:10:33 | 50.67648 | 1.66199 | 94° | 122km/h | 14039m | 3.9m/s | -55.9°C | 2.3% | -1.0hPa | 2.7V | 00:00:00 | 00:00:00 | 00:00:00 | |
| DM0DOS-11 | 2026-09-05 00:10:32 | 50.67653 | 1.66100 | 95° | 124km/h | 14030m | 3.2m/s | -55.8°C | 5.6% | 0hPa | 2.7V | 08:30:00 | 01:20:12 | 00:00:00 | |
| BIOWL1-15 | 2026-09-05 00:10:32 | 50.67648 | 1.66199 | 95° | 124km/h | 14039m | 3.9m/s | -55.9°C | 2.3% | 0hPa | 2.6V | 18:12:15 | 01:20:14 | 00:00:00 | |
| DB0UT-7 | 2026-09-05 00:10:29 | 50.67656 | 1.66050 | 95° | 126km/h | 14027m | 4.3m/s | -55.8°C | 5.5% | 0hPa | 2.8V | 00:00:00 | 01:20:11 | 00:00:00 | |
| DM0DOS-11 | 2026-09-05 00:10:22 | 50.67678 | 1.65607 | 95° | 122km/h | 13985m | 4.3m/s | -56.1°C | 5.7% | 0hPa | 2.8V | 08:30:00 | 01:20:02 | 00:00:00 | |
| BIOWL1-15 | 2026-09-05 00:10:21 | 50.67675 | 1.65655 | 96° | 122km/h | 13990m | 5.7m/s | -56.1°C | 2.4% | 0hPa | 2.8V | 18:12:15 | 01:20:03 | 00:00:00 | |
| BIOWL1-15 | 2026-09-05 00:10:13 | 50.67703 | 1.64887 | 96° | 119km/h | 13921m | 5.4m/s | 0°C | 0% | 0hPa | 2.6V | 18:12:15 | 01:19:47 | 00:00:00 | |
| DM0DOS-11 | 2026-09-05 00:10:12 | 50.67695 | 1.65122 | 91° | 117km/h | 13942m | 5.1m/s | -56.5°C | 5.8% | 0hPa | 2.7V | 08:30:00 | 01:19:52 | 00:00:00 | |
| BIOWL9-15 | 2026-09-05 00:10:05 | 50.67703 | 1.64887 | 95° | 119km/h | 13921m | 5.4m/s | -56.5°C | 2.5% | -1.0hPa | 2.8V | 00:00:00 | 00:00:00 | 00:00:00 | |
| DM0DOS-11 | 2026-09-05 00:10:02 | 50.67722 | 1.64650 | 97° | 120km/h | 13898m | 5.5m/s | -56.4°C | 5.7% | 0hPa | 2.8V | 08:30:00 | 01:19:42 | 00:00:00 | |
| BIOWL1-15 | 2026-09-05 00:10:01 | 50.67718 | 1.64698 | 98° | 120km/h | 13903m | 4m/s | 0°C | 0% | 0hPa | 2.8V | 18:12:15 | 01:19:43 | 00:00:00 | |
| DM0DOS-11 | 2026-09-05 00:09:52 | 50.67759 | 1.64179 | 96° | 117km/h | 13853m | 5.1m/s | -56.5°C | 5.8% | 0hPa | 2.6V | 08:30:00 | 01:19:32 | 00:00:00 | |
| DM0DOS-11 | 2026-09-05 00:09:42 | 50.67804 | 1.63716 | 100° | 120km/h | 13807m | 5.2m/s | -57°C | 0% | 0hPa | 2.8V | 08:30:00 | 01:19:22 | 00:00:00 | |
| DM0DOS-11 | 2026-09-05 00:09:32 | 50.67869 | 1.63250 | 106° | 122km/h | 13757m | 6m/s | -57.1°C | 0% | 0hPa | 2.6V | 08:30:00 | 01:19:12 | 00:00:00 | |
| AU51GT2 | 2026-09-05 00:09:30 | 50.67869 | 1.63250 | 106° | 122km/h | 13757m | 6.0m/s | -57.1°C | 2.7% | -1.0hPa | 2.8V | 00:00:00 | 00:00:00 | 00:00:00 | |
| DM0DOS-11 | 2026-09-05 00:09:22 | 50.67969 | 1.62779 | 109° | 128km/h | 13704m | 6.1m/s | 0°C | 0% | 0hPa | 2.8V | 00:00:00 | 01:19:02 | 00:00:00 | |
| DB0UT-7 | 2026-09-05 00:09:16 | 50.68013 | 1.62584 | 111° | 137km/h | 13682m | 4.9m/s | -56.9°C | 6.3% | 0hPa | 2.7V | 00:00:00 | 00:00:00 | 00:00:00 | |
| DM0DOS-11 | 2026-09-05 00:09:02 | 50.68227 | 1.61738 | 112° | 141km/h | 13601m | 5m/s | 0°C | 0% | 0hPa | 2.7V | 00:00:00 | 01:18:41 | 00:00:00 | |
| DB0UT-7 | 2026-09-05 00:08:46 | 50.68415 | 1.61073 | 113° | 159km/h | 13542m | 3.1m/s | -57.1°C | 7.0% | 0hPa | 2.7V | 00:00:00 | 01:18:28 | 00:00:00 | |
| AU51GT2 | 2026-09-05 00:08:28 | 50.68640 | 1.60126 | 109° | 148km/h | 13459m | 6.1m/s | -57.3°C | 3.7% | -1.0hPa | 2.7V | 00:00:00 | 00:00:00 | 00:00:00 | |
| BIOWL1-15 | 2026-09-05 00:08:22 | 50.69105 | 1.58206 | 109° | 170km/h | 13277m | 3.9m/s | -58.3°C | 5.7% | 0hPa | 2.7V | 18:12:15 | 01:17:38 | 00:00:00 | |
| DB0UT-7 | 2026-09-05 00:07:35 | 50.69357 | 1.56884 | 105° | 164km/h | 13183m | 4.9m/s | -57.7°C | 9.0% | 0hPa | 2.8V | 00:00:00 | 00:00:00 | 00:00:00 | |
| BIOWL9-15 | 2026-09-05 00:07:30 | 50.69458 | 1.56309 | 106° | 166km/h | 13145m | 3.9m/s | -57.5°C | 4.9% | -1.0hPa | 2.8V | 00:00:00 | 00:00:00 | 00:00:00 | |
| AU51GT2 | 2026-09-05 00:07:26 | 50.69458 | 1.56309 | 106° | 166km/h | 13145m | 3.9m/s | -57.5°C | 4.9% | -1.0hPa | 2.8V | 00:00:00 | 00:00:00 | 00:00:00 | |
| BIOWL1-15 | 2026-09-05 00:06:51 | 50.69780 | 1.54098 | 101° | 157km/h | 12994m | 3.8m/s | -57.7°C | 8.7% | 0hPa | 2.8V | 18:12:15 | 01:16:33 | 00:00:00 | |
| BIOWL1-15 | 2026-09-05 00:06:37 | 50.69898 | 1.53059 | 100° | 153km/h | 12920m | 5m/s | -57.7°C | 10.2% | 0hPa | 2.8V | 18:12:15 | 01:16:16 | 00:00:00 | |
| BIOWL1-15 | 2026-09-05 00:06:23 | 50.69989 | 1.52278 | 101° | 148km/h | 12865m | 4.3m/s | -57.6°C | 12% | 0hPa | 2.7V | 18:12:15 | 01:16:03 | 00:00:00 | |
| BIOWL1-15 | 2026-09-05 00:06:11 | 50.70061 | 1.51691 | 101° | 150km/h | 12823m | 4.5m/s | -58.2°C | 14.3% | 0hPa | 2.7V | 18:12:15 | 01:15:53 | 00:00:00 | |
| DM0DOS-11 | 2026-09-05 00:06:02 | 50.70156 | 1.50879 | 100° | 144km/h | 12764m | 4m/s | 0°C | 0% | 0hPa | 2.8V | 00:00:00 | 01:15:39 | 00:00:00 | |
| BIOWL1-15 | 2026-09-05 00:06:00 | 50.70136 | 1.51052 | 100° | 150km/h | 12777m | 5.1m/s | -59.1°C | 17.4% | 0hPa | 2.7V | 18:12:15 | 01:15:42 | 00:00:00 | |
| BIOWL9-15 | 2026-09-05 00:05:56 | 50.70162 | 1.50822 | 100° | 144km/h | 12760m | 4.8m/s | -59.3°C | 13.8% | -1.0hPa | 2.7V | 00:00:00 | 00:00:00 | 00:00:00 | |
| AU51GT2 | 2026-09-05 00:05:53 | 50.70184 | 1.50653 | 101° | 142km/h | 12746m | 4.2m/s | -59.3°C | 14.7% | -1.0hPa | 2.7V | 00:00:00 | 00:00:00 | 00:00:00 | |
| DM0DOS-11 | 2026-09-05 00:05:51 | 50.70234 | 1.50252 | 101° | 148km/h | 12718m | 3.9m/s | 0°C | 0% | 0hPa | 2.7V | 00:00:00 | 01:15:28 | 00:00:00 | |
| BIOWL1-15 | 2026-09-05 00:05:51 | 50.70213 | 1.50425 | 101° | 146km/h | 12731m | 4.3m/s | -59.4°C | 20.8% | 0hPa | 2.7V | 18:12:15 | 01:15:31 | 00:00:00 | |
| DB0UT-7 | 2026-09-05 00:05:50 | 50.70206 | 1.50482 | 101° | 142km/h | 12735m | 3.4m/s | -59.3°C | 22.0% | 0hPa | 2.7V | 00:00:00 | 00:00:00 | 00:00:00 | |
| DM0DOS-11 | 2026-09-05 00:05:41 | 50.70301 | 1.49687 | 99° | 142km/h | 12674m | 4.7m/s | 0°C | 0% | 0hPa | 2.7V | 00:00:00 | 01:15:18 | 00:00:00 | |
| BIOWL1-15 | 2026-09-05 00:05:39 | 50.70282 | 1.49858 | 100° | 144km/h | 12687m | 5.1m/s | -59.7°C | 24.1% | 0hPa | 2.8V | 18:12:15 | 01:15:21 | 00:00:00 | |
| BIOWL1-15 | 2026-09-05 00:05:28 | 50.70353 | 1.49249 | 101° | 142km/h | 12641m | 3.7m/s | -59.8°C | 26.3% | 0hPa | 2.8V | 18:12:15 | 01:15:10 | 00:00:00 | |
| BIOWL9-15 | 2026-09-05 00:05:25 | 50.70373 | 1.49082 | 100° | 142km/h | 12628m | 4.5m/s | -59.9°C | 20.7% | -1.0hPa | 2.8V | 00:00:00 | 00:00:00 | 00:00:00 | |
| AU51GT2 | 2026-09-05 00:05:22 | 50.70393 | 1.48915 | 100° | 141km/h | 12614m | 4.1m/s | -60.0°C | 21.5% | -1.0hPa | 2.8V | 00:00:00 | 00:00:00 | 00:00:00 | |
| DB0UT-7 | 2026-09-05 00:05:20 | 50.70407 | 1.48804 | 102° | 139km/h | 12607m | 4.1m/s | -60.0°C | 29.9% | 0hPa | 2.8V | 00:00:00 | 01:15:02 | 00:00:00 | |
| BIOWL1-15 | 2026-09-05 00:05:18 | 50.70539 | 1.47650 | 99° | 142km/h | 12520m | 4.7m/s | -60.3°C | 31.2% | 0hPa | 2.8V | 18:12:15 | 01:14:41 | 00:00:00 | |
| BIOWL1-15 | 2026-09-05 00:05:06 | 50.70545 | 1.47594 | 100° | 142km/h | 12516m | 3.4m/s | -60.3°C | 31.4% | 0hPa | 2.7V | 18:12:15 | 01:14:40 | 00:00:00 | |
| BIOWL1-15 | 2026-09-05 00:04:52 | 50.70585 | 1.47259 | 101° | 144km/h | 12493m | 4.5m/s | -60.4°C | 31.8% | 0hPa | 2.7V | 18:12:15 | 01:14:34 | 00:00:00 | |
| AU51GT2 | 2026-09-05 00:04:51 | 50.70592 | 1.47203 | 101° | 142km/h | 12489m | 2.9m/s | -60.4°C | 26.0% | -1.0hPa | 2.7V | 00:00:00 | 00:00:00 | 00:00:00 | |
| BIOWL1-15 | 2026-09-05 00:04:41 | 50.70659 | 1.46643 | 99° | 141km/h | 12448m | 3.6m/s | -60.3°C | 32.2% | 0hPa | 2.7V | 18:12:15 | 01:14:23 | 00:00:00 | |
| BIOWL1-15 | 2026-09-05 00:04:31 | 50.70776 | 1.45358 | 98° | 139km/h | 12361m | 4.5m/s | 0°C | 0% | 0hPa | 2.7V | 18:12:15 | 01:14:00 | 00:00:00 | |
| BIOWL1-15 | 2026-09-05 00:04:16 | 50.70796 | 1.45141 | 99° | 137km/h | 12346m | 3.6m/s | 0°C | 0% | 0hPa | 2.8V | 18:12:15 | 01:13:56 | 00:00:00 | |
| BIOWL1-15 | 2026-09-05 00:04:06 | 50.70881 | 1.44205 | 98° | 137km/h | 12279m | 4.4m/s | 0°C | 0% | 0hPa | 2.8V | 18:12:15 | 01:13:39 | 00:00:00 | |
| BIOWL1-15 | 2026-09-05 00:03:57 | 50.70889 | 1.44098 | 96° | 135km/h | 12270m | 5.1m/s | 0°C | 0% | 0hPa | 2.8V | 18:12:15 | 01:13:37 | 00:00:00 | |
| BIOWL1-15 | 2026-09-05 00:03:44 | 50.70925 | 1.43495 | 95° | 135km/h | 12227m | 3.2m/s | 0°C | 0% | 0hPa | 2.8V | 18:12:15 | 01:13:26 | 00:00:00 | |
| BIOWL1-15 | 2026-09-05 00:03:33 | 50.70958 | 1.42863 | 97° | 131km/h | 12177m | 3.2m/s | 0°C | 0% | 0hPa | 2.8V | 18:12:15 | 01:13:14 | 00:00:00 | |
| BIOWL1-15 | 2026-09-05 00:03:21 | 50.70984 | 1.42292 | 94° | 130km/h | 12133m | 3.5m/s | 0°C | 0% | 0hPa | 2.8V | 18:12:15 | 01:13:03 | 00:00:00 | |
| BIOWL1-15 | 2026-09-05 00:03:11 | 50.71018 | 1.41671 | 95° | 126km/h | 12083m | 4.5m/s | 0°C | 0% | 0hPa | 2.8V | 18:12:15 | 01:12:51 | 00:00:00 | |
| BIOWL1-15 | 2026-09-05 00:02:59 | 50.71063 | 1.40909 | 96° | 126km/h | 12019m | 5.1m/s | 0°C | 0% | 0hPa | 2.7V | 18:12:15 | 01:12:36 | 00:00:00 | |
| BIOWL9-15 | 2026-09-05 00:02:54 | 50.71077 | 1.40703 | 95° | 131km/h | 12002m | 4.0m/s | 0°C | -1.0% | -1.0hPa | 2.8V | 00:00:00 | 00:00:00 | 00:00:00 | |
| AU51GT2 | 2026-09-05 00:02:51 | 50.71091 | 1.40493 | 97° | 130km/h | 11986m | 3.7m/s | -57.5°C | -1.0% | -1.0hPa | 2.8V | 00:00:00 | 00:00:00 | 00:00:00 | |
| BIOWL1-15 | 2026-09-05 00:02:43 | 50.71103 | 1.40341 | 97° | 126km/h | 11974m | 3.4m/s | 0°C | 0% | 0hPa | 2.8V | 18:12:15 | 01:12:25 | 00:00:00 | |
| BIOWL1-15 | 2026-09-05 00:02:29 | 50.71161 | 1.39626 | 97° | 130km/h | 11915m | 4.3m/s | 0°C | 0% | 0hPa | 2.8V | 18:12:15 | 01:12:11 | 00:00:00 | |
| AU51GT2 | 2026-09-05 00:02:18 | 50.71224 | 1.38914 | 97° | 124km/h | 11857m | 5.1m/s | 0°C | -1.0% | -1.0hPa | 2.7V | 00:00:00 | 00:00:00 | 00:00:00 | |
| DB0UT-7 | 2026-09-05 00:02:00 | 50.71320 | 1.37914 | 98° | 128km/h | 11771m | 4.2m/s | -55.8°C | 24.8% | 0hPa | 2.7V | 00:00:00 | 01:11:37 | 00:00:00 | |
| AU51GT2 | 2026-09-05 00:01:47 | 50.71379 | 1.37371 | 99° | 122km/h | 11724m | 3.8m/s | 0°C | -1.0% | -1.0hPa | 2.7V | 00:00:00 | 00:00:00 | 00:00:00 | |
| AU51GT2 | 2026-09-05 00:01:16 | 50.71538 | 1.35820 | 98° | 131km/h | 11589m | 4.1m/s | 0°C | -1.0% | -1.0hPa | 2.7V | 00:00:00 | 00:00:00 | 00:00:00 | |
| DB0UT-7 | 2026-09-05 00:00:43 | 50.71713 | 1.34324 | 103° | 124km/h | 11461m | 4.3m/s | -53.6°C | 21.0% | 0hPa | 2.7V | 00:00:00 | 00:00:00 | 00:00:00 | |
| DB0UT-7 | 2026-09-05 00:00:13 | 50.71888 | 1.32866 | 100° | 131km/h | 11330m | 3.8m/s | -53.0°C | 20.4% | 0hPa | 2.7V | 00:00:00 | 01:09:54 | 00:00:00 | |
| AU51GT2 | 2026-09-04 23:59:40 | 50.72108 | 1.31131 | 100° | 130km/h | 11187m | 4.8m/s | -51.9°C | -1.0% | -1.0hPa | 2.7V | 00:00:00 | 00:00:00 | 00:00:00 | |
| AU51GT2 | 2026-09-04 23:59:09 | 50.72297 | 1.29694 | 100° | 135km/h | 11070m | 4.5m/s | 0°C | -1.0% | -1.0hPa | 2.7V | 00:00:00 | 00:00:00 | 00:00:00 | |
| DB0UT-7 | 2026-09-04 23:58:59 | 50.72363 | 1.29162 | 102° | 133km/h | 11029m | 4.2m/s | -50.6°C | 16.9% | 0hPa | 2.7V | 00:00:00 | 00:00:00 | 08:30:00 | |
| DB0UT-7 | 2026-09-04 23:58:29 | 50.72541 | 1.27581 | 100° | 139km/h | 10910m | 3.4m/s | -49.6°C | 15.6% | 0hPa | 2.7V | 00:00:00 | 01:08:11 | 00:00:00 | |
| DB0UT-7 | 2026-09-04 23:57:22 | 50.72874 | 1.23920 | 99° | 141km/h | 10652m | 4.4m/s | -47.3°C | 13.7% | 0hPa | 2.7V | 00:00:00 | 00:00:00 | 00:00:00 | |
| DB0UT-7 | 2026-09-04 23:56:47 | 50.73074 | 1.21992 | 103° | 139km/h | 10517m | 4.8m/s | -46.3°C | 13.7% | 0hPa | 2.7V | 00:00:00 | 01:06:29 | 00:00:00 | |
| DB0UT-7 | 2026-09-04 23:55:34 | 50.73691 | 1.18099 | 106° | 139km/h | 10219m | 5.1m/s | 0°C | 0% | 0hPa | 0V | 00:00:00 | 00:00:00 | 00:00:00 | |
| DB0UT-7 | 2026-09-04 23:55:04 | 50.74012 | 1.16509 | 108° | 148km/h | 10089m | 4.9m/s | 0°C | 0% | 0hPa | 0V | 00:00:00 | 01:04:46 | 00:00:00 | |
| DB0UT-7 | 2026-09-04 23:53:51 | 50.75004 | 1.12563 | 113° | 151km/h | 9783m | 4.1m/s | 0°C | 0% | 0hPa | 0V | 00:00:00 | 00:00:00 | 00:00:00 | |
| DB0UT-7 | 2026-09-04 23:53:21 | 50.75442 | 1.10884 | 112° | 157km/h | 9662m | 4.0m/s | 0°C | 0% | 0hPa | 0V | 00:00:00 | 01:03:03 | 00:00:00 | |
| DB0UT-7 | 2026-09-04 23:52:10 | 50.76530 | 1.06789 | 114° | 159km/h | 9386m | 4.0m/s | 0°C | 0% | 0hPa | 0V | 00:00:00 | 00:00:00 | 00:00:00 |